<?xml version="1.0" encoding="UTF-8"?>
<gpx version="1.1" creator="https://www.youtrack.es" xsi:schemaLocation="http://www.topografix.com/GPX/1/1 http://www.topografix.com/GPX/1/1/gpx.xsd http://www.garmin.com/xmlschemas/GpxExtensions/v3 http://www.garmin.com/xmlschemas/GpxExtensionsv3.xsd http://www.garmin.com/xmlschemas/TrackPointExtension/v1 http://www.garmin.com/xmlschemas/TrackPointExtensionv1.xsd" xmlns:gpxtpx="http://www.garmin.com/xmlschemas/TrackPointExtension/v1" xmlns:gpxx="http://www.garmin.com/xmlschemas/GpxExtensions/v3" xmlns:xsi="http://www.w3.org/2001/XMLSchema-instance">
  <metadata>
    <link href="https://www.youtrack.es">
      <text>YouTrack.es</text>
    </link>
    <time>2026-09-04T04:24:07Z</time>
  </metadata>
  <trk>
    <src>https://www.youtrack.es</src>
    <link href="https://www.youtrack.es/ruta/20780-zaragoza-la-alfranca-zaragoza">
      <text>YouTrack.es</text>
    </link>
    <trkseg>
      <trkpt lat="41.67007841169834136962890625" lon="-0.8878267742693424224853515625">
        <ele>391.79998779296875</ele>
        <time>2021-04-01T07:15:05.000Z</time>
      </trkpt>
      <trkpt lat="41.6701300442218780517578125" lon="-0.8878113515675067901611328125">
        <ele>391.79998779296875</ele>
        <time>2021-04-01T07:15:06.000Z</time>
      </trkpt>
      <trkpt lat="41.670160554349422454833984375" lon="-0.887778662145137786865234375">
        <ele>391.79998779296875</ele>
        <time>2021-04-01T07:15:08.000Z</time>
      </trkpt>
      <trkpt lat="41.67017354629933834075927734375" lon="-0.88770330883562564849853515625">
        <ele>391.600006103515625</ele>
        <time>2021-04-01T07:15:10.000Z</time>
      </trkpt>
      <trkpt lat="41.6701308824121952056884765625" lon="-0.887425281107425689697265625">
        <ele>391.20001220703125</ele>
        <time>2021-04-01T07:15:15.000Z</time>
      </trkpt>
      <trkpt lat="41.6701375879347324371337890625" lon="-0.887358896434307098388671875">
        <ele>391</ele>
        <time>2021-04-01T07:15:16.000Z</time>
      </trkpt>
      <trkpt lat="41.670131385326385498046875" lon="-0.8871310763061046600341796875">
        <ele>391.600006103515625</ele>
        <time>2021-04-01T07:15:20.000Z</time>
      </trkpt>
      <trkpt lat="41.670131050050258636474609375" lon="-0.88707818649709224700927734375">
        <ele>391.600006103515625</ele>
        <time>2021-04-01T07:15:21.000Z</time>
      </trkpt>
      <trkpt lat="41.6701010428369045257568359375" lon="-0.88678331114351749420166015625">
        <ele>391.79998779296875</ele>
        <time>2021-04-01T07:15:28.000Z</time>
      </trkpt>
      <trkpt lat="41.67013213969767093658447265625" lon="-0.88670770637691020965576171875">
        <ele>391.79998779296875</ele>
        <time>2021-04-01T07:15:30.000Z</time>
      </trkpt>
      <trkpt lat="41.67015879414975643157958984375" lon="-0.886623300611972808837890625">
        <ele>392</ele>
        <time>2021-04-01T07:15:32.000Z</time>
      </trkpt>
      <trkpt lat="41.67014169506728649139404296875" lon="-0.88656085543334484100341796875">
        <ele>392.600006103515625</ele>
        <time>2021-04-01T07:15:34.000Z</time>
      </trkpt>
      <trkpt lat="41.670134402811527252197265625" lon="-0.88653034530580043792724609375">
        <ele>392.600006103515625</ele>
        <time>2021-04-01T07:15:35.000Z</time>
      </trkpt>
      <trkpt lat="41.670163236558437347412109375" lon="-0.88635541498661041259765625">
        <ele>392.399993896484375</ele>
        <time>2021-04-01T07:15:41.000Z</time>
      </trkpt>
      <trkpt lat="41.6701530106365680694580078125" lon="-0.88632456958293914794921875">
        <ele>392.399993896484375</ele>
        <time>2021-04-01T07:15:42.000Z</time>
      </trkpt>
      <trkpt lat="41.670133732259273529052734375" lon="-0.8863022737205028533935546875">
        <ele>392.399993896484375</ele>
        <time>2021-04-01T07:15:43.000Z</time>
      </trkpt>
      <trkpt lat="41.67009718716144561767578125" lon="-0.88626799173653125762939453125">
        <ele>392.600006103515625</ele>
        <time>2021-04-01T07:15:45.000Z</time>
      </trkpt>
      <trkpt lat="41.67008805088698863983154296875" lon="-0.886198170483112335205078125">
        <ele>392.600006103515625</ele>
        <time>2021-04-01T07:15:47.000Z</time>
      </trkpt>
      <trkpt lat="41.6701017133891582489013671875" lon="-0.88610789738595485687255859375">
        <ele>392.399993896484375</ele>
        <time>2021-04-01T07:15:49.000Z</time>
      </trkpt>
      <trkpt lat="41.67010330595076084136962890625" lon="-0.8859562687575817108154296875">
        <ele>392.20001220703125</ele>
        <time>2021-04-01T07:15:52.000Z</time>
      </trkpt>
      <trkpt lat="41.67009609751403331756591796875" lon="-0.885745547711849212646484375">
        <ele>392</ele>
        <time>2021-04-01T07:15:56.000Z</time>
      </trkpt>
      <trkpt lat="41.67009693570435047149658203125" lon="-0.88558184914290904998779296875">
        <ele>392</ele>
        <time>2021-04-01T07:15:59.000Z</time>
      </trkpt>
      <trkpt lat="41.67015108279883861541748046875" lon="-0.88517524302005767822265625">
        <ele>392.600006103515625</ele>
        <time>2021-04-01T07:16:05.000Z</time>
      </trkpt>
      <trkpt lat="41.670151166617870330810546875" lon="-0.8849920146167278289794921875">
        <ele>392.399993896484375</ele>
        <time>2021-04-01T07:16:08.000Z</time>
      </trkpt>
      <trkpt lat="41.6700951755046844482421875" lon="-0.88492051698267459869384765625">
        <ele>392.20001220703125</ele>
        <time>2021-04-01T07:16:10.000Z</time>
      </trkpt>
      <trkpt lat="41.67002585716545581817626953125" lon="-0.88490257970988750457763671875">
        <ele>392.20001220703125</ele>
        <time>2021-04-01T07:16:12.000Z</time>
      </trkpt>
      <trkpt lat="41.66998646222054958343505859375" lon="-0.884893275797367095947265625">
        <ele>392.20001220703125</ele>
        <time>2021-04-01T07:16:13.000Z</time>
      </trkpt>
      <trkpt lat="41.6699528507888317108154296875" lon="-0.8848808705806732177734375">
        <ele>392.399993896484375</ele>
        <time>2021-04-01T07:16:14.000Z</time>
      </trkpt>
      <trkpt lat="41.6698805987834930419921875" lon="-0.88484776206314563751220703125">
        <ele>392.600006103515625</ele>
        <time>2021-04-01T07:16:16.000Z</time>
      </trkpt>
      <trkpt lat="41.66978177614510059356689453125" lon="-0.88485480286180973052978515625">
        <ele>392.600006103515625</ele>
        <time>2021-04-01T07:16:19.000Z</time>
      </trkpt>
      <trkpt lat="41.66968001984059810638427734375" lon="-0.8848763443529605865478515625">
        <ele>392.399993896484375</ele>
        <time>2021-04-01T07:16:22.000Z</time>
      </trkpt>
      <trkpt lat="41.66939637623727321624755859375" lon="-0.8848944492638111114501953125">
        <ele>391.79998779296875</ele>
        <time>2021-04-01T07:16:30.000Z</time>
      </trkpt>
      <trkpt lat="41.6692279838025569915771484375" lon="-0.8849330060184001922607421875">
        <ele>392</ele>
        <time>2021-04-01T07:16:36.000Z</time>
      </trkpt>
      <trkpt lat="41.66906730271875858306884765625" lon="-0.88495337404310703277587890625">
        <ele>391.79998779296875</ele>
        <time>2021-04-01T07:16:41.000Z</time>
      </trkpt>
      <trkpt lat="41.6687820665538311004638671875" lon="-0.88492437265813350677490234375">
        <ele>392</ele>
        <time>2021-04-01T07:16:48.000Z</time>
      </trkpt>
      <trkpt lat="41.668521054089069366455078125" lon="-0.884889252483844757080078125">
        <ele>392.20001220703125</ele>
        <time>2021-04-01T07:16:53.000Z</time>
      </trkpt>
      <trkpt lat="41.6684018634259700775146484375" lon="-0.8849102072417736053466796875">
        <ele>392.20001220703125</ele>
        <time>2021-04-01T07:16:56.000Z</time>
      </trkpt>
      <trkpt lat="41.668312847614288330078125" lon="-0.8849222771823406219482421875">
        <ele>392.399993896484375</ele>
        <time>2021-04-01T07:16:58.000Z</time>
      </trkpt>
      <trkpt lat="41.66802660562098026275634765625" lon="-0.884911380708217620849609375">
        <ele>391.399993896484375</ele>
        <time>2021-04-01T07:17:05.000Z</time>
      </trkpt>
      <trkpt lat="41.66794739663600921630859375" lon="-0.88489361107349395751953125">
        <ele>391.20001220703125</ele>
        <time>2021-04-01T07:17:07.000Z</time>
      </trkpt>
      <trkpt lat="41.667867936193943023681640625" lon="-0.8848961256444454193115234375">
        <ele>391</ele>
        <time>2021-04-01T07:17:09.000Z</time>
      </trkpt>
      <trkpt lat="41.66776123456656932830810546875" lon="-0.884906686842441558837890625">
        <ele>391.399993896484375</ele>
        <time>2021-04-01T07:17:12.000Z</time>
      </trkpt>
      <trkpt lat="41.6675953567028045654296875" lon="-0.8849371969699859619140625">
        <ele>391.399993896484375</ele>
        <time>2021-04-01T07:17:17.000Z</time>
      </trkpt>
      <trkpt lat="41.66744892485439777374267578125" lon="-0.88493912480771541595458984375">
        <ele>391.399993896484375</ele>
        <time>2021-04-01T07:17:21.000Z</time>
      </trkpt>
      <trkpt lat="41.6673195920884609222412109375" lon="-0.884896628558635711669921875">
        <ele>391.79998779296875</ele>
        <time>2021-04-01T07:17:25.000Z</time>
      </trkpt>
      <trkpt lat="41.6671600006520748138427734375" lon="-0.8849145658314228057861328125">
        <ele>391.79998779296875</ele>
        <time>2021-04-01T07:17:30.000Z</time>
      </trkpt>
      <trkpt lat="41.66710107587277889251708984375" lon="-0.88491749949753284454345703125">
        <ele>391.20001220703125</ele>
        <time>2021-04-01T07:17:34.000Z</time>
      </trkpt>
      <trkpt lat="41.6671787761151790618896484375" lon="-0.88476662524044513702392578125">
        <ele>391</ele>
        <time>2021-04-01T07:17:37.000Z</time>
      </trkpt>
      <trkpt lat="41.6671286523342132568359375" lon="-0.8844314329326152801513671875">
        <ele>391.20001220703125</ele>
        <time>2021-04-01T07:17:43.000Z</time>
      </trkpt>
      <trkpt lat="41.6671388782560825347900390625" lon="-0.88414871133863925933837890625">
        <ele>390.79998779296875</ele>
        <time>2021-04-01T07:17:48.000Z</time>
      </trkpt>
      <trkpt lat="41.66714164428412914276123046875" lon="-0.8840941451489925384521484375">
        <ele>390.79998779296875</ele>
        <time>2021-04-01T07:17:49.000Z</time>
      </trkpt>
      <trkpt lat="41.66714650578796863555908203125" lon="-0.88398492895066738128662109375">
        <ele>390.79998779296875</ele>
        <time>2021-04-01T07:17:51.000Z</time>
      </trkpt>
      <trkpt lat="41.66710090823471546173095703125" lon="-0.88361822068691253662109375">
        <ele>391.399993896484375</ele>
        <time>2021-04-01T07:17:58.000Z</time>
      </trkpt>
      <trkpt lat="41.6670962981879711151123046875" lon="-0.88346131145954132080078125">
        <ele>391.399993896484375</ele>
        <time>2021-04-01T07:18:01.000Z</time>
      </trkpt>
      <trkpt lat="41.6670778580009937286376953125" lon="-0.88326944969594478607177734375">
        <ele>391.20001220703125</ele>
        <time>2021-04-01T07:18:05.000Z</time>
      </trkpt>
      <trkpt lat="41.6670564003288745880126953125" lon="-0.88307105004787445068359375">
        <ele>391.399993896484375</ele>
        <time>2021-04-01T07:18:09.000Z</time>
      </trkpt>
      <trkpt lat="41.6670000739395618438720703125" lon="-0.8828854747116565704345703125">
        <ele>391.20001220703125</ele>
        <time>2021-04-01T07:18:13.000Z</time>
      </trkpt>
      <trkpt lat="41.66685213334858417510986328125" lon="-0.88285102508962154388427734375">
        <ele>391.399993896484375</ele>
        <time>2021-04-01T07:18:16.000Z</time>
      </trkpt>
      <trkpt lat="41.6667102277278900146484375" lon="-0.88283627294003963470458984375">
        <ele>391.600006103515625</ele>
        <time>2021-04-01T07:18:19.000Z</time>
      </trkpt>
      <trkpt lat="41.666583828628063201904296875" lon="-0.88287667371332645416259765625">
        <ele>391.600006103515625</ele>
        <time>2021-04-01T07:18:22.000Z</time>
      </trkpt>
      <trkpt lat="41.66649875231087207794189453125" lon="-0.8828864805400371551513671875">
        <ele>391.399993896484375</ele>
        <time>2021-04-01T07:18:24.000Z</time>
      </trkpt>
      <trkpt lat="41.66640571318566799163818359375" lon="-0.882857479155063629150390625">
        <ele>391.20001220703125</ele>
        <time>2021-04-01T07:18:26.000Z</time>
      </trkpt>
      <trkpt lat="41.66632256470620632171630859375" lon="-0.88281364180147647857666015625">
        <ele>390.79998779296875</ele>
        <time>2021-04-01T07:18:28.000Z</time>
      </trkpt>
      <trkpt lat="41.66629121638834476470947265625" lon="-0.8827270567417144775390625">
        <ele>390.600006103515625</ele>
        <time>2021-04-01T07:18:30.000Z</time>
      </trkpt>
      <trkpt lat="41.66630999185144901275634765625" lon="-0.88256084360182285308837890625">
        <ele>390.399993896484375</ele>
        <time>2021-04-01T07:18:33.000Z</time>
      </trkpt>
      <trkpt lat="41.66635357774794101715087890625" lon="-0.88234224356710910797119140625">
        <ele>390.600006103515625</ele>
        <time>2021-04-01T07:18:37.000Z</time>
      </trkpt>
      <trkpt lat="41.666391380131244659423828125" lon="-0.88212263770401477813720703125">
        <ele>390.20001220703125</ele>
        <time>2021-04-01T07:18:41.000Z</time>
      </trkpt>
      <trkpt lat="41.66639012284576892852783203125" lon="-0.88188895024359226226806640625">
        <ele>390.20001220703125</ele>
        <time>2021-04-01T07:18:45.000Z</time>
      </trkpt>
      <trkpt lat="41.6663239896297454833984375" lon="-0.881607234477996826171875">
        <ele>390.399993896484375</ele>
        <time>2021-04-01T07:18:50.000Z</time>
      </trkpt>
      <trkpt lat="41.66628300212323665618896484375" lon="-0.88150874711573123931884765625">
        <ele>390.79998779296875</ele>
        <time>2021-04-01T07:18:52.000Z</time>
      </trkpt>
      <trkpt lat="41.6661684215068817138671875" lon="-0.88130540214478969573974609375">
        <ele>390.79998779296875</ele>
        <time>2021-04-01T07:18:57.000Z</time>
      </trkpt>
      <trkpt lat="41.666137911379337310791015625" lon="-0.88126718066632747650146484375">
        <ele>390.600006103515625</ele>
        <time>2021-04-01T07:18:58.000Z</time>
      </trkpt>
      <trkpt lat="41.66597924195230007171630859375" lon="-0.88107255287468433380126953125">
        <ele>391</ele>
        <time>2021-04-01T07:19:03.000Z</time>
      </trkpt>
      <trkpt lat="41.66578981094062328338623046875" lon="-0.88084079325199127197265625">
        <ele>391</ele>
        <time>2021-04-01T07:19:09.000Z</time>
      </trkpt>
      <trkpt lat="41.66569107212126255035400390625" lon="-0.8807583153247833251953125">
        <ele>391.20001220703125</ele>
        <time>2021-04-01T07:19:12.000Z</time>
      </trkpt>
      <trkpt lat="41.66567665524780750274658203125" lon="-0.88073861785233020782470703125">
        <ele>391.20001220703125</ele>
        <time>2021-04-01T07:19:13.000Z</time>
      </trkpt>
      <trkpt lat="41.6656710393726825714111328125" lon="-0.88072051294147968292236328125">
        <ele>391.399993896484375</ele>
        <time>2021-04-01T07:19:14.000Z</time>
      </trkpt>
      <trkpt lat="41.6656824387609958648681640625" lon="-0.88063937611877918243408203125">
        <ele>391.399993896484375</ele>
        <time>2021-04-01T07:19:17.000Z</time>
      </trkpt>
      <trkpt lat="41.665699370205402374267578125" lon="-0.88053627870976924896240234375">
        <ele>391</ele>
        <time>2021-04-01T07:19:20.000Z</time>
      </trkpt>
      <trkpt lat="41.66569241322576999664306640625" lon="-0.880427062511444091796875">
        <ele>390.79998779296875</ele>
        <time>2021-04-01T07:19:23.000Z</time>
      </trkpt>
      <trkpt lat="41.66567062027752399444580078125" lon="-0.880177952349185943603515625">
        <ele>390.600006103515625</ele>
        <time>2021-04-01T07:19:28.000Z</time>
      </trkpt>
      <trkpt lat="41.66567263193428516387939453125" lon="-0.88007460348308086395263671875">
        <ele>390.600006103515625</ele>
        <time>2021-04-01T07:19:30.000Z</time>
      </trkpt>
      <trkpt lat="41.66569945402443408966064453125" lon="-0.8798907883465290069580078125">
        <ele>390.79998779296875</ele>
        <time>2021-04-01T07:19:34.000Z</time>
      </trkpt>
      <trkpt lat="41.6657679341733455657958984375" lon="-0.87970479391515254974365234375">
        <ele>390.600006103515625</ele>
        <time>2021-04-01T07:19:38.000Z</time>
      </trkpt>
      <trkpt lat="41.665880419313907623291015625" lon="-0.87953296490013599395751953125">
        <ele>390.79998779296875</ele>
        <time>2021-04-01T07:19:42.000Z</time>
      </trkpt>
      <trkpt lat="41.66591268964111804962158203125" lon="-0.8794911392033100128173828125">
        <ele>390.79998779296875</ele>
        <time>2021-04-01T07:19:43.000Z</time>
      </trkpt>
      <trkpt lat="41.665968932211399078369140625" lon="-0.879406817257404327392578125">
        <ele>390.79998779296875</ele>
        <time>2021-04-01T07:19:45.000Z</time>
      </trkpt>
      <trkpt lat="41.6661997698247432708740234375" lon="-0.8790458925068378448486328125">
        <ele>390.20001220703125</ele>
        <time>2021-04-01T07:19:53.000Z</time>
      </trkpt>
      <trkpt lat="41.66634921915829181671142578125" lon="-0.8788142167031764984130859375">
        <ele>390.20001220703125</ele>
        <time>2021-04-01T07:19:58.000Z</time>
      </trkpt>
      <trkpt lat="41.66647352278232574462890625" lon="-0.87860793806612491607666015625">
        <ele>389.79998779296875</ele>
        <time>2021-04-01T07:20:02.000Z</time>
      </trkpt>
      <trkpt lat="41.666497327387332916259765625" lon="-0.87854909710586071014404296875">
        <ele>389.600006103515625</ele>
        <time>2021-04-01T07:20:03.000Z</time>
      </trkpt>
      <trkpt lat="41.66653043590486049652099609375" lon="-0.87842605076730251312255859375">
        <ele>389.600006103515625</ele>
        <time>2021-04-01T07:20:05.000Z</time>
      </trkpt>
      <trkpt lat="41.6665437631309032440185546875" lon="-0.87829881347715854644775390625">
        <ele>389.399993896484375</ele>
        <time>2021-04-01T07:20:07.000Z</time>
      </trkpt>
      <trkpt lat="41.66652758605778217315673828125" lon="-0.87805054150521755218505859375">
        <ele>389.399993896484375</ele>
        <time>2021-04-01T07:20:11.000Z</time>
      </trkpt>
      <trkpt lat="41.666516773402690887451171875" lon="-0.8778694085776805877685546875">
        <ele>389.399993896484375</ele>
        <time>2021-04-01T07:20:14.000Z</time>
      </trkpt>
      <trkpt lat="41.66650713421404361724853515625" lon="-0.877535305917263031005859375">
        <ele>389.399993896484375</ele>
        <time>2021-04-01T07:20:20.000Z</time>
      </trkpt>
      <trkpt lat="41.6664991714060306549072265625" lon="-0.877233557403087615966796875">
        <ele>389.600006103515625</ele>
        <time>2021-04-01T07:20:26.000Z</time>
      </trkpt>
      <trkpt lat="41.6664914600551128387451171875" lon="-0.876583121716976165771484375">
        <ele>388.79998779296875</ele>
        <time>2021-04-01T07:20:37.000Z</time>
      </trkpt>
      <trkpt lat="41.666491962969303131103515625" lon="-0.8764572255313396453857421875">
        <ele>389</ele>
        <time>2021-04-01T07:20:39.000Z</time>
      </trkpt>
      <trkpt lat="41.6665018536150455474853515625" lon="-0.87600703351199626922607421875">
        <ele>388.600006103515625</ele>
        <time>2021-04-01T07:20:46.000Z</time>
      </trkpt>
      <trkpt lat="41.666499674320220947265625" lon="-0.87527143768966197967529296875">
        <ele>388.79998779296875</ele>
        <time>2021-04-01T07:20:58.000Z</time>
      </trkpt>
      <trkpt lat="41.6664840839803218841552734375" lon="-0.87488553486764430999755859375">
        <ele>388.600006103515625</ele>
        <time>2021-04-01T07:21:05.000Z</time>
      </trkpt>
      <trkpt lat="41.6664760373532772064208984375" lon="-0.87451840750873088836669921875">
        <ele>389</ele>
        <time>2021-04-01T07:21:12.000Z</time>
      </trkpt>
      <trkpt lat="41.66647017002105712890625" lon="-0.87429394014179706573486328125">
        <ele>389.79998779296875</ele>
        <time>2021-04-01T07:21:16.000Z</time>
      </trkpt>
      <trkpt lat="41.6664736904203891754150390625" lon="-0.87417474947869777679443359375">
        <ele>390</ele>
        <time>2021-04-01T07:21:18.000Z</time>
      </trkpt>
      <trkpt lat="41.66648467071354389190673828125" lon="-0.87395145557820796966552734375">
        <ele>390.20001220703125</ele>
        <time>2021-04-01T07:21:22.000Z</time>
      </trkpt>
      <trkpt lat="41.66647796519100666046142578125" lon="-0.8734276704490184783935546875">
        <ele>390.600006103515625</ele>
        <time>2021-04-01T07:21:32.000Z</time>
      </trkpt>
      <trkpt lat="41.6664720140397548675537109375" lon="-0.8731596171855926513671875">
        <ele>390.79998779296875</ele>
        <time>2021-04-01T07:21:37.000Z</time>
      </trkpt>
      <trkpt lat="41.66646681725978851318359375" lon="-0.87294244207441806793212890625">
        <ele>391</ele>
        <time>2021-04-01T07:21:41.000Z</time>
      </trkpt>
      <trkpt lat="41.66645986028015613555908203125" lon="-0.8725239336490631103515625">
        <ele>391.600006103515625</ele>
        <time>2021-04-01T07:21:49.000Z</time>
      </trkpt>
      <trkpt lat="41.666453741490840911865234375" lon="-0.87209285236895084381103515625">
        <ele>391.600006103515625</ele>
        <time>2021-04-01T07:21:57.000Z</time>
      </trkpt>
      <trkpt lat="41.66644938290119171142578125" lon="-0.8719833008944988250732421875">
        <ele>391.79998779296875</ele>
        <time>2021-04-01T07:21:59.000Z</time>
      </trkpt>
      <trkpt lat="41.66643823496997356414794921875" lon="-0.87186654098331928253173828125">
        <ele>391.79998779296875</ele>
        <time>2021-04-01T07:22:01.000Z</time>
      </trkpt>
      <trkpt lat="41.66642096824944019317626953125" lon="-0.87168700061738491058349609375">
        <ele>391.79998779296875</ele>
        <time>2021-04-01T07:22:04.000Z</time>
      </trkpt>
      <trkpt lat="41.66639179922640323638916015625" lon="-0.87144560180604457855224609375">
        <ele>392</ele>
        <time>2021-04-01T07:22:08.000Z</time>
      </trkpt>
      <trkpt lat="41.66633849032223224639892578125" lon="-0.8710964955389499664306640625">
        <ele>392.20001220703125</ele>
        <time>2021-04-01T07:22:14.000Z</time>
      </trkpt>
      <trkpt lat="41.66627780534327030181884765625" lon="-0.8708058111369609832763671875">
        <ele>392.399993896484375</ele>
        <time>2021-04-01T07:22:19.000Z</time>
      </trkpt>
      <trkpt lat="41.66625265963375568389892578125" lon="-0.87068921886384487152099609375">
        <ele>392.600006103515625</ele>
        <time>2021-04-01T07:22:21.000Z</time>
      </trkpt>
      <trkpt lat="41.66621326468884944915771484375" lon="-0.870523341000080108642578125">
        <ele>392.79998779296875</ele>
        <time>2021-04-01T07:22:24.000Z</time>
      </trkpt>
      <trkpt lat="41.66607060469686985015869140625" lon="-0.87001179344952106475830078125">
        <ele>392</ele>
        <time>2021-04-01T07:22:33.000Z</time>
      </trkpt>
      <trkpt lat="41.66589827276766300201416015625" lon="-0.86954441852867603302001953125">
        <ele>392</ele>
        <time>2021-04-01T07:22:42.000Z</time>
      </trkpt>
      <trkpt lat="41.665827445685863494873046875" lon="-0.86935557425022125244140625">
        <ele>392.399993896484375</ele>
        <time>2021-04-01T07:22:47.000Z</time>
      </trkpt>
      <trkpt lat="41.6657468117773532867431640625" lon="-0.869174860417842864990234375">
        <ele>392.399993896484375</ele>
        <time>2021-04-01T07:22:53.000Z</time>
      </trkpt>
      <trkpt lat="41.66561110876500606536865234375" lon="-0.868851654231548309326171875">
        <ele>392.20001220703125</ele>
        <time>2021-04-01T07:23:00.000Z</time>
      </trkpt>
      <trkpt lat="41.66539452038705348968505859375" lon="-0.8684657514095306396484375">
        <ele>391.600006103515625</ele>
        <time>2021-04-01T07:23:08.000Z</time>
      </trkpt>
      <trkpt lat="41.665156222879886627197265625" lon="-0.868072472512722015380859375">
        <ele>391.20001220703125</ele>
        <time>2021-04-01T07:23:16.000Z</time>
      </trkpt>
      <trkpt lat="41.66512546129524707794189453125" lon="-0.86802653968334197998046875">
        <ele>391.20001220703125</ele>
        <time>2021-04-01T07:23:17.000Z</time>
      </trkpt>
      <trkpt lat="41.6647560708224773406982421875" lon="-0.867548771202564239501953125">
        <ele>391</ele>
        <time>2021-04-01T07:23:28.000Z</time>
      </trkpt>
      <trkpt lat="41.6644442640244960784912109375" lon="-0.8671828173100948333740234375">
        <ele>391.20001220703125</ele>
        <time>2021-04-01T07:23:37.000Z</time>
      </trkpt>
      <trkpt lat="41.664146371185779571533203125" lon="-0.86686304770410060882568359375">
        <ele>391.20001220703125</ele>
        <time>2021-04-01T07:23:45.000Z</time>
      </trkpt>
      <trkpt lat="41.66395383886992931365966796875" lon="-0.8666748739778995513916015625">
        <ele>390.79998779296875</ele>
        <time>2021-04-01T07:23:50.000Z</time>
      </trkpt>
      <trkpt lat="41.66369215585291385650634765625" lon="-0.86644194088876247406005859375">
        <ele>390.600006103515625</ele>
        <time>2021-04-01T07:23:57.000Z</time>
      </trkpt>
      <trkpt lat="41.663400717079639434814453125" lon="-0.8662046492099761962890625">
        <ele>391</ele>
        <time>2021-04-01T07:24:05.000Z</time>
      </trkpt>
      <trkpt lat="41.66334078647196292877197265625" lon="-0.86611689068377017974853515625">
        <ele>391</ele>
        <time>2021-04-01T07:24:07.000Z</time>
      </trkpt>
      <trkpt lat="41.6633016429841518402099609375" lon="-0.86608059704303741455078125">
        <ele>391.20001220703125</ele>
        <time>2021-04-01T07:24:08.000Z</time>
      </trkpt>
      <trkpt lat="41.66314624249935150146484375" lon="-0.8659312315285205841064453125">
        <ele>391.600006103515625</ele>
        <time>2021-04-01T07:24:12.000Z</time>
      </trkpt>
      <trkpt lat="41.66306586004793643951416015625" lon="-0.86586191318929195404052734375">
        <ele>392</ele>
        <time>2021-04-01T07:24:14.000Z</time>
      </trkpt>
      <trkpt lat="41.66298958472907543182373046875" lon="-0.8657907508313655853271484375">
        <ele>392</ele>
        <time>2021-04-01T07:24:16.000Z</time>
      </trkpt>
      <trkpt lat="41.66293275542557239532470703125" lon="-0.8657126314938068389892578125">
        <ele>392</ele>
        <time>2021-04-01T07:24:18.000Z</time>
      </trkpt>
      <trkpt lat="41.66279227472841739654541015625" lon="-0.865557901561260223388671875">
        <ele>391.79998779296875</ele>
        <time>2021-04-01T07:24:23.000Z</time>
      </trkpt>
      <trkpt lat="41.66271801106631755828857421875" lon="-0.8654990606009960174560546875">
        <ele>392.600006103515625</ele>
        <time>2021-04-01T07:24:27.000Z</time>
      </trkpt>
      <trkpt lat="41.66271130554378032684326171875" lon="-0.86549662984907627105712890625">
        <ele>392.600006103515625</ele>
        <time>2021-04-01T07:24:28.000Z</time>
      </trkpt>
      <trkpt lat="41.66267559863626956939697265625" lon="-0.8654571510851383209228515625">
        <ele>392</ele>
        <time>2021-04-01T07:24:33.000Z</time>
      </trkpt>
      <trkpt lat="41.662677191197872161865234375" lon="-0.8654568158090114593505859375">
        <ele>392</ele>
        <time>2021-04-01T07:24:37.000Z</time>
      </trkpt>
      <trkpt lat="41.66267626918852329254150390625" lon="-0.8654591627418994903564453125">
        <ele>392</ele>
        <time>2021-04-01T07:24:41.000Z</time>
      </trkpt>
      <trkpt lat="41.66267978958785533905029296875" lon="-0.86545941419899463653564453125">
        <ele>392</ele>
        <time>2021-04-01T07:24:42.000Z</time>
      </trkpt>
      <trkpt lat="41.6626783646643161773681640625" lon="-0.865463353693485260009765625">
        <ele>392</ele>
        <time>2021-04-01T07:24:44.000Z</time>
      </trkpt>
      <trkpt lat="41.66267157532274723052978515625" lon="-0.86546796374022960662841796875">
        <ele>392</ele>
        <time>2021-04-01T07:24:47.000Z</time>
      </trkpt>
      <trkpt lat="41.66267149150371551513671875" lon="-0.86546511389315128326416015625">
        <ele>392</ele>
        <time>2021-04-01T07:24:55.000Z</time>
      </trkpt>
      <trkpt lat="41.6626627743244171142578125" lon="-0.86545656435191631317138671875">
        <ele>392</ele>
        <time>2021-04-01T07:24:57.000Z</time>
      </trkpt>
      <trkpt lat="41.6626223735511302947998046875" lon="-0.86543074809014797210693359375">
        <ele>392</ele>
        <time>2021-04-01T07:24:59.000Z</time>
      </trkpt>
      <trkpt lat="41.66237804107367992401123046875" lon="-0.8653391338884830474853515625">
        <ele>392.20001220703125</ele>
        <time>2021-04-01T07:25:05.000Z</time>
      </trkpt>
      <trkpt lat="41.66210965253412723541259765625" lon="-0.86514375172555446624755859375">
        <ele>391.600006103515625</ele>
        <time>2021-04-01T07:25:12.000Z</time>
      </trkpt>
      <trkpt lat="41.66207646019756793975830078125" lon="-0.86511827073991298675537109375">
        <ele>391.399993896484375</ele>
        <time>2021-04-01T07:25:13.000Z</time>
      </trkpt>
      <trkpt lat="41.66186624206602573394775390625" lon="-0.864955075085163116455078125">
        <ele>391.399993896484375</ele>
        <time>2021-04-01T07:25:20.000Z</time>
      </trkpt>
      <trkpt lat="41.66180220432579517364501953125" lon="-0.86489799432456493377685546875">
        <ele>391.399993896484375</ele>
        <time>2021-04-01T07:25:22.000Z</time>
      </trkpt>
      <trkpt lat="41.66163020767271518707275390625" lon="-0.86466397158801555633544921875">
        <ele>391.600006103515625</ele>
        <time>2021-04-01T07:25:28.000Z</time>
      </trkpt>
      <trkpt lat="41.66148972697556018829345703125" lon="-0.86446297354996204376220703125">
        <ele>391.79998779296875</ele>
        <time>2021-04-01T07:25:33.000Z</time>
      </trkpt>
      <trkpt lat="41.6614438779652118682861328125" lon="-0.8644355647265911102294921875">
        <ele>391.79998779296875</ele>
        <time>2021-04-01T07:25:34.000Z</time>
      </trkpt>
      <trkpt lat="41.66114992462098598480224609375" lon="-0.86421721614897251129150390625">
        <ele>391.20001220703125</ele>
        <time>2021-04-01T07:25:41.000Z</time>
      </trkpt>
      <trkpt lat="41.66110449470579624176025390625" lon="-0.8641931600868701934814453125">
        <ele>391.20001220703125</ele>
        <time>2021-04-01T07:25:42.000Z</time>
      </trkpt>
      <trkpt lat="41.66101212613284587860107421875" lon="-0.8641214109957218170166015625">
        <ele>391.20001220703125</ele>
        <time>2021-04-01T07:25:44.000Z</time>
      </trkpt>
      <trkpt lat="41.66096116416156291961669921875" lon="-0.8640858717262744903564453125">
        <ele>391.20001220703125</ele>
        <time>2021-04-01T07:25:45.000Z</time>
      </trkpt>
      <trkpt lat="41.66091187857091426849365234375" lon="-0.86404873989522457122802734375">
        <ele>391.20001220703125</ele>
        <time>2021-04-01T07:25:46.000Z</time>
      </trkpt>
      <trkpt lat="41.66069646365940570831298828125" lon="-0.8639247715473175048828125">
        <ele>391.399993896484375</ele>
        <time>2021-04-01T07:25:51.000Z</time>
      </trkpt>
      <trkpt lat="41.66045841760933399200439453125" lon="-0.8638357557356357574462890625">
        <ele>392</ele>
        <time>2021-04-01T07:25:57.000Z</time>
      </trkpt>
      <trkpt lat="41.66040209122002124786376953125" lon="-0.86362428031861782073974609375">
        <ele>391</ele>
        <time>2021-04-01T07:26:01.000Z</time>
      </trkpt>
      <trkpt lat="41.66038088500499725341796875" lon="-0.86350626312196254730224609375">
        <ele>391</ele>
        <time>2021-04-01T07:26:03.000Z</time>
      </trkpt>
      <trkpt lat="41.660375855863094329833984375" lon="-0.86338187567889690399169921875">
        <ele>391.399993896484375</ele>
        <time>2021-04-01T07:26:05.000Z</time>
      </trkpt>
      <trkpt lat="41.6603941284120082855224609375" lon="-0.8632540516555309295654296875">
        <ele>391.20001220703125</ele>
        <time>2021-04-01T07:26:07.000Z</time>
      </trkpt>
      <trkpt lat="41.66040862910449504852294921875" lon="-0.863131172955036163330078125">
        <ele>391</ele>
        <time>2021-04-01T07:26:09.000Z</time>
      </trkpt>
      <trkpt lat="41.66042388416826725006103515625" lon="-0.86307392455637454986572265625">
        <ele>391</ele>
        <time>2021-04-01T07:26:10.000Z</time>
      </trkpt>
      <trkpt lat="41.66045690886676311492919921875" lon="-0.862941406667232513427734375">
        <ele>391</ele>
        <time>2021-04-01T07:26:12.000Z</time>
      </trkpt>
      <trkpt lat="41.66051524691283702850341796875" lon="-0.86282229982316493988037109375">
        <ele>391.20001220703125</ele>
        <time>2021-04-01T07:26:14.000Z</time>
      </trkpt>
      <trkpt lat="41.6605342738330364227294921875" lon="-0.86275759153068065643310546875">
        <ele>391.20001220703125</ele>
        <time>2021-04-01T07:26:15.000Z</time>
      </trkpt>
      <trkpt lat="41.6605855710804462432861328125" lon="-0.86256028153002262115478515625">
        <ele>390.79998779296875</ele>
        <time>2021-04-01T07:26:18.000Z</time>
      </trkpt>
      <trkpt lat="41.66061784140765666961669921875" lon="-0.862443856894969940185546875">
        <ele>390.20001220703125</ele>
        <time>2021-04-01T07:26:20.000Z</time>
      </trkpt>
      <trkpt lat="41.66063359938561916351318359375" lon="-0.8623786456882953643798828125">
        <ele>390</ele>
        <time>2021-04-01T07:26:21.000Z</time>
      </trkpt>
      <trkpt lat="41.66066142730414867401123046875" lon="-0.86224235594272613525390625">
        <ele>390.20001220703125</ele>
        <time>2021-04-01T07:26:23.000Z</time>
      </trkpt>
      <trkpt lat="41.6607384569942951202392578125" lon="-0.861975811421871185302734375">
        <ele>390.79998779296875</ele>
        <time>2021-04-01T07:26:28.000Z</time>
      </trkpt>
      <trkpt lat="41.6608162410557270050048828125" lon="-0.86168177425861358642578125">
        <ele>390.79998779296875</ele>
        <time>2021-04-01T07:26:33.000Z</time>
      </trkpt>
      <trkpt lat="41.66085387580096721649169921875" lon="-0.861462838947772979736328125">
        <ele>391</ele>
        <time>2021-04-01T07:26:36.000Z</time>
      </trkpt>
      <trkpt lat="41.66088790632784366607666015625" lon="-0.86131858639419078826904296875">
        <ele>391</ele>
        <time>2021-04-01T07:26:38.000Z</time>
      </trkpt>
      <trkpt lat="41.66092026047408580780029296875" lon="-0.861185230314731597900390625">
        <ele>390.79998779296875</ele>
        <time>2021-04-01T07:26:40.000Z</time>
      </trkpt>
      <trkpt lat="41.66093735955655574798583984375" lon="-0.8611176721751689910888671875">
        <ele>390.79998779296875</ele>
        <time>2021-04-01T07:26:41.000Z</time>
      </trkpt>
      <trkpt lat="41.66098563931882381439208984375" lon="-0.860803015530109405517578125">
        <ele>390.399993896484375</ele>
        <time>2021-04-01T07:26:46.000Z</time>
      </trkpt>
      <trkpt lat="41.66099351830780506134033203125" lon="-0.8607463538646697998046875">
        <ele>390.399993896484375</ele>
        <time>2021-04-01T07:26:47.000Z</time>
      </trkpt>
      <trkpt lat="41.661049760878086090087890625" lon="-0.86044854484498500823974609375">
        <ele>390.20001220703125</ele>
        <time>2021-04-01T07:26:52.000Z</time>
      </trkpt>
      <trkpt lat="41.6611159779131412506103515625" lon="-0.860074125230312347412109375">
        <ele>389.79998779296875</ele>
        <time>2021-04-01T07:26:58.000Z</time>
      </trkpt>
      <trkpt lat="41.661153696477413177490234375" lon="-0.85994780994951725006103515625">
        <ele>389.79998779296875</ele>
        <time>2021-04-01T07:27:00.000Z</time>
      </trkpt>
      <trkpt lat="41.661205999553203582763671875" lon="-0.8596900664269924163818359375">
        <ele>390.20001220703125</ele>
        <time>2021-04-01T07:27:04.000Z</time>
      </trkpt>
      <trkpt lat="41.6612138785421848297119140625" lon="-0.85963315330445766448974609375">
        <ele>390.20001220703125</ele>
        <time>2021-04-01T07:27:05.000Z</time>
      </trkpt>
      <trkpt lat="41.6613114438951015472412109375" lon="-0.85918874479830265045166015625">
        <ele>390.20001220703125</ele>
        <time>2021-04-01T07:27:12.000Z</time>
      </trkpt>
      <trkpt lat="41.66137321852147579193115234375" lon="-0.858987160027027130126953125">
        <ele>390.20001220703125</ele>
        <time>2021-04-01T07:27:16.000Z</time>
      </trkpt>
      <trkpt lat="41.66138260625302791595458984375" lon="-0.85896159522235393524169921875">
        <ele>390.399993896484375</ele>
        <time>2021-04-01T07:27:17.000Z</time>
      </trkpt>
      <trkpt lat="41.66140951216220855712890625" lon="-0.858926810324192047119140625">
        <ele>391</ele>
        <time>2021-04-01T07:27:20.000Z</time>
      </trkpt>
      <trkpt lat="41.6613955982029438018798828125" lon="-0.85890971124172210693359375">
        <ele>391.20001220703125</ele>
        <time>2021-04-01T07:27:23.000Z</time>
      </trkpt>
      <trkpt lat="41.66129820048809051513671875" lon="-0.85878498852252960205078125">
        <ele>391</ele>
        <time>2021-04-01T07:27:33.000Z</time>
      </trkpt>
      <trkpt lat="41.6612973622977733612060546875" lon="-0.85877618752419948577880859375">
        <ele>391</ele>
        <time>2021-04-01T07:27:38.000Z</time>
      </trkpt>
      <trkpt lat="41.6612956859171390533447265625" lon="-0.85876311175525188446044921875">
        <ele>391</ele>
        <time>2021-04-01T07:27:39.000Z</time>
      </trkpt>
      <trkpt lat="41.661298535764217376708984375" lon="-0.85874903015792369842529296875">
        <ele>390.79998779296875</ele>
        <time>2021-04-01T07:27:40.000Z</time>
      </trkpt>
      <trkpt lat="41.6613050736486911773681640625" lon="-0.8587341941893100738525390625">
        <ele>390.79998779296875</ele>
        <time>2021-04-01T07:27:41.000Z</time>
      </trkpt>
      <trkpt lat="41.6613469831645488739013671875" lon="-0.8586818911135196685791015625">
        <ele>390.600006103515625</ele>
        <time>2021-04-01T07:27:44.000Z</time>
      </trkpt>
      <trkpt lat="41.66136148385703563690185546875" lon="-0.85866772569715976715087890625">
        <ele>390.600006103515625</ele>
        <time>2021-04-01T07:27:45.000Z</time>
      </trkpt>
      <trkpt lat="41.66138227097690105438232421875" lon="-0.85865967907011508941650390625">
        <ele>390.600006103515625</ele>
        <time>2021-04-01T07:27:46.000Z</time>
      </trkpt>
      <trkpt lat="41.6614691913127899169921875" lon="-0.85863411426544189453125">
        <ele>390.399993896484375</ele>
        <time>2021-04-01T07:27:49.000Z</time>
      </trkpt>
      <trkpt lat="41.66147522628307342529296875" lon="-0.85862430743873119354248046875">
        <ele>390.399993896484375</ele>
        <time>2021-04-01T07:27:50.000Z</time>
      </trkpt>
      <trkpt lat="41.6614810936152935028076171875" lon="-0.8585803024470806121826171875">
        <ele>390.399993896484375</ele>
        <time>2021-04-01T07:27:52.000Z</time>
      </trkpt>
      <trkpt lat="41.66150649078190326690673828125" lon="-0.85840621031820774078369140625">
        <ele>390.399993896484375</ele>
        <time>2021-04-01T07:27:57.000Z</time>
      </trkpt>
      <trkpt lat="41.66150934062898159027099609375" lon="-0.85829372517764568328857421875">
        <ele>390.600006103515625</ele>
        <time>2021-04-01T07:28:01.000Z</time>
      </trkpt>
      <trkpt lat="41.66150984354317188262939453125" lon="-0.85826774127781391143798828125">
        <ele>390.600006103515625</ele>
        <time>2021-04-01T07:28:02.000Z</time>
      </trkpt>
      <trkpt lat="41.66152174584567546844482421875" lon="-0.858187191188335418701171875">
        <ele>390.600006103515625</ele>
        <time>2021-04-01T07:28:04.000Z</time>
      </trkpt>
      <trkpt lat="41.66153985075652599334716796875" lon="-0.858091302216053009033203125">
        <ele>390.600006103515625</ele>
        <time>2021-04-01T07:28:06.000Z</time>
      </trkpt>
      <trkpt lat="41.66156382299959659576416015625" lon="-0.857980661094188690185546875">
        <ele>390.600006103515625</ele>
        <time>2021-04-01T07:28:10.000Z</time>
      </trkpt>
      <trkpt lat="41.66156181134283542633056640625" lon="-0.85791754536330699920654296875">
        <ele>391.20001220703125</ele>
        <time>2021-04-01T07:28:16.000Z</time>
      </trkpt>
      <trkpt lat="41.66158745996654033660888671875" lon="-0.8578577823936939239501953125">
        <ele>391.20001220703125</ele>
        <time>2021-04-01T07:28:20.000Z</time>
      </trkpt>
      <trkpt lat="41.66160305030643939971923828125" lon="-0.85783406160771846771240234375">
        <ele>391</ele>
        <time>2021-04-01T07:28:21.000Z</time>
      </trkpt>
      <trkpt lat="41.66163146495819091796875" lon="-0.85778527893126010894775390625">
        <ele>391</ele>
        <time>2021-04-01T07:28:23.000Z</time>
      </trkpt>
      <trkpt lat="41.6616849415004253387451171875" lon="-0.85768335498869419097900390625">
        <ele>391</ele>
        <time>2021-04-01T07:28:29.000Z</time>
      </trkpt>
      <trkpt lat="41.6617000289261341094970703125" lon="-0.85762769915163516998291015625">
        <ele>391</ele>
        <time>2021-04-01T07:28:30.000Z</time>
      </trkpt>
      <trkpt lat="41.66174973361194133758544921875" lon="-0.85751186124980449676513671875">
        <ele>390.79998779296875</ele>
        <time>2021-04-01T07:28:32.000Z</time>
      </trkpt>
      <trkpt lat="41.66177957318723201751708984375" lon="-0.8574463985860347747802734375">
        <ele>390.79998779296875</ele>
        <time>2021-04-01T07:28:33.000Z</time>
      </trkpt>
      <trkpt lat="41.6618529148399829864501953125" lon="-0.8571882359683513641357421875">
        <ele>390.600006103515625</ele>
        <time>2021-04-01T07:28:37.000Z</time>
      </trkpt>
      <trkpt lat="41.66185207664966583251953125" lon="-0.85716887377202510833740234375">
        <ele>390.600006103515625</ele>
        <time>2021-04-01T07:28:38.000Z</time>
      </trkpt>
      <trkpt lat="41.6618542559444904327392578125" lon="-0.85712746717035770416259765625">
        <ele>391.20001220703125</ele>
        <time>2021-04-01T07:28:40.000Z</time>
      </trkpt>
      <trkpt lat="41.66190111078321933746337890625" lon="-0.85698514245450496673583984375">
        <ele>390.79998779296875</ele>
        <time>2021-04-01T07:28:43.000Z</time>
      </trkpt>
      <trkpt lat="41.661972105503082275390625" lon="-0.8568110503256320953369140625">
        <ele>390.79998779296875</ele>
        <time>2021-04-01T07:28:47.000Z</time>
      </trkpt>
      <trkpt lat="41.66201259009540081024169921875" lon="-0.8567128144204616546630859375">
        <ele>391</ele>
        <time>2021-04-01T07:28:50.000Z</time>
      </trkpt>
      <trkpt lat="41.66203388012945652008056640625" lon="-0.85667333565652370452880859375">
        <ele>391.20001220703125</ele>
        <time>2021-04-01T07:28:51.000Z</time>
      </trkpt>
      <trkpt lat="41.66204595007002353668212890625" lon="-0.85663327015936374664306640625">
        <ele>391.20001220703125</ele>
        <time>2021-04-01T07:28:52.000Z</time>
      </trkpt>
      <trkpt lat="41.6620319522917270660400390625" lon="-0.8565406501293182373046875">
        <ele>391.20001220703125</ele>
        <time>2021-04-01T07:28:54.000Z</time>
      </trkpt>
      <trkpt lat="41.6619474627077579498291015625" lon="-0.85641793906688690185546875">
        <ele>390.79998779296875</ele>
        <time>2021-04-01T07:28:58.000Z</time>
      </trkpt>
      <trkpt lat="41.66189767420291900634765625" lon="-0.85627041757106781005859375">
        <ele>391</ele>
        <time>2021-04-01T07:29:03.000Z</time>
      </trkpt>
      <trkpt lat="41.66187630034983158111572265625" lon="-0.856037400662899017333984375">
        <ele>390.399993896484375</ele>
        <time>2021-04-01T07:29:08.000Z</time>
      </trkpt>
      <trkpt lat="41.6618740372359752655029296875" lon="-0.8559799008071422576904296875">
        <ele>390.399993896484375</ele>
        <time>2021-04-01T07:29:10.000Z</time>
      </trkpt>
      <trkpt lat="41.661873199045658111572265625" lon="-0.8559634722769260406494140625">
        <ele>390.20001220703125</ele>
        <time>2021-04-01T07:29:12.000Z</time>
      </trkpt>
      <trkpt lat="41.66187596507370471954345703125" lon="-0.85596221499145030975341796875">
        <ele>390</ele>
        <time>2021-04-01T07:29:16.000Z</time>
      </trkpt>
      <trkpt lat="41.66187755763530731201171875" lon="-0.85596104152500629425048828125">
        <ele>390</ele>
        <time>2021-04-01T07:29:19.000Z</time>
      </trkpt>
      <trkpt lat="41.66187881492078304290771484375" lon="-0.8559572696685791015625">
        <ele>390.399993896484375</ele>
        <time>2021-04-01T07:29:25.000Z</time>
      </trkpt>
      <trkpt lat="41.66187764145433902740478515625" lon="-0.8559550903737545013427734375">
        <ele>389.79998779296875</ele>
        <time>2021-04-01T07:29:31.000Z</time>
      </trkpt>
      <trkpt lat="41.6618777252733707427978515625" lon="-0.85595483891665935516357421875">
        <ele>389.79998779296875</ele>
        <time>2021-04-01T07:29:32.000Z</time>
      </trkpt>
      <trkpt lat="41.66187755763530731201171875" lon="-0.855954252183437347412109375">
        <ele>389.79998779296875</ele>
        <time>2021-04-01T07:29:33.000Z</time>
      </trkpt>
      <trkpt lat="41.6618797369301319122314453125" lon="-0.85594444535672664642333984375">
        <ele>389.79998779296875</ele>
        <time>2021-04-01T07:29:35.000Z</time>
      </trkpt>
      <trkpt lat="41.661883927881717681884765625" lon="-0.8558880351483821868896484375">
        <ele>389.79998779296875</ele>
        <time>2021-04-01T07:29:37.000Z</time>
      </trkpt>
      <trkpt lat="41.661932878196239471435546875" lon="-0.855658538639545440673828125">
        <ele>389.399993896484375</ele>
        <time>2021-04-01T07:29:42.000Z</time>
      </trkpt>
      <trkpt lat="41.66198476217687129974365234375" lon="-0.855567343533039093017578125">
        <ele>389.20001220703125</ele>
        <time>2021-04-01T07:29:44.000Z</time>
      </trkpt>
      <trkpt lat="41.66205366142094135284423828125" lon="-0.85549391806125640869140625">
        <ele>389</ele>
        <time>2021-04-01T07:29:46.000Z</time>
      </trkpt>
      <trkpt lat="41.66209406219422817230224609375" lon="-0.85546868853271007537841796875">
        <ele>388.79998779296875</ele>
        <time>2021-04-01T07:29:47.000Z</time>
      </trkpt>
      <trkpt lat="41.66213546879589557647705078125" lon="-0.85545075125992298126220703125">
        <ele>388.79998779296875</ele>
        <time>2021-04-01T07:29:48.000Z</time>
      </trkpt>
      <trkpt lat="41.6622941382229328155517578125" lon="-0.855430550873279571533203125">
        <ele>389</ele>
        <time>2021-04-01T07:29:52.000Z</time>
      </trkpt>
      <trkpt lat="41.66240536607801914215087890625" lon="-0.85539643652737140655517578125">
        <ele>389.399993896484375</ele>
        <time>2021-04-01T07:29:55.000Z</time>
      </trkpt>
      <trkpt lat="41.66243487037718296051025390625" lon="-0.85535444319248199462890625">
        <ele>389.600006103515625</ele>
        <time>2021-04-01T07:29:56.000Z</time>
      </trkpt>
      <trkpt lat="41.66256286203861236572265625" lon="-0.85503081791102886199951171875">
        <ele>389</ele>
        <time>2021-04-01T07:30:02.000Z</time>
      </trkpt>
      <trkpt lat="41.66257518343627452850341796875" lon="-0.8549737371504306793212890625">
        <ele>388.79998779296875</ele>
        <time>2021-04-01T07:30:03.000Z</time>
      </trkpt>
      <trkpt lat="41.662596724927425384521484375" lon="-0.8548071049153804779052734375">
        <ele>389</ele>
        <time>2021-04-01T07:30:06.000Z</time>
      </trkpt>
      <trkpt lat="41.6625784523785114288330078125" lon="-0.8546961285173892974853515625">
        <ele>389</ele>
        <time>2021-04-01T07:30:08.000Z</time>
      </trkpt>
      <trkpt lat="41.66257417760789394378662109375" lon="-0.85453662090003490447998046875">
        <ele>389.20001220703125</ele>
        <time>2021-04-01T07:30:11.000Z</time>
      </trkpt>
      <trkpt lat="41.662578284740447998046875" lon="-0.8544835634529590606689453125">
        <ele>389.20001220703125</ele>
        <time>2021-04-01T07:30:12.000Z</time>
      </trkpt>
      <trkpt lat="41.66258742101490497589111328125" lon="-0.8543809689581394195556640625">
        <ele>389.79998779296875</ele>
        <time>2021-04-01T07:30:14.000Z</time>
      </trkpt>
      <trkpt lat="41.66263301856815814971923828125" lon="-0.854153819382190704345703125">
        <ele>390</ele>
        <time>2021-04-01T07:30:19.000Z</time>
      </trkpt>
      <trkpt lat="41.662653721868991851806640625" lon="-0.854070000350475311279296875">
        <ele>390.20001220703125</ele>
        <time>2021-04-01T07:30:21.000Z</time>
      </trkpt>
      <trkpt lat="41.66266604326665401458740234375" lon="-0.85403387434780597686767578125">
        <ele>390.399993896484375</ele>
        <time>2021-04-01T07:30:22.000Z</time>
      </trkpt>
      <trkpt lat="41.66274365969002246856689453125" lon="-0.85392750799655914306640625">
        <ele>390.399993896484375</ele>
        <time>2021-04-01T07:30:27.000Z</time>
      </trkpt>
      <trkpt lat="41.6628022491931915283203125" lon="-0.85388459265232086181640625">
        <ele>390.79998779296875</ele>
        <time>2021-04-01T07:30:31.000Z</time>
      </trkpt>
      <trkpt lat="41.66280426084995269775390625" lon="-0.85388484410941600799560546875">
        <ele>390.79998779296875</ele>
        <time>2021-04-01T07:30:32.000Z</time>
      </trkpt>
      <trkpt lat="41.662850193679332733154296875" lon="-0.85387428291141986846923828125">
        <ele>390.20001220703125</ele>
        <time>2021-04-01T07:31:43.000Z</time>
      </trkpt>
      <trkpt lat="41.6628667898476123809814453125" lon="-0.85385517217218875885009765625">
        <ele>390.20001220703125</ele>
        <time>2021-04-01T07:31:44.000Z</time>
      </trkpt>
      <trkpt lat="41.6628855653107166290283203125" lon="-0.85383036173880100250244140625">
        <ele>390.20001220703125</ele>
        <time>2021-04-01T07:31:45.000Z</time>
      </trkpt>
      <trkpt lat="41.66291900910437107086181640625" lon="-0.8537553437054157257080078125">
        <ele>390.20001220703125</ele>
        <time>2021-04-01T07:31:47.000Z</time>
      </trkpt>
      <trkpt lat="41.66294482536613941192626953125" lon="-0.85365501232445240020751953125">
        <ele>390</ele>
        <time>2021-04-01T07:31:49.000Z</time>
      </trkpt>
      <trkpt lat="41.6629472561180591583251953125" lon="-0.85359089076519012451171875">
        <ele>389.600006103515625</ele>
        <time>2021-04-01T07:31:50.000Z</time>
      </trkpt>
      <trkpt lat="41.66293661110103130340576171875" lon="-0.8533729612827301025390625">
        <ele>388.600006103515625</ele>
        <time>2021-04-01T07:31:53.000Z</time>
      </trkpt>
      <trkpt lat="41.66293426416814327239990234375" lon="-0.8533017151057720184326171875">
        <ele>388.20001220703125</ele>
        <time>2021-04-01T07:31:54.000Z</time>
      </trkpt>
      <trkpt lat="41.6629462502896785736083984375" lon="-0.853170119225978851318359375">
        <ele>388</ele>
        <time>2021-04-01T07:31:56.000Z</time>
      </trkpt>
      <trkpt lat="41.66295471601188182830810546875" lon="-0.85305335931479930877685546875">
        <ele>388</ele>
        <time>2021-04-01T07:31:58.000Z</time>
      </trkpt>
      <trkpt lat="41.6629479266703128814697265625" lon="-0.85287616588175296783447265625">
        <ele>388.399993896484375</ele>
        <time>2021-04-01T07:32:01.000Z</time>
      </trkpt>
      <trkpt lat="41.662978939712047576904296875" lon="-0.8526985533535480499267578125">
        <ele>388.600006103515625</ele>
        <time>2021-04-01T07:32:04.000Z</time>
      </trkpt>
      <trkpt lat="41.66293644346296787261962890625" lon="-0.85236671380698680877685546875">
        <ele>388</ele>
        <time>2021-04-01T07:32:09.000Z</time>
      </trkpt>
      <trkpt lat="41.6628872416913509368896484375" lon="-0.85217862389981746673583984375">
        <ele>388.20001220703125</ele>
        <time>2021-04-01T07:32:12.000Z</time>
      </trkpt>
      <trkpt lat="41.66287123225629329681396484375" lon="-0.85211777128279209136962890625">
        <ele>388.20001220703125</ele>
        <time>2021-04-01T07:32:13.000Z</time>
      </trkpt>
      <trkpt lat="41.66284759528934955596923828125" lon="-0.852004699409008026123046875">
        <ele>388.20001220703125</ele>
        <time>2021-04-01T07:32:15.000Z</time>
      </trkpt>
      <trkpt lat="41.66281322948634624481201171875" lon="-0.85185843519866466522216796875">
        <ele>388.600006103515625</ele>
        <time>2021-04-01T07:32:18.000Z</time>
      </trkpt>
      <trkpt lat="41.66275690309703350067138671875" lon="-0.85174092091619968414306640625">
        <ele>389.79998779296875</ele>
        <time>2021-04-01T07:32:21.000Z</time>
      </trkpt>
      <trkpt lat="41.66269118897616863250732421875" lon="-0.85170554928481578826904296875">
        <ele>390</ele>
        <time>2021-04-01T07:32:23.000Z</time>
      </trkpt>
      <trkpt lat="41.6626005806028842926025390625" lon="-0.85165995173156261444091796875">
        <ele>390</ele>
        <time>2021-04-01T07:32:26.000Z</time>
      </trkpt>
      <trkpt lat="41.6625338606536388397216796875" lon="-0.85162189789116382598876953125">
        <ele>390.20001220703125</ele>
        <time>2021-04-01T07:32:28.000Z</time>
      </trkpt>
      <trkpt lat="41.66243822313845157623291015625" lon="-0.85154109634459018707275390625">
        <ele>390.20001220703125</ele>
        <time>2021-04-01T07:32:31.000Z</time>
      </trkpt>
      <trkpt lat="41.66240452788770198822021484375" lon="-0.85150991566479206085205078125">
        <ele>390.20001220703125</ele>
        <time>2021-04-01T07:32:32.000Z</time>
      </trkpt>
      <trkpt lat="41.6621263325214385986328125" lon="-0.8511807583272457122802734375">
        <ele>389.600006103515625</ele>
        <time>2021-04-01T07:32:41.000Z</time>
      </trkpt>
      <trkpt lat="41.66193312965333461761474609375" lon="-0.85100591182708740234375">
        <ele>389.399993896484375</ele>
        <time>2021-04-01T07:32:47.000Z</time>
      </trkpt>
      <trkpt lat="41.661770604550838470458984375" lon="-0.85086082108318805694580078125">
        <ele>390.20001220703125</ele>
        <time>2021-04-01T07:32:52.000Z</time>
      </trkpt>
      <trkpt lat="41.66171352379024028778076171875" lon="-0.85080047138035297393798828125">
        <ele>390.20001220703125</ele>
        <time>2021-04-01T07:32:54.000Z</time>
      </trkpt>
      <trkpt lat="41.66165334172546863555908203125" lon="-0.85074934177100658416748046875">
        <ele>390</ele>
        <time>2021-04-01T07:32:56.000Z</time>
      </trkpt>
      <trkpt lat="41.66159785352647304534912109375" lon="-0.8507039956748485565185546875">
        <ele>389.399993896484375</ele>
        <time>2021-04-01T07:32:58.000Z</time>
      </trkpt>
      <trkpt lat="41.6615253500640392303466796875" lon="-0.85063601844012737274169921875">
        <ele>388.79998779296875</ele>
        <time>2021-04-01T07:33:01.000Z</time>
      </trkpt>
      <trkpt lat="41.66145720519125461578369140625" lon="-0.85057131014764308929443359375">
        <ele>388.600006103515625</ele>
        <time>2021-04-01T07:33:04.000Z</time>
      </trkpt>
      <trkpt lat="41.66132234036922454833984375" lon="-0.85043602623045444488525390625">
        <ele>388.600006103515625</ele>
        <time>2021-04-01T07:33:10.000Z</time>
      </trkpt>
      <trkpt lat="41.66126827709376811981201171875" lon="-0.85039109922945499420166015625">
        <ele>388.79998779296875</ele>
        <time>2021-04-01T07:33:15.000Z</time>
      </trkpt>
      <trkpt lat="41.66126660071313381195068359375" lon="-0.8503885008394718170166015625">
        <ele>388.79998779296875</ele>
        <time>2021-04-01T07:33:19.000Z</time>
      </trkpt>
      <trkpt lat="41.661280095577239990234375" lon="-0.8503938652575016021728515625">
        <ele>389.20001220703125</ele>
        <time>2021-04-01T07:33:23.000Z</time>
      </trkpt>
      <trkpt lat="41.66129124350845813751220703125" lon="-0.8503858186304569244384765625">
        <ele>389.399993896484375</ele>
        <time>2021-04-01T07:33:26.000Z</time>
      </trkpt>
      <trkpt lat="41.66131270118057727813720703125" lon="-0.850395374000072479248046875">
        <ele>389.20001220703125</ele>
        <time>2021-04-01T07:33:28.000Z</time>
      </trkpt>
      <trkpt lat="41.66142099536955356597900390625" lon="-0.8505293168127536773681640625">
        <ele>389.600006103515625</ele>
        <time>2021-04-01T07:33:33.000Z</time>
      </trkpt>
      <trkpt lat="41.66156516410410404205322265625" lon="-0.85065127350389957427978515625">
        <ele>389.79998779296875</ele>
        <time>2021-04-01T07:33:38.000Z</time>
      </trkpt>
      <trkpt lat="41.66162350215017795562744140625" lon="-0.850706510245800018310546875">
        <ele>390.20001220703125</ele>
        <time>2021-04-01T07:33:40.000Z</time>
      </trkpt>
      <trkpt lat="41.6617550142109394073486328125" lon="-0.850853361189365386962890625">
        <ele>390.399993896484375</ele>
        <time>2021-04-01T07:33:45.000Z</time>
      </trkpt>
      <trkpt lat="41.66178376413881778717041015625" lon="-0.85088412277400493621826171875">
        <ele>390.20001220703125</ele>
        <time>2021-04-01T07:33:46.000Z</time>
      </trkpt>
      <trkpt lat="41.661981157958507537841796875" lon="-0.85105083882808685302734375">
        <ele>389.600006103515625</ele>
        <time>2021-04-01T07:33:52.000Z</time>
      </trkpt>
      <trkpt lat="41.6621684096753597259521484375" lon="-0.85121604613959789276123046875">
        <ele>389.600006103515625</ele>
        <time>2021-04-01T07:33:58.000Z</time>
      </trkpt>
      <trkpt lat="41.66221878491342067718505859375" lon="-0.85128025151789188385009765625">
        <ele>389.399993896484375</ele>
        <time>2021-04-01T07:34:00.000Z</time>
      </trkpt>
      <trkpt lat="41.66234116069972515106201171875" lon="-0.85141134448349475860595703125">
        <ele>389.20001220703125</ele>
        <time>2021-04-01T07:34:04.000Z</time>
      </trkpt>
      <trkpt lat="41.6624079644680023193359375" lon="-0.8514808304607868194580078125">
        <ele>389</ele>
        <time>2021-04-01T07:34:06.000Z</time>
      </trkpt>
      <trkpt lat="41.66248013265430927276611328125" lon="-0.851548053324222564697265625">
        <ele>389.399993896484375</ele>
        <time>2021-04-01T07:34:08.000Z</time>
      </trkpt>
      <trkpt lat="41.66258691810071468353271484375" lon="-0.851659364998340606689453125">
        <ele>389.399993896484375</ele>
        <time>2021-04-01T07:34:11.000Z</time>
      </trkpt>
      <trkpt lat="41.6626223735511302947998046875" lon="-0.8516876958310604095458984375">
        <ele>389.600006103515625</ele>
        <time>2021-04-01T07:34:12.000Z</time>
      </trkpt>
      <trkpt lat="41.66269504465162754058837890625" lon="-0.85173421539366245269775390625">
        <ele>389.79998779296875</ele>
        <time>2021-04-01T07:34:14.000Z</time>
      </trkpt>
      <trkpt lat="41.66281373240053653717041015625" lon="-0.85175785236060619354248046875">
        <ele>389.79998779296875</ele>
        <time>2021-04-01T07:34:17.000Z</time>
      </trkpt>
      <trkpt lat="41.66297399438917636871337890625" lon="-0.85177235305309295654296875">
        <ele>389.600006103515625</ele>
        <time>2021-04-01T07:34:21.000Z</time>
      </trkpt>
      <trkpt lat="41.663016490638256072998046875" lon="-0.8517695032060146331787109375">
        <ele>389.600006103515625</ele>
        <time>2021-04-01T07:34:22.000Z</time>
      </trkpt>
      <trkpt lat="41.66306066326797008514404296875" lon="-0.8517684973776340484619140625">
        <ele>389.399993896484375</ele>
        <time>2021-04-01T07:34:23.000Z</time>
      </trkpt>
      <trkpt lat="41.663102991878986358642578125" lon="-0.8517636358737945556640625">
        <ele>389.600006103515625</ele>
        <time>2021-04-01T07:34:24.000Z</time>
      </trkpt>
      <trkpt lat="41.663145907223224639892578125" lon="-0.85175969637930393218994140625">
        <ele>389.600006103515625</ele>
        <time>2021-04-01T07:34:25.000Z</time>
      </trkpt>
      <trkpt lat="41.663318909704685211181640625" lon="-0.851761959493160247802734375">
        <ele>389.600006103515625</ele>
        <time>2021-04-01T07:34:29.000Z</time>
      </trkpt>
      <trkpt lat="41.6633616574108600616455078125" lon="-0.85175734944641590118408203125">
        <ele>389.600006103515625</ele>
        <time>2021-04-01T07:34:30.000Z</time>
      </trkpt>
      <trkpt lat="41.6635103523731231689453125" lon="-0.8516642265021800994873046875">
        <ele>389.399993896484375</ele>
        <time>2021-04-01T07:34:34.000Z</time>
      </trkpt>
      <trkpt lat="41.66353608481585979461669921875" lon="-0.85161552764475345611572265625">
        <ele>389.399993896484375</ele>
        <time>2021-04-01T07:34:35.000Z</time>
      </trkpt>
      <trkpt lat="41.66357380338013172149658203125" lon="-0.8515012823045253753662109375">
        <ele>389.399993896484375</ele>
        <time>2021-04-01T07:34:37.000Z</time>
      </trkpt>
      <trkpt lat="41.6635899804532527923583984375" lon="-0.85143883712589740753173828125">
        <ele>389.399993896484375</ele>
        <time>2021-04-01T07:34:38.000Z</time>
      </trkpt>
      <trkpt lat="41.6636442951858043670654296875" lon="-0.85127052851021289825439453125">
        <ele>389.600006103515625</ele>
        <time>2021-04-01T07:34:41.000Z</time>
      </trkpt>
      <trkpt lat="41.66368109174072742462158203125" lon="-0.8511596359312534332275390625">
        <ele>389.600006103515625</ele>
        <time>2021-04-01T07:34:43.000Z</time>
      </trkpt>
      <trkpt lat="41.66371612809598445892333984375" lon="-0.85105142556130886077880859375">
        <ele>390</ele>
        <time>2021-04-01T07:34:45.000Z</time>
      </trkpt>
      <trkpt lat="41.66376038454473018646240234375" lon="-0.850790999829769134521484375">
        <ele>390</ele>
        <time>2021-04-01T07:34:50.000Z</time>
      </trkpt>
      <trkpt lat="41.66379357688128948211669921875" lon="-0.85062512196600437164306640625">
        <ele>389.79998779296875</ele>
        <time>2021-04-01T07:34:53.000Z</time>
      </trkpt>
      <trkpt lat="41.6638364084064960479736328125" lon="-0.85047550499439239501953125">
        <ele>390</ele>
        <time>2021-04-01T07:34:56.000Z</time>
      </trkpt>
      <trkpt lat="41.66386306285858154296875" lon="-0.8503127284348011016845703125">
        <ele>390.20001220703125</ele>
        <time>2021-04-01T07:34:59.000Z</time>
      </trkpt>
      <trkpt lat="41.6638830117881298065185546875" lon="-0.8502047695219516754150390625">
        <ele>390</ele>
        <time>2021-04-01T07:35:01.000Z</time>
      </trkpt>
      <trkpt lat="41.66389365680515766143798828125" lon="-0.850148610770702362060546875">
        <ele>390.20001220703125</ele>
        <time>2021-04-01T07:35:02.000Z</time>
      </trkpt>
      <trkpt lat="41.66391469538211822509765625" lon="-0.85003335960209369659423828125">
        <ele>390</ele>
        <time>2021-04-01T07:35:04.000Z</time>
      </trkpt>
      <trkpt lat="41.66391679085791110992431640625" lon="-0.84997502155601978302001953125">
        <ele>390</ele>
        <time>2021-04-01T07:35:05.000Z</time>
      </trkpt>
      <trkpt lat="41.66394294239580631256103515625" lon="-0.84968534298241138458251953125">
        <ele>390</ele>
        <time>2021-04-01T07:35:10.000Z</time>
      </trkpt>
      <trkpt lat="41.66394889354705810546875" lon="-0.84962516091763973236083984375">
        <ele>390</ele>
        <time>2021-04-01T07:35:11.000Z</time>
      </trkpt>
      <trkpt lat="41.66397571563720703125" lon="-0.8493910543620586395263671875">
        <ele>390.399993896484375</ele>
        <time>2021-04-01T07:35:15.000Z</time>
      </trkpt>
      <trkpt lat="41.66399491019546985626220703125" lon="-0.84927798248827457427978515625">
        <ele>390.399993896484375</ele>
        <time>2021-04-01T07:35:17.000Z</time>
      </trkpt>
      <trkpt lat="41.66407269425690174102783203125" lon="-0.8491198159754276275634765625">
        <ele>390.79998779296875</ele>
        <time>2021-04-01T07:35:21.000Z</time>
      </trkpt>
      <trkpt lat="41.66410370729863643646240234375" lon="-0.84909274242818355560302734375">
        <ele>391</ele>
        <time>2021-04-01T07:35:22.000Z</time>
      </trkpt>
      <trkpt lat="41.66425106115639209747314453125" lon="-0.84896265529096126556396484375">
        <ele>391.600006103515625</ele>
        <time>2021-04-01T07:35:27.000Z</time>
      </trkpt>
      <trkpt lat="41.66445222683250904083251953125" lon="-0.8487381041049957275390625">
        <ele>391.399993896484375</ele>
        <time>2021-04-01T07:35:35.000Z</time>
      </trkpt>
      <trkpt lat="41.6645592637360095977783203125" lon="-0.84860323928296566009521484375">
        <ele>390.79998779296875</ele>
        <time>2021-04-01T07:35:39.000Z</time>
      </trkpt>
      <trkpt lat="41.6646400652825832366943359375" lon="-0.84845387376844882965087890625">
        <ele>391.600006103515625</ele>
        <time>2021-04-01T07:35:43.000Z</time>
      </trkpt>
      <trkpt lat="41.66470586322247982025146484375" lon="-0.84828003309667110443115234375">
        <ele>392</ele>
        <time>2021-04-01T07:35:47.000Z</time>
      </trkpt>
      <trkpt lat="41.6647200286388397216796875" lon="-0.8482338488101959228515625">
        <ele>392</ele>
        <time>2021-04-01T07:35:48.000Z</time>
      </trkpt>
      <trkpt lat="41.664765290915966033935546875" lon="-0.8480955474078655242919921875">
        <ele>391.79998779296875</ele>
        <time>2021-04-01T07:35:51.000Z</time>
      </trkpt>
      <trkpt lat="41.66479789651930332183837890625" lon="-0.84800443612039089202880859375">
        <ele>391.79998779296875</ele>
        <time>2021-04-01T07:35:53.000Z</time>
      </trkpt>
      <trkpt lat="41.66491675190627574920654296875" lon="-0.8477103151381015777587890625">
        <ele>391.399993896484375</ele>
        <time>2021-04-01T07:36:00.000Z</time>
      </trkpt>
      <trkpt lat="41.665112972259521484375" lon="-0.847318880259990692138671875">
        <ele>391.79998779296875</ele>
        <time>2021-04-01T07:36:09.000Z</time>
      </trkpt>
      <trkpt lat="41.66524465195834636688232421875" lon="-0.84706130437552928924560546875">
        <ele>391</ele>
        <time>2021-04-01T07:36:15.000Z</time>
      </trkpt>
      <trkpt lat="41.66526862420141696929931640625" lon="-0.8470172993838787078857421875">
        <ele>390.79998779296875</ele>
        <time>2021-04-01T07:36:16.000Z</time>
      </trkpt>
      <trkpt lat="41.66542771272361278533935546875" lon="-0.8467225916683673858642578125">
        <ele>391.79998779296875</ele>
        <time>2021-04-01T07:36:23.000Z</time>
      </trkpt>
      <trkpt lat="41.665587387979030609130859375" lon="-0.8464681170880794525146484375">
        <ele>392</ele>
        <time>2021-04-01T07:36:30.000Z</time>
      </trkpt>
      <trkpt lat="41.66564069688320159912109375" lon="-0.84641489200294017791748046875">
        <ele>393.20001220703125</ele>
        <time>2021-04-01T07:36:32.000Z</time>
      </trkpt>
      <trkpt lat="41.66574907489120960235595703125" lon="-0.84632336162030696868896484375">
        <ele>393.600006103515625</ele>
        <time>2021-04-01T07:36:36.000Z</time>
      </trkpt>
      <trkpt lat="41.665876396000385284423828125" lon="-0.84623618982732295989990234375">
        <ele>392</ele>
        <time>2021-04-01T07:36:40.000Z</time>
      </trkpt>
      <trkpt lat="41.66599097661674022674560546875" lon="-0.84612856619060039520263671875">
        <ele>392.399993896484375</ele>
        <time>2021-04-01T07:36:44.000Z</time>
      </trkpt>
      <trkpt lat="41.6661531664431095123291015625" lon="-0.84586210548877716064453125">
        <ele>392.399993896484375</ele>
        <time>2021-04-01T07:36:51.000Z</time>
      </trkpt>
      <trkpt lat="41.6662180423736572265625" lon="-0.84574283100664615631103515625">
        <ele>392.600006103515625</ele>
        <time>2021-04-01T07:36:54.000Z</time>
      </trkpt>
      <trkpt lat="41.66628040373325347900390625" lon="-0.8456202037632465362548828125">
        <ele>392.600006103515625</ele>
        <time>2021-04-01T07:36:57.000Z</time>
      </trkpt>
      <trkpt lat="41.6663010232150554656982421875" lon="-0.845575444400310516357421875">
        <ele>392.79998779296875</ele>
        <time>2021-04-01T07:36:58.000Z</time>
      </trkpt>
      <trkpt lat="41.66633681394159793853759765625" lon="-0.84548030979931354522705078125">
        <ele>392.79998779296875</ele>
        <time>2021-04-01T07:37:00.000Z</time>
      </trkpt>
      <trkpt lat="41.666365228593349456787109375" lon="-0.8453275077044963836669921875">
        <ele>393</ele>
        <time>2021-04-01T07:37:03.000Z</time>
      </trkpt>
      <trkpt lat="41.6663695871829986572265625" lon="-0.84509641863405704498291015625">
        <ele>393.20001220703125</ele>
        <time>2021-04-01T07:37:08.000Z</time>
      </trkpt>
      <trkpt lat="41.666379980742931365966796875" lon="-0.84498946554958820343017578125">
        <ele>393.79998779296875</ele>
        <time>2021-04-01T07:37:11.000Z</time>
      </trkpt>
      <trkpt lat="41.6663808189332485198974609375" lon="-0.844935737550258636474609375">
        <ele>394.600006103515625</ele>
        <time>2021-04-01T07:37:13.000Z</time>
      </trkpt>
      <trkpt lat="41.6663640551269054412841796875" lon="-0.8448621444404125213623046875">
        <ele>395.399993896484375</ele>
        <time>2021-04-01T07:37:17.000Z</time>
      </trkpt>
      <trkpt lat="41.66625626385211944580078125" lon="-0.8447067439556121826171875">
        <ele>395</ele>
        <time>2021-04-01T07:37:22.000Z</time>
      </trkpt>
      <trkpt lat="41.66617470793426036834716796875" lon="-0.84449141286313533782958984375">
        <ele>394.20001220703125</ele>
        <time>2021-04-01T07:37:27.000Z</time>
      </trkpt>
      <trkpt lat="41.66614939458668231964111328125" lon="-0.84437389858067035675048828125">
        <ele>393.600006103515625</ele>
        <time>2021-04-01T07:37:29.000Z</time>
      </trkpt>
      <trkpt lat="41.66613020002841949462890625" lon="-0.84431254304945468902587890625">
        <ele>393.399993896484375</ele>
        <time>2021-04-01T07:37:30.000Z</time>
      </trkpt>
      <trkpt lat="41.66609088890254497528076171875" lon="-0.844185389578342437744140625">
        <ele>392.399993896484375</ele>
        <time>2021-04-01T07:37:32.000Z</time>
      </trkpt>
      <trkpt lat="41.66607462801039218902587890625" lon="-0.84411732852458953857421875">
        <ele>392</ele>
        <time>2021-04-01T07:37:33.000Z</time>
      </trkpt>
      <trkpt lat="41.6660626418888568878173828125" lon="-0.84404801018536090850830078125">
        <ele>391.399993896484375</ele>
        <time>2021-04-01T07:37:34.000Z</time>
      </trkpt>
      <trkpt lat="41.66602500714361667633056640625" lon="-0.84384315647184848785400390625">
        <ele>390.399993896484375</ele>
        <time>2021-04-01T07:37:37.000Z</time>
      </trkpt>
      <trkpt lat="41.6660089977085590362548828125" lon="-0.8437781967222690582275390625">
        <ele>390.399993896484375</ele>
        <time>2021-04-01T07:37:38.000Z</time>
      </trkpt>
      <trkpt lat="41.665989048779010772705078125" lon="-0.84372027777135372161865234375">
        <ele>390.20001220703125</ele>
        <time>2021-04-01T07:37:39.000Z</time>
      </trkpt>
      <trkpt lat="41.66593573987483978271484375" lon="-0.8436363749206066131591796875">
        <ele>390</ele>
        <time>2021-04-01T07:37:41.000Z</time>
      </trkpt>
      <trkpt lat="41.66590162552893161773681640625" lon="-0.84361516870558261871337890625">
        <ele>390</ele>
        <time>2021-04-01T07:37:42.000Z</time>
      </trkpt>
      <trkpt lat="41.6658715344965457916259765625" lon="-0.8436041884124279022216796875">
        <ele>389.79998779296875</ele>
        <time>2021-04-01T07:37:43.000Z</time>
      </trkpt>
      <trkpt lat="41.6658504121005535125732421875" lon="-0.8435882627964019775390625">
        <ele>389.79998779296875</ele>
        <time>2021-04-01T07:37:44.000Z</time>
      </trkpt>
      <trkpt lat="41.66583247482776641845703125" lon="-0.84354694001376628875732421875">
        <ele>389.79998779296875</ele>
        <time>2021-04-01T07:37:46.000Z</time>
      </trkpt>
      <trkpt lat="41.6658380068838596343994140625" lon="-0.84351240657269954681396484375">
        <ele>390</ele>
        <time>2021-04-01T07:37:48.000Z</time>
      </trkpt>
      <trkpt lat="41.66592878289520740509033203125" lon="-0.84341685287654399871826171875">
        <ele>390</ele>
        <time>2021-04-01T07:37:53.000Z</time>
      </trkpt>
      <trkpt lat="41.6660638153553009033203125" lon="-0.8433376438915729522705078125">
        <ele>389.399993896484375</ele>
        <time>2021-04-01T07:37:59.000Z</time>
      </trkpt>
      <trkpt lat="41.666304878890514373779296875" lon="-0.84324150346219539642333984375">
        <ele>389.600006103515625</ele>
        <time>2021-04-01T07:38:05.000Z</time>
      </trkpt>
      <trkpt lat="41.66638559661805629730224609375" lon="-0.8431993424892425537109375">
        <ele>389.79998779296875</ele>
        <time>2021-04-01T07:38:07.000Z</time>
      </trkpt>
      <trkpt lat="41.66647310368716716766357421875" lon="-0.8431552536785602569580078125">
        <ele>389.600006103515625</ele>
        <time>2021-04-01T07:38:09.000Z</time>
      </trkpt>
      <trkpt lat="41.66651434265077114105224609375" lon="-0.843132622539997100830078125">
        <ele>389.399993896484375</ele>
        <time>2021-04-01T07:38:10.000Z</time>
      </trkpt>
      <trkpt lat="41.6666339524090290069580078125" lon="-0.84306565113365650177001953125">
        <ele>389.399993896484375</ele>
        <time>2021-04-01T07:38:13.000Z</time>
      </trkpt>
      <trkpt lat="41.6667102277278900146484375" lon="-0.843024663627147674560546875">
        <ele>389.20001220703125</ele>
        <time>2021-04-01T07:38:15.000Z</time>
      </trkpt>
      <trkpt lat="41.6667531430721282958984375" lon="-0.843011252582073211669921875">
        <ele>389.20001220703125</ele>
        <time>2021-04-01T07:38:16.000Z</time>
      </trkpt>
      <trkpt lat="41.66679563932120800018310546875" lon="-0.84299256093800067901611328125">
        <ele>389.20001220703125</ele>
        <time>2021-04-01T07:38:17.000Z</time>
      </trkpt>
      <trkpt lat="41.6668357886373996734619140625" lon="-0.8429688401520252227783203125">
        <ele>389.20001220703125</ele>
        <time>2021-04-01T07:38:18.000Z</time>
      </trkpt>
      <trkpt lat="41.66695103980600833892822265625" lon="-0.84290890954434871673583984375">
        <ele>389.600006103515625</ele>
        <time>2021-04-01T07:38:21.000Z</time>
      </trkpt>
      <trkpt lat="41.6670949570834636688232421875" lon="-0.84287948906421661376953125">
        <ele>390.20001220703125</ele>
        <time>2021-04-01T07:38:25.000Z</time>
      </trkpt>
      <trkpt lat="41.6671382077038288116455078125" lon="-0.8428716100752353668212890625">
        <ele>390.20001220703125</ele>
        <time>2021-04-01T07:38:26.000Z</time>
      </trkpt>
      <trkpt lat="41.66726435534656047821044921875" lon="-0.84281184710562229156494140625">
        <ele>390</ele>
        <time>2021-04-01T07:38:29.000Z</time>
      </trkpt>
      <trkpt lat="41.66752603836357593536376953125" lon="-0.84269382990896701812744140625">
        <ele>389.600006103515625</ele>
        <time>2021-04-01T07:38:35.000Z</time>
      </trkpt>
      <trkpt lat="41.667565517127513885498046875" lon="-0.84266717545688152313232421875">
        <ele>389.600006103515625</ele>
        <time>2021-04-01T07:38:36.000Z</time>
      </trkpt>
      <trkpt lat="41.6676055826246738433837890625" lon="-0.8426422812044620513916015625">
        <ele>389.600006103515625</ele>
        <time>2021-04-01T07:38:37.000Z</time>
      </trkpt>
      <trkpt lat="41.6678221710026264190673828125" lon="-0.842561312019824981689453125">
        <ele>389.600006103515625</ele>
        <time>2021-04-01T07:38:42.000Z</time>
      </trkpt>
      <trkpt lat="41.66791043244302272796630859375" lon="-0.8425207436084747314453125">
        <ele>389.399993896484375</ele>
        <time>2021-04-01T07:38:44.000Z</time>
      </trkpt>
      <trkpt lat="41.66799844242632389068603515625" lon="-0.842484533786773681640625">
        <ele>389.20001220703125</ele>
        <time>2021-04-01T07:38:46.000Z</time>
      </trkpt>
      <trkpt lat="41.66804403997957706451416015625" lon="-0.84247288294136524200439453125">
        <ele>389.20001220703125</ele>
        <time>2021-04-01T07:38:47.000Z</time>
      </trkpt>
      <trkpt lat="41.66808745823800563812255859375" lon="-0.8424558676779270172119140625">
        <ele>389.20001220703125</ele>
        <time>2021-04-01T07:38:48.000Z</time>
      </trkpt>
      <trkpt lat="41.66821695864200592041015625" lon="-0.84240498952567577362060546875">
        <ele>389.399993896484375</ele>
        <time>2021-04-01T07:38:51.000Z</time>
      </trkpt>
      <trkpt lat="41.6682610474526882171630859375" lon="-0.842393003404140472412109375">
        <ele>389.399993896484375</ele>
        <time>2021-04-01T07:38:52.000Z</time>
      </trkpt>
      <trkpt lat="41.6683036275207996368408203125" lon="-0.84238470532000064849853515625">
        <ele>389.600006103515625</ele>
        <time>2021-04-01T07:38:53.000Z</time>
      </trkpt>
      <trkpt lat="41.66839373297989368438720703125" lon="-0.84243415854871273040771484375">
        <ele>390</ele>
        <time>2021-04-01T07:38:56.000Z</time>
      </trkpt>
      <trkpt lat="41.66842457838356494903564453125" lon="-0.84249786101281642913818359375">
        <ele>390.20001220703125</ele>
        <time>2021-04-01T07:38:58.000Z</time>
      </trkpt>
      <trkpt lat="41.6683998517692089080810546875" lon="-0.84257145412266254425048828125">
        <ele>390.20001220703125</ele>
        <time>2021-04-01T07:39:00.000Z</time>
      </trkpt>
      <trkpt lat="41.66835601441562175750732421875" lon="-0.842642448842525482177734375">
        <ele>390.399993896484375</ele>
        <time>2021-04-01T07:39:02.000Z</time>
      </trkpt>
      <trkpt lat="41.66828225366771221160888671875" lon="-0.8427354879677295684814453125">
        <ele>390</ele>
        <time>2021-04-01T07:39:05.000Z</time>
      </trkpt>
      <trkpt lat="41.66822240687906742095947265625" lon="-0.8428176306188106536865234375">
        <ele>391.79998779296875</ele>
        <time>2021-04-01T07:39:08.000Z</time>
      </trkpt>
      <trkpt lat="41.6682174615561962127685546875" lon="-0.8428451232612133026123046875">
        <ele>392.79998779296875</ele>
        <time>2021-04-01T07:39:09.000Z</time>
      </trkpt>
      <trkpt lat="41.6682241670787334442138671875" lon="-0.84286733530461788177490234375">
        <ele>393.399993896484375</ele>
        <time>2021-04-01T07:39:10.000Z</time>
      </trkpt>
      <trkpt lat="41.66827387176454067230224609375" lon="-0.842842273414134979248046875">
        <ele>394.20001220703125</ele>
        <time>2021-04-01T07:39:14.000Z</time>
      </trkpt>
      <trkpt lat="41.66838417761027812957763671875" lon="-0.84275501780211925506591796875">
        <ele>394.20001220703125</ele>
        <time>2021-04-01T07:39:19.000Z</time>
      </trkpt>
      <trkpt lat="41.66848073713481426239013671875" lon="-0.8426758088171482086181640625">
        <ele>394</ele>
        <time>2021-04-01T07:39:23.000Z</time>
      </trkpt>
      <trkpt lat="41.66849079541862010955810546875" lon="-0.8426385931670665740966796875">
        <ele>394</ele>
        <time>2021-04-01T07:39:24.000Z</time>
      </trkpt>
      <trkpt lat="41.6684980876743793487548828125" lon="-0.84256298840045928955078125">
        <ele>393.79998779296875</ele>
        <time>2021-04-01T07:39:26.000Z</time>
      </trkpt>
      <trkpt lat="41.66849699802696704864501953125" lon="-0.8424290455877780914306640625">
        <ele>393.79998779296875</ele>
        <time>2021-04-01T07:39:30.000Z</time>
      </trkpt>
      <trkpt lat="41.6684957407414913177490234375" lon="-0.84239291958510875701904296875">
        <ele>393.79998779296875</ele>
        <time>2021-04-01T07:39:34.000Z</time>
      </trkpt>
      <trkpt lat="41.66849666275084018707275390625" lon="-0.84239560179412364959716796875">
        <ele>393.79998779296875</ele>
        <time>2021-04-01T07:39:45.000Z</time>
      </trkpt>
      <trkpt lat="41.66849683038890361785888671875" lon="-0.84239669144153594970703125">
        <ele>394</ele>
        <time>2021-04-01T07:39:48.000Z</time>
      </trkpt>
      <trkpt lat="41.6684970818459987640380859375" lon="-0.84239535033702850341796875">
        <ele>394</ele>
        <time>2021-04-01T07:39:53.000Z</time>
      </trkpt>
      <trkpt lat="41.6684970818459987640380859375" lon="-0.842394344508647918701171875">
        <ele>393.79998779296875</ele>
        <time>2021-04-01T07:39:54.000Z</time>
      </trkpt>
      <trkpt lat="41.66849615983664989471435546875" lon="-0.8423914946615695953369140625">
        <ele>393.600006103515625</ele>
        <time>2021-04-01T07:39:57.000Z</time>
      </trkpt>
      <trkpt lat="41.6684992611408233642578125" lon="-0.8423479087650775909423828125">
        <ele>392.79998779296875</ele>
        <time>2021-04-01T07:41:00.000Z</time>
      </trkpt>
      <trkpt lat="41.66849724948406219482421875" lon="-0.84232418797910213470458984375">
        <ele>392.79998779296875</ele>
        <time>2021-04-01T07:41:01.000Z</time>
      </trkpt>
      <trkpt lat="41.66849792003631591796875" lon="-0.8420998044312000274658203125">
        <ele>393.20001220703125</ele>
        <time>2021-04-01T07:41:07.000Z</time>
      </trkpt>
      <trkpt lat="41.6684830002486705780029296875" lon="-0.84172974340617656707763671875">
        <ele>393</ele>
        <time>2021-04-01T07:41:15.000Z</time>
      </trkpt>
      <trkpt lat="41.66847445070743560791015625" lon="-0.84147711284458637237548828125">
        <ele>392.79998779296875</ele>
        <time>2021-04-01T07:41:21.000Z</time>
      </trkpt>
      <trkpt lat="41.66847151704132556915283203125" lon="-0.8413635380566120147705078125">
        <ele>392.600006103515625</ele>
        <time>2021-04-01T07:41:23.000Z</time>
      </trkpt>
      <trkpt lat="41.668468751013278961181640625" lon="-0.841303355991840362548828125">
        <ele>392.20001220703125</ele>
        <time>2021-04-01T07:41:24.000Z</time>
      </trkpt>
      <trkpt lat="41.66845659725368022918701171875" lon="-0.8412458561360836029052734375">
        <ele>392</ele>
        <time>2021-04-01T07:41:25.000Z</time>
      </trkpt>
      <trkpt lat="41.668426506221294403076171875" lon="-0.84120201878249645233154296875">
        <ele>391.79998779296875</ele>
        <time>2021-04-01T07:41:26.000Z</time>
      </trkpt>
      <trkpt lat="41.66831678710877895355224609375" lon="-0.841156505048274993896484375">
        <ele>392</ele>
        <time>2021-04-01T07:41:29.000Z</time>
      </trkpt>
      <trkpt lat="41.6680950857698917388916015625" lon="-0.8411576785147190093994140625">
        <ele>391.79998779296875</ele>
        <time>2021-04-01T07:41:35.000Z</time>
      </trkpt>
      <trkpt lat="41.66781060397624969482421875" lon="-0.84108668379485607147216796875">
        <ele>392.600006103515625</ele>
        <time>2021-04-01T07:41:42.000Z</time>
      </trkpt>
      <trkpt lat="41.66757482104003429412841796875" lon="-0.841061286628246307373046875">
        <ele>393</ele>
        <time>2021-04-01T07:41:48.000Z</time>
      </trkpt>
      <trkpt lat="41.66753442026674747467041015625" lon="-0.84106438793241977691650390625">
        <ele>393.20001220703125</ele>
        <time>2021-04-01T07:41:49.000Z</time>
      </trkpt>
      <trkpt lat="41.667493768036365509033203125" lon="-0.84106941707432270050048828125">
        <ele>393.20001220703125</ele>
        <time>2021-04-01T07:41:50.000Z</time>
      </trkpt>
      <trkpt lat="41.66741372086107730865478515625" lon="-0.8410815708339214324951171875">
        <ele>393.20001220703125</ele>
        <time>2021-04-01T07:41:52.000Z</time>
      </trkpt>
      <trkpt lat="41.66737281717360019683837890625" lon="-0.84108198992908000946044921875">
        <ele>393.20001220703125</ele>
        <time>2021-04-01T07:41:53.000Z</time>
      </trkpt>
      <trkpt lat="41.66728547774255275726318359375" lon="-0.84107981063425540924072265625">
        <ele>393.399993896484375</ele>
        <time>2021-04-01T07:41:55.000Z</time>
      </trkpt>
      <trkpt lat="41.667149774730205535888671875" lon="-0.84109690971672534942626953125">
        <ele>393.20001220703125</ele>
        <time>2021-04-01T07:41:58.000Z</time>
      </trkpt>
      <trkpt lat="41.6671060211956501007080078125" lon="-0.84110864438116550445556640625">
        <ele>393</ele>
        <time>2021-04-01T07:41:59.000Z</time>
      </trkpt>
      <trkpt lat="41.667062602937221527099609375" lon="-0.84112322889268398284912109375">
        <ele>392.79998779296875</ele>
        <time>2021-04-01T07:42:00.000Z</time>
      </trkpt>
      <trkpt lat="41.667018346488475799560546875" lon="-0.8411446027457714080810546875">
        <ele>392.79998779296875</ele>
        <time>2021-04-01T07:42:01.000Z</time>
      </trkpt>
      <trkpt lat="41.66671500541269779205322265625" lon="-0.841328166425228118896484375">
        <ele>392.79998779296875</ele>
        <time>2021-04-01T07:42:08.000Z</time>
      </trkpt>
      <trkpt lat="41.66667209006845951080322265625" lon="-0.84136026911437511444091796875">
        <ele>392.79998779296875</ele>
        <time>2021-04-01T07:42:09.000Z</time>
      </trkpt>
      <trkpt lat="41.66662867181003093719482421875" lon="-0.84139086306095123291015625">
        <ele>392.79998779296875</ele>
        <time>2021-04-01T07:42:10.000Z</time>
      </trkpt>
      <trkpt lat="41.6665841639041900634765625" lon="-0.84141592495143413543701171875">
        <ele>392.79998779296875</ele>
        <time>2021-04-01T07:42:11.000Z</time>
      </trkpt>
      <trkpt lat="41.66636665351688861846923828125" lon="-0.8415110595524311065673828125">
        <ele>393.20001220703125</ele>
        <time>2021-04-01T07:42:16.000Z</time>
      </trkpt>
      <trkpt lat="41.6662104986608028411865234375" lon="-0.8416039310395717620849609375">
        <ele>393</ele>
        <time>2021-04-01T07:42:20.000Z</time>
      </trkpt>
      <trkpt lat="41.66604210622608661651611328125" lon="-0.84168431349098682403564453125">
        <ele>392.600006103515625</ele>
        <time>2021-04-01T07:42:24.000Z</time>
      </trkpt>
      <trkpt lat="41.66587631218135356903076171875" lon="-0.84177919663488864898681640625">
        <ele>393</ele>
        <time>2021-04-01T07:42:28.000Z</time>
      </trkpt>
      <trkpt lat="41.665752343833446502685546875" lon="-0.841864608228206634521484375">
        <ele>393</ele>
        <time>2021-04-01T07:42:31.000Z</time>
      </trkpt>
      <trkpt lat="41.6656639985740184783935546875" lon="-0.84190852940082550048828125">
        <ele>393</ele>
        <time>2021-04-01T07:42:33.000Z</time>
      </trkpt>
      <trkpt lat="41.66557364165782928466796875" lon="-0.8419482596218585968017578125">
        <ele>392.79998779296875</ele>
        <time>2021-04-01T07:42:35.000Z</time>
      </trkpt>
      <trkpt lat="41.66539183817803859710693359375" lon="-0.8420374430716037750244140625">
        <ele>393</ele>
        <time>2021-04-01T07:42:39.000Z</time>
      </trkpt>
      <trkpt lat="41.6651027463376522064208984375" lon="-0.84216711111366748809814453125">
        <ele>392.79998779296875</ele>
        <time>2021-04-01T07:42:46.000Z</time>
      </trkpt>
      <trkpt lat="41.6649304144084453582763671875" lon="-0.8422565460205078125">
        <ele>393</ele>
        <time>2021-04-01T07:42:50.000Z</time>
      </trkpt>
      <trkpt lat="41.66475632227957248687744140625" lon="-0.8423552848398685455322265625">
        <ele>392.79998779296875</ele>
        <time>2021-04-01T07:42:54.000Z</time>
      </trkpt>
      <trkpt lat="41.664532609283924102783203125" lon="-0.84248696453869342803955078125">
        <ele>392.20001220703125</ele>
        <time>2021-04-01T07:42:59.000Z</time>
      </trkpt>
      <trkpt lat="41.6643694974482059478759765625" lon="-0.84260322153568267822265625">
        <ele>391.79998779296875</ele>
        <time>2021-04-01T07:43:03.000Z</time>
      </trkpt>
      <trkpt lat="41.66433102451264858245849609375" lon="-0.84263549186289310455322265625">
        <ele>391.79998779296875</ele>
        <time>2021-04-01T07:43:04.000Z</time>
      </trkpt>
      <trkpt lat="41.6639078222215175628662109375" lon="-0.84298769943416118621826171875">
        <ele>391.600006103515625</ele>
        <time>2021-04-01T07:43:15.000Z</time>
      </trkpt>
      <trkpt lat="41.663656532764434814453125" lon="-0.8431502245366573333740234375">
        <ele>391</ele>
        <time>2021-04-01T07:43:21.000Z</time>
      </trkpt>
      <trkpt lat="41.6636137850582599639892578125" lon="-0.84318467415869235992431640625">
        <ele>391</ele>
        <time>2021-04-01T07:43:22.000Z</time>
      </trkpt>
      <trkpt lat="41.66357262991368770599365234375" lon="-0.843221805989742279052734375">
        <ele>390.79998779296875</ele>
        <time>2021-04-01T07:43:23.000Z</time>
      </trkpt>
      <trkpt lat="41.6634505055844783782958984375" lon="-0.843313001096248626708984375">
        <ele>390.600006103515625</ele>
        <time>2021-04-01T07:43:26.000Z</time>
      </trkpt>
      <trkpt lat="41.6632805205881595611572265625" lon="-0.84342272020876407623291015625">
        <ele>390.79998779296875</ele>
        <time>2021-04-01T07:43:30.000Z</time>
      </trkpt>
      <trkpt lat="41.66306619532406330108642578125" lon="-0.84356387145817279815673828125">
        <ele>390.399993896484375</ele>
        <time>2021-04-01T07:43:35.000Z</time>
      </trkpt>
      <trkpt lat="41.66295890696346759796142578125" lon="-0.8436705730855464935302734375">
        <ele>390</ele>
        <time>2021-04-01T07:43:38.000Z</time>
      </trkpt>
      <trkpt lat="41.66286083869636058807373046875" lon="-0.843769647181034088134765625">
        <ele>390</ele>
        <time>2021-04-01T07:43:41.000Z</time>
      </trkpt>
      <trkpt lat="41.6627645306289196014404296875" lon="-0.84386142902076244354248046875">
        <ele>390</ele>
        <time>2021-04-01T07:43:44.000Z</time>
      </trkpt>
      <trkpt lat="41.66248298250138759613037109375" lon="-0.84408120252192020416259765625">
        <ele>389</ele>
        <time>2021-04-01T07:43:51.000Z</time>
      </trkpt>
      <trkpt lat="41.66231232695281505584716796875" lon="-0.84418647922575473785400390625">
        <ele>389.20001220703125</ele>
        <time>2021-04-01T07:43:55.000Z</time>
      </trkpt>
      <trkpt lat="41.66227058507502079010009765625" lon="-0.84421514533460140228271484375">
        <ele>389.399993896484375</ele>
        <time>2021-04-01T07:43:56.000Z</time>
      </trkpt>
      <trkpt lat="41.6621476225554943084716796875" lon="-0.84431790746748447418212890625">
        <ele>389</ele>
        <time>2021-04-01T07:43:59.000Z</time>
      </trkpt>
      <trkpt lat="41.6621075570583343505859375" lon="-0.84435193799436092376708984375">
        <ele>389</ele>
        <time>2021-04-01T07:44:00.000Z</time>
      </trkpt>
      <trkpt lat="41.6617416031658649444580078125" lon="-0.8446331508457660675048828125">
        <ele>388.20001220703125</ele>
        <time>2021-04-01T07:44:09.000Z</time>
      </trkpt>
      <trkpt lat="41.66147296316921710968017578125" lon="-0.84478176198899745941162109375">
        <ele>388.399993896484375</ele>
        <time>2021-04-01T07:44:15.000Z</time>
      </trkpt>
      <trkpt lat="41.66138042695820331573486328125" lon="-0.844815708696842193603515625">
        <ele>388.399993896484375</ele>
        <time>2021-04-01T07:44:17.000Z</time>
      </trkpt>
      <trkpt lat="41.6609979607164859771728515625" lon="-0.8449412696063518524169921875">
        <ele>388.20001220703125</ele>
        <time>2021-04-01T07:44:25.000Z</time>
      </trkpt>
      <trkpt lat="41.66062169708311557769775390625" lon="-0.84507831372320652008056640625">
        <ele>388.20001220703125</ele>
        <time>2021-04-01T07:44:33.000Z</time>
      </trkpt>
      <trkpt lat="41.66040242649614810943603515625" lon="-0.8451788127422332763671875">
        <ele>387.600006103515625</ele>
        <time>2021-04-01T07:44:38.000Z</time>
      </trkpt>
      <trkpt lat="41.66032464243471622467041015625" lon="-0.84521234035491943359375">
        <ele>387.600006103515625</ele>
        <time>2021-04-01T07:44:40.000Z</time>
      </trkpt>
      <trkpt lat="41.6602881811559200286865234375" lon="-0.8452356420457363128662109375">
        <ele>387.399993896484375</ele>
        <time>2021-04-01T07:44:41.000Z</time>
      </trkpt>
      <trkpt lat="41.6602124087512493133544921875" lon="-0.845279730856418609619140625">
        <ele>387.399993896484375</ele>
        <time>2021-04-01T07:44:43.000Z</time>
      </trkpt>
      <trkpt lat="41.6601399891078472137451171875" lon="-0.84532021544873714447021484375">
        <ele>387.600006103515625</ele>
        <time>2021-04-01T07:44:45.000Z</time>
      </trkpt>
      <trkpt lat="41.66003026999533176422119140625" lon="-0.84538944996893405914306640625">
        <ele>387.20001220703125</ele>
        <time>2021-04-01T07:44:48.000Z</time>
      </trkpt>
      <trkpt lat="41.659792475402355194091796875" lon="-0.84549439139664173126220703125">
        <ele>387.20001220703125</ele>
        <time>2021-04-01T07:44:54.000Z</time>
      </trkpt>
      <trkpt lat="41.65965132415294647216796875" lon="-0.84563537500798702239990234375">
        <ele>386.399993896484375</ele>
        <time>2021-04-01T07:44:58.000Z</time>
      </trkpt>
      <trkpt lat="41.6596152819693088531494140625" lon="-0.845669321715831756591796875">
        <ele>386.399993896484375</ele>
        <time>2021-04-01T07:44:59.000Z</time>
      </trkpt>
      <trkpt lat="41.65940900333225727081298828125" lon="-0.84586001001298427581787109375">
        <ele>386.79998779296875</ele>
        <time>2021-04-01T07:45:05.000Z</time>
      </trkpt>
      <trkpt lat="41.65930666029453277587890625" lon="-0.845961011946201324462890625">
        <ele>387</ele>
        <time>2021-04-01T07:45:08.000Z</time>
      </trkpt>
      <trkpt lat="41.65923281572759151458740234375" lon="-0.8460359461605548858642578125">
        <ele>387.600006103515625</ele>
        <time>2021-04-01T07:45:10.000Z</time>
      </trkpt>
      <trkpt lat="41.65916006080806255340576171875" lon="-0.8460899256169795989990234375">
        <ele>387.79998779296875</ele>
        <time>2021-04-01T07:45:12.000Z</time>
      </trkpt>
      <trkpt lat="41.65904791094362735748291015625" lon="-0.8461415581405162811279296875">
        <ele>387.600006103515625</ele>
        <time>2021-04-01T07:45:15.000Z</time>
      </trkpt>
      <trkpt lat="41.65889686904847621917724609375" lon="-0.846190340816974639892578125">
        <ele>387.600006103515625</ele>
        <time>2021-04-01T07:45:19.000Z</time>
      </trkpt>
      <trkpt lat="41.65885931812226772308349609375" lon="-0.84620282985270023345947265625">
        <ele>387.399993896484375</ele>
        <time>2021-04-01T07:45:20.000Z</time>
      </trkpt>
      <trkpt lat="41.65855203755199909210205078125" lon="-0.8462605811655521392822265625">
        <ele>387</ele>
        <time>2021-04-01T07:45:28.000Z</time>
      </trkpt>
      <trkpt lat="41.65837015025317668914794921875" lon="-0.84628455340862274169921875">
        <ele>386.79998779296875</ele>
        <time>2021-04-01T07:45:33.000Z</time>
      </trkpt>
      <trkpt lat="41.6583336889743804931640625" lon="-0.84628991782665252685546875">
        <ele>387</ele>
        <time>2021-04-01T07:45:34.000Z</time>
      </trkpt>
      <trkpt lat="41.65815540589392185211181640625" lon="-0.8463509380817413330078125">
        <ele>387.399993896484375</ele>
        <time>2021-04-01T07:45:39.000Z</time>
      </trkpt>
      <trkpt lat="41.65804811753332614898681640625" lon="-0.84640114568173885345458984375">
        <ele>387.79998779296875</ele>
        <time>2021-04-01T07:45:42.000Z</time>
      </trkpt>
      <trkpt lat="41.6579399071633815765380859375" lon="-0.84644322283565998077392578125">
        <ele>388</ele>
        <time>2021-04-01T07:45:45.000Z</time>
      </trkpt>
      <trkpt lat="41.657782159745693206787109375" lon="-0.846502482891082763671875">
        <ele>387.399993896484375</ele>
        <time>2021-04-01T07:45:49.000Z</time>
      </trkpt>
      <trkpt lat="41.6576284356415271759033203125" lon="-0.84655554033815860748291015625">
        <ele>387.399993896484375</ele>
        <time>2021-04-01T07:45:53.000Z</time>
      </trkpt>
      <trkpt lat="41.65750547312200069427490234375" lon="-0.8465762436389923095703125">
        <ele>387.600006103515625</ele>
        <time>2021-04-01T07:45:56.000Z</time>
      </trkpt>
      <trkpt lat="41.65718830190598964691162109375" lon="-0.84668646566569805145263671875">
        <ele>388</ele>
        <time>2021-04-01T07:46:04.000Z</time>
      </trkpt>
      <trkpt lat="41.657073386013507843017578125" lon="-0.84676139988005161285400390625">
        <ele>387.79998779296875</ele>
        <time>2021-04-01T07:46:07.000Z</time>
      </trkpt>
      <trkpt lat="41.65700943209230899810791015625" lon="-0.8468342386186122894287109375">
        <ele>387.79998779296875</ele>
        <time>2021-04-01T07:46:09.000Z</time>
      </trkpt>
      <trkpt lat="41.6568153910338878631591796875" lon="-0.8470343984663486480712890625">
        <ele>387.600006103515625</ele>
        <time>2021-04-01T07:46:15.000Z</time>
      </trkpt>
      <trkpt lat="41.65678127668797969818115234375" lon="-0.8470615558326244354248046875">
        <ele>387.600006103515625</ele>
        <time>2021-04-01T07:46:16.000Z</time>
      </trkpt>
      <trkpt lat="41.6566732339560985565185546875" lon="-0.847156606614589691162109375">
        <ele>387.399993896484375</ele>
        <time>2021-04-01T07:46:19.000Z</time>
      </trkpt>
      <trkpt lat="41.6566011495888233184814453125" lon="-0.84722734987735748291015625">
        <ele>387.20001220703125</ele>
        <time>2021-04-01T07:46:21.000Z</time>
      </trkpt>
      <trkpt lat="41.6565253771841526031494140625" lon="-0.84729298017919063568115234375">
        <ele>387.20001220703125</ele>
        <time>2021-04-01T07:46:23.000Z</time>
      </trkpt>
      <trkpt lat="41.65635882876813411712646484375" lon="-0.84740244783461093902587890625">
        <ele>387</ele>
        <time>2021-04-01T07:46:27.000Z</time>
      </trkpt>
      <trkpt lat="41.65631557814776897430419921875" lon="-0.84742658771574497222900390625">
        <ele>386.79998779296875</ele>
        <time>2021-04-01T07:46:28.000Z</time>
      </trkpt>
      <trkpt lat="41.65627148933708667755126953125" lon="-0.847449637949466705322265625">
        <ele>386.79998779296875</ele>
        <time>2021-04-01T07:46:29.000Z</time>
      </trkpt>
      <trkpt lat="41.6562281548976898193359375" lon="-0.84747277200222015380859375">
        <ele>386.600006103515625</ele>
        <time>2021-04-01T07:46:30.000Z</time>
      </trkpt>
      <trkpt lat="41.65618456900119781494140625" lon="-0.84749515168368816375732421875">
        <ele>386.600006103515625</ele>
        <time>2021-04-01T07:46:31.000Z</time>
      </trkpt>
      <trkpt lat="41.6558766178786754608154296875" lon="-0.84764652885496616363525390625">
        <ele>386.399993896484375</ele>
        <time>2021-04-01T07:46:38.000Z</time>
      </trkpt>
      <trkpt lat="41.65578030981123447418212890625" lon="-0.847682654857635498046875">
        <ele>386</ele>
        <time>2021-04-01T07:46:40.000Z</time>
      </trkpt>
      <trkpt lat="41.65545023046433925628662109375" lon="-0.84774292074143886566162109375">
        <ele>385.600006103515625</ele>
        <time>2021-04-01T07:46:47.000Z</time>
      </trkpt>
      <trkpt lat="41.655352413654327392578125" lon="-0.84774727933108806610107421875">
        <ele>385.399993896484375</ele>
        <time>2021-04-01T07:46:49.000Z</time>
      </trkpt>
      <trkpt lat="41.65505594573915004730224609375" lon="-0.84774233400821685791015625">
        <ele>385</ele>
        <time>2021-04-01T07:46:55.000Z</time>
      </trkpt>
      <trkpt lat="41.6550122760236263275146484375" lon="-0.847746022045612335205078125">
        <ele>385</ele>
        <time>2021-04-01T07:46:56.000Z</time>
      </trkpt>
      <trkpt lat="41.65479543618857860565185546875" lon="-0.84776001982390880584716796875">
        <ele>385</ele>
        <time>2021-04-01T07:47:01.000Z</time>
      </trkpt>
      <trkpt lat="41.6546713002026081085205078125" lon="-0.847737304866313934326171875">
        <ele>384.79998779296875</ele>
        <time>2021-04-01T07:47:04.000Z</time>
      </trkpt>
      <trkpt lat="41.654456555843353271484375" lon="-0.84766832180321216583251953125">
        <ele>385.20001220703125</ele>
        <time>2021-04-01T07:47:09.000Z</time>
      </trkpt>
      <trkpt lat="41.65431666187942028045654296875" lon="-0.8475839160382747650146484375">
        <ele>385.20001220703125</ele>
        <time>2021-04-01T07:47:13.000Z</time>
      </trkpt>
      <trkpt lat="41.654096804559230804443359375" lon="-0.84738769568502902984619140625">
        <ele>385.600006103515625</ele>
        <time>2021-04-01T07:47:19.000Z</time>
      </trkpt>
      <trkpt lat="41.65405690670013427734375" lon="-0.84735835902392864227294921875">
        <ele>385.600006103515625</ele>
        <time>2021-04-01T07:47:20.000Z</time>
      </trkpt>
      <trkpt lat="41.65399982593953609466552734375" lon="-0.84726624190807342529296875">
        <ele>385.600006103515625</ele>
        <time>2021-04-01T07:47:22.000Z</time>
      </trkpt>
      <trkpt lat="41.65398188866674900054931640625" lon="-0.84724470041692256927490234375">
        <ele>385.600006103515625</ele>
        <time>2021-04-01T07:47:23.000Z</time>
      </trkpt>
      <trkpt lat="41.65395489893853664398193359375" lon="-0.84696114063262939453125">
        <ele>385.79998779296875</ele>
        <time>2021-04-01T07:47:28.000Z</time>
      </trkpt>
      <trkpt lat="41.65395422838628292083740234375" lon="-0.84676290862262248992919921875">
        <ele>386.399993896484375</ele>
        <time>2021-04-01T07:47:32.000Z</time>
      </trkpt>
      <trkpt lat="41.653941236436367034912109375" lon="-0.846710689365863800048828125">
        <ele>386.600006103515625</ele>
        <time>2021-04-01T07:47:33.000Z</time>
      </trkpt>
      <trkpt lat="41.653882898390293121337890625" lon="-0.84662963636219501495361328125">
        <ele>387</ele>
        <time>2021-04-01T07:47:35.000Z</time>
      </trkpt>
      <trkpt lat="41.6538451798260211944580078125" lon="-0.84660851396620273590087890625">
        <ele>387</ele>
        <time>2021-04-01T07:47:36.000Z</time>
      </trkpt>
      <trkpt lat="41.65381073020398616790771484375" lon="-0.84659434854984283447265625">
        <ele>386.79998779296875</ele>
        <time>2021-04-01T07:47:37.000Z</time>
      </trkpt>
      <trkpt lat="41.65360294282436370849609375" lon="-0.84659778513014316558837890625">
        <ele>386.600006103515625</ele>
        <time>2021-04-01T07:47:42.000Z</time>
      </trkpt>
      <trkpt lat="41.653396748006343841552734375" lon="-0.84667540155351161956787109375">
        <ele>386.399993896484375</ele>
        <time>2021-04-01T07:47:47.000Z</time>
      </trkpt>
      <trkpt lat="41.65332340635359287261962890625" lon="-0.84672669880092144012451171875">
        <ele>386.20001220703125</ele>
        <time>2021-04-01T07:47:49.000Z</time>
      </trkpt>
      <trkpt lat="41.653186865150928497314453125" lon="-0.84684622474014759063720703125">
        <ele>386.20001220703125</ele>
        <time>2021-04-01T07:47:53.000Z</time>
      </trkpt>
      <trkpt lat="41.65311503224074840545654296875" lon="-0.846904478967189788818359375">
        <ele>385.79998779296875</ele>
        <time>2021-04-01T07:47:55.000Z</time>
      </trkpt>
      <trkpt lat="41.652891151607036590576171875" lon="-0.84713188000023365020751953125">
        <ele>386.600006103515625</ele>
        <time>2021-04-01T07:48:02.000Z</time>
      </trkpt>
      <trkpt lat="41.65279132314026355743408203125" lon="-0.8472258411347866058349609375">
        <ele>386.79998779296875</ele>
        <time>2021-04-01T07:48:05.000Z</time>
      </trkpt>
      <trkpt lat="41.65266173891723155975341796875" lon="-0.8473224006593227386474609375">
        <ele>387.600006103515625</ele>
        <time>2021-04-01T07:48:09.000Z</time>
      </trkpt>
      <trkpt lat="41.65262787602841854095458984375" lon="-0.84734092466533184051513671875">
        <ele>387.399993896484375</ele>
        <time>2021-04-01T07:48:10.000Z</time>
      </trkpt>
      <trkpt lat="41.652474738657474517822265625" lon="-0.8474166132509708404541015625">
        <ele>387</ele>
        <time>2021-04-01T07:48:14.000Z</time>
      </trkpt>
      <trkpt lat="41.65243509225547313690185546875" lon="-0.8474345505237579345703125">
        <ele>386.79998779296875</ele>
        <time>2021-04-01T07:48:15.000Z</time>
      </trkpt>
      <trkpt lat="41.6523589007556438446044921875" lon="-0.84746606647968292236328125">
        <ele>386.79998779296875</ele>
        <time>2021-04-01T07:48:17.000Z</time>
      </trkpt>
      <trkpt lat="41.6522392071783542633056640625" lon="-0.847489871084690093994140625">
        <ele>386.600006103515625</ele>
        <time>2021-04-01T07:48:20.000Z</time>
      </trkpt>
      <trkpt lat="41.6521744988858699798583984375" lon="-0.8474487997591495513916015625">
        <ele>386.79998779296875</ele>
        <time>2021-04-01T07:48:22.000Z</time>
      </trkpt>
      <trkpt lat="41.65211565792560577392578125" lon="-0.847347714006900787353515625">
        <ele>386.20001220703125</ele>
        <time>2021-04-01T07:48:24.000Z</time>
      </trkpt>
      <trkpt lat="41.6520796157419681549072265625" lon="-0.8473126776516437530517578125">
        <ele>386.399993896484375</ele>
        <time>2021-04-01T07:48:25.000Z</time>
      </trkpt>
      <trkpt lat="41.65203921496868133544921875" lon="-0.8472959138453006744384765625">
        <ele>386.399993896484375</ele>
        <time>2021-04-01T07:48:26.000Z</time>
      </trkpt>
      <trkpt lat="41.6519605927169322967529296875" lon="-0.84727018140256404876708984375">
        <ele>386.399993896484375</ele>
        <time>2021-04-01T07:48:28.000Z</time>
      </trkpt>
      <trkpt lat="41.6519250534474849700927734375" lon="-0.84725794382393360137939453125">
        <ele>386</ele>
        <time>2021-04-01T07:48:29.000Z</time>
      </trkpt>
      <trkpt lat="41.65189228020608425140380859375" lon="-0.8472415991127490997314453125">
        <ele>385.600006103515625</ele>
        <time>2021-04-01T07:48:30.000Z</time>
      </trkpt>
      <trkpt lat="41.65185841731727123260498046875" lon="-0.84723195992410182952880859375">
        <ele>385.399993896484375</ele>
        <time>2021-04-01T07:48:31.000Z</time>
      </trkpt>
      <trkpt lat="41.65182002820074558258056640625" lon="-0.8472328819334506988525390625">
        <ele>385</ele>
        <time>2021-04-01T07:48:32.000Z</time>
      </trkpt>
      <trkpt lat="41.651625148952007293701171875" lon="-0.8472328819334506988525390625">
        <ele>385</ele>
        <time>2021-04-01T07:48:37.000Z</time>
      </trkpt>
      <trkpt lat="41.65155063383281230926513671875" lon="-0.84721486084163188934326171875">
        <ele>385.399993896484375</ele>
        <time>2021-04-01T07:48:39.000Z</time>
      </trkpt>
      <trkpt lat="41.6514724306762218475341796875" lon="-0.8472301997244358062744140625">
        <ele>385.79998779296875</ele>
        <time>2021-04-01T07:48:41.000Z</time>
      </trkpt>
      <trkpt lat="41.6513902880251407623291015625" lon="-0.8472298644483089447021484375">
        <ele>385.79998779296875</ele>
        <time>2021-04-01T07:48:43.000Z</time>
      </trkpt>
      <trkpt lat="41.65135391056537628173828125" lon="-0.84722927771508693695068359375">
        <ele>386.20001220703125</ele>
        <time>2021-04-01T07:48:44.000Z</time>
      </trkpt>
      <trkpt lat="41.6513197124004364013671875" lon="-0.84721100516617298126220703125">
        <ele>386.20001220703125</ele>
        <time>2021-04-01T07:48:45.000Z</time>
      </trkpt>
      <trkpt lat="41.65122776292264461517333984375" lon="-0.84710321389138698577880859375">
        <ele>386.20001220703125</ele>
        <time>2021-04-01T07:48:49.000Z</time>
      </trkpt>
      <trkpt lat="41.65117529220879077911376953125" lon="-0.8470662496984004974365234375">
        <ele>386.399993896484375</ele>
        <time>2021-04-01T07:48:51.000Z</time>
      </trkpt>
      <trkpt lat="41.65113036520779132843017578125" lon="-0.8470947481691837310791015625">
        <ele>386.600006103515625</ele>
        <time>2021-04-01T07:48:53.000Z</time>
      </trkpt>
      <trkpt lat="41.6510858573019504547119140625" lon="-0.84721167571842670440673828125">
        <ele>386.79998779296875</ele>
        <time>2021-04-01T07:48:57.000Z</time>
      </trkpt>
      <trkpt lat="41.65107286535203456878662109375" lon="-0.8472333848476409912109375">
        <ele>386.79998779296875</ele>
        <time>2021-04-01T07:48:58.000Z</time>
      </trkpt>
      <trkpt lat="41.65104637853801250457763671875" lon="-0.84724620915949344635009765625">
        <ele>386.600006103515625</ele>
        <time>2021-04-01T07:49:00.000Z</time>
      </trkpt>
      <trkpt lat="41.65100782178342342376708984375" lon="-0.84724537096917629241943359375">
        <ele>386.20001220703125</ele>
        <time>2021-04-01T07:49:02.000Z</time>
      </trkpt>
      <trkpt lat="41.650937832891941070556640625" lon="-0.847298093140125274658203125">
        <ele>387.20001220703125</ele>
        <time>2021-04-01T07:49:06.000Z</time>
      </trkpt>
      <trkpt lat="41.65091897360980510711669921875" lon="-0.84730136208236217498779296875">
        <ele>387.20001220703125</ele>
        <time>2021-04-01T07:49:07.000Z</time>
      </trkpt>
      <trkpt lat="41.65082610212266445159912109375" lon="-0.847278647124767303466796875">
        <ele>387.79998779296875</ele>
        <time>2021-04-01T07:49:11.000Z</time>
      </trkpt>
      <trkpt lat="41.65077346377074718475341796875" lon="-0.84725727327167987823486328125">
        <ele>387.600006103515625</ele>
        <time>2021-04-01T07:49:13.000Z</time>
      </trkpt>
      <trkpt lat="41.650680340826511383056640625" lon="-0.847198851406574249267578125">
        <ele>387.600006103515625</ele>
        <time>2021-04-01T07:49:17.000Z</time>
      </trkpt>
      <trkpt lat="41.6506194882094860076904296875" lon="-0.84716725163161754608154296875">
        <ele>387.600006103515625</ele>
        <time>2021-04-01T07:49:20.000Z</time>
      </trkpt>
      <trkpt lat="41.65055151097476482391357421875" lon="-0.84710623137652873992919921875">
        <ele>387.399993896484375</ele>
        <time>2021-04-01T07:49:23.000Z</time>
      </trkpt>
      <trkpt lat="41.65052703581750392913818359375" lon="-0.8470813371241092681884765625">
        <ele>387.20001220703125</ele>
        <time>2021-04-01T07:49:24.000Z</time>
      </trkpt>
      <trkpt lat="41.650478839874267578125" lon="-0.84702618420124053955078125">
        <ele>386.79998779296875</ele>
        <time>2021-04-01T07:49:26.000Z</time>
      </trkpt>
      <trkpt lat="41.6503836214542388916015625" lon="-0.84686650894582271575927734375">
        <ele>387.20001220703125</ele>
        <time>2021-04-01T07:49:32.000Z</time>
      </trkpt>
      <trkpt lat="41.65032419376075267791748046875" lon="-0.8467048220336437225341796875">
        <ele>386.600006103515625</ele>
        <time>2021-04-01T07:49:37.000Z</time>
      </trkpt>
      <trkpt lat="41.65032201446592807769775390625" lon="-0.846666432917118072509765625">
        <ele>386.600006103515625</ele>
        <time>2021-04-01T07:49:38.000Z</time>
      </trkpt>
      <trkpt lat="41.6503106988966464996337890625" lon="-0.8463899977505207061767578125">
        <ele>386.600006103515625</ele>
        <time>2021-04-01T07:49:44.000Z</time>
      </trkpt>
      <trkpt lat="41.65026820264756679534912109375" lon="-0.846112556755542755126953125">
        <ele>387.600006103515625</ele>
        <time>2021-04-01T07:49:50.000Z</time>
      </trkpt>
      <trkpt lat="41.65024272166192531585693359375" lon="-0.84608598612248897552490234375">
        <ele>387.79998779296875</ele>
        <time>2021-04-01T07:49:52.000Z</time>
      </trkpt>
      <trkpt lat="41.65023869834840297698974609375" lon="-0.846084058284759521484375">
        <ele>387.79998779296875</ele>
        <time>2021-04-01T07:49:53.000Z</time>
      </trkpt>
      <trkpt lat="41.65022897534072399139404296875" lon="-0.8460973016917705535888671875">
        <ele>387.600006103515625</ele>
        <time>2021-04-01T07:49:56.000Z</time>
      </trkpt>
      <trkpt lat="41.650204248726367950439453125" lon="-0.84609855897724628448486328125">
        <ele>386.399993896484375</ele>
        <time>2021-04-01T07:50:00.000Z</time>
      </trkpt>
      <trkpt lat="41.6501958668231964111328125" lon="-0.846097134053707122802734375">
        <ele>386</ele>
        <time>2021-04-01T07:50:01.000Z</time>
      </trkpt>
      <trkpt lat="41.6501769237220287322998046875" lon="-0.84609671495854854583740234375">
        <ele>385.399993896484375</ele>
        <time>2021-04-01T07:50:04.000Z</time>
      </trkpt>
      <trkpt lat="41.65017600171267986297607421875" lon="-0.8460942842066287994384765625">
        <ele>385.20001220703125</ele>
        <time>2021-04-01T07:50:06.000Z</time>
      </trkpt>
      <trkpt lat="41.650172732770442962646484375" lon="-0.84609009325504302978515625">
        <ele>385</ele>
        <time>2021-04-01T07:50:07.000Z</time>
      </trkpt>
      <trkpt lat="41.6501651890575885772705078125" lon="-0.8460791967809200286865234375">
        <ele>385</ele>
        <time>2021-04-01T07:50:08.000Z</time>
      </trkpt>
      <trkpt lat="41.650134511291980743408203125" lon="-0.8460178412497043609619140625">
        <ele>385</ele>
        <time>2021-04-01T07:50:12.000Z</time>
      </trkpt>
      <trkpt lat="41.65008832700550556182861328125" lon="-0.84587560035288333892822265625">
        <ele>384.20001220703125</ele>
        <time>2021-04-01T07:50:20.000Z</time>
      </trkpt>
      <trkpt lat="41.65005932562053203582763671875" lon="-0.84584525786340236663818359375">
        <ele>384.399993896484375</ele>
        <time>2021-04-01T07:50:24.000Z</time>
      </trkpt>
      <trkpt lat="41.65004323236644268035888671875" lon="-0.845829583704471588134765625">
        <ele>384.399993896484375</ele>
        <time>2021-04-01T07:50:26.000Z</time>
      </trkpt>
      <trkpt lat="41.65001674555242061614990234375" lon="-0.845793373882770538330078125">
        <ele>384.600006103515625</ele>
        <time>2021-04-01T07:50:30.000Z</time>
      </trkpt>
      <trkpt lat="41.6500019095838069915771484375" lon="-0.84575607441365718841552734375">
        <ele>384.399993896484375</ele>
        <time>2021-04-01T07:50:32.000Z</time>
      </trkpt>
      <trkpt lat="41.64993560872972011566162109375" lon="-0.84558441303670406341552734375">
        <ele>384</ele>
        <time>2021-04-01T07:50:39.000Z</time>
      </trkpt>
      <trkpt lat="41.64992504753172397613525390625" lon="-0.84555608220398426055908203125">
        <ele>384</ele>
        <time>2021-04-01T07:50:40.000Z</time>
      </trkpt>
      <trkpt lat="41.649866290390491485595703125" lon="-0.8454002626240253448486328125">
        <ele>384</ele>
        <time>2021-04-01T07:50:46.000Z</time>
      </trkpt>
      <trkpt lat="41.64982966147363185882568359375" lon="-0.8453600294888019561767578125">
        <ele>384.20001220703125</ele>
        <time>2021-04-01T07:50:48.000Z</time>
      </trkpt>
      <trkpt lat="41.64977551437914371490478515625" lon="-0.8452212251722812652587890625">
        <ele>383.600006103515625</ele>
        <time>2021-04-01T07:50:52.000Z</time>
      </trkpt>
      <trkpt lat="41.64975799620151519775390625" lon="-0.84513095207512378692626953125">
        <ele>383.399993896484375</ele>
        <time>2021-04-01T07:50:54.000Z</time>
      </trkpt>
      <trkpt lat="41.64974248968064785003662109375" lon="-0.844931714236736297607421875">
        <ele>383.399993896484375</ele>
        <time>2021-04-01T07:50:58.000Z</time>
      </trkpt>
      <trkpt lat="41.6497045196592807769775390625" lon="-0.84463633596897125244140625">
        <ele>383</ele>
        <time>2021-04-01T07:51:04.000Z</time>
      </trkpt>
      <trkpt lat="41.6496968083083629608154296875" lon="-0.84458881057798862457275390625">
        <ele>382.79998779296875</ele>
        <time>2021-04-01T07:51:05.000Z</time>
      </trkpt>
      <trkpt lat="41.64964073337614536285400390625" lon="-0.8443164825439453125">
        <ele>383.399993896484375</ele>
        <time>2021-04-01T07:51:11.000Z</time>
      </trkpt>
      <trkpt lat="41.64963486604392528533935546875" lon="-0.8442821167409420013427734375">
        <ele>383.20001220703125</ele>
        <time>2021-04-01T07:51:12.000Z</time>
      </trkpt>
      <trkpt lat="41.6496352851390838623046875" lon="-0.84424967877566814422607421875">
        <ele>383.399993896484375</ele>
        <time>2021-04-01T07:51:13.000Z</time>
      </trkpt>
      <trkpt lat="41.6496398113667964935302734375" lon="-0.844210870563983917236328125">
        <ele>383</ele>
        <time>2021-04-01T07:51:15.000Z</time>
      </trkpt>
      <trkpt lat="41.649647019803524017333984375" lon="-0.844197459518909454345703125">
        <ele>383</ele>
        <time>2021-04-01T07:51:16.000Z</time>
      </trkpt>
      <trkpt lat="41.64970611222088336944580078125" lon="-0.8441376127302646636962890625">
        <ele>382.79998779296875</ele>
        <time>2021-04-01T07:51:19.000Z</time>
      </trkpt>
      <trkpt lat="41.64976947940886020660400390625" lon="-0.84411439485847949981689453125">
        <ele>382.600006103515625</ele>
        <time>2021-04-01T07:51:22.000Z</time>
      </trkpt>
      <trkpt lat="41.64978750050067901611328125" lon="-0.8441168256103992462158203125">
        <ele>382.79998779296875</ele>
        <time>2021-04-01T07:51:23.000Z</time>
      </trkpt>
      <trkpt lat="41.64980384521186351776123046875" lon="-0.84411405958235263824462890625">
        <ele>382.79998779296875</ele>
        <time>2021-04-01T07:51:24.000Z</time>
      </trkpt>
      <trkpt lat="41.64983552880585193634033203125" lon="-0.8440765924751758575439453125">
        <ele>383.20001220703125</ele>
        <time>2021-04-01T07:51:26.000Z</time>
      </trkpt>
      <trkpt lat="41.64984357543289661407470703125" lon="-0.84405505098402500152587890625">
        <ele>383.20001220703125</ele>
        <time>2021-04-01T07:51:27.000Z</time>
      </trkpt>
      <trkpt lat="41.64987458847463130950927734375" lon="-0.84393183700740337371826171875">
        <ele>383.79998779296875</ele>
        <time>2021-04-01T07:51:33.000Z</time>
      </trkpt>
      <trkpt lat="41.6498808749020099639892578125" lon="-0.84391138516366481781005859375">
        <ele>384</ele>
        <time>2021-04-01T07:51:34.000Z</time>
      </trkpt>
      <trkpt lat="41.6498818807303905487060546875" lon="-0.8437845669686794281005859375">
        <ele>384.20001220703125</ele>
        <time>2021-04-01T07:51:39.000Z</time>
      </trkpt>
      <trkpt lat="41.64988783188164234161376953125" lon="-0.84375296719372272491455078125">
        <ele>384.20001220703125</ele>
        <time>2021-04-01T07:51:40.000Z</time>
      </trkpt>
      <trkpt lat="41.64987056516110897064208984375" lon="-0.84368574433028697967529296875">
        <ele>384</ele>
        <time>2021-04-01T07:51:44.000Z</time>
      </trkpt>
      <trkpt lat="41.6498409770429134368896484375" lon="-0.8435917831957340240478515625">
        <ele>383.600006103515625</ele>
        <time>2021-04-01T07:51:48.000Z</time>
      </trkpt>
      <trkpt lat="41.649756990373134613037109375" lon="-0.8434053696691989898681640625">
        <ele>383.79998779296875</ele>
        <time>2021-04-01T07:51:55.000Z</time>
      </trkpt>
      <trkpt lat="41.6497045196592807769775390625" lon="-0.843280144035816192626953125">
        <ele>383.79998779296875</ele>
        <time>2021-04-01T07:51:59.000Z</time>
      </trkpt>
      <trkpt lat="41.64962413720786571502685546875" lon="-0.8431344665586948394775390625">
        <ele>384</ele>
        <time>2021-04-01T07:52:04.000Z</time>
      </trkpt>
      <trkpt lat="41.6495546512305736541748046875" lon="-0.84299608133733272552490234375">
        <ele>384</ele>
        <time>2021-04-01T07:52:09.000Z</time>
      </trkpt>
      <trkpt lat="41.64951081387698650360107421875" lon="-0.84292014129459857940673828125">
        <ele>384</ele>
        <time>2021-04-01T07:52:12.000Z</time>
      </trkpt>
      <trkpt lat="41.64950142614543437957763671875" lon="-0.84289868362247943878173828125">
        <ele>384</ele>
        <time>2021-04-01T07:52:13.000Z</time>
      </trkpt>
      <trkpt lat="41.64949715137481689453125" lon="-0.84286264143884181976318359375">
        <ele>384</ele>
        <time>2021-04-01T07:52:15.000Z</time>
      </trkpt>
      <trkpt lat="41.64948080666363239288330078125" lon="-0.84263901226222515106201171875">
        <ele>383.600006103515625</ele>
        <time>2021-04-01T07:52:20.000Z</time>
      </trkpt>
      <trkpt lat="41.64942649193108081817626953125" lon="-0.8423807658255100250244140625">
        <ele>383.399993896484375</ele>
        <time>2021-04-01T07:52:26.000Z</time>
      </trkpt>
      <trkpt lat="41.64942380972206592559814453125" lon="-0.8422262035310268402099609375">
        <ele>383.399993896484375</ele>
        <time>2021-04-01T07:52:31.000Z</time>
      </trkpt>
      <trkpt lat="41.649424396455287933349609375" lon="-0.84213249385356903076171875">
        <ele>384.20001220703125</ele>
        <time>2021-04-01T07:52:34.000Z</time>
      </trkpt>
      <trkpt lat="41.64942716248333454132080078125" lon="-0.84210122935473918914794921875">
        <ele>384.600006103515625</ele>
        <time>2021-04-01T07:52:36.000Z</time>
      </trkpt>
      <trkpt lat="41.64946957491338253021240234375" lon="-0.84200969897210597991943359375">
        <ele>384.399993896484375</ele>
        <time>2021-04-01T07:52:42.000Z</time>
      </trkpt>
      <trkpt lat="41.64948600344359874725341796875" lon="-0.841974914073944091796875">
        <ele>384.79998779296875</ele>
        <time>2021-04-01T07:52:44.000Z</time>
      </trkpt>
      <trkpt lat="41.64949689991772174835205078125" lon="-0.841941721737384796142578125">
        <ele>385.20001220703125</ele>
        <time>2021-04-01T07:52:46.000Z</time>
      </trkpt>
      <trkpt lat="41.64952053688466548919677734375" lon="-0.8419117145240306854248046875">
        <ele>386</ele>
        <time>2021-04-01T07:52:49.000Z</time>
      </trkpt>
      <trkpt lat="41.64952640421688556671142578125" lon="-0.841898806393146514892578125">
        <ele>386.399993896484375</ele>
        <time>2021-04-01T07:52:50.000Z</time>
      </trkpt>
      <trkpt lat="41.64956890046596527099609375" lon="-0.84182781167328357696533203125">
        <ele>387.600006103515625</ele>
        <time>2021-04-01T07:52:55.000Z</time>
      </trkpt>
      <trkpt lat="41.64957694709300994873046875" lon="-0.841810293495655059814453125">
        <ele>387.79998779296875</ele>
        <time>2021-04-01T07:52:58.000Z</time>
      </trkpt>
      <trkpt lat="41.64958155713975429534912109375" lon="-0.8417866565287113189697265625">
        <ele>387.79998779296875</ele>
        <time>2021-04-01T07:53:05.000Z</time>
      </trkpt>
      <trkpt lat="41.6495870053768157958984375" lon="-0.8417491056025028228759765625">
        <ele>387.600006103515625</ele>
        <time>2021-04-01T07:53:07.000Z</time>
      </trkpt>
      <trkpt lat="41.64960519410669803619384765625" lon="-0.841603092849254608154296875">
        <ele>387.20001220703125</ele>
        <time>2021-04-01T07:53:12.000Z</time>
      </trkpt>
      <trkpt lat="41.6495844908058643341064453125" lon="-0.84141458384692668914794921875">
        <ele>386.79998779296875</ele>
        <time>2021-04-01T07:53:18.000Z</time>
      </trkpt>
      <trkpt lat="41.64958206005394458770751953125" lon="-0.84138214588165283203125">
        <ele>386.79998779296875</ele>
        <time>2021-04-01T07:53:19.000Z</time>
      </trkpt>
      <trkpt lat="41.64955548942089080810546875" lon="-0.8412274159491062164306640625">
        <ele>386.600006103515625</ele>
        <time>2021-04-01T07:53:23.000Z</time>
      </trkpt>
      <trkpt lat="41.6495398990809917449951171875" lon="-0.841133706271648406982421875">
        <ele>386.600006103515625</ele>
        <time>2021-04-01T07:53:25.000Z</time>
      </trkpt>
      <trkpt lat="41.64951081387698650360107421875" lon="-0.8409796468913555145263671875">
        <ele>386.600006103515625</ele>
        <time>2021-04-01T07:53:28.000Z</time>
      </trkpt>
      <trkpt lat="41.64947460405528545379638671875" lon="-0.8408202230930328369140625">
        <ele>386.600006103515625</ele>
        <time>2021-04-01T07:53:31.000Z</time>
      </trkpt>
      <trkpt lat="41.649461276829242706298828125" lon="-0.84076590836048126220703125">
        <ele>386.600006103515625</ele>
        <time>2021-04-01T07:53:32.000Z</time>
      </trkpt>
      <trkpt lat="41.649447195231914520263671875" lon="-0.84071167744696140289306640625">
        <ele>386.79998779296875</ele>
        <time>2021-04-01T07:53:33.000Z</time>
      </trkpt>
      <trkpt lat="41.64943219162523746490478515625" lon="-0.8406584523618221282958984375">
        <ele>386.79998779296875</ele>
        <time>2021-04-01T07:53:34.000Z</time>
      </trkpt>
      <trkpt lat="41.6493883542716503143310546875" lon="-0.84050011821091175079345703125">
        <ele>386.79998779296875</ele>
        <time>2021-04-01T07:53:37.000Z</time>
      </trkpt>
      <trkpt lat="41.64930528961122035980224609375" lon="-0.84023860283195972442626953125">
        <ele>386.399993896484375</ele>
        <time>2021-04-01T07:53:42.000Z</time>
      </trkpt>
      <trkpt lat="41.64927327074110507965087890625" lon="-0.8401347510516643524169921875">
        <ele>386.399993896484375</ele>
        <time>2021-04-01T07:53:44.000Z</time>
      </trkpt>
      <trkpt lat="41.64919079281389713287353515625" lon="-0.8399350941181182861328125">
        <ele>386.600006103515625</ele>
        <time>2021-04-01T07:53:48.000Z</time>
      </trkpt>
      <trkpt lat="41.64912574924528598785400390625" lon="-0.83978279493749141693115234375">
        <ele>386.79998779296875</ele>
        <time>2021-04-01T07:53:51.000Z</time>
      </trkpt>
      <trkpt lat="41.64909725077450275421142578125" lon="-0.83973820321261882781982421875">
        <ele>386.79998779296875</ele>
        <time>2021-04-01T07:53:52.000Z</time>
      </trkpt>
      <trkpt lat="41.6490631364285945892333984375" lon="-0.8397022448480129241943359375">
        <ele>387</ele>
        <time>2021-04-01T07:53:53.000Z</time>
      </trkpt>
      <trkpt lat="41.64899465627968311309814453125" lon="-0.839636363089084625244140625">
        <ele>387</ele>
        <time>2021-04-01T07:53:55.000Z</time>
      </trkpt>
      <trkpt lat="41.64893682114779949188232421875" lon="-0.839557237923145294189453125">
        <ele>387.20001220703125</ele>
        <time>2021-04-01T07:53:57.000Z</time>
      </trkpt>
      <trkpt lat="41.64884529076516628265380859375" lon="-0.8393200300633907318115234375">
        <ele>387.20001220703125</ele>
        <time>2021-04-01T07:54:02.000Z</time>
      </trkpt>
      <trkpt lat="41.64882752113044261932373046875" lon="-0.83926965482532978057861328125">
        <ele>387.20001220703125</ele>
        <time>2021-04-01T07:54:03.000Z</time>
      </trkpt>
      <trkpt lat="41.64868385531008243560791015625" lon="-0.83887159824371337890625">
        <ele>387</ele>
        <time>2021-04-01T07:54:11.000Z</time>
      </trkpt>
      <trkpt lat="41.6485417820513248443603515625" lon="-0.83848242647945880889892578125">
        <ele>387.399993896484375</ele>
        <time>2021-04-01T07:54:19.000Z</time>
      </trkpt>
      <trkpt lat="41.6485236771404743194580078125" lon="-0.83843464963138103485107421875">
        <ele>387.20001220703125</ele>
        <time>2021-04-01T07:54:20.000Z</time>
      </trkpt>
      <trkpt lat="41.64844262413680553436279296875" lon="-0.83824186585843563079833984375">
        <ele>387.600006103515625</ele>
        <time>2021-04-01T07:54:24.000Z</time>
      </trkpt>
      <trkpt lat="41.648351848125457763671875" lon="-0.83806014619767665863037109375">
        <ele>388</ele>
        <time>2021-04-01T07:54:28.000Z</time>
      </trkpt>
      <trkpt lat="41.64814330637454986572265625" lon="-0.8376905880868434906005859375">
        <ele>387</ele>
        <time>2021-04-01T07:54:36.000Z</time>
      </trkpt>
      <trkpt lat="41.64808991365134716033935546875" lon="-0.8376050926744937896728515625">
        <ele>387.20001220703125</ele>
        <time>2021-04-01T07:54:38.000Z</time>
      </trkpt>
      <trkpt lat="41.6479991376399993896484375" lon="-0.837447009980678558349609375">
        <ele>387.600006103515625</ele>
        <time>2021-04-01T07:54:42.000Z</time>
      </trkpt>
      <trkpt lat="41.64795345626771450042724609375" lon="-0.83736746571958065032958984375">
        <ele>388</ele>
        <time>2021-04-01T07:54:44.000Z</time>
      </trkpt>
      <trkpt lat="41.647778190672397613525390625" lon="-0.83710628561675548553466796875">
        <ele>388</ele>
        <time>2021-04-01T07:54:51.000Z</time>
      </trkpt>
      <trkpt lat="41.64765673689544200897216796875" lon="-0.8369452692568302154541015625">
        <ele>387.600006103515625</ele>
        <time>2021-04-01T07:54:55.000Z</time>
      </trkpt>
      <trkpt lat="41.647565625607967376708984375" lon="-0.8368208818137645721435546875">
        <ele>387</ele>
        <time>2021-04-01T07:54:58.000Z</time>
      </trkpt>
      <trkpt lat="41.6473961435258388519287109375" lon="-0.83655810914933681488037109375">
        <ele>386.79998779296875</ele>
        <time>2021-04-01T07:55:04.000Z</time>
      </trkpt>
      <trkpt lat="41.6473528929054737091064453125" lon="-0.8364470489323139190673828125">
        <ele>386.79998779296875</ele>
        <time>2021-04-01T07:55:06.000Z</time>
      </trkpt>
      <trkpt lat="41.64733202196657657623291015625" lon="-0.83638845942914485931396484375">
        <ele>386.79998779296875</ele>
        <time>2021-04-01T07:55:07.000Z</time>
      </trkpt>
      <trkpt lat="41.647305786609649658203125" lon="-0.8363323844969272613525390625">
        <ele>386.79998779296875</ele>
        <time>2021-04-01T07:55:08.000Z</time>
      </trkpt>
      <trkpt lat="41.64720428176224231719970703125" lon="-0.8361992798745632171630859375">
        <ele>387</ele>
        <time>2021-04-01T07:55:11.000Z</time>
      </trkpt>
      <trkpt lat="41.64711199700832366943359375" lon="-0.83606441505253314971923828125">
        <ele>387</ele>
        <time>2021-04-01T07:55:14.000Z</time>
      </trkpt>
      <trkpt lat="41.64708106778562068939208984375" lon="-0.836020074784755706787109375">
        <ele>387</ele>
        <time>2021-04-01T07:55:15.000Z</time>
      </trkpt>
      <trkpt lat="41.64704938419163227081298828125" lon="-0.8359749801456928253173828125">
        <ele>387</ele>
        <time>2021-04-01T07:55:16.000Z</time>
      </trkpt>
      <trkpt lat="41.6469807364046573638916015625" lon="-0.83588789217174053192138671875">
        <ele>387</ele>
        <time>2021-04-01T07:55:18.000Z</time>
      </trkpt>
      <trkpt lat="41.64690705947577953338623046875" lon="-0.8358073420822620391845703125">
        <ele>387</ele>
        <time>2021-04-01T07:55:20.000Z</time>
      </trkpt>
      <trkpt lat="41.64664797484874725341796875" lon="-0.8355511911213397979736328125">
        <ele>386.79998779296875</ele>
        <time>2021-04-01T07:55:27.000Z</time>
      </trkpt>
      <trkpt lat="41.64646047167479991912841796875" lon="-0.83536083810031414031982421875">
        <ele>386.600006103515625</ele>
        <time>2021-04-01T07:55:32.000Z</time>
      </trkpt>
      <trkpt lat="41.64638235233724117279052734375" lon="-0.83528422750532627105712890625">
        <ele>386.600006103515625</ele>
        <time>2021-04-01T07:55:34.000Z</time>
      </trkpt>
      <trkpt lat="41.64634287357330322265625" lon="-0.8352467603981494903564453125">
        <ele>386.399993896484375</ele>
        <time>2021-04-01T07:55:35.000Z</time>
      </trkpt>
      <trkpt lat="41.64605059660971164703369140625" lon="-0.8350204490125179290771484375">
        <ele>386.79998779296875</ele>
        <time>2021-04-01T07:55:42.000Z</time>
      </trkpt>
      <trkpt lat="41.64596543647348880767822265625" lon="-0.8349704928696155548095703125">
        <ele>386.600006103515625</ele>
        <time>2021-04-01T07:55:44.000Z</time>
      </trkpt>
      <trkpt lat="41.6457328386604785919189453125" lon="-0.8348112367093563079833984375">
        <ele>386.20001220703125</ele>
        <time>2021-04-01T07:55:50.000Z</time>
      </trkpt>
      <trkpt lat="41.6456959582865238189697265625" lon="-0.8347813971340656280517578125">
        <ele>386</ele>
        <time>2021-04-01T07:55:51.000Z</time>
      </trkpt>
      <trkpt lat="41.64550728164613246917724609375" lon="-0.83464016206562519073486328125">
        <ele>385.79998779296875</ele>
        <time>2021-04-01T07:55:56.000Z</time>
      </trkpt>
      <trkpt lat="41.64542631246149539947509765625" lon="-0.83459204994142055511474609375">
        <ele>385.79998779296875</ele>
        <time>2021-04-01T07:55:58.000Z</time>
      </trkpt>
      <trkpt lat="41.6452284157276153564453125" lon="-0.8344461210072040557861328125">
        <ele>386</ele>
        <time>2021-04-01T07:56:03.000Z</time>
      </trkpt>
      <trkpt lat="41.645071506500244140625" lon="-0.8343260921537876129150390625">
        <ele>386.399993896484375</ele>
        <time>2021-04-01T07:56:07.000Z</time>
      </trkpt>
      <trkpt lat="41.64487193338572978973388671875" lon="-0.83418401889503002166748046875">
        <ele>386.600006103515625</ele>
        <time>2021-04-01T07:56:12.000Z</time>
      </trkpt>
      <trkpt lat="41.64483119733631610870361328125" lon="-0.834157280623912811279296875">
        <ele>386.600006103515625</ele>
        <time>2021-04-01T07:56:13.000Z</time>
      </trkpt>
      <trkpt lat="41.644790209829807281494140625" lon="-0.8341334760189056396484375">
        <ele>386.399993896484375</ele>
        <time>2021-04-01T07:56:14.000Z</time>
      </trkpt>
      <trkpt lat="41.64475022815167903900146484375" lon="-0.8341088332235813140869140625">
        <ele>386.399993896484375</ele>
        <time>2021-04-01T07:56:15.000Z</time>
      </trkpt>
      <trkpt lat="41.6447105817496776580810546875" lon="-0.834085531532764434814453125">
        <ele>386.20001220703125</ele>
        <time>2021-04-01T07:56:16.000Z</time>
      </trkpt>
      <trkpt lat="41.6445560194551944732666015625" lon="-0.83398402668535709381103515625">
        <ele>386.20001220703125</ele>
        <time>2021-04-01T07:56:20.000Z</time>
      </trkpt>
      <trkpt lat="41.644442863762378692626953125" lon="-0.833890400826930999755859375">
        <ele>386.20001220703125</ele>
        <time>2021-04-01T07:56:23.000Z</time>
      </trkpt>
      <trkpt lat="41.64431118406355381011962890625" lon="-0.8337504230439662933349609375">
        <ele>386.20001220703125</ele>
        <time>2021-04-01T07:56:27.000Z</time>
      </trkpt>
      <trkpt lat="41.64402770809829235076904296875" lon="-0.83352419547736644744873046875">
        <ele>386.600006103515625</ele>
        <time>2021-04-01T07:56:34.000Z</time>
      </trkpt>
      <trkpt lat="41.64394699037075042724609375" lon="-0.83347021602094173431396484375">
        <ele>386.20001220703125</ele>
        <time>2021-04-01T07:56:36.000Z</time>
      </trkpt>
      <trkpt lat="41.64374842308461666107177734375" lon="-0.83334616385400295257568359375">
        <ele>386.399993896484375</ele>
        <time>2021-04-01T07:56:41.000Z</time>
      </trkpt>
      <trkpt lat="41.64366762153804302215576171875" lon="-0.83329922519624233245849609375">
        <ele>386.399993896484375</ele>
        <time>2021-04-01T07:56:43.000Z</time>
      </trkpt>
      <trkpt lat="41.64333268068730831146240234375" lon="-0.83316595293581485748291015625">
        <ele>386.399993896484375</ele>
        <time>2021-04-01T07:56:51.000Z</time>
      </trkpt>
      <trkpt lat="41.6429860889911651611328125" lon="-0.83310074172914028167724609375">
        <ele>386.600006103515625</ele>
        <time>2021-04-01T07:56:59.000Z</time>
      </trkpt>
      <trkpt lat="41.64278869517147541046142578125" lon="-0.8331194333732128143310546875">
        <ele>386.20001220703125</ele>
        <time>2021-04-01T07:57:03.000Z</time>
      </trkpt>
      <trkpt lat="41.6426868550479412078857421875" lon="-0.833141393959522247314453125">
        <ele>386</ele>
        <time>2021-04-01T07:57:05.000Z</time>
      </trkpt>
      <trkpt lat="41.64234763942658901214599609375" lon="-0.83324524573981761932373046875">
        <ele>385.399993896484375</ele>
        <time>2021-04-01T07:57:12.000Z</time>
      </trkpt>
      <trkpt lat="41.64208092726767063140869140625" lon="-0.83331741392612457275390625">
        <ele>385.79998779296875</ele>
        <time>2021-04-01T07:57:18.000Z</time>
      </trkpt>
      <trkpt lat="41.64199861697852611541748046875" lon="-0.83334046415984630584716796875">
        <ele>386.399993896484375</ele>
        <time>2021-04-01T07:57:20.000Z</time>
      </trkpt>
      <trkpt lat="41.64195855148136615753173828125" lon="-0.8333502709865570068359375">
        <ele>386.600006103515625</ele>
        <time>2021-04-01T07:57:21.000Z</time>
      </trkpt>
      <trkpt lat="41.64176040329039096832275390625" lon="-0.8334171585738658905029296875">
        <ele>386.79998779296875</ele>
        <time>2021-04-01T07:57:26.000Z</time>
      </trkpt>
      <trkpt lat="41.641680859029293060302734375" lon="-0.8334510214626789093017578125">
        <ele>386.399993896484375</ele>
        <time>2021-04-01T07:57:28.000Z</time>
      </trkpt>
      <trkpt lat="41.64151514880359172821044921875" lon="-0.83351279608905315399169921875">
        <ele>386</ele>
        <time>2021-04-01T07:57:32.000Z</time>
      </trkpt>
      <trkpt lat="41.6413876600563526153564453125" lon="-0.83353760652244091033935546875">
        <ele>386</ele>
        <time>2021-04-01T07:57:35.000Z</time>
      </trkpt>
      <trkpt lat="41.641050539910793304443359375" lon="-0.83357515744864940643310546875">
        <ele>386.600006103515625</ele>
        <time>2021-04-01T07:57:43.000Z</time>
      </trkpt>
      <trkpt lat="41.640766225755214691162109375" lon="-0.83370474167168140411376953125">
        <ele>386.600006103515625</ele>
        <time>2021-04-01T07:57:50.000Z</time>
      </trkpt>
      <trkpt lat="41.6406825743615627288818359375" lon="-0.8337564580142498016357421875">
        <ele>386.600006103515625</ele>
        <time>2021-04-01T07:57:52.000Z</time>
      </trkpt>
      <trkpt lat="41.640610992908477783203125" lon="-0.83383600227534770965576171875">
        <ele>386.600006103515625</ele>
        <time>2021-04-01T07:57:54.000Z</time>
      </trkpt>
      <trkpt lat="41.64057956077158451080322265625" lon="-0.833879001438617706298828125">
        <ele>386.600006103515625</ele>
        <time>2021-04-01T07:57:55.000Z</time>
      </trkpt>
      <trkpt lat="41.6405491344630718231201171875" lon="-0.83392200060188770294189453125">
        <ele>386.399993896484375</ele>
        <time>2021-04-01T07:57:56.000Z</time>
      </trkpt>
      <trkpt lat="41.640519462525844573974609375" lon="-0.8339646644890308380126953125">
        <ele>386.399993896484375</ele>
        <time>2021-04-01T07:57:57.000Z</time>
      </trkpt>
      <trkpt lat="41.6404897905886173248291015625" lon="-0.8340062387287616729736328125">
        <ele>386.600006103515625</ele>
        <time>2021-04-01T07:57:58.000Z</time>
      </trkpt>
      <trkpt lat="41.6404586099088191986083984375" lon="-0.8340431191027164459228515625">
        <ele>386.600006103515625</ele>
        <time>2021-04-01T07:57:59.000Z</time>
      </trkpt>
      <trkpt lat="41.64042466320097446441650390625" lon="-0.83407723344862461090087890625">
        <ele>386.600006103515625</ele>
        <time>2021-04-01T07:58:00.000Z</time>
      </trkpt>
      <trkpt lat="41.640350483357906341552734375" lon="-0.83413993008434772491455078125">
        <ele>386.600006103515625</ele>
        <time>2021-04-01T07:58:02.000Z</time>
      </trkpt>
      <trkpt lat="41.6402735374867916107177734375" lon="-0.83419357426464557647705078125">
        <ele>386.600006103515625</ele>
        <time>2021-04-01T07:58:04.000Z</time>
      </trkpt>
      <trkpt lat="41.6400356590747833251953125" lon="-0.83432768471539020538330078125">
        <ele>386.79998779296875</ele>
        <time>2021-04-01T07:58:10.000Z</time>
      </trkpt>
      <trkpt lat="41.6399949230253696441650390625" lon="-0.83434847183525562286376953125">
        <ele>386.79998779296875</ele>
        <time>2021-04-01T07:58:11.000Z</time>
      </trkpt>
      <trkpt lat="41.6395704634487628936767578125" lon="-0.83457143045961856842041015625">
        <ele>386.399993896484375</ele>
        <time>2021-04-01T07:58:21.000Z</time>
      </trkpt>
      <trkpt lat="41.63914793170988559722900390625" lon="-0.83482347428798675537109375">
        <ele>386.399993896484375</ele>
        <time>2021-04-01T07:58:31.000Z</time>
      </trkpt>
      <trkpt lat="41.639105267822742462158203125" lon="-0.83484887145459651947021484375">
        <ele>386.20001220703125</ele>
        <time>2021-04-01T07:58:32.000Z</time>
      </trkpt>
      <trkpt lat="41.638756580650806427001953125" lon="-0.835002176463603973388671875">
        <ele>385.79998779296875</ele>
        <time>2021-04-01T07:58:40.000Z</time>
      </trkpt>
      <trkpt lat="41.6387133300304412841796875" lon="-0.83501902408897876739501953125">
        <ele>385.600006103515625</ele>
        <time>2021-04-01T07:58:41.000Z</time>
      </trkpt>
      <trkpt lat="41.63854694925248622894287109375" lon="-0.83509379066526889801025390625">
        <ele>385.79998779296875</ele>
        <time>2021-04-01T07:58:45.000Z</time>
      </trkpt>
      <trkpt lat="41.6384751163423061370849609375" lon="-0.8351555652916431427001953125">
        <ele>385.79998779296875</ele>
        <time>2021-04-01T07:58:47.000Z</time>
      </trkpt>
      <trkpt lat="41.63844385184347629547119140625" lon="-0.83519219420850276947021484375">
        <ele>386</ele>
        <time>2021-04-01T07:58:48.000Z</time>
      </trkpt>
      <trkpt lat="41.63829314522445201873779296875" lon="-0.835453458130359649658203125">
        <ele>386.20001220703125</ele>
        <time>2021-04-01T07:58:54.000Z</time>
      </trkpt>
      <trkpt lat="41.63819977082312107086181640625" lon="-0.83555010147392749786376953125">
        <ele>386.399993896484375</ele>
        <time>2021-04-01T07:58:57.000Z</time>
      </trkpt>
      <trkpt lat="41.63816004060208797454833984375" lon="-0.83557407371699810028076171875">
        <ele>386.20001220703125</ele>
        <time>2021-04-01T07:58:58.000Z</time>
      </trkpt>
      <trkpt lat="41.63811779581010341644287109375" lon="-0.83559771068394184112548828125">
        <ele>386.20001220703125</ele>
        <time>2021-04-01T07:58:59.000Z</time>
      </trkpt>
      <trkpt lat="41.63803003728389739990234375" lon="-0.835641883313655853271484375">
        <ele>386.600006103515625</ele>
        <time>2021-04-01T07:59:01.000Z</time>
      </trkpt>
      <trkpt lat="41.63777581416070461273193359375" lon="-0.83574405871331691741943359375">
        <ele>385.600006103515625</ele>
        <time>2021-04-01T07:59:07.000Z</time>
      </trkpt>
      <trkpt lat="41.637615971267223358154296875" lon="-0.83580122329294681549072265625">
        <ele>386</ele>
        <time>2021-04-01T07:59:11.000Z</time>
      </trkpt>
      <trkpt lat="41.6374178230762481689453125" lon="-0.8358767442405223846435546875">
        <ele>386.399993896484375</ele>
        <time>2021-04-01T07:59:16.000Z</time>
      </trkpt>
      <trkpt lat="41.63715521804988384246826171875" lon="-0.835985206067562103271484375">
        <ele>387.20001220703125</ele>
        <time>2021-04-01T07:59:23.000Z</time>
      </trkpt>
      <trkpt lat="41.637120433151721954345703125" lon="-0.836015380918979644775390625">
        <ele>387.20001220703125</ele>
        <time>2021-04-01T07:59:24.000Z</time>
      </trkpt>
      <trkpt lat="41.63690124638378620147705078125" lon="-0.836154520511627197265625">
        <ele>386.399993896484375</ele>
        <time>2021-04-01T07:59:30.000Z</time>
      </trkpt>
      <trkpt lat="41.63678624667227268218994140625" lon="-0.836207158863544464111328125">
        <ele>386.20001220703125</ele>
        <time>2021-04-01T07:59:33.000Z</time>
      </trkpt>
      <trkpt lat="41.6365865059196949005126953125" lon="-0.83624244667589664459228515625">
        <ele>385.79998779296875</ele>
        <time>2021-04-01T07:59:38.000Z</time>
      </trkpt>
      <trkpt lat="41.63650478236377239227294921875" lon="-0.83625401370227336883544921875">
        <ele>385.600006103515625</ele>
        <time>2021-04-01T07:59:40.000Z</time>
      </trkpt>
      <trkpt lat="41.63635290227830410003662109375" lon="-0.83630681969225406646728515625">
        <ele>386.20001220703125</ele>
        <time>2021-04-01T07:59:44.000Z</time>
      </trkpt>
      <trkpt lat="41.63620253093540668487548828125" lon="-0.836374796926975250244140625">
        <ele>386.20001220703125</ele>
        <time>2021-04-01T07:59:48.000Z</time>
      </trkpt>
      <trkpt lat="41.63616581819951534271240234375" lon="-0.83639952354133129119873046875">
        <ele>386.20001220703125</ele>
        <time>2021-04-01T07:59:49.000Z</time>
      </trkpt>
      <trkpt lat="41.63609742186963558197021484375" lon="-0.836451239883899688720703125">
        <ele>386.399993896484375</ele>
        <time>2021-04-01T07:59:51.000Z</time>
      </trkpt>
      <trkpt lat="41.63589290343225002288818359375" lon="-0.83652399480342864990234375">
        <ele>386.79998779296875</ele>
        <time>2021-04-01T07:59:57.000Z</time>
      </trkpt>
      <trkpt lat="41.6357308812439441680908203125" lon="-0.8366493880748748779296875">
        <ele>386.600006103515625</ele>
        <time>2021-04-01T08:00:02.000Z</time>
      </trkpt>
      <trkpt lat="41.63569509051740169525146484375" lon="-0.83665450103580951690673828125">
        <ele>386.600006103515625</ele>
        <time>2021-04-01T08:00:03.000Z</time>
      </trkpt>
      <trkpt lat="41.635655947029590606689453125" lon="-0.83666020072996616363525390625">
        <ele>386.399993896484375</ele>
        <time>2021-04-01T08:00:04.000Z</time>
      </trkpt>
      <trkpt lat="41.635617054998874664306640625" lon="-0.836677886545658111572265625">
        <ele>386.20001220703125</ele>
        <time>2021-04-01T08:00:05.000Z</time>
      </trkpt>
      <trkpt lat="41.6354365088045597076416015625" lon="-0.83676799200475215911865234375">
        <ele>385.79998779296875</ele>
        <time>2021-04-01T08:00:10.000Z</time>
      </trkpt>
      <trkpt lat="41.63538512773811817169189453125" lon="-0.83681627176702022552490234375">
        <ele>385.600006103515625</ele>
        <time>2021-04-01T08:00:12.000Z</time>
      </trkpt>
      <trkpt lat="41.6353325732052326202392578125" lon="-0.83687980659306049346923828125">
        <ele>385.399993896484375</ele>
        <time>2021-04-01T08:00:15.000Z</time>
      </trkpt>
      <trkpt lat="41.63530549965798854827880859375" lon="-0.83689657039940357208251953125">
        <ele>385.600006103515625</ele>
        <time>2021-04-01T08:00:17.000Z</time>
      </trkpt>
      <trkpt lat="41.63528253324329853057861328125" lon="-0.83689858205616474151611328125">
        <ele>385.79998779296875</ele>
        <time>2021-04-01T08:00:19.000Z</time>
      </trkpt>
      <trkpt lat="41.6352571360766887664794921875" lon="-0.83689623512327671051025390625">
        <ele>385.79998779296875</ele>
        <time>2021-04-01T08:00:20.000Z</time>
      </trkpt>
      <trkpt lat="41.6351565532386302947998046875" lon="-0.83695122040808200836181640625">
        <ele>385.600006103515625</ele>
        <time>2021-04-01T08:00:24.000Z</time>
      </trkpt>
      <trkpt lat="41.63510165177285671234130859375" lon="-0.83699430339038372039794921875">
        <ele>385.399993896484375</ele>
        <time>2021-04-01T08:00:27.000Z</time>
      </trkpt>
      <trkpt lat="41.63507918827235698699951171875" lon="-0.837010480463504791259765625">
        <ele>385.399993896484375</ele>
        <time>2021-04-01T08:00:28.000Z</time>
      </trkpt>
      <trkpt lat="41.63498531095683574676513671875" lon="-0.83704526536166667938232421875">
        <ele>385.79998779296875</ele>
        <time>2021-04-01T08:00:33.000Z</time>
      </trkpt>
      <trkpt lat="41.634824462234973907470703125" lon="-0.8370570838451385498046875">
        <ele>385.600006103515625</ele>
        <time>2021-04-01T08:00:39.000Z</time>
      </trkpt>
      <trkpt lat="41.63477358408272266387939453125" lon="-0.83709488622844219207763671875">
        <ele>385.600006103515625</ele>
        <time>2021-04-01T08:00:41.000Z</time>
      </trkpt>
      <trkpt lat="41.63473368622362613677978515625" lon="-0.83711651153862476348876953125">
        <ele>385.600006103515625</ele>
        <time>2021-04-01T08:00:43.000Z</time>
      </trkpt>
      <trkpt lat="41.63469814695417881011962890625" lon="-0.8371266536414623260498046875">
        <ele>385.600006103515625</ele>
        <time>2021-04-01T08:00:45.000Z</time>
      </trkpt>
      <trkpt lat="41.63465439341962337493896484375" lon="-0.8371360413730144500732421875">
        <ele>385.600006103515625</ele>
        <time>2021-04-01T08:00:47.000Z</time>
      </trkpt>
      <trkpt lat="41.634625308215618133544921875" lon="-0.83714819513261318206787109375">
        <ele>385.600006103515625</ele>
        <time>2021-04-01T08:00:49.000Z</time>
      </trkpt>
      <trkpt lat="41.634590439498424530029296875" lon="-0.83718440495431423187255859375">
        <ele>385.79998779296875</ele>
        <time>2021-04-01T08:00:52.000Z</time>
      </trkpt>
      <trkpt lat="41.6345218755304813385009765625" lon="-0.83721390925347805023193359375">
        <ele>385.79998779296875</ele>
        <time>2021-04-01T08:00:55.000Z</time>
      </trkpt>
      <trkpt lat="41.63444618694484233856201171875" lon="-0.8372453413903713226318359375">
        <ele>385.79998779296875</ele>
        <time>2021-04-01T08:00:58.000Z</time>
      </trkpt>
      <trkpt lat="41.634419448673725128173828125" lon="-0.83725330419838428497314453125">
        <ele>385.79998779296875</ele>
        <time>2021-04-01T08:00:59.000Z</time>
      </trkpt>
      <trkpt lat="41.6343780420720577239990234375" lon="-0.8372835628688335418701171875">
        <ele>386</ele>
        <time>2021-04-01T08:01:03.000Z</time>
      </trkpt>
      <trkpt lat="41.634316183626651763916015625" lon="-0.8373191021382808685302734375">
        <ele>385.79998779296875</ele>
        <time>2021-04-01T08:01:06.000Z</time>
      </trkpt>
      <trkpt lat="41.634275279939174652099609375" lon="-0.8373378776013851165771484375">
        <ele>385.79998779296875</ele>
        <time>2021-04-01T08:01:08.000Z</time>
      </trkpt>
      <trkpt lat="41.634125746786594390869140625" lon="-0.8373801223933696746826171875">
        <ele>385.79998779296875</ele>
        <time>2021-04-01T08:01:14.000Z</time>
      </trkpt>
      <trkpt lat="41.63410504348576068878173828125" lon="-0.837386660277843475341796875">
        <ele>385.79998779296875</ele>
        <time>2021-04-01T08:01:15.000Z</time>
      </trkpt>
      <trkpt lat="41.6340732760727405548095703125" lon="-0.83738573826849460601806640625">
        <ele>385.20001220703125</ele>
        <time>2021-04-01T08:01:18.000Z</time>
      </trkpt>
      <trkpt lat="41.63404519669711589813232421875" lon="-0.837390013039112091064453125">
        <ele>385.20001220703125</ele>
        <time>2021-04-01T08:01:20.000Z</time>
      </trkpt>
      <trkpt lat="41.63399423472583293914794921875" lon="-0.8374218642711639404296875">
        <ele>385.399993896484375</ele>
        <time>2021-04-01T08:01:23.000Z</time>
      </trkpt>
      <trkpt lat="41.63391326554119586944580078125" lon="-0.83744239993393421173095703125">
        <ele>385.600006103515625</ele>
        <time>2021-04-01T08:01:26.000Z</time>
      </trkpt>
      <trkpt lat="41.63389767520129680633544921875" lon="-0.83746234886348247528076171875">
        <ele>385.600006103515625</ele>
        <time>2021-04-01T08:01:27.000Z</time>
      </trkpt>
      <trkpt lat="41.6338667459785938262939453125" lon="-0.837491266429424285888671875">
        <ele>385.600006103515625</ele>
        <time>2021-04-01T08:01:29.000Z</time>
      </trkpt>
      <trkpt lat="41.63379809819161891937255859375" lon="-0.83751465193927288055419921875">
        <ele>385.600006103515625</ele>
        <time>2021-04-01T08:01:32.000Z</time>
      </trkpt>
      <trkpt lat="41.6337809152901172637939453125" lon="-0.83751833997666835784912109375">
        <ele>385.399993896484375</ele>
        <time>2021-04-01T08:01:33.000Z</time>
      </trkpt>
      <trkpt lat="41.633733808994293212890625" lon="-0.837534181773662567138671875">
        <ele>385</ele>
        <time>2021-04-01T08:01:35.000Z</time>
      </trkpt>
      <trkpt lat="41.633675806224346160888671875" lon="-0.83756108768284320831298828125">
        <ele>385</ele>
        <time>2021-04-01T08:01:38.000Z</time>
      </trkpt>
      <trkpt lat="41.63367270492017269134521484375" lon="-0.83756159059703350067138671875">
        <ele>385</ele>
        <time>2021-04-01T08:01:39.000Z</time>
      </trkpt>
      <trkpt lat="41.63364864885807037353515625" lon="-0.83755807019770145416259765625">
        <ele>385</ele>
        <time>2021-04-01T08:01:41.000Z</time>
      </trkpt>
      <trkpt lat="41.6336451284587383270263671875" lon="-0.83756326697766780853271484375">
        <ele>385</ele>
        <time>2021-04-01T08:01:42.000Z</time>
      </trkpt>
      <trkpt lat="41.63364060223102569580078125" lon="-0.83757114596664905548095703125">
        <ele>385</ele>
        <time>2021-04-01T08:01:43.000Z</time>
      </trkpt>
      <trkpt lat="41.6336169652640819549560546875" lon="-0.837583802640438079833984375">
        <ele>384.79998779296875</ele>
        <time>2021-04-01T08:01:45.000Z</time>
      </trkpt>
      <trkpt lat="41.63357832469046115875244140625" lon="-0.8376050926744937896728515625">
        <ele>384.79998779296875</ele>
        <time>2021-04-01T08:01:47.000Z</time>
      </trkpt>
      <trkpt lat="41.63340616039931774139404296875" lon="-0.837662927806377410888671875">
        <ele>385.399993896484375</ele>
        <time>2021-04-01T08:01:53.000Z</time>
      </trkpt>
      <trkpt lat="41.63334329612553119659423828125" lon="-0.83768648095428943634033203125">
        <ele>385.399993896484375</ele>
        <time>2021-04-01T08:01:55.000Z</time>
      </trkpt>
      <trkpt lat="41.63331463001668453216552734375" lon="-0.83770022727549076080322265625">
        <ele>385.399993896484375</ele>
        <time>2021-04-01T08:01:56.000Z</time>
      </trkpt>
      <trkpt lat="41.6332481615245342254638671875" lon="-0.8377330005168914794921875">
        <ele>385.20001220703125</ele>
        <time>2021-04-01T08:01:58.000Z</time>
      </trkpt>
      <trkpt lat="41.6330573894083499908447265625" lon="-0.83781908266246318817138671875">
        <ele>384.79998779296875</ele>
        <time>2021-04-01T08:02:03.000Z</time>
      </trkpt>
      <trkpt lat="41.632972396910190582275390625" lon="-0.83783249370753765106201171875">
        <ele>384.399993896484375</ele>
        <time>2021-04-01T08:02:05.000Z</time>
      </trkpt>
      <trkpt lat="41.632827557623386383056640625" lon="-0.8379113674163818359375">
        <ele>384.20001220703125</ele>
        <time>2021-04-01T08:02:09.000Z</time>
      </trkpt>
      <trkpt lat="41.6326409764587879180908203125" lon="-0.83803139626979827880859375">
        <ele>383.79998779296875</ele>
        <time>2021-04-01T08:02:15.000Z</time>
      </trkpt>
      <trkpt lat="41.6326104663312435150146484375" lon="-0.83803768269717693328857421875">
        <ele>383.79998779296875</ele>
        <time>2021-04-01T08:02:16.000Z</time>
      </trkpt>
      <trkpt lat="41.632552631199359893798828125" lon="-0.83804405294358730316162109375">
        <ele>384</ele>
        <time>2021-04-01T08:02:18.000Z</time>
      </trkpt>
      <trkpt lat="41.63246369920670986175537109375" lon="-0.83808562718331813812255859375">
        <ele>384.600006103515625</ele>
        <time>2021-04-01T08:02:21.000Z</time>
      </trkpt>
      <trkpt lat="41.6322755254805088043212890625" lon="-0.8382189832627773284912109375">
        <ele>384.20001220703125</ele>
        <time>2021-04-01T08:02:27.000Z</time>
      </trkpt>
      <trkpt lat="41.6322453506290912628173828125" lon="-0.8382106013596057891845703125">
        <ele>384.20001220703125</ele>
        <time>2021-04-01T08:02:28.000Z</time>
      </trkpt>
      <trkpt lat="41.632147617638111114501953125" lon="-0.8381626568734645843505859375">
        <ele>384.79998779296875</ele>
        <time>2021-04-01T08:02:31.000Z</time>
      </trkpt>
      <trkpt lat="41.6320579312741756439208984375" lon="-0.83812736906111240386962890625">
        <ele>385.20001220703125</ele>
        <time>2021-04-01T08:02:33.000Z</time>
      </trkpt>
      <trkpt lat="41.63200923241674900054931640625" lon="-0.838117897510528564453125">
        <ele>385</ele>
        <time>2021-04-01T08:02:34.000Z</time>
      </trkpt>
      <trkpt lat="41.63192608393728733062744140625" lon="-0.83812887780368328094482421875">
        <ele>384</ele>
        <time>2021-04-01T08:02:36.000Z</time>
      </trkpt>
      <trkpt lat="41.63174436427652835845947265625" lon="-0.8382367528975009918212890625">
        <ele>384</ele>
        <time>2021-04-01T08:02:41.000Z</time>
      </trkpt>
      <trkpt lat="41.63155510090291500091552734375" lon="-0.83830070681869983673095703125">
        <ele>384.79998779296875</ele>
        <time>2021-04-01T08:02:46.000Z</time>
      </trkpt>
      <trkpt lat="41.63139064796268939971923828125" lon="-0.838332138955593109130859375">
        <ele>385</ele>
        <time>2021-04-01T08:02:50.000Z</time>
      </trkpt>
      <trkpt lat="41.63117590360343456268310546875" lon="-0.8383928239345550537109375">
        <ele>384.399993896484375</ele>
        <time>2021-04-01T08:02:55.000Z</time>
      </trkpt>
      <trkpt lat="41.63113248534500598907470703125" lon="-0.83839760161936283111572265625">
        <ele>384</ele>
        <time>2021-04-01T08:02:56.000Z</time>
      </trkpt>
      <trkpt lat="41.63100256584584712982177734375" lon="-0.83841503597795963287353515625">
        <ele>383.399993896484375</ele>
        <time>2021-04-01T08:02:59.000Z</time>
      </trkpt>
      <trkpt lat="41.6308707185089588165283203125" lon="-0.838431380689144134521484375">
        <ele>383</ele>
        <time>2021-04-01T08:03:02.000Z</time>
      </trkpt>
      <trkpt lat="41.63078513927757740020751953125" lon="-0.8384338952600955963134765625">
        <ele>382.79998779296875</ele>
        <time>2021-04-01T08:03:04.000Z</time>
      </trkpt>
      <trkpt lat="41.63074105046689510345458984375" lon="-0.83843481726944446563720703125">
        <ele>382.79998779296875</ele>
        <time>2021-04-01T08:03:05.000Z</time>
      </trkpt>
      <trkpt lat="41.6306953690946102142333984375" lon="-0.83843909204006195068359375">
        <ele>382.79998779296875</ele>
        <time>2021-04-01T08:03:06.000Z</time>
      </trkpt>
      <trkpt lat="41.630561761558055877685546875" lon="-0.8384942449629306793212890625">
        <ele>382.399993896484375</ele>
        <time>2021-04-01T08:03:09.000Z</time>
      </trkpt>
      <trkpt lat="41.63051725365221500396728515625" lon="-0.83851846866309642791748046875">
        <ele>382.399993896484375</ele>
        <time>2021-04-01T08:03:10.000Z</time>
      </trkpt>
      <trkpt lat="41.63042454980313777923583984375" lon="-0.8385566063225269317626953125">
        <ele>382.79998779296875</ele>
        <time>2021-04-01T08:03:12.000Z</time>
      </trkpt>
      <trkpt lat="41.6303761862218379974365234375" lon="-0.83855484612286090850830078125">
        <ele>382.600006103515625</ele>
        <time>2021-04-01T08:03:13.000Z</time>
      </trkpt>
      <trkpt lat="41.6301559098064899444580078125" lon="-0.8385338075459003448486328125">
        <ele>383.600006103515625</ele>
        <time>2021-04-01T08:03:18.000Z</time>
      </trkpt>
      <trkpt lat="41.63007452152669429779052734375" lon="-0.838530957698822021484375">
        <ele>384</ele>
        <time>2021-04-01T08:03:20.000Z</time>
      </trkpt>
      <trkpt lat="41.6300321929156780242919921875" lon="-0.83853372372686862945556640625">
        <ele>384.20001220703125</ele>
        <time>2021-04-01T08:03:21.000Z</time>
      </trkpt>
      <trkpt lat="41.62999003194272518157958984375" lon="-0.83854143507778644561767578125">
        <ele>384.399993896484375</ele>
        <time>2021-04-01T08:03:22.000Z</time>
      </trkpt>
      <trkpt lat="41.6298233158886432647705078125" lon="-0.838593654334545135498046875">
        <ele>384.600006103515625</ele>
        <time>2021-04-01T08:03:26.000Z</time>
      </trkpt>
      <trkpt lat="41.6297405026853084564208984375" lon="-0.83862458355724811553955078125">
        <ele>384.600006103515625</ele>
        <time>2021-04-01T08:03:28.000Z</time>
      </trkpt>
      <trkpt lat="41.62950052879750728607177734375" lon="-0.838706307113170623779296875">
        <ele>384.20001220703125</ele>
        <time>2021-04-01T08:03:34.000Z</time>
      </trkpt>
      <trkpt lat="41.6294649057090282440185546875" lon="-0.8387322910130023956298828125">
        <ele>384.20001220703125</ele>
        <time>2021-04-01T08:03:35.000Z</time>
      </trkpt>
      <trkpt lat="41.62941721267998218536376953125" lon="-0.83879456855356693267822265625">
        <ele>384</ele>
        <time>2021-04-01T08:03:37.000Z</time>
      </trkpt>
      <trkpt lat="41.6293857805430889129638671875" lon="-0.83882675506174564361572265625">
        <ele>383.79998779296875</ele>
        <time>2021-04-01T08:03:38.000Z</time>
      </trkpt>
      <trkpt lat="41.62919492460787296295166015625" lon="-0.8390162698924541473388671875">
        <ele>383.79998779296875</ele>
        <time>2021-04-01T08:03:44.000Z</time>
      </trkpt>
      <trkpt lat="41.62916659377515316009521484375" lon="-0.83904300816357135772705078125">
        <ele>384</ele>
        <time>2021-04-01T08:03:45.000Z</time>
      </trkpt>
      <trkpt lat="41.62913356907665729522705078125" lon="-0.839056670665740966796875">
        <ele>384</ele>
        <time>2021-04-01T08:03:46.000Z</time>
      </trkpt>
      <trkpt lat="41.6290230117738246917724609375" lon="-0.839073769748210906982421875">
        <ele>383.79998779296875</ele>
        <time>2021-04-01T08:03:49.000Z</time>
      </trkpt>
      <trkpt lat="41.62893843837082386016845703125" lon="-0.83909086883068084716796875">
        <ele>383.600006103515625</ele>
        <time>2021-04-01T08:03:51.000Z</time>
      </trkpt>
      <trkpt lat="41.62889502011239528656005859375" lon="-0.83910972811281681060791015625">
        <ele>383.399993896484375</ele>
        <time>2021-04-01T08:03:52.000Z</time>
      </trkpt>
      <trkpt lat="41.62884808145463466644287109375" lon="-0.8391289226710796356201171875">
        <ele>383</ele>
        <time>2021-04-01T08:03:53.000Z</time>
      </trkpt>
      <trkpt lat="41.62879519164562225341796875" lon="-0.83914426155388355255126953125">
        <ele>382.600006103515625</ele>
        <time>2021-04-01T08:03:54.000Z</time>
      </trkpt>
      <trkpt lat="41.628630571067333221435546875" lon="-0.83916353993117809295654296875">
        <ele>382.20001220703125</ele>
        <time>2021-04-01T08:03:57.000Z</time>
      </trkpt>
      <trkpt lat="41.62853191606700420379638671875" lon="-0.83913973532617092132568359375">
        <ele>382</ele>
        <time>2021-04-01T08:03:59.000Z</time>
      </trkpt>
      <trkpt lat="41.62814802490174770355224609375" lon="-0.8390561677515506744384765625">
        <ele>383</ele>
        <time>2021-04-01T08:04:07.000Z</time>
      </trkpt>
      <trkpt lat="41.62795926444232463836669921875" lon="-0.8390186168253421783447265625">
        <ele>383.20001220703125</ele>
        <time>2021-04-01T08:04:11.000Z</time>
      </trkpt>
      <trkpt lat="41.6279125772416591644287109375" lon="-0.8390102349221706390380859375">
        <ele>383.20001220703125</ele>
        <time>2021-04-01T08:04:12.000Z</time>
      </trkpt>
      <trkpt lat="41.6277700848877429962158203125" lon="-0.83898902870714664459228515625">
        <ele>383.20001220703125</ele>
        <time>2021-04-01T08:04:15.000Z</time>
      </trkpt>
      <trkpt lat="41.6276329569518566131591796875" lon="-0.838967151939868927001953125">
        <ele>383</ele>
        <time>2021-04-01T08:04:18.000Z</time>
      </trkpt>
      <trkpt lat="41.6273684240877628326416015625" lon="-0.83888928405940532684326171875">
        <ele>383.399993896484375</ele>
        <time>2021-04-01T08:04:24.000Z</time>
      </trkpt>
      <trkpt lat="41.627235151827335357666015625" lon="-0.8388332091271877288818359375">
        <ele>383.600006103515625</ele>
        <time>2021-04-01T08:04:27.000Z</time>
      </trkpt>
      <trkpt lat="41.62714898586273193359375" lon="-0.83877864293754100799560546875">
        <ele>383.399993896484375</ele>
        <time>2021-04-01T08:04:29.000Z</time>
      </trkpt>
      <trkpt lat="41.62710514850914478302001953125" lon="-0.838750898838043212890625">
        <ele>383.20001220703125</ele>
        <time>2021-04-01T08:04:30.000Z</time>
      </trkpt>
      <trkpt lat="41.627014540135860443115234375" lon="-0.83870504982769489288330078125">
        <ele>382.600006103515625</ele>
        <time>2021-04-01T08:04:32.000Z</time>
      </trkpt>
      <trkpt lat="41.6268708743155002593994140625" lon="-0.83868426270782947540283203125">
        <ele>382.399993896484375</ele>
        <time>2021-04-01T08:04:35.000Z</time>
      </trkpt>
      <trkpt lat="41.62659284658730030059814453125" lon="-0.83859256468713283538818359375">
        <ele>382.600006103515625</ele>
        <time>2021-04-01T08:04:41.000Z</time>
      </trkpt>
      <trkpt lat="41.62649863399565219879150390625" lon="-0.83856917917728424072265625">
        <ele>382.79998779296875</ele>
        <time>2021-04-01T08:04:43.000Z</time>
      </trkpt>
      <trkpt lat="41.62640593014657497406005859375" lon="-0.83858661353588104248046875">
        <ele>382.79998779296875</ele>
        <time>2021-04-01T08:04:45.000Z</time>
      </trkpt>
      <trkpt lat="41.62636376917362213134765625" lon="-0.83860002458095550537109375">
        <ele>382.79998779296875</ele>
        <time>2021-04-01T08:04:46.000Z</time>
      </trkpt>
      <trkpt lat="41.62628598511219024658203125" lon="-0.83858795464038848876953125">
        <ele>382.79998779296875</ele>
        <time>2021-04-01T08:04:48.000Z</time>
      </trkpt>
      <trkpt lat="41.626252122223377227783203125" lon="-0.83855886943638324737548828125">
        <ele>382.79998779296875</ele>
        <time>2021-04-01T08:04:49.000Z</time>
      </trkpt>
      <trkpt lat="41.626057326793670654296875" lon="-0.8383579552173614501953125">
        <ele>383</ele>
        <time>2021-04-01T08:04:55.000Z</time>
      </trkpt>
      <trkpt lat="41.6260184347629547119140625" lon="-0.83833959884941577911376953125">
        <ele>383</ele>
        <time>2021-04-01T08:04:56.000Z</time>
      </trkpt>
      <trkpt lat="41.6257865913212299346923828125" lon="-0.8382545225322246551513671875">
        <ele>382</ele>
        <time>2021-04-01T08:05:02.000Z</time>
      </trkpt>
      <trkpt lat="41.6257148422300815582275390625" lon="-0.838189981877803802490234375">
        <ele>381.600006103515625</ele>
        <time>2021-04-01T08:05:04.000Z</time>
      </trkpt>
      <trkpt lat="41.6256169416010379791259765625" lon="-0.838135667145252227783203125">
        <ele>381.20001220703125</ele>
        <time>2021-04-01T08:05:07.000Z</time>
      </trkpt>
      <trkpt lat="41.62554527632892131805419921875" lon="-0.83804002963006496429443359375">
        <ele>381.79998779296875</ele>
        <time>2021-04-01T08:05:10.000Z</time>
      </trkpt>
      <trkpt lat="41.6255264170467853546142578125" lon="-0.83799828775227069854736328125">
        <ele>382</ele>
        <time>2021-04-01T08:05:11.000Z</time>
      </trkpt>
      <trkpt lat="41.6255012713372707366943359375" lon="-0.837954618036746978759765625">
        <ele>382.20001220703125</ele>
        <time>2021-04-01T08:05:12.000Z</time>
      </trkpt>
      <trkpt lat="41.6254337131977081298828125" lon="-0.8378816954791545867919921875">
        <ele>382.600006103515625</ele>
        <time>2021-04-01T08:05:14.000Z</time>
      </trkpt>
      <trkpt lat="41.6253946535289287567138671875" lon="-0.8378625847399234771728515625">
        <ele>382.600006103515625</ele>
        <time>2021-04-01T08:05:15.000Z</time>
      </trkpt>
      <trkpt lat="41.62531544454395771026611328125" lon="-0.83781774155795574188232421875">
        <ele>382.600006103515625</ele>
        <time>2021-04-01T08:05:17.000Z</time>
      </trkpt>
      <trkpt lat="41.62522927857935428619384765625" lon="-0.837757475674152374267578125">
        <ele>382.399993896484375</ele>
        <time>2021-04-01T08:05:19.000Z</time>
      </trkpt>
      <trkpt lat="41.6251834295690059661865234375" lon="-0.8377392031252384185791015625">
        <ele>382.20001220703125</ele>
        <time>2021-04-01T08:05:20.000Z</time>
      </trkpt>
      <trkpt lat="41.6250514984130859375" lon="-0.83768145181238651275634765625">
        <ele>381.79998779296875</ele>
        <time>2021-04-01T08:05:23.000Z</time>
      </trkpt>
      <trkpt lat="41.625009588897228240966796875" lon="-0.83765597082674503326416015625">
        <ele>381.79998779296875</ele>
        <time>2021-04-01T08:05:24.000Z</time>
      </trkpt>
      <trkpt lat="41.62489484064280986785888671875" lon="-0.8375725708901882171630859375">
        <ele>381.600006103515625</ele>
        <time>2021-04-01T08:05:27.000Z</time>
      </trkpt>
      <trkpt lat="41.62483029998838901519775390625" lon="-0.8375434018671512603759765625">
        <ele>381.79998779296875</ele>
        <time>2021-04-01T08:05:29.000Z</time>
      </trkpt>
      <trkpt lat="41.62472804076969623565673828125" lon="-0.83743368275463581085205078125">
        <ele>381.600006103515625</ele>
        <time>2021-04-01T08:05:32.000Z</time>
      </trkpt>
      <trkpt lat="41.62468965165317058563232421875" lon="-0.83738925866782665252685546875">
        <ele>381.399993896484375</ele>
        <time>2021-04-01T08:05:33.000Z</time>
      </trkpt>
      <trkpt lat="41.62456400692462921142578125" lon="-0.83721189759671688079833984375">
        <ele>381.79998779296875</ele>
        <time>2021-04-01T08:05:38.000Z</time>
      </trkpt>
      <trkpt lat="41.62449359893798828125" lon="-0.83717334084212779998779296875">
        <ele>382.399993896484375</ele>
        <time>2021-04-01T08:05:41.000Z</time>
      </trkpt>
      <trkpt lat="41.62446610629558563232421875" lon="-0.83714668639004230499267578125">
        <ele>382.600006103515625</ele>
        <time>2021-04-01T08:05:42.000Z</time>
      </trkpt>
      <trkpt lat="41.6244394518435001373291015625" lon="-0.83711550571024417877197265625">
        <ele>382.79998779296875</ele>
        <time>2021-04-01T08:05:43.000Z</time>
      </trkpt>
      <trkpt lat="41.62439175881445407867431640625" lon="-0.83704342134296894073486328125">
        <ele>382.600006103515625</ele>
        <time>2021-04-01T08:05:45.000Z</time>
      </trkpt>
      <trkpt lat="41.62436912767589092254638671875" lon="-0.8370029367506504058837890625">
        <ele>382.600006103515625</ele>
        <time>2021-04-01T08:05:46.000Z</time>
      </trkpt>
      <trkpt lat="41.6243398748338222503662109375" lon="-0.83698357455432415008544921875">
        <ele>382.399993896484375</ele>
        <time>2021-04-01T08:05:47.000Z</time>
      </trkpt>
      <trkpt lat="41.62431095726788043975830078125" lon="-0.8369942195713520050048828125">
        <ele>382.600006103515625</ele>
        <time>2021-04-01T08:05:48.000Z</time>
      </trkpt>
      <trkpt lat="41.62425882183015346527099609375" lon="-0.83704073913395404815673828125">
        <ele>382.20001220703125</ele>
        <time>2021-04-01T08:05:50.000Z</time>
      </trkpt>
      <trkpt lat="41.62410794757306575775146484375" lon="-0.83703302778303623199462890625">
        <ele>382</ele>
        <time>2021-04-01T08:05:54.000Z</time>
      </trkpt>
      <trkpt lat="41.62406553514301776885986328125" lon="-0.83701173774898052215576171875">
        <ele>381.79998779296875</ele>
        <time>2021-04-01T08:05:55.000Z</time>
      </trkpt>
      <trkpt lat="41.623989008367061614990234375" lon="-0.83694166503846645355224609375">
        <ele>381.79998779296875</ele>
        <time>2021-04-01T08:05:57.000Z</time>
      </trkpt>
      <trkpt lat="41.62390493787825107574462890625" lon="-0.83674150519073009490966796875">
        <ele>381.600006103515625</ele>
        <time>2021-04-01T08:06:01.000Z</time>
      </trkpt>
      <trkpt lat="41.623831428587436676025390625" lon="-0.8364554308354854583740234375">
        <ele>382.79998779296875</ele>
        <time>2021-04-01T08:06:07.000Z</time>
      </trkpt>
      <trkpt lat="41.6237910278141498565673828125" lon="-0.8363650739192962646484375">
        <ele>383</ele>
        <time>2021-04-01T08:06:09.000Z</time>
      </trkpt>
      <trkpt lat="41.6237640380859375" lon="-0.8363382518291473388671875">
        <ele>383</ele>
        <time>2021-04-01T08:06:10.000Z</time>
      </trkpt>
      <trkpt lat="41.6237450949847698211669921875" lon="-0.83631436340510845184326171875">
        <ele>383</ele>
        <time>2021-04-01T08:06:11.000Z</time>
      </trkpt>
      <trkpt lat="41.623628251254558563232421875" lon="-0.8362926542758941650390625">
        <ele>382.600006103515625</ele>
        <time>2021-04-01T08:06:15.000Z</time>
      </trkpt>
      <trkpt lat="41.62355440668761730194091796875" lon="-0.83626105450093746185302734375">
        <ele>381.600006103515625</ele>
        <time>2021-04-01T08:06:17.000Z</time>
      </trkpt>
      <trkpt lat="41.6234998404979705810546875" lon="-0.83620489574968814849853515625">
        <ele>381.600006103515625</ele>
        <time>2021-04-01T08:06:19.000Z</time>
      </trkpt>
      <trkpt lat="41.62342985160648822784423828125" lon="-0.8361318893730640411376953125">
        <ele>381.600006103515625</ele>
        <time>2021-04-01T08:06:22.000Z</time>
      </trkpt>
      <trkpt lat="41.623325832188129425048828125" lon="-0.8360705338418483734130859375">
        <ele>381.600006103515625</ele>
        <time>2021-04-01T08:06:26.000Z</time>
      </trkpt>
      <trkpt lat="41.6232234053313732147216796875" lon="-0.835987217724323272705078125">
        <ele>381.20001220703125</ele>
        <time>2021-04-01T08:06:30.000Z</time>
      </trkpt>
      <trkpt lat="41.62316665984690189361572265625" lon="-0.83595134317874908447265625">
        <ele>381.20001220703125</ele>
        <time>2021-04-01T08:06:32.000Z</time>
      </trkpt>
      <trkpt lat="41.62314017303287982940673828125" lon="-0.83593198098242282867431640625">
        <ele>381</ele>
        <time>2021-04-01T08:06:33.000Z</time>
      </trkpt>
      <trkpt lat="41.6230105049908161163330078125" lon="-0.83590130321681499481201171875">
        <ele>381.20001220703125</ele>
        <time>2021-04-01T08:06:38.000Z</time>
      </trkpt>
      <trkpt lat="41.6228824295103549957275390625" lon="-0.8359853737056255340576171875">
        <ele>381</ele>
        <time>2021-04-01T08:06:43.000Z</time>
      </trkpt>
      <trkpt lat="41.62282727658748626708984375" lon="-0.836025439202785491943359375">
        <ele>381.399993896484375</ele>
        <time>2021-04-01T08:06:46.000Z</time>
      </trkpt>
      <trkpt lat="41.6228083334863185882568359375" lon="-0.83602267317473888397216796875">
        <ele>381.600006103515625</ele>
        <time>2021-04-01T08:06:47.000Z</time>
      </trkpt>
      <trkpt lat="41.6226804256439208984375" lon="-0.8359354175627231597900390625">
        <ele>381.79998779296875</ele>
        <time>2021-04-01T08:06:52.000Z</time>
      </trkpt>
      <trkpt lat="41.62249736487865447998046875" lon="-0.83581631071865558624267578125">
        <ele>381.600006103515625</ele>
        <time>2021-04-01T08:06:58.000Z</time>
      </trkpt>
      <trkpt lat="41.6224334947764873504638671875" lon="-0.83576937206089496612548828125">
        <ele>381.600006103515625</ele>
        <time>2021-04-01T08:07:00.000Z</time>
      </trkpt>
      <trkpt lat="41.62223744206130504608154296875" lon="-0.83561900071799755096435546875">
        <ele>382</ele>
        <time>2021-04-01T08:07:06.000Z</time>
      </trkpt>
      <trkpt lat="41.62195145152509212493896484375" lon="-0.83540895022451877593994140625">
        <ele>380.79998779296875</ele>
        <time>2021-04-01T08:07:15.000Z</time>
      </trkpt>
      <trkpt lat="41.6216640360653400421142578125" lon="-0.83519102074205875396728515625">
        <ele>380.79998779296875</ele>
        <time>2021-04-01T08:07:24.000Z</time>
      </trkpt>
      <trkpt lat="41.62153570912778377532958984375" lon="-0.8350995741784572601318359375">
        <ele>380.79998779296875</ele>
        <time>2021-04-01T08:07:28.000Z</time>
      </trkpt>
      <trkpt lat="41.6214092262089252471923828125" lon="-0.83501365967094898223876953125">
        <ele>381</ele>
        <time>2021-04-01T08:07:32.000Z</time>
      </trkpt>
      <trkpt lat="41.62122054956853389739990234375" lon="-0.83487711846828460693359375">
        <ele>381.20001220703125</ele>
        <time>2021-04-01T08:07:39.000Z</time>
      </trkpt>
      <trkpt lat="41.6211634688079357147216796875" lon="-0.83483529277145862579345703125">
        <ele>381.20001220703125</ele>
        <time>2021-04-01T08:07:41.000Z</time>
      </trkpt>
      <trkpt lat="41.6209824196994304656982421875" lon="-0.83470101468265056610107421875">
        <ele>380.79998779296875</ele>
        <time>2021-04-01T08:07:47.000Z</time>
      </trkpt>
      <trkpt lat="41.62089097313582897186279296875" lon="-0.8346315287053585052490234375">
        <ele>380.600006103515625</ele>
        <time>2021-04-01T08:07:50.000Z</time>
      </trkpt>
      <trkpt lat="41.62073859013617038726806640625" lon="-0.83452331833541393280029296875">
        <ele>380.79998779296875</ele>
        <time>2021-04-01T08:07:55.000Z</time>
      </trkpt>
      <trkpt lat="41.620680503547191619873046875" lon="-0.83447554148733615875244140625">
        <ele>381.20001220703125</ele>
        <time>2021-04-01T08:07:57.000Z</time>
      </trkpt>
      <trkpt lat="41.62056122906506061553955078125" lon="-0.83438535220921039581298828125">
        <ele>381</ele>
        <time>2021-04-01T08:08:01.000Z</time>
      </trkpt>
      <trkpt lat="41.62037347443401813507080078125" lon="-0.83425325341522693634033203125">
        <ele>381.20001220703125</ele>
        <time>2021-04-01T08:08:07.000Z</time>
      </trkpt>
      <trkpt lat="41.62030004896223545074462890625" lon="-0.8341567777097225189208984375">
        <ele>381</ele>
        <time>2021-04-01T08:08:10.000Z</time>
      </trkpt>
      <trkpt lat="41.62025545723736286163330078125" lon="-0.834082178771495819091796875">
        <ele>381</ele>
        <time>2021-04-01T08:08:12.000Z</time>
      </trkpt>
      <trkpt lat="41.62020030431449413299560546875" lon="-0.83396743051707744598388671875">
        <ele>381.600006103515625</ele>
        <time>2021-04-01T08:08:15.000Z</time>
      </trkpt>
      <trkpt lat="41.6201524436473846435546875" lon="-0.8339016325771808624267578125">
        <ele>381.79998779296875</ele>
        <time>2021-04-01T08:08:17.000Z</time>
      </trkpt>
      <trkpt lat="41.62003853358328342437744140625" lon="-0.8338174782693386077880859375">
        <ele>381.79998779296875</ele>
        <time>2021-04-01T08:08:21.000Z</time>
      </trkpt>
      <trkpt lat="41.61992512643337249755859375" lon="-0.83375469781458377838134765625">
        <ele>381.600006103515625</ele>
        <time>2021-04-01T08:08:26.000Z</time>
      </trkpt>
      <trkpt lat="41.61982856690883636474609375" lon="-0.83367255516350269317626953125">
        <ele>381.79998779296875</ele>
        <time>2021-04-01T08:08:31.000Z</time>
      </trkpt>
      <trkpt lat="41.6198102943599224090576171875" lon="-0.833655036985874176025390625">
        <ele>381.79998779296875</ele>
        <time>2021-04-01T08:08:32.000Z</time>
      </trkpt>
      <trkpt lat="41.61973075009882450103759765625" lon="-0.83357012830674648284912109375">
        <ele>381.600006103515625</ele>
        <time>2021-04-01T08:08:35.000Z</time>
      </trkpt>
      <trkpt lat="41.6196761839091777801513671875" lon="-0.83351933397352695465087890625">
        <ele>381.399993896484375</ele>
        <time>2021-04-01T08:08:37.000Z</time>
      </trkpt>
      <trkpt lat="41.619528494775295257568359375" lon="-0.83334448747336864471435546875">
        <ele>380.600006103515625</ele>
        <time>2021-04-01T08:08:43.000Z</time>
      </trkpt>
      <trkpt lat="41.6194170154631137847900390625" lon="-0.833180956542491912841796875">
        <ele>380.600006103515625</ele>
        <time>2021-04-01T08:08:48.000Z</time>
      </trkpt>
      <trkpt lat="41.61929472349584102630615234375" lon="-0.83306788466870784759521484375">
        <ele>380.79998779296875</ele>
        <time>2021-04-01T08:08:52.000Z</time>
      </trkpt>
      <trkpt lat="41.6192661412060260772705078125" lon="-0.83304810337722301483154296875">
        <ele>381</ele>
        <time>2021-04-01T08:08:53.000Z</time>
      </trkpt>
      <trkpt lat="41.61912440322339534759521484375" lon="-0.8328850753605365753173828125">
        <ele>381.20001220703125</ele>
        <time>2021-04-01T08:08:59.000Z</time>
      </trkpt>
      <trkpt lat="41.61908785812556743621826171875" lon="-0.83282028324902057647705078125">
        <ele>381</ele>
        <time>2021-04-01T08:09:01.000Z</time>
      </trkpt>
      <trkpt lat="41.61905181594192981719970703125" lon="-0.83274803124368190765380859375">
        <ele>380.79998779296875</ele>
        <time>2021-04-01T08:09:03.000Z</time>
      </trkpt>
      <trkpt lat="41.6189556755125522613525390625" lon="-0.83256714977324008941650390625">
        <ele>381</ele>
        <time>2021-04-01T08:09:08.000Z</time>
      </trkpt>
      <trkpt lat="41.61878309212625026702880859375" lon="-0.83238677121698856353759765625">
        <ele>381.20001220703125</ele>
        <time>2021-04-01T08:09:14.000Z</time>
      </trkpt>
      <trkpt lat="41.61865778267383575439453125" lon="-0.83221963606774806976318359375">
        <ele>380.79998779296875</ele>
        <time>2021-04-01T08:09:19.000Z</time>
      </trkpt>
      <trkpt lat="41.618538089096546173095703125" lon="-0.83200656808912754058837890625">
        <ele>380.79998779296875</ele>
        <time>2021-04-01T08:09:24.000Z</time>
      </trkpt>
      <trkpt lat="41.61853314377367496490478515625" lon="-0.831945799291133880615234375">
        <ele>381</ele>
        <time>2021-04-01T08:09:25.000Z</time>
      </trkpt>
      <trkpt lat="41.61855711601674556732177734375" lon="-0.831734575331211090087890625">
        <ele>382.600006103515625</ele>
        <time>2021-04-01T08:09:29.000Z</time>
      </trkpt>
      <trkpt lat="41.61856658756732940673828125" lon="-0.83168822340667247772216796875">
        <ele>383.20001220703125</ele>
        <time>2021-04-01T08:09:30.000Z</time>
      </trkpt>
      <trkpt lat="41.61854588426649570465087890625" lon="-0.83149208687245845794677734375">
        <ele>383.600006103515625</ele>
        <time>2021-04-01T08:09:35.000Z</time>
      </trkpt>
      <trkpt lat="41.61845535971224308013916015625" lon="-0.83127558231353759765625">
        <ele>383.20001220703125</ele>
        <time>2021-04-01T08:09:42.000Z</time>
      </trkpt>
      <trkpt lat="41.61835335195064544677734375" lon="-0.83106611855328083038330078125">
        <ele>383.399993896484375</ele>
        <time>2021-04-01T08:09:48.000Z</time>
      </trkpt>
      <trkpt lat="41.61832108162343502044677734375" lon="-0.83100006915628910064697265625">
        <ele>383.600006103515625</ele>
        <time>2021-04-01T08:09:50.000Z</time>
      </trkpt>
      <trkpt lat="41.61825603805482387542724609375" lon="-0.8308704011142253875732421875">
        <ele>383.79998779296875</ele>
        <time>2021-04-01T08:09:54.000Z</time>
      </trkpt>
      <trkpt lat="41.618239022791385650634765625" lon="-0.8308365382254123687744140625">
        <ele>384</ele>
        <time>2021-04-01T08:09:55.000Z</time>
      </trkpt>
      <trkpt lat="41.61818529479205608367919921875" lon="-0.8307279087603092193603515625">
        <ele>383.79998779296875</ele>
        <time>2021-04-01T08:09:58.000Z</time>
      </trkpt>
      <trkpt lat="41.61811052821576595306396484375" lon="-0.8305803872644901275634765625">
        <ele>382.79998779296875</ele>
        <time>2021-04-01T08:10:02.000Z</time>
      </trkpt>
      <trkpt lat="41.6179964505136013031005859375" lon="-0.830357931554317474365234375">
        <ele>383.399993896484375</ele>
        <time>2021-04-01T08:10:08.000Z</time>
      </trkpt>
      <trkpt lat="41.61794255487620830535888671875" lon="-0.830247290432453155517578125">
        <ele>382.79998779296875</ele>
        <time>2021-04-01T08:10:11.000Z</time>
      </trkpt>
      <trkpt lat="41.61792419850826263427734375" lon="-0.83021082915365695953369140625">
        <ele>382.600006103515625</ele>
        <time>2021-04-01T08:10:12.000Z</time>
      </trkpt>
      <trkpt lat="41.617870219051837921142578125" lon="-0.83010270260274410247802734375">
        <ele>382.399993896484375</ele>
        <time>2021-04-01T08:10:15.000Z</time>
      </trkpt>
      <trkpt lat="41.6178157366812229156494140625" lon="-0.829986445605754852294921875">
        <ele>383</ele>
        <time>2021-04-01T08:10:18.000Z</time>
      </trkpt>
      <trkpt lat="41.61775480024516582489013671875" lon="-0.82986599765717983245849609375">
        <ele>383</ele>
        <time>2021-04-01T08:10:21.000Z</time>
      </trkpt>
      <trkpt lat="41.61769210360944271087646484375" lon="-0.8297294564545154571533203125">
        <ele>383.20001220703125</ele>
        <time>2021-04-01T08:10:24.000Z</time>
      </trkpt>
      <trkpt lat="41.6176018305122852325439453125" lon="-0.82954312674701213836669921875">
        <ele>382.79998779296875</ele>
        <time>2021-04-01T08:10:28.000Z</time>
      </trkpt>
      <trkpt lat="41.617552377283573150634765625" lon="-0.82944908179342746734619140625">
        <ele>382.20001220703125</ele>
        <time>2021-04-01T08:10:30.000Z</time>
      </trkpt>
      <trkpt lat="41.6173396445810794830322265625" lon="-0.82900433801114559173583984375">
        <ele>382.399993896484375</ele>
        <time>2021-04-01T08:10:39.000Z</time>
      </trkpt>
      <trkpt lat="41.61731642670929431915283203125" lon="-0.82895815372467041015625">
        <ele>382.399993896484375</ele>
        <time>2021-04-01T08:10:40.000Z</time>
      </trkpt>
      <trkpt lat="41.617247946560382843017578125" lon="-0.828815996646881103515625">
        <ele>382.600006103515625</ele>
        <time>2021-04-01T08:10:43.000Z</time>
      </trkpt>
      <trkpt lat="41.6171770356595516204833984375" lon="-0.8286776952445507049560546875">
        <ele>382.600006103515625</ele>
        <time>2021-04-01T08:10:46.000Z</time>
      </trkpt>
      <trkpt lat="41.61708190105855464935302734375" lon="-0.82848583348095417022705078125">
        <ele>382.79998779296875</ele>
        <time>2021-04-01T08:10:50.000Z</time>
      </trkpt>
      <trkpt lat="41.61696002818644046783447265625" lon="-0.82824091427028179168701171875">
        <ele>382.20001220703125</ele>
        <time>2021-04-01T08:10:55.000Z</time>
      </trkpt>
      <trkpt lat="41.61686078645288944244384765625" lon="-0.82804695703089237213134765625">
        <ele>381.600006103515625</ele>
        <time>2021-04-01T08:10:59.000Z</time>
      </trkpt>
      <trkpt lat="41.61680848337709903717041015625" lon="-0.827947296202182769775390625">
        <ele>381.399993896484375</ele>
        <time>2021-04-01T08:11:01.000Z</time>
      </trkpt>
      <trkpt lat="41.61675567738711833953857421875" lon="-0.82784797064960002899169921875">
        <ele>381.20001220703125</ele>
        <time>2021-04-01T08:11:03.000Z</time>
      </trkpt>
      <trkpt lat="41.616703458130359649658203125" lon="-0.82774990238249301910400390625">
        <ele>381.600006103515625</ele>
        <time>2021-04-01T08:11:05.000Z</time>
      </trkpt>
      <trkpt lat="41.61661620251834392547607421875" lon="-0.8275370858609676361083984375">
        <ele>382.600006103515625</ele>
        <time>2021-04-01T08:11:09.000Z</time>
      </trkpt>
      <trkpt lat="41.61659524776041507720947265625" lon="-0.82748251967132091522216796875">
        <ele>382.600006103515625</ele>
        <time>2021-04-01T08:11:10.000Z</time>
      </trkpt>
      <trkpt lat="41.6165557689964771270751953125" lon="-0.82737355493009090423583984375">
        <ele>382.20001220703125</ele>
        <time>2021-04-01T08:11:12.000Z</time>
      </trkpt>
      <trkpt lat="41.6164417751133441925048828125" lon="-0.82703140564262866973876953125">
        <ele>381.79998779296875</ele>
        <time>2021-04-01T08:11:18.000Z</time>
      </trkpt>
      <trkpt lat="41.61640196107327938079833984375" lon="-0.82691707648336887359619140625">
        <ele>382</ele>
        <time>2021-04-01T08:11:20.000Z</time>
      </trkpt>
      <trkpt lat="41.61636181175708770751953125" lon="-0.82680392079055309295654296875">
        <ele>382</ele>
        <time>2021-04-01T08:11:22.000Z</time>
      </trkpt>
      <trkpt lat="41.6163039766252040863037109375" lon="-0.8266358636319637298583984375">
        <ele>382.399993896484375</ele>
        <time>2021-04-01T08:11:25.000Z</time>
      </trkpt>
      <trkpt lat="41.6162865422666072845458984375" lon="-0.82657878287136554718017578125">
        <ele>382.20001220703125</ele>
        <time>2021-04-01T08:11:26.000Z</time>
      </trkpt>
      <trkpt lat="41.616200543940067291259765625" lon="-0.82629631273448467254638671875">
        <ele>381.600006103515625</ele>
        <time>2021-04-01T08:11:31.000Z</time>
      </trkpt>
      <trkpt lat="41.61615603603422641754150390625" lon="-0.82612364552915096282958984375">
        <ele>381.600006103515625</ele>
        <time>2021-04-01T08:11:34.000Z</time>
      </trkpt>
      <trkpt lat="41.61611638963222503662109375" lon="-0.82595617510378360748291015625">
        <ele>382</ele>
        <time>2021-04-01T08:11:37.000Z</time>
      </trkpt>
      <trkpt lat="41.616103313863277435302734375" lon="-0.8259012736380100250244140625">
        <ele>382.20001220703125</ele>
        <time>2021-04-01T08:11:38.000Z</time>
      </trkpt>
      <trkpt lat="41.61606064997613430023193359375" lon="-0.825739167630672454833984375">
        <ele>382.20001220703125</ele>
        <time>2021-04-01T08:11:41.000Z</time>
      </trkpt>
      <trkpt lat="41.61601857282221317291259765625" lon="-0.82557580433785915374755859375">
        <ele>382</ele>
        <time>2021-04-01T08:11:44.000Z</time>
      </trkpt>
      <trkpt lat="41.61595302633941173553466796875" lon="-0.82529551349580287933349609375">
        <ele>381.79998779296875</ele>
        <time>2021-04-01T08:11:49.000Z</time>
      </trkpt>
      <trkpt lat="41.61592603661119937896728515625" lon="-0.82518629729747772216796875">
        <ele>382.20001220703125</ele>
        <time>2021-04-01T08:11:51.000Z</time>
      </trkpt>
      <trkpt lat="41.61584422923624515533447265625" lon="-0.82485881634056568145751953125">
        <ele>382.399993896484375</ele>
        <time>2021-04-01T08:11:57.000Z</time>
      </trkpt>
      <trkpt lat="41.61576879210770130157470703125" lon="-0.8245333470404148101806640625">
        <ele>382.600006103515625</ele>
        <time>2021-04-01T08:12:03.000Z</time>
      </trkpt>
      <trkpt lat="41.6157041676342487335205078125" lon="-0.8242642879486083984375">
        <ele>382.20001220703125</ele>
        <time>2021-04-01T08:12:08.000Z</time>
      </trkpt>
      <trkpt lat="41.615644656121730804443359375" lon="-0.82398198544979095458984375">
        <ele>382</ele>
        <time>2021-04-01T08:12:13.000Z</time>
      </trkpt>
      <trkpt lat="41.6156079433858394622802734375" lon="-0.82381174899637699127197265625">
        <ele>381.79998779296875</ele>
        <time>2021-04-01T08:12:16.000Z</time>
      </trkpt>
      <trkpt lat="41.615526638925075531005859375" lon="-0.8234024606645107269287109375">
        <ele>381.79998779296875</ele>
        <time>2021-04-01T08:12:23.000Z</time>
      </trkpt>
      <trkpt lat="41.61551691591739654541015625" lon="-0.8233374170958995819091796875">
        <ele>382</ele>
        <time>2021-04-01T08:12:24.000Z</time>
      </trkpt>
      <trkpt lat="41.61542848683893680572509765625" lon="-0.82297573797404766082763671875">
        <ele>382.20001220703125</ele>
        <time>2021-04-01T08:12:30.000Z</time>
      </trkpt>
      <trkpt lat="41.6153890080749988555908203125" lon="-0.8228650130331516265869140625">
        <ele>382.20001220703125</ele>
        <time>2021-04-01T08:12:32.000Z</time>
      </trkpt>
      <trkpt lat="41.61533444188535213470458984375" lon="-0.8226343430578708648681640625">
        <ele>382.20001220703125</ele>
        <time>2021-04-01T08:12:36.000Z</time>
      </trkpt>
      <trkpt lat="41.61523972637951374053955078125" lon="-0.8221689797937870025634765625">
        <ele>381.20001220703125</ele>
        <time>2021-04-01T08:12:44.000Z</time>
      </trkpt>
      <trkpt lat="41.61522430367767810821533203125" lon="-0.82204584963619709014892578125">
        <ele>381</ele>
        <time>2021-04-01T08:12:46.000Z</time>
      </trkpt>
      <trkpt lat="41.61519077606499195098876953125" lon="-0.8215882815420627593994140625">
        <ele>381.20001220703125</ele>
        <time>2021-04-01T08:12:54.000Z</time>
      </trkpt>
      <trkpt lat="41.61517937667667865753173828125" lon="-0.82135635428130626678466796875">
        <ele>381.399993896484375</ele>
        <time>2021-04-01T08:12:58.000Z</time>
      </trkpt>
      <trkpt lat="41.6151667200028896331787109375" lon="-0.82118703983724117279052734375">
        <ele>381.399993896484375</ele>
        <time>2021-04-01T08:13:01.000Z</time>
      </trkpt>
      <trkpt lat="41.61516579799354076385498046875" lon="-0.8211282826960086822509765625">
        <ele>381.399993896484375</ele>
        <time>2021-04-01T08:13:02.000Z</time>
      </trkpt>
      <trkpt lat="41.61516428925096988677978515625" lon="-0.82101521082222461700439453125">
        <ele>381.20001220703125</ele>
        <time>2021-04-01T08:13:04.000Z</time>
      </trkpt>
      <trkpt lat="41.61516152322292327880859375" lon="-0.82096123136579990386962890625">
        <ele>381.20001220703125</ele>
        <time>2021-04-01T08:13:05.000Z</time>
      </trkpt>
      <trkpt lat="41.6151556558907032012939453125" lon="-0.82060080952942371368408203125">
        <ele>381.399993896484375</ele>
        <time>2021-04-01T08:13:12.000Z</time>
      </trkpt>
      <trkpt lat="41.6151878423988819122314453125" lon="-0.8202773518860340118408203125">
        <ele>381.399993896484375</ele>
        <time>2021-04-01T08:13:17.000Z</time>
      </trkpt>
      <trkpt lat="41.61518960259854793548583984375" lon="-0.8202086202800273895263671875">
        <ele>381.399993896484375</ele>
        <time>2021-04-01T08:13:18.000Z</time>
      </trkpt>
      <trkpt lat="41.615192703902721405029296875" lon="-0.82014030776917934417724609375">
        <ele>381.600006103515625</ele>
        <time>2021-04-01T08:13:19.000Z</time>
      </trkpt>
      <trkpt lat="41.61521038971841335296630859375" lon="-0.81993855535984039306640625">
        <ele>382</ele>
        <time>2021-04-01T08:13:22.000Z</time>
      </trkpt>
      <trkpt lat="41.615228243172168731689453125" lon="-0.81974887289106845855712890625">
        <ele>381.79998779296875</ele>
        <time>2021-04-01T08:13:25.000Z</time>
      </trkpt>
      <trkpt lat="41.61527417600154876708984375" lon="-0.81921142525970935821533203125">
        <ele>381.399993896484375</ele>
        <time>2021-04-01T08:13:34.000Z</time>
      </trkpt>
      <trkpt lat="41.6152790375053882598876953125" lon="-0.819154344499111175537109375">
        <ele>381.399993896484375</ele>
        <time>2021-04-01T08:13:35.000Z</time>
      </trkpt>
      <trkpt lat="41.6152949631214141845703125" lon="-0.81893540918827056884765625">
        <ele>382.20001220703125</ele>
        <time>2021-04-01T08:13:39.000Z</time>
      </trkpt>
      <trkpt lat="41.6152971424162387847900390625" lon="-0.81888176500797271728515625">
        <ele>382</ele>
        <time>2021-04-01T08:13:40.000Z</time>
      </trkpt>
      <trkpt lat="41.61530661396682262420654296875" lon="-0.81865780055522918701171875">
        <ele>381.600006103515625</ele>
        <time>2021-04-01T08:13:44.000Z</time>
      </trkpt>
      <trkpt lat="41.61531650461256504058837890625" lon="-0.8184333331882953643798828125">
        <ele>381.399993896484375</ele>
        <time>2021-04-01T08:13:48.000Z</time>
      </trkpt>
      <trkpt lat="41.61536872386932373046875" lon="-0.81786177121102809906005859375">
        <ele>381.20001220703125</ele>
        <time>2021-04-01T08:13:58.000Z</time>
      </trkpt>
      <trkpt lat="41.6154144890606403350830078125" lon="-0.8175140060484409332275390625">
        <ele>381.399993896484375</ele>
        <time>2021-04-01T08:14:04.000Z</time>
      </trkpt>
      <trkpt lat="41.615436114370822906494140625" lon="-0.8173966594040393829345703125">
        <ele>381.399993896484375</ele>
        <time>2021-04-01T08:14:06.000Z</time>
      </trkpt>
      <trkpt lat="41.6154597513377666473388671875" lon="-0.8172731101512908935546875">
        <ele>381.20001220703125</ele>
        <time>2021-04-01T08:14:08.000Z</time>
      </trkpt>
      <trkpt lat="41.61550325341522693634033203125" lon="-0.81708627752959728240966796875">
        <ele>381.399993896484375</ele>
        <time>2021-04-01T08:14:11.000Z</time>
      </trkpt>
      <trkpt lat="41.61555287428200244903564453125" lon="-0.816968344151973724365234375">
        <ele>381.399993896484375</ele>
        <time>2021-04-01T08:14:13.000Z</time>
      </trkpt>
      <trkpt lat="41.615625880658626556396484375" lon="-0.816871114075183868408203125">
        <ele>381.600006103515625</ele>
        <time>2021-04-01T08:14:15.000Z</time>
      </trkpt>
      <trkpt lat="41.61566703580319881439208984375" lon="-0.81683482043445110321044921875">
        <ele>381.600006103515625</ele>
        <time>2021-04-01T08:14:16.000Z</time>
      </trkpt>
      <trkpt lat="41.6157071851193904876708984375" lon="-0.81680028699338436126708984375">
        <ele>381.399993896484375</ele>
        <time>2021-04-01T08:14:17.000Z</time>
      </trkpt>
      <trkpt lat="41.6158396191895008087158203125" lon="-0.8166674338281154632568359375">
        <ele>381.600006103515625</ele>
        <time>2021-04-01T08:14:21.000Z</time>
      </trkpt>
      <trkpt lat="41.61586149595677852630615234375" lon="-0.81663667224347591400146484375">
        <ele>382.20001220703125</ele>
        <time>2021-04-01T08:14:22.000Z</time>
      </trkpt>
      <trkpt lat="41.61587943322956562042236328125" lon="-0.8166070841252803802490234375">
        <ele>383</ele>
        <time>2021-04-01T08:14:23.000Z</time>
      </trkpt>
      <trkpt lat="41.6158957779407501220703125" lon="-0.81654329784214496612548828125">
        <ele>384.399993896484375</ele>
        <time>2021-04-01T08:14:25.000Z</time>
      </trkpt>
      <trkpt lat="41.61590189673006534576416015625" lon="-0.81647959537804126739501953125">
        <ele>384.79998779296875</ele>
        <time>2021-04-01T08:14:27.000Z</time>
      </trkpt>
      <trkpt lat="41.6159086860716342926025390625" lon="-0.81641170196235179901123046875">
        <ele>385</ele>
        <time>2021-04-01T08:14:29.000Z</time>
      </trkpt>
      <trkpt lat="41.615902818739414215087890625" lon="-0.8162630908191204071044921875">
        <ele>384.79998779296875</ele>
        <time>2021-04-01T08:14:32.000Z</time>
      </trkpt>
      <trkpt lat="41.61589971743524074554443359375" lon="-0.81620114855468273162841796875">
        <ele>384.79998779296875</ele>
        <time>2021-04-01T08:14:33.000Z</time>
      </trkpt>
      <trkpt lat="41.615886054933071136474609375" lon="-0.8160595782101154327392578125">
        <ele>383.399993896484375</ele>
        <time>2021-04-01T08:14:35.000Z</time>
      </trkpt>
      <trkpt lat="41.615871302783489227294921875" lon="-0.8159827999770641326904296875">
        <ele>382.600006103515625</ele>
        <time>2021-04-01T08:14:36.000Z</time>
      </trkpt>
      <trkpt lat="41.6158582270145416259765625" lon="-0.81590392626821994781494140625">
        <ele>381.600006103515625</ele>
        <time>2021-04-01T08:14:37.000Z</time>
      </trkpt>
      <trkpt lat="41.61584037356078624725341796875" lon="-0.81574316136538982391357421875">
        <ele>380.399993896484375</ele>
        <time>2021-04-01T08:14:39.000Z</time>
      </trkpt>
      <trkpt lat="41.6158379428088665008544921875" lon="-0.81566437147557735443115234375">
        <ele>380</ele>
        <time>2021-04-01T08:14:40.000Z</time>
      </trkpt>
      <trkpt lat="41.6158429719507694244384765625" lon="-0.81558801233768463134765625">
        <ele>380</ele>
        <time>2021-04-01T08:14:41.000Z</time>
      </trkpt>
      <trkpt lat="41.61591899581253528594970703125" lon="-0.81520420499145984649658203125">
        <ele>380.600006103515625</ele>
        <time>2021-04-01T08:14:47.000Z</time>
      </trkpt>
      <trkpt lat="41.61596576683223247528076171875" lon="-0.8149850182235240936279296875">
        <ele>380.600006103515625</ele>
        <time>2021-04-01T08:14:51.000Z</time>
      </trkpt>
      <trkpt lat="41.61602376960217952728271484375" lon="-0.8147369138896465301513671875">
        <ele>380.600006103515625</ele>
        <time>2021-04-01T08:14:56.000Z</time>
      </trkpt>
      <trkpt lat="41.61606769077479839324951171875" lon="-0.81455846317112445831298828125">
        <ele>380.600006103515625</ele>
        <time>2021-04-01T08:15:00.000Z</time>
      </trkpt>
      <trkpt lat="41.6161001287400722503662109375" lon="-0.8144184015691280364990234375">
        <ele>381.399993896484375</ele>
        <time>2021-04-01T08:15:03.000Z</time>
      </trkpt>
      <trkpt lat="41.61611907184123992919921875" lon="-0.81432594917714595794677734375">
        <ele>381.600006103515625</ele>
        <time>2021-04-01T08:15:05.000Z</time>
      </trkpt>
      <trkpt lat="41.61617749370634555816650390625" lon="-0.814026631414890289306640625">
        <ele>380.20001220703125</ele>
        <time>2021-04-01T08:15:12.000Z</time>
      </trkpt>
      <trkpt lat="41.61622636020183563232421875" lon="-0.81379034556448459625244140625">
        <ele>380.20001220703125</ele>
        <time>2021-04-01T08:15:17.000Z</time>
      </trkpt>
      <trkpt lat="41.61624505184590816497802734375" lon="-0.81368775106966495513916015625">
        <ele>380.20001220703125</ele>
        <time>2021-04-01T08:15:19.000Z</time>
      </trkpt>
      <trkpt lat="41.616266258060932159423828125" lon="-0.81358197145164012908935546875">
        <ele>380.20001220703125</ele>
        <time>2021-04-01T08:15:21.000Z</time>
      </trkpt>
      <trkpt lat="41.61629819311201572418212890625" lon="-0.813428498804569244384765625">
        <ele>380</ele>
        <time>2021-04-01T08:15:24.000Z</time>
      </trkpt>
      <trkpt lat="41.6163195669651031494140625" lon="-0.813329257071018218994140625">
        <ele>379.79998779296875</ele>
        <time>2021-04-01T08:15:26.000Z</time>
      </trkpt>
      <trkpt lat="41.6163388453423976898193359375" lon="-0.813230685889720916748046875">
        <ele>379.79998779296875</ele>
        <time>2021-04-01T08:15:28.000Z</time>
      </trkpt>
      <trkpt lat="41.61642492748796939849853515625" lon="-0.81282307393848896026611328125">
        <ele>380.20001220703125</ele>
        <time>2021-04-01T08:15:36.000Z</time>
      </trkpt>
      <trkpt lat="41.6164364106953144073486328125" lon="-0.812769345939159393310546875">
        <ele>380</ele>
        <time>2021-04-01T08:15:37.000Z</time>
      </trkpt>
      <trkpt lat="41.61647379398345947265625" lon="-0.81260749138891696929931640625">
        <ele>380.399993896484375</ele>
        <time>2021-04-01T08:15:40.000Z</time>
      </trkpt>
      <trkpt lat="41.61654260940849781036376953125" lon="-0.8122820220887660980224609375">
        <ele>380</ele>
        <time>2021-04-01T08:15:46.000Z</time>
      </trkpt>
      <trkpt lat="41.6166333854198455810546875" lon="-0.81196275539696216583251953125">
        <ele>379.79998779296875</ele>
        <time>2021-04-01T08:15:52.000Z</time>
      </trkpt>
      <trkpt lat="41.61665542982518672943115234375" lon="-0.81191179342567920684814453125">
        <ele>379.79998779296875</ele>
        <time>2021-04-01T08:15:53.000Z</time>
      </trkpt>
      <trkpt lat="41.6167324595153331756591796875" lon="-0.8117103762924671173095703125">
        <ele>380.20001220703125</ele>
        <time>2021-04-01T08:15:57.000Z</time>
      </trkpt>
      <trkpt lat="41.61678803153336048126220703125" lon="-0.8115578256547451019287109375">
        <ele>380.20001220703125</ele>
        <time>2021-04-01T08:16:00.000Z</time>
      </trkpt>
      <trkpt lat="41.6168595291674137115478515625" lon="-0.8113667182624340057373046875">
        <ele>380.20001220703125</ele>
        <time>2021-04-01T08:16:04.000Z</time>
      </trkpt>
      <trkpt lat="41.61691367626190185546875" lon="-0.81122112460434436798095703125">
        <ele>380</ele>
        <time>2021-04-01T08:16:07.000Z</time>
      </trkpt>
      <trkpt lat="41.6169788874685764312744140625" lon="-0.81107963807880878448486328125">
        <ele>380</ele>
        <time>2021-04-01T08:16:10.000Z</time>
      </trkpt>
      <trkpt lat="41.61703160963952541351318359375" lon="-0.810993053019046783447265625">
        <ele>379.600006103515625</ele>
        <time>2021-04-01T08:16:12.000Z</time>
      </trkpt>
      <trkpt lat="41.61706111393868923187255859375" lon="-0.8109519816935062408447265625">
        <ele>379.600006103515625</ele>
        <time>2021-04-01T08:16:13.000Z</time>
      </trkpt>
      <trkpt lat="41.6170918755233287811279296875" lon="-0.8109127543866634368896484375">
        <ele>379.600006103515625</ele>
        <time>2021-04-01T08:16:14.000Z</time>
      </trkpt>
      <trkpt lat="41.6171240620315074920654296875" lon="-0.8108765445649623870849609375">
        <ele>379.399993896484375</ele>
        <time>2021-04-01T08:16:15.000Z</time>
      </trkpt>
      <trkpt lat="41.617157422006130218505859375" lon="-0.81084276549518108367919921875">
        <ele>379.600006103515625</ele>
        <time>2021-04-01T08:16:16.000Z</time>
      </trkpt>
      <trkpt lat="41.617190279066562652587890625" lon="-0.810808651149272918701171875">
        <ele>379.79998779296875</ele>
        <time>2021-04-01T08:16:17.000Z</time>
      </trkpt>
      <trkpt lat="41.61722221411764621734619140625" lon="-0.8107739500701427459716796875">
        <ele>380</ele>
        <time>2021-04-01T08:16:18.000Z</time>
      </trkpt>
      <trkpt lat="41.61738582886755466461181640625" lon="-0.81060522235929965972900390625">
        <ele>380.399993896484375</ele>
        <time>2021-04-01T08:16:23.000Z</time>
      </trkpt>
      <trkpt lat="41.61742128431797027587890625" lon="-0.81057135947048664093017578125">
        <ele>380.399993896484375</ele>
        <time>2021-04-01T08:16:24.000Z</time>
      </trkpt>
      <trkpt lat="41.6174566559493541717529296875" lon="-0.81053716130554676055908203125">
        <ele>380.600006103515625</ele>
        <time>2021-04-01T08:16:25.000Z</time>
      </trkpt>
      <trkpt lat="41.61756486631929874420166015625" lon="-0.8104299567639827728271484375">
        <ele>380.600006103515625</ele>
        <time>2021-04-01T08:16:28.000Z</time>
      </trkpt>
      <trkpt lat="41.61769914440810680389404296875" lon="-0.81027950160205364227294921875">
        <ele>380.20001220703125</ele>
        <time>2021-04-01T08:16:32.000Z</time>
      </trkpt>
      <trkpt lat="41.617909781634807586669921875" lon="-0.81008755601942539215087890625">
        <ele>380.600006103515625</ele>
        <time>2021-04-01T08:16:38.000Z</time>
      </trkpt>
      <trkpt lat="41.618058979511260986328125" lon="-0.80996685661375522613525390625">
        <ele>380.20001220703125</ele>
        <time>2021-04-01T08:16:42.000Z</time>
      </trkpt>
      <trkpt lat="41.618137098848819732666015625" lon="-0.80991907976567745208740234375">
        <ele>380.20001220703125</ele>
        <time>2021-04-01T08:16:44.000Z</time>
      </trkpt>
      <trkpt lat="41.61826274357736110687255859375" lon="-0.8098569698631763458251953125">
        <ele>380.399993896484375</ele>
        <time>2021-04-01T08:16:47.000Z</time>
      </trkpt>
      <trkpt lat="41.6183069162070751190185546875" lon="-0.80984414555132389068603515625">
        <ele>380.20001220703125</ele>
        <time>2021-04-01T08:16:48.000Z</time>
      </trkpt>
      <trkpt lat="41.6185442917048931121826171875" lon="-0.80982168205082416534423828125">
        <ele>379.399993896484375</ele>
        <time>2021-04-01T08:16:53.000Z</time>
      </trkpt>
      <trkpt lat="41.61859215237200260162353515625" lon="-0.809820257127285003662109375">
        <ele>379.20001220703125</ele>
        <time>2021-04-01T08:16:54.000Z</time>
      </trkpt>
      <trkpt lat="41.6186388395726680755615234375" lon="-0.809820927679538726806640625">
        <ele>379.20001220703125</ele>
        <time>2021-04-01T08:16:55.000Z</time>
      </trkpt>
      <trkpt lat="41.61893078126013278961181640625" lon="-0.80982335843145847320556640625">
        <ele>379.399993896484375</ele>
        <time>2021-04-01T08:17:01.000Z</time>
      </trkpt>
      <trkpt lat="41.6189791448414325714111328125" lon="-0.8098232746124267578125">
        <ele>379.399993896484375</ele>
        <time>2021-04-01T08:17:02.000Z</time>
      </trkpt>
      <trkpt lat="41.61906975321471691131591796875" lon="-0.8098217658698558807373046875">
        <ele>379.399993896484375</ele>
        <time>2021-04-01T08:17:04.000Z</time>
      </trkpt>
      <trkpt lat="41.6192788816988468170166015625" lon="-0.80982687883079051971435546875">
        <ele>379</ele>
        <time>2021-04-01T08:17:09.000Z</time>
      </trkpt>
      <trkpt lat="41.6193209588527679443359375" lon="-0.80983459018170833587646484375">
        <ele>378.79998779296875</ele>
        <time>2021-04-01T08:17:10.000Z</time>
      </trkpt>
      <trkpt lat="41.6194032691419124603271484375" lon="-0.80985537730157375335693359375">
        <ele>379.20001220703125</ele>
        <time>2021-04-01T08:17:12.000Z</time>
      </trkpt>
      <trkpt lat="41.61947543732821941375732421875" lon="-0.8098834566771984100341796875">
        <ele>379.79998779296875</ele>
        <time>2021-04-01T08:17:14.000Z</time>
      </trkpt>
      <trkpt lat="41.61954316310584545135498046875" lon="-0.80991203896701335906982421875">
        <ele>380</ele>
        <time>2021-04-01T08:17:16.000Z</time>
      </trkpt>
      <trkpt lat="41.61961709149181842803955078125" lon="-0.8099292218685150146484375">
        <ele>380</ele>
        <time>2021-04-01T08:17:18.000Z</time>
      </trkpt>
      <trkpt lat="41.6199487634003162384033203125" lon="-0.8099451474845409393310546875">
        <ele>380.20001220703125</ele>
        <time>2021-04-01T08:17:26.000Z</time>
      </trkpt>
      <trkpt lat="41.61999159492552280426025390625" lon="-0.809942968189716339111328125">
        <ele>380.399993896484375</ele>
        <time>2021-04-01T08:17:27.000Z</time>
      </trkpt>
      <trkpt lat="41.6202478297054767608642578125" lon="-0.80992729403078556060791015625">
        <ele>381.20001220703125</ele>
        <time>2021-04-01T08:17:33.000Z</time>
      </trkpt>
      <trkpt lat="41.62029099650681018829345703125" lon="-0.80992528237402439117431640625">
        <ele>381.399993896484375</ele>
        <time>2021-04-01T08:17:34.000Z</time>
      </trkpt>
      <trkpt lat="41.62037632428109645843505859375" lon="-0.80991522409021854400634765625">
        <ele>381.20001220703125</ele>
        <time>2021-04-01T08:17:36.000Z</time>
      </trkpt>
      <trkpt lat="41.62054739892482757568359375" lon="-0.80987867899239063262939453125">
        <ele>381</ele>
        <time>2021-04-01T08:17:40.000Z</time>
      </trkpt>
      <trkpt lat="41.620590649545192718505859375" lon="-0.8098640106618404388427734375">
        <ele>381</ele>
        <time>2021-04-01T08:17:41.000Z</time>
      </trkpt>
      <trkpt lat="41.620669774711132049560546875" lon="-0.80980558879673480987548828125">
        <ele>381</ele>
        <time>2021-04-01T08:17:43.000Z</time>
      </trkpt>
      <trkpt lat="41.62069953046739101409912109375" lon="-0.80969042144715785980224609375">
        <ele>381</ele>
        <time>2021-04-01T08:17:45.000Z</time>
      </trkpt>
      <trkpt lat="41.6206833533942699432373046875" lon="-0.80963141284883022308349609375">
        <ele>380.79998779296875</ele>
        <time>2021-04-01T08:17:46.000Z</time>
      </trkpt>
      <trkpt lat="41.620652340352535247802734375" lon="-0.809586234390735626220703125">
        <ele>380.600006103515625</ele>
        <time>2021-04-01T08:17:47.000Z</time>
      </trkpt>
      <trkpt lat="41.620576567947864532470703125" lon="-0.8095240406692028045654296875">
        <ele>379.79998779296875</ele>
        <time>2021-04-01T08:17:49.000Z</time>
      </trkpt>
      <trkpt lat="41.62053792737424373626708984375" lon="-0.80949931405484676361083984375">
        <ele>379.399993896484375</ele>
        <time>2021-04-01T08:17:50.000Z</time>
      </trkpt>
      <trkpt lat="41.6204228438436985015869140625" lon="-0.809426642954349517822265625">
        <ele>379.20001220703125</ele>
        <time>2021-04-01T08:17:53.000Z</time>
      </trkpt>
      <trkpt lat="41.62034631706774234771728515625" lon="-0.80937794409692287445068359375">
        <ele>379.399993896484375</ele>
        <time>2021-04-01T08:17:55.000Z</time>
      </trkpt>
      <trkpt lat="41.6202320717275142669677734375" lon="-0.8093010820448398590087890625">
        <ele>379.600006103515625</ele>
        <time>2021-04-01T08:17:58.000Z</time>
      </trkpt>
      <trkpt lat="41.6200828738510608673095703125" lon="-0.80917811952531337738037109375">
        <ele>379.399993896484375</ele>
        <time>2021-04-01T08:18:02.000Z</time>
      </trkpt>
      <trkpt lat="41.6199846379458904266357421875" lon="-0.80906563438475131988525390625">
        <ele>379.20001220703125</ele>
        <time>2021-04-01T08:18:05.000Z</time>
      </trkpt>
      <trkpt lat="41.61991783417761325836181640625" lon="-0.80892381258308887481689453125">
        <ele>379.399993896484375</ele>
        <time>2021-04-01T08:18:08.000Z</time>
      </trkpt>
      <trkpt lat="41.61990542896091938018798828125" lon="-0.808807723224163055419921875">
        <ele>379.600006103515625</ele>
        <time>2021-04-01T08:18:10.000Z</time>
      </trkpt>
      <trkpt lat="41.61991917528212070465087890625" lon="-0.80868668854236602783203125">
        <ele>379.79998779296875</ele>
        <time>2021-04-01T08:18:12.000Z</time>
      </trkpt>
      <trkpt lat="41.61996812559664249420166015625" lon="-0.80851502716541290283203125">
        <ele>379.399993896484375</ele>
        <time>2021-04-01T08:18:15.000Z</time>
      </trkpt>
      <trkpt lat="41.620040796697139739990234375" lon="-0.80830086953938007354736328125">
        <ele>379.20001220703125</ele>
        <time>2021-04-01T08:18:19.000Z</time>
      </trkpt>
      <trkpt lat="41.620136685669422149658203125" lon="-0.8079873025417327880859375">
        <ele>379.600006103515625</ele>
        <time>2021-04-01T08:18:25.000Z</time>
      </trkpt>
      <trkpt lat="41.62018521688878536224365234375" lon="-0.8078275434672832489013671875">
        <ele>379.399993896484375</ele>
        <time>2021-04-01T08:18:28.000Z</time>
      </trkpt>
      <trkpt lat="41.62024699151515960693359375" lon="-0.807609446346759796142578125">
        <ele>379.79998779296875</ele>
        <time>2021-04-01T08:18:32.000Z</time>
      </trkpt>
      <trkpt lat="41.62028680555522441864013671875" lon="-0.8074443228542804718017578125">
        <ele>379.600006103515625</ele>
        <time>2021-04-01T08:18:35.000Z</time>
      </trkpt>
      <trkpt lat="41.62033374421298503875732421875" lon="-0.80721591599285602569580078125">
        <ele>378.79998779296875</ele>
        <time>2021-04-01T08:18:39.000Z</time>
      </trkpt>
      <trkpt lat="41.6203926689922809600830078125" lon="-0.80681425519287586212158203125">
        <ele>379.20001220703125</ele>
        <time>2021-04-01T08:18:46.000Z</time>
      </trkpt>
      <trkpt lat="41.6204107739031314849853515625" lon="-0.80658425576984882354736328125">
        <ele>379.20001220703125</ele>
        <time>2021-04-01T08:18:50.000Z</time>
      </trkpt>
      <trkpt lat="41.62041672505438327789306640625" lon="-0.80630329437553882598876953125">
        <ele>379</ele>
        <time>2021-04-01T08:18:55.000Z</time>
      </trkpt>
      <trkpt lat="41.62041102536022663116455078125" lon="-0.80613682977855205535888671875">
        <ele>379.399993896484375</ele>
        <time>2021-04-01T08:18:58.000Z</time>
      </trkpt>
      <trkpt lat="41.62038889713585376739501953125" lon="-0.8058034814894199371337890625">
        <ele>379.20001220703125</ele>
        <time>2021-04-01T08:19:04.000Z</time>
      </trkpt>
      <trkpt lat="41.62037313915789127349853515625" lon="-0.80552344210445880889892578125">
        <ele>378.600006103515625</ele>
        <time>2021-04-01T08:19:09.000Z</time>
      </trkpt>
      <trkpt lat="41.62036861293017864227294921875" lon="-0.8054105378687381744384765625">
        <ele>379.20001220703125</ele>
        <time>2021-04-01T08:19:11.000Z</time>
      </trkpt>
      <trkpt lat="41.62036559544503688812255859375" lon="-0.80535396002233028411865234375">
        <ele>379.20001220703125</ele>
        <time>2021-04-01T08:19:12.000Z</time>
      </trkpt>
      <trkpt lat="41.62035637535154819488525390625" lon="-0.8052402175962924957275390625">
        <ele>379.399993896484375</ele>
        <time>2021-04-01T08:19:14.000Z</time>
      </trkpt>
      <trkpt lat="41.62032745778560638427734375" lon="-0.80477577634155750274658203125">
        <ele>379.20001220703125</ele>
        <time>2021-04-01T08:19:22.000Z</time>
      </trkpt>
      <trkpt lat="41.62028194405138492584228515625" lon="-0.80436757765710353851318359375">
        <ele>379.79998779296875</ele>
        <time>2021-04-01T08:19:29.000Z</time>
      </trkpt>
      <trkpt lat="41.6202736459672451019287109375" lon="-0.80431041307747364044189453125">
        <ele>379.79998779296875</ele>
        <time>2021-04-01T08:19:30.000Z</time>
      </trkpt>
      <trkpt lat="41.620233915746212005615234375" lon="-0.80407639034092426300048828125">
        <ele>378.600006103515625</ele>
        <time>2021-04-01T08:19:34.000Z</time>
      </trkpt>
      <trkpt lat="41.6201489232480525970458984375" lon="-0.80366634763777256011962890625">
        <ele>378.399993896484375</ele>
        <time>2021-04-01T08:19:41.000Z</time>
      </trkpt>
      <trkpt lat="41.62012050859630107879638671875" lon="-0.80354900099337100982666015625">
        <ele>378.600006103515625</ele>
        <time>2021-04-01T08:19:43.000Z</time>
      </trkpt>
      <trkpt lat="41.6201060079038143157958984375" lon="-0.8034910820424556732177734375">
        <ele>378.399993896484375</ele>
        <time>2021-04-01T08:19:44.000Z</time>
      </trkpt>
      <trkpt lat="41.6200624220073223114013671875" lon="-0.80332067795097827911376953125">
        <ele>379.399993896484375</ele>
        <time>2021-04-01T08:19:47.000Z</time>
      </trkpt>
      <trkpt lat="41.6200129687786102294921875" lon="-0.80314734019339084625244140625">
        <ele>379.20001220703125</ele>
        <time>2021-04-01T08:19:50.000Z</time>
      </trkpt>
      <trkpt lat="41.61985597573220729827880859375" lon="-0.80262229777872562408447265625">
        <ele>379</ele>
        <time>2021-04-01T08:19:59.000Z</time>
      </trkpt>
      <trkpt lat="41.6197447478771209716796875" lon="-0.80231535248458385467529296875">
        <ele>379.399993896484375</ele>
        <time>2021-04-01T08:20:05.000Z</time>
      </trkpt>
      <trkpt lat="41.61972421221435070037841796875" lon="-0.80226908437907695770263671875">
        <ele>379.600006103515625</ele>
        <time>2021-04-01T08:20:06.000Z</time>
      </trkpt>
      <trkpt lat="41.61970443092286586761474609375" lon="-0.80222130753099918365478515625">
        <ele>379.600006103515625</ele>
        <time>2021-04-01T08:20:07.000Z</time>
      </trkpt>
      <trkpt lat="41.61959110759198665618896484375" lon="-0.8019816689193248748779296875">
        <ele>379.20001220703125</ele>
        <time>2021-04-01T08:20:12.000Z</time>
      </trkpt>
      <trkpt lat="41.6195229627192020416259765625" lon="-0.80184261314570903778076171875">
        <ele>379</ele>
        <time>2021-04-01T08:20:15.000Z</time>
      </trkpt>
      <trkpt lat="41.61934970878064632415771484375" lon="-0.8015206642448902130126953125">
        <ele>379</ele>
        <time>2021-04-01T08:20:22.000Z</time>
      </trkpt>
      <trkpt lat="41.61925381980836391448974609375" lon="-0.801335759460926055908203125">
        <ele>378.399993896484375</ele>
        <time>2021-04-01T08:20:26.000Z</time>
      </trkpt>
      <trkpt lat="41.619153320789337158203125" lon="-0.80116845667362213134765625">
        <ele>378.399993896484375</ele>
        <time>2021-04-01T08:20:30.000Z</time>
      </trkpt>
      <trkpt lat="41.6190190427005290985107421875" lon="-0.800916664302349090576171875">
        <ele>379</ele>
        <time>2021-04-01T08:20:36.000Z</time>
      </trkpt>
      <trkpt lat="41.618927679955959320068359375" lon="-0.8007726632058620452880859375">
        <ele>378.600006103515625</ele>
        <time>2021-04-01T08:20:40.000Z</time>
      </trkpt>
      <trkpt lat="41.61875476129353046417236328125" lon="-0.80057694576680660247802734375">
        <ele>379.399993896484375</ele>
        <time>2021-04-01T08:20:47.000Z</time>
      </trkpt>
      <trkpt lat="41.61870312876999378204345703125" lon="-0.80051223747432231903076171875">
        <ele>379.20001220703125</ele>
        <time>2021-04-01T08:20:49.000Z</time>
      </trkpt>
      <trkpt lat="41.61868133582174777984619140625" lon="-0.80047108232975006103515625">
        <ele>379</ele>
        <time>2021-04-01T08:20:50.000Z</time>
      </trkpt>
      <trkpt lat="41.6186133585870265960693359375" lon="-0.80036454834043979644775390625">
        <ele>378.79998779296875</ele>
        <time>2021-04-01T08:20:53.000Z</time>
      </trkpt>
      <trkpt lat="41.6185885481536388397216796875" lon="-0.8003269135951995849609375">
        <ele>378.79998779296875</ele>
        <time>2021-04-01T08:20:54.000Z</time>
      </trkpt>
      <trkpt lat="41.61840255372226238250732421875" lon="-0.800074450671672821044921875">
        <ele>379.20001220703125</ele>
        <time>2021-04-01T08:21:01.000Z</time>
      </trkpt>
      <trkpt lat="41.61833834834396839141845703125" lon="-0.80001217313110828399658203125">
        <ele>379.20001220703125</ele>
        <time>2021-04-01T08:21:03.000Z</time>
      </trkpt>
      <trkpt lat="41.61820583045482635498046875" lon="-0.79989952035248279571533203125">
        <ele>379.399993896484375</ele>
        <time>2021-04-01T08:21:07.000Z</time>
      </trkpt>
      <trkpt lat="41.6181362606585025787353515625" lon="-0.79985023476183414459228515625">
        <ele>379.20001220703125</ele>
        <time>2021-04-01T08:21:09.000Z</time>
      </trkpt>
      <trkpt lat="41.6179525293409824371337890625" lon="-0.79976574517786502838134765625">
        <ele>379.399993896484375</ele>
        <time>2021-04-01T08:21:14.000Z</time>
      </trkpt>
      <trkpt lat="41.61787935532629489898681640625" lon="-0.79974688589572906494140625">
        <ele>379.399993896484375</ele>
        <time>2021-04-01T08:21:16.000Z</time>
      </trkpt>
      <trkpt lat="41.61773418076336383819580078125" lon="-0.799711681902408599853515625">
        <ele>379.20001220703125</ele>
        <time>2021-04-01T08:21:20.000Z</time>
      </trkpt>
      <trkpt lat="41.61758632399141788482666015625" lon="-0.799685530364513397216796875">
        <ele>379.79998779296875</ele>
        <time>2021-04-01T08:21:24.000Z</time>
      </trkpt>
      <trkpt lat="41.61740074865520000457763671875" lon="-0.79968896694481372833251953125">
        <ele>380.20001220703125</ele>
        <time>2021-04-01T08:21:29.000Z</time>
      </trkpt>
      <trkpt lat="41.61736361682415008544921875" lon="-0.7996880449354648590087890625">
        <ele>380</ele>
        <time>2021-04-01T08:21:30.000Z</time>
      </trkpt>
      <trkpt lat="41.61728926934301853179931640625" lon="-0.79968276433646678924560546875">
        <ele>380.20001220703125</ele>
        <time>2021-04-01T08:21:32.000Z</time>
      </trkpt>
      <trkpt lat="41.6172145865857601165771484375" lon="-0.79968024976551532745361328125">
        <ele>380.600006103515625</ele>
        <time>2021-04-01T08:21:34.000Z</time>
      </trkpt>
      <trkpt lat="41.616950221359729766845703125" lon="-0.79966667108237743377685546875">
        <ele>380.600006103515625</ele>
        <time>2021-04-01T08:21:41.000Z</time>
      </trkpt>
      <trkpt lat="41.616834215819835662841796875" lon="-0.79966784454882144927978515625">
        <ele>380</ele>
        <time>2021-04-01T08:21:44.000Z</time>
      </trkpt>
      <trkpt lat="41.6167572699487209320068359375" lon="-0.79967371188104152679443359375">
        <ele>380</ele>
        <time>2021-04-01T08:21:46.000Z</time>
      </trkpt>
      <trkpt lat="41.6166828386485576629638671875" lon="-0.799688212573528289794921875">
        <ele>380.20001220703125</ele>
        <time>2021-04-01T08:21:48.000Z</time>
      </trkpt>
      <trkpt lat="41.61629475653171539306640625" lon="-0.79976540990173816680908203125">
        <ele>380.600006103515625</ele>
        <time>2021-04-01T08:21:58.000Z</time>
      </trkpt>
      <trkpt lat="41.61593643017113208770751953125" lon="-0.79982073046267032623291015625">
        <ele>381</ele>
        <time>2021-04-01T08:22:07.000Z</time>
      </trkpt>
      <trkpt lat="41.61561707966029644012451171875" lon="-0.7998441159725189208984375">
        <ele>380.79998779296875</ele>
        <time>2021-04-01T08:22:15.000Z</time>
      </trkpt>
      <trkpt lat="41.61546704359352588653564453125" lon="-0.7998563535511493682861328125">
        <ele>381</ele>
        <time>2021-04-01T08:22:19.000Z</time>
      </trkpt>
      <trkpt lat="41.61534659564495086669921875" lon="-0.7998566888272762298583984375">
        <ele>381</ele>
        <time>2021-04-01T08:22:22.000Z</time>
      </trkpt>
      <trkpt lat="41.615108549594879150390625" lon="-0.79987403936684131622314453125">
        <ele>381</ele>
        <time>2021-04-01T08:22:28.000Z</time>
      </trkpt>
      <trkpt lat="41.61499883048236370086669921875" lon="-0.79988275654613971710205078125">
        <ele>381</ele>
        <time>2021-04-01T08:22:31.000Z</time>
      </trkpt>
      <trkpt lat="41.61493085324764251708984375" lon="-0.79988694749772548675537109375">
        <ele>381</ele>
        <time>2021-04-01T08:22:33.000Z</time>
      </trkpt>
      <trkpt lat="41.61478727124631404876708984375" lon="-0.79987965524196624755859375">
        <ele>380.79998779296875</ele>
        <time>2021-04-01T08:22:37.000Z</time>
      </trkpt>
      <trkpt lat="41.61443330347537994384765625" lon="-0.79979516565799713134765625">
        <ele>380.399993896484375</ele>
        <time>2021-04-01T08:22:46.000Z</time>
      </trkpt>
      <trkpt lat="41.61436398513615131378173828125" lon="-0.79978418536484241485595703125">
        <ele>380.399993896484375</ele>
        <time>2021-04-01T08:22:48.000Z</time>
      </trkpt>
      <trkpt lat="41.61433028988540172576904296875" lon="-0.799776054918766021728515625">
        <ele>380.399993896484375</ele>
        <time>2021-04-01T08:22:49.000Z</time>
      </trkpt>
      <trkpt lat="41.61421998403966426849365234375" lon="-0.799756944179534912109375">
        <ele>380.399993896484375</ele>
        <time>2021-04-01T08:22:52.000Z</time>
      </trkpt>
      <trkpt lat="41.61387196741998195648193359375" lon="-0.79974780790507793426513671875">
        <ele>380.399993896484375</ele>
        <time>2021-04-01T08:23:00.000Z</time>
      </trkpt>
      <trkpt lat="41.61377758719027042388916015625" lon="-0.799745209515094757080078125">
        <ele>380.20001220703125</ele>
        <time>2021-04-01T08:23:02.000Z</time>
      </trkpt>
      <trkpt lat="41.61368672735989093780517578125" lon="-0.79973473213613033294677734375">
        <ele>379.79998779296875</ele>
        <time>2021-04-01T08:23:04.000Z</time>
      </trkpt>
      <trkpt lat="41.61364163272082805633544921875" lon="-0.79972852952778339385986328125">
        <ele>379.600006103515625</ele>
        <time>2021-04-01T08:23:05.000Z</time>
      </trkpt>
      <trkpt lat="41.613498888909816741943359375" lon="-0.7997145317494869232177734375">
        <ele>379.600006103515625</ele>
        <time>2021-04-01T08:23:08.000Z</time>
      </trkpt>
      <trkpt lat="41.61344734020531177520751953125" lon="-0.799712352454662322998046875">
        <ele>379.600006103515625</ele>
        <time>2021-04-01T08:23:09.000Z</time>
      </trkpt>
      <trkpt lat="41.6132234595715999603271484375" lon="-0.79973875544965267181396484375">
        <ele>379.399993896484375</ele>
        <time>2021-04-01T08:23:14.000Z</time>
      </trkpt>
      <trkpt lat="41.61298130638897418975830078125" lon="-0.79979172907769680023193359375">
        <ele>379.399993896484375</ele>
        <time>2021-04-01T08:23:20.000Z</time>
      </trkpt>
      <trkpt lat="41.6127644665539264678955078125" lon="-0.7998628914356231689453125">
        <ele>379</ele>
        <time>2021-04-01T08:23:26.000Z</time>
      </trkpt>
      <trkpt lat="41.61251845769584178924560546875" lon="-0.79992449842393398284912109375">
        <ele>379.399993896484375</ele>
        <time>2021-04-01T08:23:31.000Z</time>
      </trkpt>
      <trkpt lat="41.6121487319469451904296875" lon="-0.80005240626633167266845703125">
        <ele>379.79998779296875</ele>
        <time>2021-04-01T08:23:40.000Z</time>
      </trkpt>
      <trkpt lat="41.61199919879436492919921875" lon="-0.80016128718852996826171875">
        <ele>380.20001220703125</ele>
        <time>2021-04-01T08:23:44.000Z</time>
      </trkpt>
      <trkpt lat="41.6119225881993770599365234375" lon="-0.80019858665764331817626953125">
        <ele>380</ele>
        <time>2021-04-01T08:23:46.000Z</time>
      </trkpt>
      <trkpt lat="41.61165562458336353302001953125" lon="-0.80028869211673736572265625">
        <ele>379.79998779296875</ele>
        <time>2021-04-01T08:23:53.000Z</time>
      </trkpt>
      <trkpt lat="41.6115299798548221588134765625" lon="-0.80034543760120868682861328125">
        <ele>379.79998779296875</ele>
        <time>2021-04-01T08:23:56.000Z</time>
      </trkpt>
      <trkpt lat="41.61145211197435855865478515625" lon="-0.80038164742290973663330078125">
        <ele>380</ele>
        <time>2021-04-01T08:23:58.000Z</time>
      </trkpt>
      <trkpt lat="41.61137198098003864288330078125" lon="-0.80041836015880107879638671875">
        <ele>380.20001220703125</ele>
        <time>2021-04-01T08:24:00.000Z</time>
      </trkpt>
      <trkpt lat="41.611070148646831512451171875" lon="-0.80062338151037693023681640625">
        <ele>380</ele>
        <time>2021-04-01T08:24:08.000Z</time>
      </trkpt>
      <trkpt lat="41.6108953021466732025146484375" lon="-0.80080292187631130218505859375">
        <ele>379.79998779296875</ele>
        <time>2021-04-01T08:24:13.000Z</time>
      </trkpt>
      <trkpt lat="41.6108607687056064605712890625" lon="-0.8008325099945068359375">
        <ele>379.79998779296875</ele>
        <time>2021-04-01T08:24:14.000Z</time>
      </trkpt>
      <trkpt lat="41.61082615144550800323486328125" lon="-0.80085606314241886138916015625">
        <ele>379.79998779296875</ele>
        <time>2021-04-01T08:24:15.000Z</time>
      </trkpt>
      <trkpt lat="41.61068097688257694244384765625" lon="-0.8008742518723011016845703125">
        <ele>379.600006103515625</ele>
        <time>2021-04-01T08:24:19.000Z</time>
      </trkpt>
      <trkpt lat="41.610460616648197174072265625" lon="-0.80083225853741168975830078125">
        <ele>379.600006103515625</ele>
        <time>2021-04-01T08:24:24.000Z</time>
      </trkpt>
      <trkpt lat="41.61037067882716655731201171875" lon="-0.800833515822887420654296875">
        <ele>379.600006103515625</ele>
        <time>2021-04-01T08:24:26.000Z</time>
      </trkpt>
      <trkpt lat="41.61026875488460063934326171875" lon="-0.80084432847797870635986328125">
        <ele>379.600006103515625</ele>
        <time>2021-04-01T08:24:28.000Z</time>
      </trkpt>
      <trkpt lat="41.61016934551298618316650390625" lon="-0.80088078975677490234375">
        <ele>379.600006103515625</ele>
        <time>2021-04-01T08:24:30.000Z</time>
      </trkpt>
      <trkpt lat="41.61012022756040096282958984375" lon="-0.80090031959116458892822265625">
        <ele>379.399993896484375</ele>
        <time>2021-04-01T08:24:31.000Z</time>
      </trkpt>
      <trkpt lat="41.6097318939864635467529296875" lon="-0.8009694702923297882080078125">
        <ele>379.600006103515625</ele>
        <time>2021-04-01T08:24:39.000Z</time>
      </trkpt>
      <trkpt lat="41.60936652682721614837646484375" lon="-0.80092060379683971405029296875">
        <ele>379.399993896484375</ele>
        <time>2021-04-01T08:24:47.000Z</time>
      </trkpt>
      <trkpt lat="41.60902555100619792938232421875" lon="-0.80075279809534549713134765625">
        <ele>379.600006103515625</ele>
        <time>2021-04-01T08:24:55.000Z</time>
      </trkpt>
      <trkpt lat="41.60898481495678424835205078125" lon="-0.80072597600519657135009765625">
        <ele>379.600006103515625</ele>
        <time>2021-04-01T08:24:56.000Z</time>
      </trkpt>
      <trkpt lat="41.60879253409802913665771484375" lon="-0.80056286416947841644287109375">
        <ele>379.399993896484375</ele>
        <time>2021-04-01T08:25:01.000Z</time>
      </trkpt>
      <trkpt lat="41.6086888499557971954345703125" lon="-0.80044853501021862030029296875">
        <ele>379.20001220703125</ele>
        <time>2021-04-01T08:25:04.000Z</time>
      </trkpt>
      <trkpt lat="41.60843278281390666961669921875" lon="-0.800118036568164825439453125">
        <ele>379</ele>
        <time>2021-04-01T08:25:12.000Z</time>
      </trkpt>
      <trkpt lat="41.6083083115518093109130859375" lon="-0.7999639771878719329833984375">
        <ele>379</ele>
        <time>2021-04-01T08:25:16.000Z</time>
      </trkpt>
      <trkpt lat="41.60819205455482006072998046875" lon="-0.7998017035424709320068359375">
        <ele>379</ele>
        <time>2021-04-01T08:25:20.000Z</time>
      </trkpt>
      <trkpt lat="41.60810354165732860565185546875" lon="-0.79967706464231014251708984375">
        <ele>378.79998779296875</ele>
        <time>2021-04-01T08:25:23.000Z</time>
      </trkpt>
      <trkpt lat="41.6079752147197723388671875" lon="-0.79951797612011432647705078125">
        <ele>379</ele>
        <time>2021-04-01T08:25:27.000Z</time>
      </trkpt>
      <trkpt lat="41.6079100035130977630615234375" lon="-0.7994375936686992645263671875">
        <ele>379</ele>
        <time>2021-04-01T08:25:29.000Z</time>
      </trkpt>
      <trkpt lat="41.60787605680525302886962890625" lon="-0.7993997074663639068603515625">
        <ele>379</ele>
        <time>2021-04-01T08:25:30.000Z</time>
      </trkpt>
      <trkpt lat="41.60784102044999599456787109375" lon="-0.79936525784432888031005859375">
        <ele>378.79998779296875</ele>
        <time>2021-04-01T08:25:31.000Z</time>
      </trkpt>
      <trkpt lat="41.6074868850409984588623046875" lon="-0.799005590379238128662109375">
        <ele>378.600006103515625</ele>
        <time>2021-04-01T08:25:41.000Z</time>
      </trkpt>
      <trkpt lat="41.6074546985328197479248046875" lon="-0.79897281713783740997314453125">
        <ele>378.399993896484375</ele>
        <time>2021-04-01T08:25:42.000Z</time>
      </trkpt>
      <trkpt lat="41.60727976821362972259521484375" lon="-0.798808448016643524169921875">
        <ele>378</ele>
        <time>2021-04-01T08:25:47.000Z</time>
      </trkpt>
      <trkpt lat="41.60710819065570831298828125" lon="-0.7986205257475376129150390625">
        <ele>377.600006103515625</ele>
        <time>2021-04-01T08:25:52.000Z</time>
      </trkpt>
      <trkpt lat="41.6070590727031230926513671875" lon="-0.798520110547542572021484375">
        <ele>377.79998779296875</ele>
        <time>2021-04-01T08:25:54.000Z</time>
      </trkpt>
      <trkpt lat="41.60703987814486026763916015625" lon="-0.798395387828350067138671875">
        <ele>377.79998779296875</ele>
        <time>2021-04-01T08:25:56.000Z</time>
      </trkpt>
      <trkpt lat="41.6070500202476978302001953125" lon="-0.79827946610748767852783203125">
        <ele>377.79998779296875</ele>
        <time>2021-04-01T08:25:58.000Z</time>
      </trkpt>
      <trkpt lat="41.60709033720195293426513671875" lon="-0.798021890223026275634765625">
        <ele>377.600006103515625</ele>
        <time>2021-04-01T08:26:03.000Z</time>
      </trkpt>
      <trkpt lat="41.60708430223166942596435546875" lon="-0.7979665696620941162109375">
        <ele>377.399993896484375</ele>
        <time>2021-04-01T08:26:04.000Z</time>
      </trkpt>
      <trkpt lat="41.6070617549121379852294921875" lon="-0.79780538566410541534423828125">
        <ele>377.399993896484375</ele>
        <time>2021-04-01T08:26:07.000Z</time>
      </trkpt>
      <trkpt lat="41.6069829650223255157470703125" lon="-0.79754387028515338897705078125">
        <ele>377</ele>
        <time>2021-04-01T08:26:12.000Z</time>
      </trkpt>
      <trkpt lat="41.60695404745638370513916015625" lon="-0.79742970876395702362060546875">
        <ele>377.20001220703125</ele>
        <time>2021-04-01T08:26:14.000Z</time>
      </trkpt>
      <trkpt lat="41.6069366969168186187744140625" lon="-0.79737422056496143341064453125">
        <ele>377.399993896484375</ele>
        <time>2021-04-01T08:26:15.000Z</time>
      </trkpt>
      <trkpt lat="41.6068485192954540252685546875" lon="-0.79716634936630725860595703125">
        <ele>377.399993896484375</ele>
        <time>2021-04-01T08:26:19.000Z</time>
      </trkpt>
      <trkpt lat="41.6065967269241809844970703125" lon="-0.79684280790388584136962890625">
        <ele>377.600006103515625</ele>
        <time>2021-04-01T08:26:27.000Z</time>
      </trkpt>
      <trkpt lat="41.60656563006341457366943359375" lon="-0.79680341295897960662841796875">
        <ele>377.600006103515625</ele>
        <time>2021-04-01T08:26:28.000Z</time>
      </trkpt>
      <trkpt lat="41.60636345855891704559326171875" lon="-0.7965049333870410919189453125">
        <ele>378</ele>
        <time>2021-04-01T08:26:35.000Z</time>
      </trkpt>
      <trkpt lat="41.60633563064038753509521484375" lon="-0.79646386206150054931640625">
        <ele>378</ele>
        <time>2021-04-01T08:26:36.000Z</time>
      </trkpt>
      <trkpt lat="41.606112420558929443359375" lon="-0.79616555012762546539306640625">
        <ele>378</ele>
        <time>2021-04-01T08:26:44.000Z</time>
      </trkpt>
      <trkpt lat="41.605881750583648681640625" lon="-0.7959591038525104522705078125">
        <ele>377.600006103515625</ele>
        <time>2021-04-01T08:26:51.000Z</time>
      </trkpt>
      <trkpt lat="41.60566759295761585235595703125" lon="-0.79584972001612186431884765625">
        <ele>377.399993896484375</ele>
        <time>2021-04-01T08:26:57.000Z</time>
      </trkpt>
      <trkpt lat="41.6055271960794925689697265625" lon="-0.79578258097171783447265625">
        <ele>377.600006103515625</ele>
        <time>2021-04-01T08:27:01.000Z</time>
      </trkpt>
      <trkpt lat="41.6054608114063739776611328125" lon="-0.7957314513623714447021484375">
        <ele>377.600006103515625</ele>
        <time>2021-04-01T08:27:03.000Z</time>
      </trkpt>
      <trkpt lat="41.605288647115230560302734375" lon="-0.7955634780228137969970703125">
        <ele>377.600006103515625</ele>
        <time>2021-04-01T08:27:08.000Z</time>
      </trkpt>
      <trkpt lat="41.60525520332157611846923828125" lon="-0.7955312915146350860595703125">
        <ele>377.399993896484375</ele>
        <time>2021-04-01T08:27:09.000Z</time>
      </trkpt>
      <trkpt lat="41.60505604930222034454345703125" lon="-0.79532300122082233428955078125">
        <ele>377.399993896484375</ele>
        <time>2021-04-01T08:27:15.000Z</time>
      </trkpt>
      <trkpt lat="41.605023778975009918212890625" lon="-0.79528444446623325347900390625">
        <ele>377.600006103515625</ele>
        <time>2021-04-01T08:27:16.000Z</time>
      </trkpt>
      <trkpt lat="41.60496166907250881195068359375" lon="-0.79519517719745635986328125">
        <ele>377.600006103515625</ele>
        <time>2021-04-01T08:27:18.000Z</time>
      </trkpt>
      <trkpt lat="41.604850105941295623779296875" lon="-0.79500465653836727142333984375">
        <ele>377.79998779296875</ele>
        <time>2021-04-01T08:27:22.000Z</time>
      </trkpt>
      <trkpt lat="41.60480861552059650421142578125" lon="-0.7948982901871204376220703125">
        <ele>377.399993896484375</ele>
        <time>2021-04-01T08:27:24.000Z</time>
      </trkpt>
      <trkpt lat="41.60470048896968364715576171875" lon="-0.794598720967769622802734375">
        <ele>376.79998779296875</ele>
        <time>2021-04-01T08:27:30.000Z</time>
      </trkpt>
      <trkpt lat="41.6045904345810413360595703125" lon="-0.79424726776778697967529296875">
        <ele>377</ele>
        <time>2021-04-01T08:27:37.000Z</time>
      </trkpt>
      <trkpt lat="41.604589931666851043701171875" lon="-0.794033110141754150390625">
        <ele>377.20001220703125</ele>
        <time>2021-04-01T08:27:42.000Z</time>
      </trkpt>
      <trkpt lat="41.60468087531626224517822265625" lon="-0.79386052675545215606689453125">
        <ele>377.399993896484375</ele>
        <time>2021-04-01T08:27:46.000Z</time>
      </trkpt>
      <trkpt lat="41.6048355214297771453857421875" lon="-0.7938042841851711273193359375">
        <ele>376.79998779296875</ele>
        <time>2021-04-01T08:27:50.000Z</time>
      </trkpt>
      <trkpt lat="41.60515864379703998565673828125" lon="-0.7937328703701496124267578125">
        <ele>377.20001220703125</ele>
        <time>2021-04-01T08:27:57.000Z</time>
      </trkpt>
      <trkpt lat="41.6052046604454517364501953125" lon="-0.7937231473624706268310546875">
        <ele>377.20001220703125</ele>
        <time>2021-04-01T08:27:58.000Z</time>
      </trkpt>
      <trkpt lat="41.60561327822506427764892578125" lon="-0.79366640187799930572509765625">
        <ele>377.20001220703125</ele>
        <time>2021-04-01T08:28:07.000Z</time>
      </trkpt>
      <trkpt lat="41.60590245388448238372802734375" lon="-0.793620385229587554931640625">
        <ele>377.20001220703125</ele>
        <time>2021-04-01T08:28:14.000Z</time>
      </trkpt>
      <trkpt lat="41.6059402562677860260009765625" lon="-0.79361376352608203887939453125">
        <ele>377</ele>
        <time>2021-04-01T08:28:15.000Z</time>
      </trkpt>
      <trkpt lat="41.60610747523605823516845703125" lon="-0.7935033738613128662109375">
        <ele>377</ele>
        <time>2021-04-01T08:28:20.000Z</time>
      </trkpt>
      <trkpt lat="41.6061638854444026947021484375" lon="-0.79339415766298770904541015625">
        <ele>377.79998779296875</ele>
        <time>2021-04-01T08:28:23.000Z</time>
      </trkpt>
      <trkpt lat="41.60617235116660594940185546875" lon="-0.7933003641664981842041015625">
        <ele>378</ele>
        <time>2021-04-01T08:28:25.000Z</time>
      </trkpt>
      <trkpt lat="41.60614787600934505462646484375" lon="-0.79320631921291351318359375">
        <ele>378.399993896484375</ele>
        <time>2021-04-01T08:28:27.000Z</time>
      </trkpt>
      <trkpt lat="41.60611351020634174346923828125" lon="-0.79311914741992950439453125">
        <ele>378.20001220703125</ele>
        <time>2021-04-01T08:28:29.000Z</time>
      </trkpt>
      <trkpt lat="41.6060988418757915496826171875" lon="-0.79307598061859607696533203125">
        <ele>378</ele>
        <time>2021-04-01T08:28:30.000Z</time>
      </trkpt>
      <trkpt lat="41.60599867813289165496826171875" lon="-0.79279082827270030975341796875">
        <ele>378</ele>
        <time>2021-04-01T08:28:36.000Z</time>
      </trkpt>
      <trkpt lat="41.60594721324741840362548828125" lon="-0.79264263622462749481201171875">
        <ele>378.20001220703125</ele>
        <time>2021-04-01T08:28:39.000Z</time>
      </trkpt>
      <trkpt lat="41.605892814695835113525390625" lon="-0.7924385368824005126953125">
        <ele>378.399993896484375</ele>
        <time>2021-04-01T08:28:43.000Z</time>
      </trkpt>
      <trkpt lat="41.60587144084274768829345703125" lon="-0.792271904647350311279296875">
        <ele>378</ele>
        <time>2021-04-01T08:28:46.000Z</time>
      </trkpt>
      <trkpt lat="41.605864651501178741455078125" lon="-0.79194090329110622406005859375">
        <ele>377.79998779296875</ele>
        <time>2021-04-01T08:28:52.000Z</time>
      </trkpt>
      <trkpt lat="41.605864651501178741455078125" lon="-0.79172305762767791748046875">
        <ele>377.79998779296875</ele>
        <time>2021-04-01T08:28:56.000Z</time>
      </trkpt>
      <trkpt lat="41.60585719160735607147216796875" lon="-0.79156254418194293975830078125">
        <ele>377.399993896484375</ele>
        <time>2021-04-01T08:28:59.000Z</time>
      </trkpt>
      <trkpt lat="41.60582282580435276031494140625" lon="-0.7911805808544158935546875">
        <ele>377</ele>
        <time>2021-04-01T08:29:06.000Z</time>
      </trkpt>
      <trkpt lat="41.60580371506512165069580078125" lon="-0.7908220030367374420166015625">
        <ele>378.20001220703125</ele>
        <time>2021-04-01T08:29:13.000Z</time>
      </trkpt>
      <trkpt lat="41.6057954169809818267822265625" lon="-0.7906986214220523834228515625">
        <ele>378.399993896484375</ele>
        <time>2021-04-01T08:29:15.000Z</time>
      </trkpt>
      <trkpt lat="41.605788208544254302978515625" lon="-0.79058269970118999481201171875">
        <ele>378.399993896484375</ele>
        <time>2021-04-01T08:29:17.000Z</time>
      </trkpt>
      <trkpt lat="41.6057731211185455322265625" lon="-0.79034834168851375579833984375">
        <ele>378.20001220703125</ele>
        <time>2021-04-01T08:29:21.000Z</time>
      </trkpt>
      <trkpt lat="41.60576901398599147796630859375" lon="-0.79028950072824954986572265625">
        <ele>378.20001220703125</ele>
        <time>2021-04-01T08:29:22.000Z</time>
      </trkpt>
      <trkpt lat="41.60576113499701023101806640625" lon="-0.79017148353159427642822265625">
        <ele>377.79998779296875</ele>
        <time>2021-04-01T08:29:24.000Z</time>
      </trkpt>
      <trkpt lat="41.605717800557613372802734375" lon="-0.78988448716700077056884765625">
        <ele>377.600006103515625</ele>
        <time>2021-04-01T08:29:29.000Z</time>
      </trkpt>
      <trkpt lat="41.605707742273807525634765625" lon="-0.78982916660606861114501953125">
        <ele>377.399993896484375</ele>
        <time>2021-04-01T08:29:30.000Z</time>
      </trkpt>
      <trkpt lat="41.605603136122226715087890625" lon="-0.78933161683380603790283203125">
        <ele>377.20001220703125</ele>
        <time>2021-04-01T08:29:39.000Z</time>
      </trkpt>
      <trkpt lat="41.6055895574390888214111328125" lon="-0.78927797265350818634033203125">
        <ele>377</ele>
        <time>2021-04-01T08:29:40.000Z</time>
      </trkpt>
      <trkpt lat="41.60557522438466548919677734375" lon="-0.78922416083514690399169921875">
        <ele>377.20001220703125</ele>
        <time>2021-04-01T08:29:41.000Z</time>
      </trkpt>
      <trkpt lat="41.60550012253224849700927734375" lon="-0.78883876092731952667236328125">
        <ele>377.79998779296875</ele>
        <time>2021-04-01T08:29:48.000Z</time>
      </trkpt>
      <trkpt lat="41.6054628230631351470947265625" lon="-0.78856199048459529876708984375">
        <ele>378.600006103515625</ele>
        <time>2021-04-01T08:29:53.000Z</time>
      </trkpt>
      <trkpt lat="41.605451591312885284423828125" lon="-0.78850583173334598541259765625">
        <ele>378.600006103515625</ele>
        <time>2021-04-01T08:29:54.000Z</time>
      </trkpt>
      <trkpt lat="41.60542937926948070526123046875" lon="-0.78839284367859363555908203125">
        <ele>378.399993896484375</ele>
        <time>2021-04-01T08:29:56.000Z</time>
      </trkpt>
      <trkpt lat="41.60536207258701324462890625" lon="-0.78812353312969207763671875">
        <ele>378.20001220703125</ele>
        <time>2021-04-01T08:30:01.000Z</time>
      </trkpt>
      <trkpt lat="41.6052935086190700531005859375" lon="-0.7879111357033252716064453125">
        <ele>378.20001220703125</ele>
        <time>2021-04-01T08:30:05.000Z</time>
      </trkpt>
      <trkpt lat="41.60525134764611721038818359375" lon="-0.78779571689665317535400390625">
        <ele>378.399993896484375</ele>
        <time>2021-04-01T08:30:07.000Z</time>
      </trkpt>
      <trkpt lat="41.60513701848685741424560546875" lon="-0.787531770765781402587890625">
        <ele>378.399993896484375</ele>
        <time>2021-04-01T08:30:12.000Z</time>
      </trkpt>
      <trkpt lat="41.60499704070389270782470703125" lon="-0.78725793398916721343994140625">
        <ele>377.600006103515625</ele>
        <time>2021-04-01T08:30:18.000Z</time>
      </trkpt>
      <trkpt lat="41.6049738228321075439453125" lon="-0.7872127555310726165771484375">
        <ele>377.79998779296875</ele>
        <time>2021-04-01T08:30:19.000Z</time>
      </trkpt>
      <trkpt lat="41.6047807037830352783203125" lon="-0.78685308806598186492919921875">
        <ele>377.79998779296875</ele>
        <time>2021-04-01T08:30:27.000Z</time>
      </trkpt>
      <trkpt lat="41.604686491191387176513671875" lon="-0.7865631580352783203125">
        <ele>377.600006103515625</ele>
        <time>2021-04-01T08:30:33.000Z</time>
      </trkpt>
      <trkpt lat="41.60469529218971729278564453125" lon="-0.7865090109407901763916015625">
        <ele>377.79998779296875</ele>
        <time>2021-04-01T08:30:34.000Z</time>
      </trkpt>
      <trkpt lat="41.60472596995532512664794921875" lon="-0.78640281222760677337646484375">
        <ele>378.600006103515625</ele>
        <time>2021-04-01T08:30:36.000Z</time>
      </trkpt>
      <trkpt lat="41.6047674603760242462158203125" lon="-0.7863031513988971710205078125">
        <ele>378.79998779296875</ele>
        <time>2021-04-01T08:30:38.000Z</time>
      </trkpt>
      <trkpt lat="41.60480911843478679656982421875" lon="-0.786198712885379791259765625">
        <ele>379</ele>
        <time>2021-04-01T08:30:40.000Z</time>
      </trkpt>
      <trkpt lat="41.604844741523265838623046875" lon="-0.78610072843730449676513671875">
        <ele>378.600006103515625</ele>
        <time>2021-04-01T08:30:42.000Z</time>
      </trkpt>
      <trkpt lat="41.6048879921436309814453125" lon="-0.78600835986435413360595703125">
        <ele>378</ele>
        <time>2021-04-01T08:30:44.000Z</time>
      </trkpt>
      <trkpt lat="41.60498899407684803009033203125" lon="-0.785807110369205474853515625">
        <ele>378.600006103515625</ele>
        <time>2021-04-01T08:30:49.000Z</time>
      </trkpt>
      <trkpt lat="41.60500894300639629364013671875" lon="-0.78577282838523387908935546875">
        <ele>378.600006103515625</ele>
        <time>2021-04-01T08:30:50.000Z</time>
      </trkpt>
      <trkpt lat="41.60512880422174930572509765625" lon="-0.78554115258157253265380859375">
        <ele>378.79998779296875</ele>
        <time>2021-04-01T08:30:55.000Z</time>
      </trkpt>
      <trkpt lat="41.605212204158306121826171875" lon="-0.78537837602198123931884765625">
        <ele>377.600006103515625</ele>
        <time>2021-04-01T08:30:58.000Z</time>
      </trkpt>
      <trkpt lat="41.60523994825780391693115234375" lon="-0.78532590530812740325927734375">
        <ele>377.20001220703125</ele>
        <time>2021-04-01T08:30:59.000Z</time>
      </trkpt>
      <trkpt lat="41.60536835901439189910888671875" lon="-0.78508165664970874786376953125">
        <ele>376.600006103515625</ele>
        <time>2021-04-01T08:31:04.000Z</time>
      </trkpt>
      <trkpt lat="41.605442874133586883544921875" lon="-0.7849365659058094024658203125">
        <ele>376.399993896484375</ele>
        <time>2021-04-01T08:31:07.000Z</time>
      </trkpt>
      <trkpt lat="41.605494506657123565673828125" lon="-0.7848430238664150238037109375">
        <ele>376.79998779296875</ele>
        <time>2021-04-01T08:31:09.000Z</time>
      </trkpt>
      <trkpt lat="41.60557203926146030426025390625" lon="-0.78470698557794094085693359375">
        <ele>377.20001220703125</ele>
        <time>2021-04-01T08:31:12.000Z</time>
      </trkpt>
      <trkpt lat="41.60582718439400196075439453125" lon="-0.7842666842043399810791015625">
        <ele>377.600006103515625</ele>
        <time>2021-04-01T08:31:22.000Z</time>
      </trkpt>
      <trkpt lat="41.60600152797996997833251953125" lon="-0.78395311720669269561767578125">
        <ele>377.399993896484375</ele>
        <time>2021-04-01T08:31:29.000Z</time>
      </trkpt>
      <trkpt lat="41.60602851770818233489990234375" lon="-0.783909447491168975830078125">
        <ele>377.600006103515625</ele>
        <time>2021-04-01T08:31:30.000Z</time>
      </trkpt>
      <trkpt lat="41.6060574352741241455078125" lon="-0.7838666997849941253662109375">
        <ele>377.600006103515625</ele>
        <time>2021-04-01T08:31:31.000Z</time>
      </trkpt>
      <trkpt lat="41.606152988970279693603515625" lon="-0.7837508618831634521484375">
        <ele>377.600006103515625</ele>
        <time>2021-04-01T08:31:34.000Z</time>
      </trkpt>
      <trkpt lat="41.60622733645141124725341796875" lon="-0.78370601870119571685791015625">
        <ele>377.600006103515625</ele>
        <time>2021-04-01T08:31:36.000Z</time>
      </trkpt>
      <trkpt lat="41.6063073836266994476318359375" lon="-0.78370182774960994720458984375">
        <ele>377.600006103515625</ele>
        <time>2021-04-01T08:31:38.000Z</time>
      </trkpt>
      <trkpt lat="41.6063875146210193634033203125" lon="-0.78372144140303134918212890625">
        <ele>377.600006103515625</ele>
        <time>2021-04-01T08:31:40.000Z</time>
      </trkpt>
      <trkpt lat="41.60664944909512996673583984375" lon="-0.7838717289268970489501953125">
        <ele>376.79998779296875</ele>
        <time>2021-04-01T08:31:47.000Z</time>
      </trkpt>
      <trkpt lat="41.60695019178092479705810546875" lon="-0.7840457372367382049560546875">
        <ele>377.600006103515625</ele>
        <time>2021-04-01T08:31:55.000Z</time>
      </trkpt>
      <trkpt lat="41.60735134966671466827392578125" lon="-0.78426760621368885040283203125">
        <ele>378.20001220703125</ele>
        <time>2021-04-01T08:32:05.000Z</time>
      </trkpt>
      <trkpt lat="41.6075948439538478851318359375" lon="-0.7844038121402263641357421875">
        <ele>378.20001220703125</ele>
        <time>2021-04-01T08:32:11.000Z</time>
      </trkpt>
      <trkpt lat="41.6076776571571826934814453125" lon="-0.7844316400587558746337890625">
        <ele>378</ele>
        <time>2021-04-01T08:32:13.000Z</time>
      </trkpt>
      <trkpt lat="41.60771839320659637451171875" lon="-0.784436501562595367431640625">
        <ele>378</ele>
        <time>2021-04-01T08:32:14.000Z</time>
      </trkpt>
      <trkpt lat="41.6077976860105991363525390625" lon="-0.78442686237394809722900390625">
        <ele>378.20001220703125</ele>
        <time>2021-04-01T08:32:16.000Z</time>
      </trkpt>
      <trkpt lat="41.60787270404398441314697265625" lon="-0.78438897617161273956298828125">
        <ele>378.399993896484375</ele>
        <time>2021-04-01T08:32:18.000Z</time>
      </trkpt>
      <trkpt lat="41.60790841095149517059326171875" lon="-0.78436165116727352142333984375">
        <ele>378.79998779296875</ele>
        <time>2021-04-01T08:32:19.000Z</time>
      </trkpt>
      <trkpt lat="41.6080937348306179046630859375" lon="-0.78414942137897014617919921875">
        <ele>378.79998779296875</ele>
        <time>2021-04-01T08:32:25.000Z</time>
      </trkpt>
      <trkpt lat="41.6083346307277679443359375" lon="-0.78384934924542903900146484375">
        <ele>378.399993896484375</ele>
        <time>2021-04-01T08:32:33.000Z</time>
      </trkpt>
      <trkpt lat="41.60846111364662647247314453125" lon="-0.783702917397022247314453125">
        <ele>378</ele>
        <time>2021-04-01T08:32:37.000Z</time>
      </trkpt>
      <trkpt lat="41.60862472839653491973876953125" lon="-0.78354944474995136260986328125">
        <ele>378.399993896484375</ele>
        <time>2021-04-01T08:32:42.000Z</time>
      </trkpt>
      <trkpt lat="41.60875062458217144012451171875" lon="-0.783439390361309051513671875">
        <ele>379.20001220703125</ele>
        <time>2021-04-01T08:32:46.000Z</time>
      </trkpt>
      <trkpt lat="41.6087797097861766815185546875" lon="-0.783411227166652679443359375">
        <ele>379.399993896484375</ele>
        <time>2021-04-01T08:32:47.000Z</time>
      </trkpt>
      <trkpt lat="41.60891138948500156402587890625" lon="-0.7832809723913669586181640625">
        <ele>380</ele>
        <time>2021-04-01T08:32:51.000Z</time>
      </trkpt>
      <trkpt lat="41.60894743166863918304443359375" lon="-0.78324886970221996307373046875">
        <ele>380</ele>
        <time>2021-04-01T08:32:52.000Z</time>
      </trkpt>
      <trkpt lat="41.609095036983489990234375" lon="-0.78311911784112453460693359375">
        <ele>379.600006103515625</ele>
        <time>2021-04-01T08:32:56.000Z</time>
      </trkpt>
      <trkpt lat="41.60927407443523406982421875" lon="-0.78296120278537273406982421875">
        <ele>379.399993896484375</ele>
        <time>2021-04-01T08:33:01.000Z</time>
      </trkpt>
      <trkpt lat="41.60930919460952281951904296875" lon="-0.78292767517268657684326171875">
        <ele>379.20001220703125</ele>
        <time>2021-04-01T08:33:02.000Z</time>
      </trkpt>
      <trkpt lat="41.60938278771936893463134765625" lon="-0.7828685827553272247314453125">
        <ele>379</ele>
        <time>2021-04-01T08:33:04.000Z</time>
      </trkpt>
      <trkpt lat="41.6094526089727878570556640625" lon="-0.7828068919479846954345703125">
        <ele>378.399993896484375</ele>
        <time>2021-04-01T08:33:06.000Z</time>
      </trkpt>
      <trkpt lat="41.60958361811935901641845703125" lon="-0.78268275596201419830322265625">
        <ele>378.20001220703125</ele>
        <time>2021-04-01T08:33:10.000Z</time>
      </trkpt>
      <trkpt lat="41.609836332499980926513671875" lon="-0.78248661942780017852783203125">
        <ele>378.20001220703125</ele>
        <time>2021-04-01T08:33:17.000Z</time>
      </trkpt>
      <trkpt lat="41.609949655830860137939453125" lon="-0.78241134993731975555419921875">
        <ele>378.600006103515625</ele>
        <time>2021-04-01T08:33:20.000Z</time>
      </trkpt>
      <trkpt lat="41.61006876267492771148681640625" lon="-0.78235100023448467254638671875">
        <ele>378.600006103515625</ele>
        <time>2021-04-01T08:33:23.000Z</time>
      </trkpt>
      <trkpt lat="41.61010446958243846893310546875" lon="-0.78232786618173122406005859375">
        <ele>378.600006103515625</ele>
        <time>2021-04-01T08:33:24.000Z</time>
      </trkpt>
      <trkpt lat="41.610259115695953369140625" lon="-0.78216341324150562286376953125">
        <ele>378.20001220703125</ele>
        <time>2021-04-01T08:33:29.000Z</time>
      </trkpt>
      <trkpt lat="41.61029121838510036468505859375" lon="-0.78212737105786800384521484375">
        <ele>378.20001220703125</ele>
        <time>2021-04-01T08:33:30.000Z</time>
      </trkpt>
      <trkpt lat="41.6103588603436946868896484375" lon="-0.78206031583249568939208984375">
        <ele>378.20001220703125</ele>
        <time>2021-04-01T08:33:32.000Z</time>
      </trkpt>
      <trkpt lat="41.61042801104485988616943359375" lon="-0.781993009150028228759765625">
        <ele>378.399993896484375</ele>
        <time>2021-04-01T08:33:34.000Z</time>
      </trkpt>
      <trkpt lat="41.61053328774869441986083984375" lon="-0.7818925939500331878662109375">
        <ele>378.399993896484375</ele>
        <time>2021-04-01T08:33:37.000Z</time>
      </trkpt>
      <trkpt lat="41.6105677373707294464111328125" lon="-0.78185898251831531524658203125">
        <ele>378.399993896484375</ele>
        <time>2021-04-01T08:33:38.000Z</time>
      </trkpt>
      <trkpt lat="41.61067846231162548065185546875" lon="-0.7817678712308406829833984375">
        <ele>378.20001220703125</ele>
        <time>2021-04-01T08:33:41.000Z</time>
      </trkpt>
      <trkpt lat="41.61079161800444126129150390625" lon="-0.781675167381763458251953125">
        <ele>378</ele>
        <time>2021-04-01T08:33:44.000Z</time>
      </trkpt>
      <trkpt lat="41.6108711622655391693115234375" lon="-0.78161724843084812164306640625">
        <ele>377.79998779296875</ele>
        <time>2021-04-01T08:33:46.000Z</time>
      </trkpt>
      <trkpt lat="41.6110726632177829742431640625" lon="-0.7815063558518886566162109375">
        <ele>378.20001220703125</ele>
        <time>2021-04-01T08:33:51.000Z</time>
      </trkpt>
      <trkpt lat="41.6111564822494983673095703125" lon="-0.7814845629036426544189453125">
        <ele>378.399993896484375</ele>
        <time>2021-04-01T08:33:53.000Z</time>
      </trkpt>
      <trkpt lat="41.611241810023784637451171875" lon="-0.781470648944377899169921875">
        <ele>378.20001220703125</ele>
        <time>2021-04-01T08:33:55.000Z</time>
      </trkpt>
      <trkpt lat="41.6114525310695171356201171875" lon="-0.78145732171833515167236328125">
        <ele>378.399993896484375</ele>
        <time>2021-04-01T08:34:00.000Z</time>
      </trkpt>
      <trkpt lat="41.611817143857479095458984375" lon="-0.78143334947526454925537109375">
        <ele>378.399993896484375</ele>
        <time>2021-04-01T08:34:09.000Z</time>
      </trkpt>
      <trkpt lat="41.612204723060131072998046875" lon="-0.78138356097042560577392578125">
        <ele>378.600006103515625</ele>
        <time>2021-04-01T08:34:19.000Z</time>
      </trkpt>
      <trkpt lat="41.612566821277141571044921875" lon="-0.7814104668796062469482421875">
        <ele>379</ele>
        <time>2021-04-01T08:34:28.000Z</time>
      </trkpt>
      <trkpt lat="41.6127748601138591766357421875" lon="-0.78143267892301082611083984375">
        <ele>378.399993896484375</ele>
        <time>2021-04-01T08:34:33.000Z</time>
      </trkpt>
      <trkpt lat="41.612816937267780303955078125" lon="-0.7814342714846134185791015625">
        <ele>378.399993896484375</ele>
        <time>2021-04-01T08:34:34.000Z</time>
      </trkpt>
      <trkpt lat="41.6128590144217014312744140625" lon="-0.781433098018169403076171875">
        <ele>378</ele>
        <time>2021-04-01T08:34:35.000Z</time>
      </trkpt>
      <trkpt lat="41.612900756299495697021484375" lon="-0.7814319245517253875732421875">
        <ele>378.20001220703125</ele>
        <time>2021-04-01T08:34:36.000Z</time>
      </trkpt>
      <trkpt lat="41.613108627498149871826171875" lon="-0.781426727771759033203125">
        <ele>378.79998779296875</ele>
        <time>2021-04-01T08:34:41.000Z</time>
      </trkpt>
      <trkpt lat="41.6132345236837863922119140625" lon="-0.78142580576241016387939453125">
        <ele>378.79998779296875</ele>
        <time>2021-04-01T08:34:44.000Z</time>
      </trkpt>
      <trkpt lat="41.6133139841258525848388671875" lon="-0.78142060898244380950927734375">
        <ele>379.399993896484375</ele>
        <time>2021-04-01T08:34:46.000Z</time>
      </trkpt>
      <trkpt lat="41.6135892458260059356689453125" lon="-0.78135707415640354156494140625">
        <ele>379.399993896484375</ele>
        <time>2021-04-01T08:34:53.000Z</time>
      </trkpt>
      <trkpt lat="41.61394380033016204833984375" lon="-0.78119144774973392486572265625">
        <ele>379.399993896484375</ele>
        <time>2021-04-01T08:35:02.000Z</time>
      </trkpt>
      <trkpt lat="41.613981686532497406005859375" lon="-0.78117258846759796142578125">
        <ele>379.399993896484375</ele>
        <time>2021-04-01T08:35:03.000Z</time>
      </trkpt>
      <trkpt lat="41.61428309977054595947265625" lon="-0.781017355620861053466796875">
        <ele>379.399993896484375</ele>
        <time>2021-04-01T08:35:11.000Z</time>
      </trkpt>
      <trkpt lat="41.61447244696319103240966796875" lon="-0.78090160153806209564208984375">
        <ele>379.20001220703125</ele>
        <time>2021-04-01T08:35:16.000Z</time>
      </trkpt>
      <trkpt lat="41.61464343778789043426513671875" lon="-0.78076363541185855865478515625">
        <ele>379</ele>
        <time>2021-04-01T08:35:21.000Z</time>
      </trkpt>
      <trkpt lat="41.61482800729572772979736328125" lon="-0.780568756163120269775390625">
        <ele>379</ele>
        <time>2021-04-01T08:35:27.000Z</time>
      </trkpt>
      <trkpt lat="41.6148552484810352325439453125" lon="-0.78052843920886516571044921875">
        <ele>379.20001220703125</ele>
        <time>2021-04-01T08:35:28.000Z</time>
      </trkpt>
      <trkpt lat="41.61487746052443981170654296875" lon="-0.78048233874142169952392578125">
        <ele>379.20001220703125</ele>
        <time>2021-04-01T08:35:29.000Z</time>
      </trkpt>
      <trkpt lat="41.61489590071141719818115234375" lon="-0.78037303872406482696533203125">
        <ele>379.399993896484375</ele>
        <time>2021-04-01T08:35:31.000Z</time>
      </trkpt>
      <trkpt lat="41.61489103920757770538330078125" lon="-0.7803167961537837982177734375">
        <ele>379.600006103515625</ele>
        <time>2021-04-01T08:35:32.000Z</time>
      </trkpt>
      <trkpt lat="41.61487989127635955810546875" lon="-0.780262984335422515869140625">
        <ele>379.600006103515625</ele>
        <time>2021-04-01T08:35:33.000Z</time>
      </trkpt>
      <trkpt lat="41.61480705253779888153076171875" lon="-0.78007221221923828125">
        <ele>379.399993896484375</ele>
        <time>2021-04-01T08:35:37.000Z</time>
      </trkpt>
      <trkpt lat="41.61470688879489898681640625" lon="-0.77982670627534389495849609375">
        <ele>379.20001220703125</ele>
        <time>2021-04-01T08:35:42.000Z</time>
      </trkpt>
      <trkpt lat="41.614681743085384368896484375" lon="-0.77972310595214366912841796875">
        <ele>379.20001220703125</ele>
        <time>2021-04-01T08:35:44.000Z</time>
      </trkpt>
      <trkpt lat="41.614721305668354034423828125" lon="-0.77954004518687725067138671875">
        <ele>379.600006103515625</ele>
        <time>2021-04-01T08:35:48.000Z</time>
      </trkpt>
      <trkpt lat="41.61479531787335872650146484375" lon="-0.77947651036083698272705078125">
        <ele>378.79998779296875</ele>
        <time>2021-04-01T08:35:50.000Z</time>
      </trkpt>
      <trkpt lat="41.61488902755081653594970703125" lon="-0.779447257518768310546875">
        <ele>378.600006103515625</ele>
        <time>2021-04-01T08:35:52.000Z</time>
      </trkpt>
      <trkpt lat="41.6149357147514820098876953125" lon="-0.7794363610446453094482421875">
        <ele>378.399993896484375</ele>
        <time>2021-04-01T08:35:53.000Z</time>
      </trkpt>
      <trkpt lat="41.61502347327768802642822265625" lon="-0.77941515482962131500244140625">
        <ele>378.399993896484375</ele>
        <time>2021-04-01T08:35:55.000Z</time>
      </trkpt>
      <trkpt lat="41.61506362259387969970703125" lon="-0.7793984748423099517822265625">
        <ele>378.600006103515625</ele>
        <time>2021-04-01T08:35:56.000Z</time>
      </trkpt>
      <trkpt lat="41.61510025151073932647705078125" lon="-0.77937676571309566497802734375">
        <ele>378.600006103515625</ele>
        <time>2021-04-01T08:35:57.000Z</time>
      </trkpt>
      <trkpt lat="41.6151362098753452301025390625" lon="-0.77935530804097652435302734375">
        <ele>378.600006103515625</ele>
        <time>2021-04-01T08:35:58.000Z</time>
      </trkpt>
      <trkpt lat="41.61517233587801456451416015625" lon="-0.77933527529239654541015625">
        <ele>378.79998779296875</ele>
        <time>2021-04-01T08:35:59.000Z</time>
      </trkpt>
      <trkpt lat="41.61524391733109951019287109375" lon="-0.7792982272803783416748046875">
        <ele>378.79998779296875</ele>
        <time>2021-04-01T08:36:01.000Z</time>
      </trkpt>
      <trkpt lat="41.61545790731906890869140625" lon="-0.779174007475376129150390625">
        <ele>378.79998779296875</ele>
        <time>2021-04-01T08:36:07.000Z</time>
      </trkpt>
      <trkpt lat="41.6157021559774875640869140625" lon="-0.77899505384266376495361328125">
        <ele>378.79998779296875</ele>
        <time>2021-04-01T08:36:14.000Z</time>
      </trkpt>
      <trkpt lat="41.615770049393177032470703125" lon="-0.77894140966236591339111328125">
        <ele>379</ele>
        <time>2021-04-01T08:36:16.000Z</time>
      </trkpt>
      <trkpt lat="41.6158359311521053314208984375" lon="-0.77888173051178455352783203125">
        <ele>379</ele>
        <time>2021-04-01T08:36:18.000Z</time>
      </trkpt>
      <trkpt lat="41.6159110330045223236083984375" lon="-0.77876673080027103424072265625">
        <ele>379.20001220703125</ele>
        <time>2021-04-01T08:36:21.000Z</time>
      </trkpt>
      <trkpt lat="41.61592838354408740997314453125" lon="-0.778723061084747314453125">
        <ele>379.20001220703125</ele>
        <time>2021-04-01T08:36:22.000Z</time>
      </trkpt>
      <trkpt lat="41.6159485839307308197021484375" lon="-0.77852927148342132568359375">
        <ele>378.399993896484375</ele>
        <time>2021-04-01T08:36:26.000Z</time>
      </trkpt>
      <trkpt lat="41.615896113216876983642578125" lon="-0.77833405695855617523193359375">
        <ele>378</ele>
        <time>2021-04-01T08:36:30.000Z</time>
      </trkpt>
      <trkpt lat="41.61585948430001735687255859375" lon="-0.778245627880096435546875">
        <ele>378</ele>
        <time>2021-04-01T08:36:32.000Z</time>
      </trkpt>
      <trkpt lat="41.61564239300787448883056640625" lon="-0.7777995429933071136474609375">
        <ele>378.20001220703125</ele>
        <time>2021-04-01T08:36:42.000Z</time>
      </trkpt>
      <trkpt lat="41.6155242919921875" lon="-0.7775708846747875213623046875">
        <ele>378.20001220703125</ele>
        <time>2021-04-01T08:36:47.000Z</time>
      </trkpt>
      <trkpt lat="41.61549772135913372039794921875" lon="-0.77752805314958095550537109375">
        <ele>378.20001220703125</ele>
        <time>2021-04-01T08:36:48.000Z</time>
      </trkpt>
      <trkpt lat="41.6154064424335956573486328125" lon="-0.7774163223803043365478515625">
        <ele>378.399993896484375</ele>
        <time>2021-04-01T08:36:51.000Z</time>
      </trkpt>
      <trkpt lat="41.6153719089925289154052734375" lon="-0.7773858122527599334716796875">
        <ele>378.399993896484375</ele>
        <time>2021-04-01T08:36:52.000Z</time>
      </trkpt>
      <trkpt lat="41.61529236473143100738525390625" lon="-0.7773475907742977142333984375">
        <ele>378.20001220703125</ele>
        <time>2021-04-01T08:36:54.000Z</time>
      </trkpt>
      <trkpt lat="41.6152491979300975799560546875" lon="-0.77734373509883880615234375">
        <ele>378.399993896484375</ele>
        <time>2021-04-01T08:36:55.000Z</time>
      </trkpt>
      <trkpt lat="41.61520712077617645263671875" lon="-0.77733677811920642852783203125">
        <ele>378.20001220703125</ele>
        <time>2021-04-01T08:36:56.000Z</time>
      </trkpt>
      <trkpt lat="41.61516487598419189453125" lon="-0.77732839621603488922119140625">
        <ele>378.20001220703125</ele>
        <time>2021-04-01T08:36:57.000Z</time>
      </trkpt>
      <trkpt lat="41.6150446794927120208740234375" lon="-0.77733099460601806640625">
        <ele>378</ele>
        <time>2021-04-01T08:37:00.000Z</time>
      </trkpt>
      <trkpt lat="41.6149645484983921051025390625" lon="-0.777344405651092529296875">
        <ele>378</ele>
        <time>2021-04-01T08:37:02.000Z</time>
      </trkpt>
      <trkpt lat="41.6148844175040721893310546875" lon="-0.77735421247780323028564453125">
        <ele>377.79998779296875</ele>
        <time>2021-04-01T08:37:04.000Z</time>
      </trkpt>
      <trkpt lat="41.61476246081292629241943359375" lon="-0.7773670367896556854248046875">
        <ele>378</ele>
        <time>2021-04-01T08:37:07.000Z</time>
      </trkpt>
      <trkpt lat="41.61459180526435375213623046875" lon="-0.777378939092159271240234375">
        <ele>378.20001220703125</ele>
        <time>2021-04-01T08:37:11.000Z</time>
      </trkpt>
      <trkpt lat="41.6144576109945774078369140625" lon="-0.77735572122037410736083984375">
        <ele>377.79998779296875</ele>
        <time>2021-04-01T08:37:14.000Z</time>
      </trkpt>
      <trkpt lat="41.61437806673347949981689453125" lon="-0.7773063518106937408447265625">
        <ele>377.79998779296875</ele>
        <time>2021-04-01T08:37:16.000Z</time>
      </trkpt>
      <trkpt lat="41.614320315420627593994140625" lon="-0.77722026966512203216552734375">
        <ele>377.79998779296875</ele>
        <time>2021-04-01T08:37:18.000Z</time>
      </trkpt>
      <trkpt lat="41.6142779029905796051025390625" lon="-0.77711164020001888275146484375">
        <ele>377.79998779296875</ele>
        <time>2021-04-01T08:37:20.000Z</time>
      </trkpt>
      <trkpt lat="41.61425317637622356414794921875" lon="-0.776990354061126708984375">
        <ele>377.79998779296875</ele>
        <time>2021-04-01T08:37:22.000Z</time>
      </trkpt>
      <trkpt lat="41.61424479447305202484130859375" lon="-0.7769274897873401641845703125">
        <ele>377.79998779296875</ele>
        <time>2021-04-01T08:37:23.000Z</time>
      </trkpt>
      <trkpt lat="41.6142309643328189849853515625" lon="-0.77680234797298908233642578125">
        <ele>378.20001220703125</ele>
        <time>2021-04-01T08:37:25.000Z</time>
      </trkpt>
      <trkpt lat="41.614199616014957427978515625" lon="-0.77649104408919811248779296875">
        <ele>378.399993896484375</ele>
        <time>2021-04-01T08:37:30.000Z</time>
      </trkpt>
      <trkpt lat="41.61419282667338848114013671875" lon="-0.77643052674829959869384765625">
        <ele>378.399993896484375</ele>
        <time>2021-04-01T08:37:31.000Z</time>
      </trkpt>
      <trkpt lat="41.61416734568774700164794921875" lon="-0.776194073259830474853515625">
        <ele>378.399993896484375</ele>
        <time>2021-04-01T08:37:35.000Z</time>
      </trkpt>
      <trkpt lat="41.614145971834659576416015625" lon="-0.77608334831893444061279296875">
        <ele>378.399993896484375</ele>
        <time>2021-04-01T08:37:37.000Z</time>
      </trkpt>
      <trkpt lat="41.614126525819301605224609375" lon="-0.7759709469974040985107421875">
        <ele>378.20001220703125</ele>
        <time>2021-04-01T08:37:39.000Z</time>
      </trkpt>
      <trkpt lat="41.6141072474420070648193359375" lon="-0.77586181461811065673828125">
        <ele>378</ele>
        <time>2021-04-01T08:37:41.000Z</time>
      </trkpt>
      <trkpt lat="41.61409392021596431732177734375" lon="-0.7758069969713687896728515625">
        <ele>378</ele>
        <time>2021-04-01T08:37:42.000Z</time>
      </trkpt>
      <trkpt lat="41.6140381805598735809326171875" lon="-0.77552863396704196929931640625">
        <ele>378</ele>
        <time>2021-04-01T08:37:47.000Z</time>
      </trkpt>
      <trkpt lat="41.6140182316303253173828125" lon="-0.77541631646454334259033203125">
        <ele>378.20001220703125</ele>
        <time>2021-04-01T08:37:49.000Z</time>
      </trkpt>
      <trkpt lat="41.61397338844835758209228515625" lon="-0.77525437809526920318603515625">
        <ele>378.20001220703125</ele>
        <time>2021-04-01T08:37:52.000Z</time>
      </trkpt>
      <trkpt lat="41.61394824273884296417236328125" lon="-0.77514524571597576141357421875">
        <ele>378.399993896484375</ele>
        <time>2021-04-01T08:37:54.000Z</time>
      </trkpt>
      <trkpt lat="41.613878421485424041748046875" lon="-0.774936787784099578857421875">
        <ele>378.399993896484375</ele>
        <time>2021-04-01T08:37:58.000Z</time>
      </trkpt>
      <trkpt lat="41.61382972262799739837646484375" lon="-0.774840228259563446044921875">
        <ele>378.399993896484375</ele>
        <time>2021-04-01T08:38:00.000Z</time>
      </trkpt>
      <trkpt lat="41.613777838647365570068359375" lon="-0.77474911697208881378173828125">
        <ele>378.600006103515625</ele>
        <time>2021-04-01T08:38:02.000Z</time>
      </trkpt>
      <trkpt lat="41.61360450088977813720703125" lon="-0.7744997553527355194091796875">
        <ele>378.399993896484375</ele>
        <time>2021-04-01T08:38:08.000Z</time>
      </trkpt>
      <trkpt lat="41.6135490126907825469970703125" lon="-0.774418450891971588134765625">
        <ele>378.600006103515625</ele>
        <time>2021-04-01T08:38:10.000Z</time>
      </trkpt>
      <trkpt lat="41.61340878345072269439697265625" lon="-0.7742174528539180755615234375">
        <ele>378.79998779296875</ele>
        <time>2021-04-01T08:38:15.000Z</time>
      </trkpt>
      <trkpt lat="41.613124050199985504150390625" lon="-0.7737856172025203704833984375">
        <ele>378.79998779296875</ele>
        <time>2021-04-01T08:38:25.000Z</time>
      </trkpt>
      <trkpt lat="41.61299974657595157623291015625" lon="-0.77354011125862598419189453125">
        <ele>378.79998779296875</ele>
        <time>2021-04-01T08:38:30.000Z</time>
      </trkpt>
      <trkpt lat="41.6129646264016628265380859375" lon="-0.7734312303364276885986328125">
        <ele>378.79998779296875</ele>
        <time>2021-04-01T08:38:32.000Z</time>
      </trkpt>
      <trkpt lat="41.612893380224704742431640625" lon="-0.7730124704539775848388671875">
        <ele>379</ele>
        <time>2021-04-01T08:38:39.000Z</time>
      </trkpt>
      <trkpt lat="41.61285105161368846893310546875" lon="-0.77271499671041965484619140625">
        <ele>378.600006103515625</ele>
        <time>2021-04-01T08:38:44.000Z</time>
      </trkpt>
      <trkpt lat="41.61282372660934925079345703125" lon="-0.77253998257219791412353515625">
        <ele>378.600006103515625</ele>
        <time>2021-04-01T08:38:47.000Z</time>
      </trkpt>
      <trkpt lat="41.61275667138397693634033203125" lon="-0.77225583605468273162841796875">
        <ele>378</ele>
        <time>2021-04-01T08:38:52.000Z</time>
      </trkpt>
      <trkpt lat="41.61271023564040660858154296875" lon="-0.77215726487338542938232421875">
        <ele>378</ele>
        <time>2021-04-01T08:38:54.000Z</time>
      </trkpt>
      <trkpt lat="41.612581573426723480224609375" lon="-0.77199448831379413604736328125">
        <ele>378</ele>
        <time>2021-04-01T08:38:58.000Z</time>
      </trkpt>
      <trkpt lat="41.61254242993891239166259765625" lon="-0.771964900195598602294921875">
        <ele>378</ele>
        <time>2021-04-01T08:38:59.000Z</time>
      </trkpt>
      <trkpt lat="41.6125012747943401336669921875" lon="-0.77194201759994029998779296875">
        <ele>378</ele>
        <time>2021-04-01T08:39:00.000Z</time>
      </trkpt>
      <trkpt lat="41.61232114769518375396728515625" lon="-0.771895833313465118408203125">
        <ele>378</ele>
        <time>2021-04-01T08:39:04.000Z</time>
      </trkpt>
      <trkpt lat="41.612137667834758758544921875" lon="-0.77187261544167995452880859375">
        <ele>378</ele>
        <time>2021-04-01T08:39:08.000Z</time>
      </trkpt>
      <trkpt lat="41.6120033897459506988525390625" lon="-0.77182198874652385711669921875">
        <ele>378</ele>
        <time>2021-04-01T08:39:11.000Z</time>
      </trkpt>
      <trkpt lat="41.61180599592626094818115234375" lon="-0.7716482318937778472900390625">
        <ele>378</ele>
        <time>2021-04-01T08:39:16.000Z</time>
      </trkpt>
      <trkpt lat="41.61177297122776508331298828125" lon="-0.771599449217319488525390625">
        <ele>378</ele>
        <time>2021-04-01T08:39:17.000Z</time>
      </trkpt>
      <trkpt lat="41.61160365678369998931884765625" lon="-0.771250762045383453369140625">
        <ele>377.399993896484375</ele>
        <time>2021-04-01T08:39:23.000Z</time>
      </trkpt>
      <trkpt lat="41.61155185662209987640380859375" lon="-0.7711322419345378875732421875">
        <ele>377</ele>
        <time>2021-04-01T08:39:25.000Z</time>
      </trkpt>
      <trkpt lat="41.61137734539806842803955078125" lon="-0.770741142332553863525390625">
        <ele>377.399993896484375</ele>
        <time>2021-04-01T08:39:32.000Z</time>
      </trkpt>
      <trkpt lat="41.61112002097070217132568359375" lon="-0.77020461671054363250732421875">
        <ele>377.600006103515625</ele>
        <time>2021-04-01T08:39:42.000Z</time>
      </trkpt>
      <trkpt lat="41.6110716573894023895263671875" lon="-0.77009095810353755950927734375">
        <ele>377.399993896484375</ele>
        <time>2021-04-01T08:39:44.000Z</time>
      </trkpt>
      <trkpt lat="41.61090510897338390350341796875" lon="-0.76972181908786296844482421875">
        <ele>377.399993896484375</ele>
        <time>2021-04-01T08:39:50.000Z</time>
      </trkpt>
      <trkpt lat="41.61078684031963348388671875" lon="-0.769410766661167144775390625">
        <ele>377.20001220703125</ele>
        <time>2021-04-01T08:39:55.000Z</time>
      </trkpt>
      <trkpt lat="41.61073428578674793243408203125" lon="-0.7692258618772029876708984375">
        <ele>377.399993896484375</ele>
        <time>2021-04-01T08:39:58.000Z</time>
      </trkpt>
      <trkpt lat="41.6105848364531993865966796875" lon="-0.76867810450494289398193359375">
        <ele>376.600006103515625</ele>
        <time>2021-04-01T08:40:07.000Z</time>
      </trkpt>
      <trkpt lat="41.61039347760379314422607421875" lon="-0.76814669184386730194091796875">
        <ele>376.600006103515625</ele>
        <time>2021-04-01T08:40:16.000Z</time>
      </trkpt>
      <trkpt lat="41.610368750989437103271484375" lon="-0.7680892758071422576904296875">
        <ele>376.399993896484375</ele>
        <time>2021-04-01T08:40:17.000Z</time>
      </trkpt>
      <trkpt lat="41.61025484092533588409423828125" lon="-0.76786019839346408843994140625">
        <ele>376.600006103515625</ele>
        <time>2021-04-01T08:40:21.000Z</time>
      </trkpt>
      <trkpt lat="41.61017906852066516876220703125" lon="-0.767767243087291717529296875">
        <ele>376.600006103515625</ele>
        <time>2021-04-01T08:40:23.000Z</time>
      </trkpt>
      <trkpt lat="41.60992107354104518890380859375" lon="-0.7675789855420589447021484375">
        <ele>376.79998779296875</ele>
        <time>2021-04-01T08:40:29.000Z</time>
      </trkpt>
      <trkpt lat="41.6095075942575931549072265625" lon="-0.7673684321343898773193359375">
        <ele>377</ele>
        <time>2021-04-01T08:40:38.000Z</time>
      </trkpt>
      <trkpt lat="41.60918531008064746856689453125" lon="-0.767173469066619873046875">
        <ele>377</ele>
        <time>2021-04-01T08:40:45.000Z</time>
      </trkpt>
      <trkpt lat="41.6090972162783145904541015625" lon="-0.7671102695167064666748046875">
        <ele>377</ele>
        <time>2021-04-01T08:40:47.000Z</time>
      </trkpt>
      <trkpt lat="41.6087683103978633880615234375" lon="-0.76685118488967418670654296875">
        <ele>376.79998779296875</ele>
        <time>2021-04-01T08:40:55.000Z</time>
      </trkpt>
      <trkpt lat="41.60873235203325748443603515625" lon="-0.76681497506797313690185546875">
        <ele>376.79998779296875</ele>
        <time>2021-04-01T08:40:56.000Z</time>
      </trkpt>
      <trkpt lat="41.60846295766532421112060546875" lon="-0.76654918491840362548828125">
        <ele>376.79998779296875</ele>
        <time>2021-04-01T08:41:03.000Z</time>
      </trkpt>
      <trkpt lat="41.60838550888001918792724609375" lon="-0.766468048095703125">
        <ele>377</ele>
        <time>2021-04-01T08:41:05.000Z</time>
      </trkpt>
      <trkpt lat="41.60823731683194637298583984375" lon="-0.7662972249090671539306640625">
        <ele>377.20001220703125</ele>
        <time>2021-04-01T08:41:09.000Z</time>
      </trkpt>
      <trkpt lat="41.608121395111083984375" lon="-0.7660900242626667022705078125">
        <ele>377.20001220703125</ele>
        <time>2021-04-01T08:41:13.000Z</time>
      </trkpt>
      <trkpt lat="41.6080664098262786865234375" lon="-0.76591090299189090728759765625">
        <ele>377.20001220703125</ele>
        <time>2021-04-01T08:41:16.000Z</time>
      </trkpt>
      <trkpt lat="41.60803648643195629119873046875" lon="-0.76571929268538951873779296875">
        <ele>377.20001220703125</ele>
        <time>2021-04-01T08:41:19.000Z</time>
      </trkpt>
      <trkpt lat="41.607952415943145751953125" lon="-0.7651224173605442047119140625">
        <ele>377</ele>
        <time>2021-04-01T08:41:28.000Z</time>
      </trkpt>
      <trkpt lat="41.60792098380625247955322265625" lon="-0.76480172574520111083984375">
        <ele>377.20001220703125</ele>
        <time>2021-04-01T08:41:33.000Z</time>
      </trkpt>
      <trkpt lat="41.607931964099407196044921875" lon="-0.764675997197628021240234375">
        <ele>377.20001220703125</ele>
        <time>2021-04-01T08:41:35.000Z</time>
      </trkpt>
      <trkpt lat="41.60797613672912120819091796875" lon="-0.76449729502201080322265625">
        <ele>377</ele>
        <time>2021-04-01T08:41:38.000Z</time>
      </trkpt>
      <trkpt lat="41.60802508704364299774169921875" lon="-0.76437969692051410675048828125">
        <ele>376.79998779296875</ele>
        <time>2021-04-01T08:41:40.000Z</time>
      </trkpt>
      <trkpt lat="41.6082392446696758270263671875" lon="-0.763792209327220916748046875">
        <ele>377.600006103515625</ele>
        <time>2021-04-01T08:41:50.000Z</time>
      </trkpt>
      <trkpt lat="41.60834779031574726104736328125" lon="-0.7634866051375865936279296875">
        <ele>378.600006103515625</ele>
        <time>2021-04-01T08:41:56.000Z</time>
      </trkpt>
      <trkpt lat="41.60838249139487743377685546875" lon="-0.76339163817465305328369140625">
        <ele>378.79998779296875</ele>
        <time>2021-04-01T08:41:58.000Z</time>
      </trkpt>
      <trkpt lat="41.60851459018886089324951171875" lon="-0.76302635483443737030029296875">
        <ele>379</ele>
        <time>2021-04-01T08:42:05.000Z</time>
      </trkpt>
      <trkpt lat="41.60867015831172466278076171875" lon="-0.76258881948888301849365234375">
        <ele>378.600006103515625</ele>
        <time>2021-04-01T08:42:13.000Z</time>
      </trkpt>
      <trkpt lat="41.60870946943759918212890625" lon="-0.76248019002377986907958984375">
        <ele>378.79998779296875</ele>
        <time>2021-04-01T08:42:15.000Z</time>
      </trkpt>
      <trkpt lat="41.60892144776880741119384765625" lon="-0.76187887229025363922119140625">
        <ele>378.600006103515625</ele>
        <time>2021-04-01T08:42:26.000Z</time>
      </trkpt>
      <trkpt lat="41.60908036865293979644775390625" lon="-0.76144519262015819549560546875">
        <ele>378</ele>
        <time>2021-04-01T08:42:34.000Z</time>
      </trkpt>
      <trkpt lat="41.6091216914355754852294921875" lon="-0.76133237220346927642822265625">
        <ele>378</ele>
        <time>2021-04-01T08:42:36.000Z</time>
      </trkpt>
      <trkpt lat="41.60929745994508266448974609375" lon="-0.76084387488663196563720703125">
        <ele>377.600006103515625</ele>
        <time>2021-04-01T08:42:45.000Z</time>
      </trkpt>
      <trkpt lat="41.60948387347161769866943359375" lon="-0.76044774614274501800537109375">
        <ele>377.600006103515625</ele>
        <time>2021-04-01T08:42:53.000Z</time>
      </trkpt>
      <trkpt lat="41.6097084246575832366943359375" lon="-0.76012705452740192413330078125">
        <ele>377.399993896484375</ele>
        <time>2021-04-01T08:43:00.000Z</time>
      </trkpt>
      <trkpt lat="41.60974270664155483245849609375" lon="-0.76008380390703678131103515625">
        <ele>377.20001220703125</ele>
        <time>2021-04-01T08:43:01.000Z</time>
      </trkpt>
      <trkpt lat="41.609888970851898193359375" lon="-0.75986051000654697418212890625">
        <ele>377.20001220703125</ele>
        <time>2021-04-01T08:43:06.000Z</time>
      </trkpt>
      <trkpt lat="41.60990011878311634063720703125" lon="-0.75980485416948795318603515625">
        <ele>377.20001220703125</ele>
        <time>2021-04-01T08:43:07.000Z</time>
      </trkpt>
      <trkpt lat="41.6098921559751033782958984375" lon="-0.75974701903760433197021484375">
        <ele>377.399993896484375</ele>
        <time>2021-04-01T08:43:08.000Z</time>
      </trkpt>
      <trkpt lat="41.6098274476826190948486328125" lon="-0.7596641220152378082275390625">
        <ele>377.399993896484375</ele>
        <time>2021-04-01T08:43:10.000Z</time>
      </trkpt>
      <trkpt lat="41.609669364988803863525390625" lon="-0.75952447950839996337890625">
        <ele>377.399993896484375</ele>
        <time>2021-04-01T08:43:14.000Z</time>
      </trkpt>
      <trkpt lat="41.60962871275842189788818359375" lon="-0.7594897784292697906494140625">
        <ele>377.399993896484375</ele>
        <time>2021-04-01T08:43:15.000Z</time>
      </trkpt>
      <trkpt lat="41.60950734280049800872802734375" lon="-0.759382657706737518310546875">
        <ele>377.20001220703125</ele>
        <time>2021-04-01T08:43:18.000Z</time>
      </trkpt>
      <trkpt lat="41.60934649407863616943359375" lon="-0.759232454001903533935546875">
        <ele>376.79998779296875</ele>
        <time>2021-04-01T08:43:22.000Z</time>
      </trkpt>
      <trkpt lat="41.6092289797961711883544921875" lon="-0.75912843458354473114013671875">
        <ele>376.600006103515625</ele>
        <time>2021-04-01T08:43:25.000Z</time>
      </trkpt>
      <trkpt lat="41.609189249575138092041015625" lon="-0.75909490697085857391357421875">
        <ele>376.600006103515625</ele>
        <time>2021-04-01T08:43:26.000Z</time>
      </trkpt>
      <trkpt lat="41.60914977081120014190673828125" lon="-0.7590609602630138397216796875">
        <ele>376.600006103515625</ele>
        <time>2021-04-01T08:43:27.000Z</time>
      </trkpt>
      <trkpt lat="41.60895212553441524505615234375" lon="-0.75884060002863407135009765625">
        <ele>377</ele>
        <time>2021-04-01T08:43:33.000Z</time>
      </trkpt>
      <trkpt lat="41.6089238785207271575927734375" lon="-0.758798606693744659423828125">
        <ele>377</ele>
        <time>2021-04-01T08:43:34.000Z</time>
      </trkpt>
      <trkpt lat="41.60875883884727954864501953125" lon="-0.75844799168407917022705078125">
        <ele>376.79998779296875</ele>
        <time>2021-04-01T08:43:41.000Z</time>
      </trkpt>
      <trkpt lat="41.60862506367266178131103515625" lon="-0.75820659287273883819580078125">
        <ele>376.79998779296875</ele>
        <time>2021-04-01T08:43:46.000Z</time>
      </trkpt>
      <trkpt lat="41.60858952440321445465087890625" lon="-0.75816853903234004974365234375">
        <ele>377</ele>
        <time>2021-04-01T08:43:47.000Z</time>
      </trkpt>
      <trkpt lat="41.60833152942359447479248046875" lon="-0.75797072611749172210693359375">
        <ele>377</ele>
        <time>2021-04-01T08:43:54.000Z</time>
      </trkpt>
      <trkpt lat="41.608292721211910247802734375" lon="-0.7579632662236690521240234375">
        <ele>377</ele>
        <time>2021-04-01T08:43:55.000Z</time>
      </trkpt>
      <trkpt lat="41.608252488076686859130859375" lon="-0.7579666189849376678466796875">
        <ele>376.79998779296875</ele>
        <time>2021-04-01T08:43:56.000Z</time>
      </trkpt>
      <trkpt lat="41.6081708483397960662841796875" lon="-0.757993943989276885986328125">
        <ele>376.79998779296875</ele>
        <time>2021-04-01T08:43:58.000Z</time>
      </trkpt>
      <trkpt lat="41.60813086666166782379150390625" lon="-0.7580205984413623809814453125">
        <ele>376.79998779296875</ele>
        <time>2021-04-01T08:43:59.000Z</time>
      </trkpt>
      <trkpt lat="41.60809457302093505859375" lon="-0.7580527849495410919189453125">
        <ele>376.79998779296875</ele>
        <time>2021-04-01T08:44:00.000Z</time>
      </trkpt>
      <trkpt lat="41.60803631879389286041259765625" lon="-0.7581426389515399932861328125">
        <ele>377</ele>
        <time>2021-04-01T08:44:02.000Z</time>
      </trkpt>
      <trkpt lat="41.60800882615149021148681640625" lon="-0.7581875659525394439697265625">
        <ele>377.20001220703125</ele>
        <time>2021-04-01T08:44:03.000Z</time>
      </trkpt>
      <trkpt lat="41.60786683671176433563232421875" lon="-0.75827859342098236083984375">
        <ele>377.20001220703125</ele>
        <time>2021-04-01T08:44:07.000Z</time>
      </trkpt>
      <trkpt lat="41.6076783277094364166259765625" lon="-0.75822268612682819366455078125">
        <ele>377</ele>
        <time>2021-04-01T08:44:12.000Z</time>
      </trkpt>
      <trkpt lat="41.60764471627771854400634765625" lon="-0.7581925950944423675537109375">
        <ele>377</ele>
        <time>2021-04-01T08:44:13.000Z</time>
      </trkpt>
      <trkpt lat="41.60744774155318737030029296875" lon="-0.75798623263835906982421875">
        <ele>377</ele>
        <time>2021-04-01T08:44:19.000Z</time>
      </trkpt>
      <trkpt lat="41.60731111653149127960205078125" lon="-0.75785337947309017181396484375">
        <ele>377</ele>
        <time>2021-04-01T08:44:23.000Z</time>
      </trkpt>
      <trkpt lat="41.60714498721063137054443359375" lon="-0.75767450965940952301025390625">
        <ele>376.79998779296875</ele>
        <time>2021-04-01T08:44:28.000Z</time>
      </trkpt>
      <trkpt lat="41.60710978321731090545654296875" lon="-0.75763997621834278106689453125">
        <ele>376.79998779296875</ele>
        <time>2021-04-01T08:44:29.000Z</time>
      </trkpt>
      <trkpt lat="41.6069685481488704681396484375" lon="-0.75750301592051982879638671875">
        <ele>376.399993896484375</ele>
        <time>2021-04-01T08:44:33.000Z</time>
      </trkpt>
      <trkpt lat="41.606905348598957061767578125" lon="-0.757444761693477630615234375">
        <ele>376.20001220703125</ele>
        <time>2021-04-01T08:44:35.000Z</time>
      </trkpt>
      <trkpt lat="41.60679613240063190460205078125" lon="-0.75731165707111358642578125">
        <ele>376.20001220703125</ele>
        <time>2021-04-01T08:44:40.000Z</time>
      </trkpt>
      <trkpt lat="41.60686737857758998870849609375" lon="-0.75713194906711578369140625">
        <ele>376.399993896484375</ele>
        <time>2021-04-01T08:44:45.000Z</time>
      </trkpt>
      <trkpt lat="41.6069658659398555755615234375" lon="-0.756898932158946990966796875">
        <ele>376.79998779296875</ele>
        <time>2021-04-01T08:44:52.000Z</time>
      </trkpt>
      <trkpt lat="41.6069799475371837615966796875" lon="-0.756873786449432373046875">
        <ele>377.20001220703125</ele>
        <time>2021-04-01T08:44:53.000Z</time>
      </trkpt>
      <trkpt lat="41.60704247653484344482421875" lon="-0.7567576132714748382568359375">
        <ele>377.399993896484375</ele>
        <time>2021-04-01T08:44:58.000Z</time>
      </trkpt>
      <trkpt lat="41.6070956178009510040283203125" lon="-0.75665057636797428131103515625">
        <ele>377</ele>
        <time>2021-04-01T08:45:04.000Z</time>
      </trkpt>
      <trkpt lat="41.60745662637054920196533203125" lon="-0.7562161423265933990478515625">
        <ele>380.399993896484375</ele>
        <time>2021-04-01T09:23:25.000Z</time>
      </trkpt>
      <trkpt lat="41.60745662637054920196533203125" lon="-0.7562161423265933990478515625">
        <ele>380.399993896484375</ele>
        <time>2021-04-01T09:23:26.000Z</time>
      </trkpt>
      <trkpt lat="41.60736911930143833160400390625" lon="-0.7561742328107357025146484375">
        <ele>380.20001220703125</ele>
        <time>2021-04-01T09:23:30.000Z</time>
      </trkpt>
      <trkpt lat="41.60734112374484539031982421875" lon="-0.75618621893227100372314453125">
        <ele>380.20001220703125</ele>
        <time>2021-04-01T09:23:31.000Z</time>
      </trkpt>
      <trkpt lat="41.60730239935219287872314453125" lon="-0.7562285475432872772216796875">
        <ele>380.20001220703125</ele>
        <time>2021-04-01T09:23:33.000Z</time>
      </trkpt>
      <trkpt lat="41.60726803354918956756591796875" lon="-0.75629174709320068359375">
        <ele>380.399993896484375</ele>
        <time>2021-04-01T09:23:35.000Z</time>
      </trkpt>
      <trkpt lat="41.6072324104607105255126953125" lon="-0.75636374764144420623779296875">
        <ele>380.399993896484375</ele>
        <time>2021-04-01T09:23:37.000Z</time>
      </trkpt>
      <trkpt lat="41.60720768384635448455810546875" lon="-0.7563965208828449249267578125">
        <ele>380.399993896484375</ele>
        <time>2021-04-01T09:23:38.000Z</time>
      </trkpt>
      <trkpt lat="41.60715043544769287109375" lon="-0.756512023508548736572265625">
        <ele>380.399993896484375</ele>
        <time>2021-04-01T09:23:40.000Z</time>
      </trkpt>
      <trkpt lat="41.60715043544769287109375" lon="-0.756512023508548736572265625">
        <ele>380.20001220703125</ele>
        <time>2021-04-01T09:23:41.000Z</time>
      </trkpt>
      <trkpt lat="41.60699914209544658660888671875" lon="-0.756834559142589569091796875">
        <ele>379.600006103515625</ele>
        <time>2021-04-01T09:23:48.000Z</time>
      </trkpt>
      <trkpt lat="41.6069216094911098480224609375" lon="-0.75699708424508571624755859375">
        <ele>380.20001220703125</ele>
        <time>2021-04-01T09:23:52.000Z</time>
      </trkpt>
      <trkpt lat="41.60686679184436798095703125" lon="-0.75714460574090480804443359375">
        <ele>380.600006103515625</ele>
        <time>2021-04-01T09:23:56.000Z</time>
      </trkpt>
      <trkpt lat="41.606820188462734222412109375" lon="-0.75726471841335296630859375">
        <ele>381</ele>
        <time>2021-04-01T09:24:00.000Z</time>
      </trkpt>
      <trkpt lat="41.60680971108376979827880859375" lon="-0.7573181949555873870849609375">
        <ele>381.399993896484375</ele>
        <time>2021-04-01T09:24:03.000Z</time>
      </trkpt>
      <trkpt lat="41.60680971108376979827880859375" lon="-0.7573181949555873870849609375">
        <ele>381.600006103515625</ele>
        <time>2021-04-01T09:24:04.000Z</time>
      </trkpt>
      <trkpt lat="41.6069702245295047760009765625" lon="-0.75742506422102451324462890625">
        <ele>380.79998779296875</ele>
        <time>2021-04-01T09:34:35.000Z</time>
      </trkpt>
      <trkpt lat="41.60698908381164073944091796875" lon="-0.75744484551250934600830078125">
        <ele>380.79998779296875</ele>
        <time>2021-04-01T09:34:36.000Z</time>
      </trkpt>
      <trkpt lat="41.60700769163668155670166015625" lon="-0.7574700750410556793212890625">
        <ele>380.79998779296875</ele>
        <time>2021-04-01T09:34:37.000Z</time>
      </trkpt>
      <trkpt lat="41.60702713765203952789306640625" lon="-0.75749312527477741241455078125">
        <ele>381</ele>
        <time>2021-04-01T09:34:38.000Z</time>
      </trkpt>
      <trkpt lat="41.60708514042198657989501953125" lon="-0.75755230151116847991943359375">
        <ele>381.399993896484375</ele>
        <time>2021-04-01T09:34:40.000Z</time>
      </trkpt>
      <trkpt lat="41.60714565776288509368896484375" lon="-0.75761516578495502471923828125">
        <ele>382</ele>
        <time>2021-04-01T09:34:42.000Z</time>
      </trkpt>
      <trkpt lat="41.60727540962398052215576171875" lon="-0.7577476836740970611572265625">
        <ele>382</ele>
        <time>2021-04-01T09:34:46.000Z</time>
      </trkpt>
      <trkpt lat="41.6073732264339923858642578125" lon="-0.75786058790981769561767578125">
        <ele>382</ele>
        <time>2021-04-01T09:34:49.000Z</time>
      </trkpt>
      <trkpt lat="41.607550419867038726806640625" lon="-0.75804046355187892913818359375">
        <ele>382</ele>
        <time>2021-04-01T09:34:54.000Z</time>
      </trkpt>
      <trkpt lat="41.6076555289328098297119140625" lon="-0.75815127231180667877197265625">
        <ele>382.20001220703125</ele>
        <time>2021-04-01T09:34:57.000Z</time>
      </trkpt>
      <trkpt lat="41.6076954267919063568115234375" lon="-0.7581811957061290740966796875">
        <ele>382.399993896484375</ele>
        <time>2021-04-01T09:34:58.000Z</time>
      </trkpt>
      <trkpt lat="41.60774026997387409210205078125" lon="-0.7581885717809200286865234375">
        <ele>382.399993896484375</ele>
        <time>2021-04-01T09:34:59.000Z</time>
      </trkpt>
      <trkpt lat="41.60778553225100040435791015625" lon="-0.7581744901835918426513671875">
        <ele>382.399993896484375</ele>
        <time>2021-04-01T09:35:00.000Z</time>
      </trkpt>
      <trkpt lat="41.60785644315183162689208984375" lon="-0.75808589346706867218017578125">
        <ele>382.399993896484375</ele>
        <time>2021-04-01T09:35:02.000Z</time>
      </trkpt>
      <trkpt lat="41.607879661023616790771484375" lon="-0.75802722014486789703369140625">
        <ele>382.399993896484375</ele>
        <time>2021-04-01T09:35:03.000Z</time>
      </trkpt>
      <trkpt lat="41.60794730298221111297607421875" lon="-0.7578556425869464874267578125">
        <ele>382.399993896484375</ele>
        <time>2021-04-01T09:35:05.000Z</time>
      </trkpt>
      <trkpt lat="41.60797378979623317718505859375" lon="-0.757806859910488128662109375">
        <ele>382.600006103515625</ele>
        <time>2021-04-01T09:35:07.000Z</time>
      </trkpt>
      <trkpt lat="41.608051992952823638916015625" lon="-0.757747851312160491943359375">
        <ele>382.79998779296875</ele>
        <time>2021-04-01T09:35:09.000Z</time>
      </trkpt>
      <trkpt lat="41.608140170574188232421875" lon="-0.7577547244727611541748046875">
        <ele>383</ele>
        <time>2021-04-01T09:35:11.000Z</time>
      </trkpt>
      <trkpt lat="41.6082285158336162567138671875" lon="-0.7578019984066486358642578125">
        <ele>383</ele>
        <time>2021-04-01T09:35:12.000Z</time>
      </trkpt>
      <trkpt lat="41.6084021888673305511474609375" lon="-0.757918842136859893798828125">
        <ele>382.79998779296875</ele>
        <time>2021-04-01T09:35:16.000Z</time>
      </trkpt>
      <trkpt lat="41.60848692990839481353759765625" lon="-0.7579773478209972381591796875">
        <ele>382.600006103515625</ele>
        <time>2021-04-01T09:35:18.000Z</time>
      </trkpt>
      <trkpt lat="41.6085295937955379486083984375" lon="-0.75801230035722255706787109375">
        <ele>382.399993896484375</ele>
        <time>2021-04-01T09:35:19.000Z</time>
      </trkpt>
      <trkpt lat="41.60861366428434848785400390625" lon="-0.7580946944653987884521484375">
        <ele>382</ele>
        <time>2021-04-01T09:35:22.000Z</time>
      </trkpt>
      <trkpt lat="41.6086885146796703338623046875" lon="-0.7581932656466960906982421875">
        <ele>381.79998779296875</ele>
        <time>2021-04-01T09:35:24.000Z</time>
      </trkpt>
      <trkpt lat="41.60872028209269046783447265625" lon="-0.75824850238859653472900390625">
        <ele>381.79998779296875</ele>
        <time>2021-04-01T09:35:25.000Z</time>
      </trkpt>
      <trkpt lat="41.60875230096280574798583984375" lon="-0.75830348767340183258056640625">
        <ele>381.79998779296875</ele>
        <time>2021-04-01T09:35:26.000Z</time>
      </trkpt>
      <trkpt lat="41.6089393012225627899169921875" lon="-0.75872115790843963623046875">
        <ele>382.600006103515625</ele>
        <time>2021-04-01T09:35:33.000Z</time>
      </trkpt>
      <trkpt lat="41.60903879441320896148681640625" lon="-0.75887748040258884429931640625">
        <ele>382.600006103515625</ele>
        <time>2021-04-01T09:35:35.000Z</time>
      </trkpt>
      <trkpt lat="41.60907693207263946533203125" lon="-0.75892307795584201812744140625">
        <ele>382.600006103515625</ele>
        <time>2021-04-01T09:35:37.000Z</time>
      </trkpt>
      <trkpt lat="41.609157733619213104248046875" lon="-0.75900672934949398040771484375">
        <ele>382.600006103515625</ele>
        <time>2021-04-01T09:35:39.000Z</time>
      </trkpt>
      <trkpt lat="41.6094586439430713653564453125" lon="-0.75927503407001495361328125">
        <ele>383.20001220703125</ele>
        <time>2021-04-01T09:35:45.000Z</time>
      </trkpt>
      <trkpt lat="41.60949979908764362335205078125" lon="-0.75931535102427005767822265625">
        <ele>383.20001220703125</ele>
        <time>2021-04-01T09:35:47.000Z</time>
      </trkpt>
      <trkpt lat="41.60978428088128566741943359375" lon="-0.759603269398212432861328125">
        <ele>382.79998779296875</ele>
        <time>2021-04-01T09:35:53.000Z</time>
      </trkpt>
      <trkpt lat="41.60988050512969493865966796875" lon="-0.75968113727867603302001953125">
        <ele>383.20001220703125</ele>
        <time>2021-04-01T09:35:56.000Z</time>
      </trkpt>
      <trkpt lat="41.60993331111967563629150390625" lon="-0.75978934764862060546875">
        <ele>383.399993896484375</ele>
        <time>2021-04-01T09:35:58.000Z</time>
      </trkpt>
      <trkpt lat="41.6099283657968044281005859375" lon="-0.75985950417816638946533203125">
        <ele>383.600006103515625</ele>
        <time>2021-04-01T09:35:59.000Z</time>
      </trkpt>
      <trkpt lat="41.60990573465824127197265625" lon="-0.75993125326931476593017578125">
        <ele>383.399993896484375</ele>
        <time>2021-04-01T09:36:00.000Z</time>
      </trkpt>
      <trkpt lat="41.6098378412425518035888671875" lon="-0.7600547187030315399169921875">
        <ele>383</ele>
        <time>2021-04-01T09:36:02.000Z</time>
      </trkpt>
      <trkpt lat="41.6097982786595821380615234375" lon="-0.76010978780686855316162109375">
        <ele>382.79998779296875</ele>
        <time>2021-04-01T09:36:03.000Z</time>
      </trkpt>
      <trkpt lat="41.60971789620816707611083984375" lon="-0.7602159865200519561767578125">
        <ele>382.79998779296875</ele>
        <time>2021-04-01T09:36:04.000Z</time>
      </trkpt>
      <trkpt lat="41.60963885486125946044921875" lon="-0.76031631790101528167724609375">
        <ele>382.79998779296875</ele>
        <time>2021-04-01T09:36:07.000Z</time>
      </trkpt>
      <trkpt lat="41.609565429389476776123046875" lon="-0.76041371561586856842041015625">
        <ele>382.79998779296875</ele>
        <time>2021-04-01T09:36:09.000Z</time>
      </trkpt>
      <trkpt lat="41.609468869864940643310546875" lon="-0.76056827791035175323486328125">
        <ele>382.79998779296875</ele>
        <time>2021-04-01T09:36:12.000Z</time>
      </trkpt>
      <trkpt lat="41.6093895770609378814697265625" lon="-0.7607319764792919158935546875">
        <ele>383</ele>
        <time>2021-04-01T09:36:15.000Z</time>
      </trkpt>
      <trkpt lat="41.60931942053139209747314453125" lon="-0.76090791262686252593994140625">
        <ele>383.20001220703125</ele>
        <time>2021-04-01T09:36:18.000Z</time>
      </trkpt>
      <trkpt lat="41.60927407443523406982421875" lon="-0.76102844439446926116943359375">
        <ele>383.20001220703125</ele>
        <time>2021-04-01T09:36:20.000Z</time>
      </trkpt>
      <trkpt lat="41.60913988016545772552490234375" lon="-0.7613931410014629364013671875">
        <ele>383.600006103515625</ele>
        <time>2021-04-01T09:36:26.000Z</time>
      </trkpt>
      <trkpt lat="41.6091186739504337310791015625" lon="-0.76145340688526630401611328125">
        <ele>383.600006103515625</ele>
        <time>2021-04-01T09:36:27.000Z</time>
      </trkpt>
      <trkpt lat="41.6090566478669643402099609375" lon="-0.76163269579410552978515625">
        <ele>383.399993896484375</ele>
        <time>2021-04-01T09:36:30.000Z</time>
      </trkpt>
      <trkpt lat="41.6089748404920101165771484375" lon="-0.761864371597766876220703125">
        <ele>383.79998779296875</ele>
        <time>2021-04-01T09:36:34.000Z</time>
      </trkpt>
      <trkpt lat="41.60878415219485759735107421875" lon="-0.76239687390625476837158203125">
        <ele>384.600006103515625</ele>
        <time>2021-04-01T09:36:43.000Z</time>
      </trkpt>
      <trkpt lat="41.60876152105629444122314453125" lon="-0.762457139790058135986328125">
        <ele>384.600006103515625</ele>
        <time>2021-04-01T09:36:44.000Z</time>
      </trkpt>
      <trkpt lat="41.60856320522725582122802734375" lon="-0.76302073895931243896484375">
        <ele>384.600006103515625</ele>
        <time>2021-04-01T09:36:53.000Z</time>
      </trkpt>
      <trkpt lat="41.60847343504428863525390625" lon="-0.7632616348564624786376953125">
        <ele>384.79998779296875</ele>
        <time>2021-04-01T09:36:57.000Z</time>
      </trkpt>
      <trkpt lat="41.60845206119120121002197265625" lon="-0.7633179612457752227783203125">
        <ele>385</ele>
        <time>2021-04-01T09:36:58.000Z</time>
      </trkpt>
      <trkpt lat="41.60841266624629497528076171875" lon="-0.76342415995895862579345703125">
        <ele>385.600006103515625</ele>
        <time>2021-04-01T09:37:00.000Z</time>
      </trkpt>
      <trkpt lat="41.60827956162393093109130859375" lon="-0.7637883536517620086669921875">
        <ele>385.600006103515625</ele>
        <time>2021-04-01T09:37:06.000Z</time>
      </trkpt>
      <trkpt lat="41.6082033701241016387939453125" lon="-0.7640015892684459686279296875">
        <ele>384.600006103515625</ele>
        <time>2021-04-01T09:37:08.000Z</time>
      </trkpt>
      <trkpt lat="41.6081490553915500640869140625" lon="-0.76414525508880615234375">
        <ele>384.20001220703125</ele>
        <time>2021-04-01T09:37:10.000Z</time>
      </trkpt>
      <trkpt lat="41.6080967523157596588134765625" lon="-0.76428732834756374359130859375">
        <ele>384.20001220703125</ele>
        <time>2021-04-01T09:37:13.000Z</time>
      </trkpt>
      <trkpt lat="41.60801611840724945068359375" lon="-0.7644951157271862030029296875">
        <ele>384.20001220703125</ele>
        <time>2021-04-01T09:37:15.000Z</time>
      </trkpt>
      <trkpt lat="41.607970185577869415283203125" lon="-0.764645151793956756591796875">
        <ele>384</ele>
        <time>2021-04-01T09:37:18.000Z</time>
      </trkpt>
      <trkpt lat="41.6079542599618434906005859375" lon="-0.76480885036289691925048828125">
        <ele>383.79998779296875</ele>
        <time>2021-04-01T09:37:20.000Z</time>
      </trkpt>
      <trkpt lat="41.60796272568404674530029296875" lon="-0.76497280038893222808837890625">
        <ele>383.399993896484375</ele>
        <time>2021-04-01T09:37:22.000Z</time>
      </trkpt>
      <trkpt lat="41.607995666563510894775390625" lon="-0.7652025483548641204833984375">
        <ele>383.600006103515625</ele>
        <time>2021-04-01T09:37:25.000Z</time>
      </trkpt>
      <trkpt lat="41.6080665774643421173095703125" lon="-0.76563111506402492523193359375">
        <ele>384.399993896484375</ele>
        <time>2021-04-01T09:37:31.000Z</time>
      </trkpt>
      <trkpt lat="41.6081131808459758758544921875" lon="-0.765905119478702545166015625">
        <ele>384.20001220703125</ele>
        <time>2021-04-01T09:37:35.000Z</time>
      </trkpt>
      <trkpt lat="41.608145534992218017578125" lon="-0.76603780500590801239013671875">
        <ele>384.20001220703125</ele>
        <time>2021-04-01T09:37:37.000Z</time>
      </trkpt>
      <trkpt lat="41.6081698425114154815673828125" lon="-0.76610016636550426483154296875">
        <ele>384.399993896484375</ele>
        <time>2021-04-01T09:37:38.000Z</time>
      </trkpt>
      <trkpt lat="41.60823069512844085693359375" lon="-0.76621617190539836883544921875">
        <ele>384.399993896484375</ele>
        <time>2021-04-01T09:37:40.000Z</time>
      </trkpt>
      <trkpt lat="41.60847268067300319671630859375" lon="-0.76649478636682033538818359375">
        <ele>384.399993896484375</ele>
        <time>2021-04-01T09:37:46.000Z</time>
      </trkpt>
      <trkpt lat="41.608687005937099456787109375" lon="-0.7667008973658084869384765625">
        <ele>384.399993896484375</ele>
        <time>2021-04-01T09:37:50.000Z</time>
      </trkpt>
      <trkpt lat="41.6087304241955280303955078125" lon="-0.7667397893965244293212890625">
        <ele>384.20001220703125</ele>
        <time>2021-04-01T09:37:51.000Z</time>
      </trkpt>
      <trkpt lat="41.60899738781154155731201171875" lon="-0.7669583894312381744384765625">
        <ele>384.399993896484375</ele>
        <time>2021-04-01T09:37:58.000Z</time>
      </trkpt>
      <trkpt lat="41.60921783186495304107666015625" lon="-0.7671230100095272064208984375">
        <ele>385.600006103515625</ele>
        <time>2021-04-01T09:38:03.000Z</time>
      </trkpt>
      <trkpt lat="41.60963055677711963653564453125" lon="-0.76736231334507465362548828125">
        <ele>386.20001220703125</ele>
        <time>2021-04-01T09:38:12.000Z</time>
      </trkpt>
      <trkpt lat="41.60986022092401981353759765625" lon="-0.76748016290366649627685546875">
        <ele>385.79998779296875</ele>
        <time>2021-04-01T09:38:17.000Z</time>
      </trkpt>
      <trkpt lat="41.61004965193569660186767578125" lon="-0.76758644543588161468505859375">
        <ele>385.600006103515625</ele>
        <time>2021-04-01T09:38:20.000Z</time>
      </trkpt>
      <trkpt lat="41.61022567190229892730712890625" lon="-0.76772860251367092132568359375">
        <ele>384.600006103515625</ele>
        <time>2021-04-01T09:38:25.000Z</time>
      </trkpt>
      <trkpt lat="41.61026657558977603912353515625" lon="-0.767775289714336395263671875">
        <ele>384.600006103515625</ele>
        <time>2021-04-01T09:38:26.000Z</time>
      </trkpt>
      <trkpt lat="41.61030529998242855072021484375" lon="-0.76782667078077793121337890625">
        <ele>384.600006103515625</ele>
        <time>2021-04-01T09:38:27.000Z</time>
      </trkpt>
      <trkpt lat="41.61034000106155872344970703125" lon="-0.767883248627185821533203125">
        <ele>384.600006103515625</ele>
        <time>2021-04-01T09:38:28.000Z</time>
      </trkpt>
      <trkpt lat="41.61045315675437450408935546875" lon="-0.768132694065570831298828125">
        <ele>384.600006103515625</ele>
        <time>2021-04-01T09:38:32.000Z</time>
      </trkpt>
      <trkpt lat="41.61056916229426860809326171875" lon="-0.76845162548124790191650390625">
        <ele>384.79998779296875</ele>
        <time>2021-04-01T09:38:37.000Z</time>
      </trkpt>
      <trkpt lat="41.61065683700144290924072265625" lon="-0.7687063515186309814453125">
        <ele>384.600006103515625</ele>
        <time>2021-04-01T09:38:41.000Z</time>
      </trkpt>
      <trkpt lat="41.61083017475903034210205078125" lon="-0.76939165592193603515625">
        <ele>384.600006103515625</ele>
        <time>2021-04-01T09:38:51.000Z</time>
      </trkpt>
      <trkpt lat="41.61087091080844402313232421875" lon="-0.76952685602009296417236328125">
        <ele>384.79998779296875</ele>
        <time>2021-04-01T09:38:53.000Z</time>
      </trkpt>
      <trkpt lat="41.6109600104391574859619140625" lon="-0.76970958150923252105712890625">
        <ele>385</ele>
        <time>2021-04-01T09:38:56.000Z</time>
      </trkpt>
      <trkpt lat="41.61115639843046665191650390625" lon="-0.7701294310390949249267578125">
        <ele>385</ele>
        <time>2021-04-01T09:39:03.000Z</time>
      </trkpt>
      <trkpt lat="41.611315906047821044921875" lon="-0.7704797945916652679443359375">
        <ele>385.399993896484375</ele>
        <time>2021-04-01T09:39:09.000Z</time>
      </trkpt>
      <trkpt lat="41.61139578558504581451416015625" lon="-0.77065237797796726226806640625">
        <ele>385.399993896484375</ele>
        <time>2021-04-01T09:39:12.000Z</time>
      </trkpt>
      <trkpt lat="41.611450016498565673828125" lon="-0.7707647792994976043701171875">
        <ele>385.600006103515625</ele>
        <time>2021-04-01T09:39:14.000Z</time>
      </trkpt>
      <trkpt lat="41.6115306504070758819580078125" lon="-0.77093199826776981353759765625">
        <ele>385.600006103515625</ele>
        <time>2021-04-01T09:39:17.000Z</time>
      </trkpt>
      <trkpt lat="41.611735336482524871826171875" lon="-0.77139819972217082977294921875">
        <ele>385.600006103515625</ele>
        <time>2021-04-01T09:39:25.000Z</time>
      </trkpt>
      <trkpt lat="41.61187808029353618621826171875" lon="-0.77166256494820117950439453125">
        <ele>386</ele>
        <time>2021-04-01T09:39:30.000Z</time>
      </trkpt>
      <trkpt lat="41.6119125299155712127685546875" lon="-0.77170514501631259918212890625">
        <ele>386.20001220703125</ele>
        <time>2021-04-01T09:39:31.000Z</time>
      </trkpt>
      <trkpt lat="41.6119931638240814208984375" lon="-0.7717669196426868438720703125">
        <ele>386.399993896484375</ele>
        <time>2021-04-01T09:39:32.000Z</time>
      </trkpt>
      <trkpt lat="41.612083017826080322265625" lon="-0.77181360684335231781005859375">
        <ele>386.600006103515625</ele>
        <time>2021-04-01T09:39:35.000Z</time>
      </trkpt>
      <trkpt lat="41.61212953738868236541748046875" lon="-0.77183154411613941192626953125">
        <ele>386.79998779296875</ele>
        <time>2021-04-01T09:39:36.000Z</time>
      </trkpt>
      <trkpt lat="41.61222727037966251373291015625" lon="-0.77185115776956081390380859375">
        <ele>386.399993896484375</ele>
        <time>2021-04-01T09:39:38.000Z</time>
      </trkpt>
      <trkpt lat="41.6122774779796600341796875" lon="-0.771855600178241729736328125">
        <ele>386.20001220703125</ele>
        <time>2021-04-01T09:39:39.000Z</time>
      </trkpt>
      <trkpt lat="41.612426675856113433837890625" lon="-0.7718753814697265625">
        <ele>386.600006103515625</ele>
        <time>2021-04-01T09:39:41.000Z</time>
      </trkpt>
      <trkpt lat="41.61256824620068073272705078125" lon="-0.77193078584969043731689453125">
        <ele>386.79998779296875</ele>
        <time>2021-04-01T09:39:44.000Z</time>
      </trkpt>
      <trkpt lat="41.61261350847780704498291015625" lon="-0.77195878140628337860107421875">
        <ele>386.79998779296875</ele>
        <time>2021-04-01T09:39:45.000Z</time>
      </trkpt>
      <trkpt lat="41.61265592090785503387451171875" lon="-0.77199365012347698211669921875">
        <ele>387</ele>
        <time>2021-04-01T09:39:46.000Z</time>
      </trkpt>
      <trkpt lat="41.6127671487629413604736328125" lon="-0.77213077805936336517333984375">
        <ele>387</ele>
        <time>2021-04-01T09:39:50.000Z</time>
      </trkpt>
      <trkpt lat="41.61284602247178554534912109375" lon="-0.77230646274983882904052734375">
        <ele>387</ele>
        <time>2021-04-01T09:39:53.000Z</time>
      </trkpt>
      <trkpt lat="41.61286597140133380889892578125" lon="-0.7723707519471645355224609375">
        <ele>386.79998779296875</ele>
        <time>2021-04-01T09:39:54.000Z</time>
      </trkpt>
      <trkpt lat="41.61288156174123287200927734375" lon="-0.7724374718964099884033203125">
        <ele>386.79998779296875</ele>
        <time>2021-04-01T09:39:55.000Z</time>
      </trkpt>
      <trkpt lat="41.61295599304139614105224609375" lon="-0.77300383709371089935302734375">
        <ele>387.20001220703125</ele>
        <time>2021-04-01T09:40:03.000Z</time>
      </trkpt>
      <trkpt lat="41.61298432387411594390869140625" lon="-0.77320642769336700439453125">
        <ele>387.20001220703125</ele>
        <time>2021-04-01T09:40:06.000Z</time>
      </trkpt>
      <trkpt lat="41.6130823083221912384033203125" lon="-0.77360079623758792877197265625">
        <ele>386.79998779296875</ele>
        <time>2021-04-01T09:40:12.000Z</time>
      </trkpt>
      <trkpt lat="41.6131735034286975860595703125" lon="-0.773772709071636199951171875">
        <ele>387</ele>
        <time>2021-04-01T09:40:15.000Z</time>
      </trkpt>
      <trkpt lat="41.613277606666088104248046875" lon="-0.77392886392772197723388671875">
        <ele>386.600006103515625</ele>
        <time>2021-04-01T09:40:17.000Z</time>
      </trkpt>
      <trkpt lat="41.61358513869345188140869140625" lon="-0.774385593831539154052734375">
        <ele>386.79998779296875</ele>
        <time>2021-04-01T09:40:27.000Z</time>
      </trkpt>
      <trkpt lat="41.61376266740262508392333984375" lon="-0.774635374546051025390625">
        <ele>387.600006103515625</ele>
        <time>2021-04-01T09:40:33.000Z</time>
      </trkpt>
      <trkpt lat="41.6137929260730743408203125" lon="-0.77467720024287700653076171875">
        <ele>387.79998779296875</ele>
        <time>2021-04-01T09:40:34.000Z</time>
      </trkpt>
      <trkpt lat="41.613850928843021392822265625" lon="-0.7747746817767620086669921875">
        <ele>387.79998779296875</ele>
        <time>2021-04-01T09:40:36.000Z</time>
      </trkpt>
      <trkpt lat="41.61394941620528697967529296875" lon="-0.775001160800457000732421875">
        <ele>387.600006103515625</ele>
        <time>2021-04-01T09:40:40.000Z</time>
      </trkpt>
      <trkpt lat="41.61400976590812206268310546875" lon="-0.77518916688859462738037109375">
        <ele>387.600006103515625</ele>
        <time>2021-04-01T09:40:43.000Z</time>
      </trkpt>
      <trkpt lat="41.61404496990144252777099609375" lon="-0.77532344497740268707275390625">
        <ele>387.600006103515625</ele>
        <time>2021-04-01T09:40:45.000Z</time>
      </trkpt>
      <trkpt lat="41.61407799459993839263916015625" lon="-0.77546409331262111663818359375">
        <ele>387.600006103515625</ele>
        <time>2021-04-01T09:40:47.000Z</time>
      </trkpt>
      <trkpt lat="41.61411722190678119659423828125" lon="-0.7756728865206241607666015625">
        <ele>387.399993896484375</ele>
        <time>2021-04-01T09:40:50.000Z</time>
      </trkpt>
      <trkpt lat="41.61412895657122135162353515625" lon="-0.7757399417459964752197265625">
        <ele>387.399993896484375</ele>
        <time>2021-04-01T09:40:51.000Z</time>
      </trkpt>
      <trkpt lat="41.61417254246771335601806640625" lon="-0.776008665561676025390625">
        <ele>387.20001220703125</ele>
        <time>2021-04-01T09:40:55.000Z</time>
      </trkpt>
      <trkpt lat="41.6142540983855724334716796875" lon="-0.776609145104885101318359375">
        <ele>387.399993896484375</ele>
        <time>2021-04-01T09:41:03.000Z</time>
      </trkpt>
      <trkpt lat="41.61427262239158153533935546875" lon="-0.77674887143075466156005859375">
        <ele>387.399993896484375</ele>
        <time>2021-04-01T09:41:05.000Z</time>
      </trkpt>
      <trkpt lat="41.6143318824470043182373046875" lon="-0.77709286473691463470458984375">
        <ele>387</ele>
        <time>2021-04-01T09:41:10.000Z</time>
      </trkpt>
      <trkpt lat="41.6143540106713771820068359375" lon="-0.7771574892103672027587890625">
        <ele>387</ele>
        <time>2021-04-01T09:41:12.000Z</time>
      </trkpt>
      <trkpt lat="41.61438376642763614654541015625" lon="-0.77721674926578998565673828125">
        <ele>387</ele>
        <time>2021-04-01T09:41:13.000Z</time>
      </trkpt>
      <trkpt lat="41.61442433483898639678955078125" lon="-0.777263604104518890380859375">
        <ele>386.79998779296875</ele>
        <time>2021-04-01T09:41:14.000Z</time>
      </trkpt>
      <trkpt lat="41.61452508531510829925537109375" lon="-0.777315236628055572509765625">
        <ele>386.79998779296875</ele>
        <time>2021-04-01T09:41:16.000Z</time>
      </trkpt>
      <trkpt lat="41.6146862693130970001220703125" lon="-0.77732856385409832000732421875">
        <ele>386.79998779296875</ele>
        <time>2021-04-01T09:41:18.000Z</time>
      </trkpt>
      <trkpt lat="41.61479380913078784942626953125" lon="-0.77731682918965816497802734375">
        <ele>386.79998779296875</ele>
        <time>2021-04-01T09:41:20.000Z</time>
      </trkpt>
      <trkpt lat="41.6150027699768543243408203125" lon="-0.77729637734591960906982421875">
        <ele>386.399993896484375</ele>
        <time>2021-04-01T09:41:24.000Z</time>
      </trkpt>
      <trkpt lat="41.6152495332062244415283203125" lon="-0.77725580893456935882568359375">
        <ele>386.79998779296875</ele>
        <time>2021-04-01T09:41:29.000Z</time>
      </trkpt>
      <trkpt lat="41.61529437638819217681884765625" lon="-0.77725882641971111297607421875">
        <ele>387</ele>
        <time>2021-04-01T09:41:31.000Z</time>
      </trkpt>
      <trkpt lat="41.6154158301651477813720703125" lon="-0.77731900848448276519775390625">
        <ele>387</ele>
        <time>2021-04-01T09:41:33.000Z</time>
      </trkpt>
      <trkpt lat="41.61545346491038799285888671875" lon="-0.77735119499266147613525390625">
        <ele>387</ele>
        <time>2021-04-01T09:41:34.000Z</time>
      </trkpt>
      <trkpt lat="41.61548833362758159637451171875" lon="-0.7773864828050136566162109375">
        <ele>387.20001220703125</ele>
        <time>2021-04-01T09:41:35.000Z</time>
      </trkpt>
      <trkpt lat="41.615553461015224456787109375" lon="-0.7774612493813037872314453125">
        <ele>387.600006103515625</ele>
        <time>2021-04-01T09:41:37.000Z</time>
      </trkpt>
      <trkpt lat="41.615629233419895172119140625" lon="-0.77758538536727428436279296875">
        <ele>388.20001220703125</ele>
        <time>2021-04-01T09:41:40.000Z</time>
      </trkpt>
      <trkpt lat="41.615653373301029205322265625" lon="-0.77763416804373264312744140625">
        <ele>388.20001220703125</ele>
        <time>2021-04-01T09:41:41.000Z</time>
      </trkpt>
      <trkpt lat="41.61567541770637035369873046875" lon="-0.777687393128871917724609375">
        <ele>387.600006103515625</ele>
        <time>2021-04-01T09:41:42.000Z</time>
      </trkpt>
      <trkpt lat="41.6157742403447628021240234375" lon="-0.777903981506824493408203125">
        <ele>387.20001220703125</ele>
        <time>2021-04-01T09:41:46.000Z</time>
      </trkpt>
      <trkpt lat="41.6159469075500965118408203125" lon="-0.77828208915889263153076171875">
        <ele>387.20001220703125</ele>
        <time>2021-04-01T09:41:53.000Z</time>
      </trkpt>
      <trkpt lat="41.6159710474312305450439453125" lon="-0.77833489514887332916259765625">
        <ele>387.399993896484375</ele>
        <time>2021-04-01T09:41:55.000Z</time>
      </trkpt>
      <trkpt lat="41.61599124781787395477294921875" lon="-0.77838971279561519622802734375">
        <ele>387.399993896484375</ele>
        <time>2021-04-01T09:41:56.000Z</time>
      </trkpt>
      <trkpt lat="41.6160216741263866424560546875" lon="-0.7785696722567081451416015625">
        <ele>387.600006103515625</ele>
        <time>2021-04-01T09:41:59.000Z</time>
      </trkpt>
      <trkpt lat="41.6160059161484241485595703125" lon="-0.77869464643299579620361328125">
        <ele>388</ele>
        <time>2021-04-01T09:42:00.000Z</time>
      </trkpt>
      <trkpt lat="41.61598764359951019287109375" lon="-0.77875323593616485595703125">
        <ele>387.79998779296875</ele>
        <time>2021-04-01T09:42:01.000Z</time>
      </trkpt>
      <trkpt lat="41.61593844182789325714111328125" lon="-0.77885474078357219696044921875">
        <ele>387.600006103515625</ele>
        <time>2021-04-01T09:42:04.000Z</time>
      </trkpt>
      <trkpt lat="41.61590625531971454620361328125" lon="-0.77889665029942989349365234375">
        <ele>387.79998779296875</ele>
        <time>2021-04-01T09:42:05.000Z</time>
      </trkpt>
      <trkpt lat="41.61586887203156948089599609375" lon="-0.778931938111782073974609375">
        <ele>387.600006103515625</ele>
        <time>2021-04-01T09:42:06.000Z</time>
      </trkpt>
      <trkpt lat="41.6156637668609619140625" lon="-0.7790865004062652587890625">
        <ele>387.600006103515625</ele>
        <time>2021-04-01T09:42:10.000Z</time>
      </trkpt>
      <trkpt lat="41.61532807163894176483154296875" lon="-0.77931105159223079681396484375">
        <ele>387.399993896484375</ele>
        <time>2021-04-01T09:42:19.000Z</time>
      </trkpt>
      <trkpt lat="41.615196056663990020751953125" lon="-0.7793837226927280426025390625">
        <ele>387.399993896484375</ele>
        <time>2021-04-01T09:42:21.000Z</time>
      </trkpt>
      <trkpt lat="41.61492691375315189361572265625" lon="-0.77949176542460918426513671875">
        <ele>387.399993896484375</ele>
        <time>2021-04-01T09:42:27.000Z</time>
      </trkpt>
      <trkpt lat="41.6148374788463115692138671875" lon="-0.77951590530574321746826171875">
        <ele>387.399993896484375</ele>
        <time>2021-04-01T09:42:29.000Z</time>
      </trkpt>
      <trkpt lat="41.614794395864009857177734375" lon="-0.77953333966434001922607421875">
        <ele>387.399993896484375</ele>
        <time>2021-04-01T09:42:31.000Z</time>
      </trkpt>
      <trkpt lat="41.614723987877368927001953125" lon="-0.77959855087101459503173828125">
        <ele>387.399993896484375</ele>
        <time>2021-04-01T09:42:33.000Z</time>
      </trkpt>
      <trkpt lat="41.61469205282628536224365234375" lon="-0.77969695441424846649169921875">
        <ele>387.399993896484375</ele>
        <time>2021-04-01T09:42:35.000Z</time>
      </trkpt>
      <trkpt lat="41.6146956570446491241455078125" lon="-0.7797543704509735107421875">
        <ele>387.600006103515625</ele>
        <time>2021-04-01T09:42:36.000Z</time>
      </trkpt>
      <trkpt lat="41.61471082828938961029052734375" lon="-0.7798145525157451629638671875">
        <ele>387.79998779296875</ele>
        <time>2021-04-01T09:42:37.000Z</time>
      </trkpt>
      <trkpt lat="41.61481090821325778961181640625" lon="-0.78004245646297931671142578125">
        <ele>388.399993896484375</ele>
        <time>2021-04-01T09:42:40.000Z</time>
      </trkpt>
      <trkpt lat="41.61488835699856281280517578125" lon="-0.7802125252783298492431640625">
        <ele>388</ele>
        <time>2021-04-01T09:42:44.000Z</time>
      </trkpt>
      <trkpt lat="41.6149243153631687164306640625" lon="-0.78033037483692169189453125">
        <ele>388</ele>
        <time>2021-04-01T09:42:45.000Z</time>
      </trkpt>
      <trkpt lat="41.61493043415248394012451171875" lon="-0.7803922332823276519775390625">
        <ele>387.399993896484375</ele>
        <time>2021-04-01T09:42:47.000Z</time>
      </trkpt>
      <trkpt lat="41.61491098813712596893310546875" lon="-0.7805139385163784027099609375">
        <ele>387.20001220703125</ele>
        <time>2021-04-01T09:42:49.000Z</time>
      </trkpt>
      <trkpt lat="41.61488601006567478179931640625" lon="-0.78056749887764453887939453125">
        <ele>387.399993896484375</ele>
        <time>2021-04-01T09:42:50.000Z</time>
      </trkpt>
      <trkpt lat="41.61481685936450958251953125" lon="-0.78065081499516963958740234375">
        <ele>387.399993896484375</ele>
        <time>2021-04-01T09:42:51.000Z</time>
      </trkpt>
      <trkpt lat="41.61474100314080715179443359375" lon="-0.780731029808521270751953125">
        <ele>387.600006103515625</ele>
        <time>2021-04-01T09:42:54.000Z</time>
      </trkpt>
      <trkpt lat="41.614582501351833343505859375" lon="-0.78087679110467433929443359375">
        <ele>387.399993896484375</ele>
        <time>2021-04-01T09:42:58.000Z</time>
      </trkpt>
      <trkpt lat="41.6144522465765476226806640625" lon="-0.78095189295709133148193359375">
        <ele>387.399993896484375</ele>
        <time>2021-04-01T09:43:01.000Z</time>
      </trkpt>
      <trkpt lat="41.61432257853448390960693359375" lon="-0.781019367277622222900390625">
        <ele>387.399993896484375</ele>
        <time>2021-04-01T09:43:04.000Z</time>
      </trkpt>
      <trkpt lat="41.61402435041964054107666015625" lon="-0.78117124736309051513671875">
        <ele>386.79998779296875</ele>
        <time>2021-04-01T09:43:11.000Z</time>
      </trkpt>
      <trkpt lat="41.61368488334119319915771484375" lon="-0.7813377119600772857666015625">
        <ele>387.399993896484375</ele>
        <time>2021-04-01T09:43:19.000Z</time>
      </trkpt>
      <trkpt lat="41.61360181868076324462890625" lon="-0.78137601725757122039794921875">
        <ele>387.20001220703125</ele>
        <time>2021-04-01T09:43:21.000Z</time>
      </trkpt>
      <trkpt lat="41.61347382701933383941650390625" lon="-0.7814191840589046478271484375">
        <ele>387.399993896484375</ele>
        <time>2021-04-01T09:43:24.000Z</time>
      </trkpt>
      <trkpt lat="41.61339084617793560028076171875" lon="-0.78142899088561534881591796875">
        <ele>387.600006103515625</ele>
        <time>2021-04-01T09:43:26.000Z</time>
      </trkpt>
      <trkpt lat="41.61335027776658535003662109375" lon="-0.78143033199012279510498046875">
        <ele>387.600006103515625</ele>
        <time>2021-04-01T09:43:27.000Z</time>
      </trkpt>
      <trkpt lat="41.6130132414400577545166015625" lon="-0.78144223429262638092041015625">
        <ele>387.20001220703125</ele>
        <time>2021-04-01T09:43:35.000Z</time>
      </trkpt>
      <trkpt lat="41.61260764114558696746826171875" lon="-0.7814268954098224639892578125">
        <ele>386.79998779296875</ele>
        <time>2021-04-01T09:43:45.000Z</time>
      </trkpt>
      <trkpt lat="41.612565815448760986328125" lon="-0.7814211957156658172607421875">
        <ele>386.399993896484375</ele>
        <time>2021-04-01T09:43:46.000Z</time>
      </trkpt>
      <trkpt lat="41.6125242412090301513671875" lon="-0.78141524456441402435302734375">
        <ele>386.399993896484375</ele>
        <time>2021-04-01T09:43:47.000Z</time>
      </trkpt>
      <trkpt lat="41.6122283600270748138427734375" lon="-0.78137953765690326690673828125">
        <ele>386.600006103515625</ele>
        <time>2021-04-01T09:43:54.000Z</time>
      </trkpt>
      <trkpt lat="41.61210556514561176300048828125" lon="-0.78138775192201137542724609375">
        <ele>386.399993896484375</ele>
        <time>2021-04-01T09:43:57.000Z</time>
      </trkpt>
      <trkpt lat="41.61194731481373310089111328125" lon="-0.7814305834472179412841796875">
        <ele>386.79998779296875</ele>
        <time>2021-04-01T09:44:01.000Z</time>
      </trkpt>
      <trkpt lat="41.6118615679442882537841796875" lon="-0.7814443297684192657470703125">
        <ele>386.79998779296875</ele>
        <time>2021-04-01T09:44:03.000Z</time>
      </trkpt>
      <trkpt lat="41.6117328219115734100341796875" lon="-0.7814359478652477264404296875">
        <ele>386.79998779296875</ele>
        <time>2021-04-01T09:44:06.000Z</time>
      </trkpt>
      <trkpt lat="41.6116912476718425750732421875" lon="-0.78143854625523090362548828125">
        <ele>386.79998779296875</ele>
        <time>2021-04-01T09:44:07.000Z</time>
      </trkpt>
      <trkpt lat="41.6115698777139186859130859375" lon="-0.78144659288227558135986328125">
        <ele>387</ele>
        <time>2021-04-01T09:44:10.000Z</time>
      </trkpt>
      <trkpt lat="41.61137717776000499725341796875" lon="-0.78146017156541347503662109375">
        <ele>387</ele>
        <time>2021-04-01T09:44:15.000Z</time>
      </trkpt>
      <trkpt lat="41.61118975840508937835693359375" lon="-0.78147911466658115386962890625">
        <ele>386.79998779296875</ele>
        <time>2021-04-01T09:44:20.000Z</time>
      </trkpt>
      <trkpt lat="41.61111298017203807830810546875" lon="-0.7815009914338588714599609375">
        <ele>386.399993896484375</ele>
        <time>2021-04-01T09:44:22.000Z</time>
      </trkpt>
      <trkpt lat="41.6110746748745441436767578125" lon="-0.78151230700314044952392578125">
        <ele>386.399993896484375</ele>
        <time>2021-04-01T09:44:23.000Z</time>
      </trkpt>
      <trkpt lat="41.611036621034145355224609375" lon="-0.7815217785537242889404296875">
        <ele>386.399993896484375</ele>
        <time>2021-04-01T09:44:24.000Z</time>
      </trkpt>
      <trkpt lat="41.61086118780076503753662109375" lon="-0.78162512741982936859130859375">
        <ele>386.79998779296875</ele>
        <time>2021-04-01T09:44:29.000Z</time>
      </trkpt>
      <trkpt lat="41.61080150865018367767333984375" lon="-0.781680531799793243408203125">
        <ele>387.600006103515625</ele>
        <time>2021-04-01T09:44:31.000Z</time>
      </trkpt>
      <trkpt lat="41.6106418333947658538818359375" lon="-0.78180986456573009490966796875">
        <ele>388.20001220703125</ele>
        <time>2021-04-01T09:44:36.000Z</time>
      </trkpt>
      <trkpt lat="41.6105781309306621551513671875" lon="-0.7818681187927722930908203125">
        <ele>388</ele>
        <time>2021-04-01T09:44:38.000Z</time>
      </trkpt>
      <trkpt lat="41.6104141809046268463134765625" lon="-0.7820047438144683837890625">
        <ele>386.79998779296875</ele>
        <time>2021-04-01T09:44:43.000Z</time>
      </trkpt>
      <trkpt lat="41.61035366356372833251953125" lon="-0.7820642553269863128662109375">
        <ele>386.600006103515625</ele>
        <time>2021-04-01T09:44:45.000Z</time>
      </trkpt>
      <trkpt lat="41.610292978584766387939453125" lon="-0.7821222580969333648681640625">
        <ele>386.79998779296875</ele>
        <time>2021-04-01T09:44:46.000Z</time>
      </trkpt>
      <trkpt lat="41.610292978584766387939453125" lon="-0.7821222580969333648681640625">
        <ele>386.79998779296875</ele>
        <time>2021-04-01T09:44:47.000Z</time>
      </trkpt>
      <trkpt lat="41.610125340521335601806640625" lon="-0.7823185622692108154296875">
        <ele>387.79998779296875</ele>
        <time>2021-04-01T09:44:52.000Z</time>
      </trkpt>
      <trkpt lat="41.61009323783218860626220703125" lon="-0.7823438756167888641357421875">
        <ele>387.79998779296875</ele>
        <time>2021-04-01T09:44:53.000Z</time>
      </trkpt>
      <trkpt lat="41.60998217761516571044921875" lon="-0.782406069338321685791015625">
        <ele>387.79998779296875</ele>
        <time>2021-04-01T09:44:57.000Z</time>
      </trkpt>
      <trkpt lat="41.60994269885122776031494140625" lon="-0.78242694027721881866455078125">
        <ele>387.79998779296875</ele>
        <time>2021-04-01T09:44:58.000Z</time>
      </trkpt>
      <trkpt lat="41.60986684262752532958984375" lon="-0.78247371129691600799560546875">
        <ele>387.600006103515625</ele>
        <time>2021-04-01T09:45:00.000Z</time>
      </trkpt>
      <trkpt lat="41.60979283042252063751220703125" lon="-0.7825222425162792205810546875">
        <ele>387.600006103515625</ele>
        <time>2021-04-01T09:45:02.000Z</time>
      </trkpt>
      <trkpt lat="41.6097265295684337615966796875" lon="-0.782580077648162841796875">
        <ele>387.399993896484375</ele>
        <time>2021-04-01T09:45:04.000Z</time>
      </trkpt>
      <trkpt lat="41.60965955816209316253662109375" lon="-0.78263036906719207763671875">
        <ele>387.79998779296875</ele>
        <time>2021-04-01T09:45:06.000Z</time>
      </trkpt>
      <trkpt lat="41.6094965301454067230224609375" lon="-0.782774202525615692138671875">
        <ele>387.79998779296875</ele>
        <time>2021-04-01T09:45:11.000Z</time>
      </trkpt>
      <trkpt lat="41.60943324677646160125732421875" lon="-0.7828384079039096832275390625">
        <ele>387.79998779296875</ele>
        <time>2021-04-01T09:45:13.000Z</time>
      </trkpt>
      <trkpt lat="41.60933182574808597564697265625" lon="-0.78292331658303737640380859375">
        <ele>387.600006103515625</ele>
        <time>2021-04-01T09:45:16.000Z</time>
      </trkpt>
      <trkpt lat="41.60925840027630329132080078125" lon="-0.7829797267913818359375">
        <ele>387.600006103515625</ele>
        <time>2021-04-01T09:45:18.000Z</time>
      </trkpt>
      <trkpt lat="41.60922654904425144195556640625" lon="-0.78301660716533660888671875">
        <ele>387.399993896484375</ele>
        <time>2021-04-01T09:45:19.000Z</time>
      </trkpt>
      <trkpt lat="41.60905622877180576324462890625" lon="-0.78316069208085536956787109375">
        <ele>387.399993896484375</ele>
        <time>2021-04-01T09:45:24.000Z</time>
      </trkpt>
      <trkpt lat="41.608991436660289764404296875" lon="-0.7832222990691661834716796875">
        <ele>387.600006103515625</ele>
        <time>2021-04-01T09:45:26.000Z</time>
      </trkpt>
      <trkpt lat="41.60878297872841358184814453125" lon="-0.78341424465179443359375">
        <ele>388.600006103515625</ele>
        <time>2021-04-01T09:45:33.000Z</time>
      </trkpt>
      <trkpt lat="41.60875850357115268707275390625" lon="-0.78344031237065792083740234375">
        <ele>389</ele>
        <time>2021-04-01T09:45:34.000Z</time>
      </trkpt>
      <trkpt lat="41.6086041927337646484375" lon="-0.78357475809752941131591796875">
        <ele>388.79998779296875</ele>
        <time>2021-04-01T09:45:39.000Z</time>
      </trkpt>
      <trkpt lat="41.60849866457283496856689453125" lon="-0.78366570174694061279296875">
        <ele>387.79998779296875</ele>
        <time>2021-04-01T09:45:42.000Z</time>
      </trkpt>
      <trkpt lat="41.6083319485187530517578125" lon="-0.783849768340587615966796875">
        <ele>387.600006103515625</ele>
        <time>2021-04-01T09:45:47.000Z</time>
      </trkpt>
      <trkpt lat="41.6082633845508098602294921875" lon="-0.78392562456429004669189453125">
        <ele>387.600006103515625</ele>
        <time>2021-04-01T09:45:49.000Z</time>
      </trkpt>
      <trkpt lat="41.60816305316984653472900390625" lon="-0.78404682688415050506591796875">
        <ele>387.79998779296875</ele>
        <time>2021-04-01T09:45:52.000Z</time>
      </trkpt>
      <trkpt lat="41.6079944930970668792724609375" lon="-0.78424681909382343292236328125">
        <ele>388</ele>
        <time>2021-04-01T09:45:57.000Z</time>
      </trkpt>
      <trkpt lat="41.6079274378716945648193359375" lon="-0.78432946465909481048583984375">
        <ele>388</ele>
        <time>2021-04-01T09:45:59.000Z</time>
      </trkpt>
      <trkpt lat="41.6078516654670238494873046875" lon="-0.78439299948513507843017578125">
        <ele>388.20001220703125</ele>
        <time>2021-04-01T09:46:01.000Z</time>
      </trkpt>
      <trkpt lat="41.60781151615083217620849609375" lon="-0.78441579826176166534423828125">
        <ele>387.79998779296875</ele>
        <time>2021-04-01T09:46:02.000Z</time>
      </trkpt>
      <trkpt lat="41.60772736184298992156982421875" lon="-0.7844401895999908447265625">
        <ele>387</ele>
        <time>2021-04-01T09:46:04.000Z</time>
      </trkpt>
      <trkpt lat="41.60768310539424419403076171875" lon="-0.78443809412419795989990234375">
        <ele>386.79998779296875</ele>
        <time>2021-04-01T09:46:05.000Z</time>
      </trkpt>
      <trkpt lat="41.6076387651264667510986328125" lon="-0.78442803584039211273193359375">
        <ele>386.600006103515625</ele>
        <time>2021-04-01T09:46:06.000Z</time>
      </trkpt>
      <trkpt lat="41.6075956821441650390625" lon="-0.7844101823866367340087890625">
        <ele>386.399993896484375</ele>
        <time>2021-04-01T09:46:07.000Z</time>
      </trkpt>
      <trkpt lat="41.607304997742176055908203125" lon="-0.78423877246677875518798828125">
        <ele>386.20001220703125</ele>
        <time>2021-04-01T09:46:14.000Z</time>
      </trkpt>
      <trkpt lat="41.60722159780561923980712890625" lon="-0.784189403057098388671875">
        <ele>386.20001220703125</ele>
        <time>2021-04-01T09:46:16.000Z</time>
      </trkpt>
      <trkpt lat="41.60709452815353870391845703125" lon="-0.78412528149783611297607421875">
        <ele>386.20001220703125</ele>
        <time>2021-04-01T09:46:19.000Z</time>
      </trkpt>
      <trkpt lat="41.60673075355589389801025390625" lon="-0.78392763622105121612548828125">
        <ele>386.20001220703125</ele>
        <time>2021-04-01T09:46:28.000Z</time>
      </trkpt>
      <trkpt lat="41.606512404978275299072265625" lon="-0.78383241780102252960205078125">
        <ele>386.399993896484375</ele>
        <time>2021-04-01T09:46:33.000Z</time>
      </trkpt>
      <trkpt lat="41.60642682574689388275146484375" lon="-0.783784389495849609375">
        <ele>386.20001220703125</ele>
        <time>2021-04-01T09:46:35.000Z</time>
      </trkpt>
      <trkpt lat="41.6063365526497364044189453125" lon="-0.78374373726546764373779296875">
        <ele>385.399993896484375</ele>
        <time>2021-04-01T09:46:37.000Z</time>
      </trkpt>
      <trkpt lat="41.6062889434397220611572265625" lon="-0.7837302424013614654541015625">
        <ele>385.600006103515625</ele>
        <time>2021-04-01T09:46:38.000Z</time>
      </trkpt>
      <trkpt lat="41.6061943955719470977783203125" lon="-0.78374222852289676666259765625">
        <ele>385.399993896484375</ele>
        <time>2021-04-01T09:46:40.000Z</time>
      </trkpt>
      <trkpt lat="41.606114767491817474365234375" lon="-0.78380425460636615753173828125">
        <ele>386.399993896484375</ele>
        <time>2021-04-01T09:46:42.000Z</time>
      </trkpt>
      <trkpt lat="41.60605140030384063720703125" lon="-0.7838918454945087432861328125">
        <ele>387.600006103515625</ele>
        <time>2021-04-01T09:46:44.000Z</time>
      </trkpt>
      <trkpt lat="41.6058567725121974945068359375" lon="-0.78422972001135349273681640625">
        <ele>386.600006103515625</ele>
        <time>2021-04-01T09:46:51.000Z</time>
      </trkpt>
      <trkpt lat="41.6058021225035190582275390625" lon="-0.78432686626911163330078125">
        <ele>386.600006103515625</ele>
        <time>2021-04-01T09:46:53.000Z</time>
      </trkpt>
      <trkpt lat="41.60566507838666439056396484375" lon="-0.784571282565593719482421875">
        <ele>386.600006103515625</ele>
        <time>2021-04-01T09:46:58.000Z</time>
      </trkpt>
      <trkpt lat="41.6055560298264026641845703125" lon="-0.78475945629179477691650390625">
        <ele>386.600006103515625</ele>
        <time>2021-04-01T09:47:02.000Z</time>
      </trkpt>
      <trkpt lat="41.6055288724601268768310546875" lon="-0.78480756841599941253662109375">
        <ele>386.399993896484375</ele>
        <time>2021-04-01T09:47:03.000Z</time>
      </trkpt>
      <trkpt lat="41.60550163127481937408447265625" lon="-0.7848560996353626251220703125">
        <ele>386</ele>
        <time>2021-04-01T09:47:04.000Z</time>
      </trkpt>
      <trkpt lat="41.6053950972855091094970703125" lon="-0.78505667857825756072998046875">
        <ele>385.79998779296875</ele>
        <time>2021-04-01T09:47:08.000Z</time>
      </trkpt>
      <trkpt lat="41.60527213476598262786865234375" lon="-0.78530251979827880859375">
        <ele>386.79998779296875</ele>
        <time>2021-04-01T09:47:13.000Z</time>
      </trkpt>
      <trkpt lat="41.60524715669453144073486328125" lon="-0.78535323031246662139892578125">
        <ele>386.79998779296875</ele>
        <time>2021-04-01T09:47:14.000Z</time>
      </trkpt>
      <trkpt lat="41.60514347255229949951171875" lon="-0.7855581678450107574462890625">
        <ele>386.399993896484375</ele>
        <time>2021-04-01T09:47:18.000Z</time>
      </trkpt>
      <trkpt lat="41.605045236647129058837890625" lon="-0.7857455871999263763427734375">
        <ele>387</ele>
        <time>2021-04-01T09:47:22.000Z</time>
      </trkpt>
      <trkpt lat="41.605001986026763916015625" lon="-0.7858250476419925689697265625">
        <ele>387.600006103515625</ele>
        <time>2021-04-01T09:47:24.000Z</time>
      </trkpt>
      <trkpt lat="41.60498119890689849853515625" lon="-0.78586419112980365753173828125">
        <ele>388</ele>
        <time>2021-04-01T09:47:25.000Z</time>
      </trkpt>
      <trkpt lat="41.6049585677683353424072265625" lon="-0.78590626828372478485107421875">
        <ele>387.79998779296875</ele>
        <time>2021-04-01T09:47:26.000Z</time>
      </trkpt>
      <trkpt lat="41.604894362390041351318359375" lon="-0.78604725189507007598876953125">
        <ele>388.20001220703125</ele>
        <time>2021-04-01T09:47:29.000Z</time>
      </trkpt>
      <trkpt lat="41.6048271395266056060791015625" lon="-0.78619234263896942138671875">
        <ele>388.399993896484375</ele>
        <time>2021-04-01T09:47:32.000Z</time>
      </trkpt>
      <trkpt lat="41.60476469434797763824462890625" lon="-0.78635939396917819976806640625">
        <ele>388.20001220703125</ele>
        <time>2021-04-01T09:47:35.000Z</time>
      </trkpt>
      <trkpt lat="41.60470786504447460174560546875" lon="-0.7865913212299346923828125">
        <ele>388.20001220703125</ele>
        <time>2021-04-01T09:47:39.000Z</time>
      </trkpt>
      <trkpt lat="41.6047225333750247955322265625" lon="-0.786698274314403533935546875">
        <ele>388.399993896484375</ele>
        <time>2021-04-01T09:47:40.000Z</time>
      </trkpt>
      <trkpt lat="41.6047225333750247955322265625" lon="-0.786698274314403533935546875">
        <ele>388.399993896484375</ele>
        <time>2021-04-01T09:47:41.000Z</time>
      </trkpt>
      <trkpt lat="41.604759581387042999267578125" lon="-0.7868007011711597442626953125">
        <ele>388.399993896484375</ele>
        <time>2021-04-01T09:47:42.000Z</time>
      </trkpt>
      <trkpt lat="41.60483225248754024505615234375" lon="-0.78694009222090244293212890625">
        <ele>388.20001220703125</ele>
        <time>2021-04-01T09:47:46.000Z</time>
      </trkpt>
      <trkpt lat="41.60507247783243656158447265625" lon="-0.787358097732067108154296875">
        <ele>388</ele>
        <time>2021-04-01T09:47:55.000Z</time>
      </trkpt>
      <trkpt lat="41.60514481365680694580078125" lon="-0.7875000871717929840087890625">
        <ele>388</ele>
        <time>2021-04-01T09:47:58.000Z</time>
      </trkpt>
      <trkpt lat="41.60524363629519939422607421875" lon="-0.78771977685391902923583984375">
        <ele>387.79998779296875</ele>
        <time>2021-04-01T09:48:02.000Z</time>
      </trkpt>
      <trkpt lat="41.60529476590454578399658203125" lon="-0.7878196053206920623779296875">
        <ele>388</ele>
        <time>2021-04-01T09:48:04.000Z</time>
      </trkpt>
      <trkpt lat="41.60536031238734722137451171875" lon="-0.78801817260682582855224609375">
        <ele>388.20001220703125</ele>
        <time>2021-04-01T09:48:08.000Z</time>
      </trkpt>
      <trkpt lat="41.60546961240470409393310546875" lon="-0.788472555577754974365234375">
        <ele>387.399993896484375</ele>
        <time>2021-04-01T09:48:16.000Z</time>
      </trkpt>
      <trkpt lat="41.60550146363675594329833984375" lon="-0.78866341151297092437744140625">
        <ele>387.399993896484375</ele>
        <time>2021-04-01T09:48:19.000Z</time>
      </trkpt>
      <trkpt lat="41.60553012974560260772705078125" lon="-0.78885569237172603607177734375">
        <ele>387.399993896484375</ele>
        <time>2021-04-01T09:48:22.000Z</time>
      </trkpt>
      <trkpt lat="41.6055540181696414947509765625" lon="-0.7890460453927516937255859375">
        <ele>387.600006103515625</ele>
        <time>2021-04-01T09:48:25.000Z</time>
      </trkpt>
      <trkpt lat="41.60556550137698650360107421875" lon="-0.7891094125807285308837890625">
        <ele>387.600006103515625</ele>
        <time>2021-04-01T09:48:26.000Z</time>
      </trkpt>
      <trkpt lat="41.6056224144995212554931640625" lon="-0.789359696209430694580078125">
        <ele>387.20001220703125</ele>
        <time>2021-04-01T09:48:30.000Z</time>
      </trkpt>
      <trkpt lat="41.60572014749050140380859375" lon="-0.78986705280840396881103515625">
        <ele>387.600006103515625</ele>
        <time>2021-04-01T09:48:38.000Z</time>
      </trkpt>
      <trkpt lat="41.6057535074651241302490234375" lon="-0.79005732201039791107177734375">
        <ele>388.20001220703125</ele>
        <time>2021-04-01T09:48:41.000Z</time>
      </trkpt>
      <trkpt lat="41.60579667426645755767822265625" lon="-0.79045076854526996612548828125">
        <ele>387.600006103515625</ele>
        <time>2021-04-01T09:48:47.000Z</time>
      </trkpt>
      <trkpt lat="41.6058312915265560150146484375" lon="-0.790773890912532806396484375">
        <ele>387.399993896484375</ele>
        <time>2021-04-01T09:48:52.000Z</time>
      </trkpt>
      <trkpt lat="41.60583841614425182342529296875" lon="-0.79089601524174213409423828125">
        <ele>387.600006103515625</ele>
        <time>2021-04-01T09:48:54.000Z</time>
      </trkpt>
      <trkpt lat="41.60585157573223114013671875" lon="-0.79111360944807529449462890625">
        <ele>388.79998779296875</ele>
        <time>2021-04-01T09:48:58.000Z</time>
      </trkpt>
      <trkpt lat="41.6058557666838169097900390625" lon="-0.7911733724176883697509765625">
        <ele>388.79998779296875</ele>
        <time>2021-04-01T09:49:00.000Z</time>
      </trkpt>
      <trkpt lat="41.60586833953857421875" lon="-0.7913624681532382965087890625">
        <ele>388</ele>
        <time>2021-04-01T09:49:02.000Z</time>
      </trkpt>
      <trkpt lat="41.6058745421469211578369140625" lon="-0.79142089001834392547607421875">
        <ele>387.600006103515625</ele>
        <time>2021-04-01T09:49:03.000Z</time>
      </trkpt>
      <trkpt lat="41.60589373670518398284912109375" lon="-0.79158919863402843475341796875">
        <ele>387</ele>
        <time>2021-04-01T09:49:06.000Z</time>
      </trkpt>
      <trkpt lat="41.6059050522744655609130859375" lon="-0.791869573295116424560546875">
        <ele>387.20001220703125</ele>
        <time>2021-04-01T09:49:11.000Z</time>
      </trkpt>
      <trkpt lat="41.60590496845543384552001953125" lon="-0.79192648641765117645263671875">
        <ele>387.20001220703125</ele>
        <time>2021-04-01T09:49:12.000Z</time>
      </trkpt>
      <trkpt lat="41.6059057228267192840576171875" lon="-0.7919844053685665130615234375">
        <ele>387.20001220703125</ele>
        <time>2021-04-01T09:49:13.000Z</time>
      </trkpt>
      <trkpt lat="41.60591519437730312347412109375" lon="-0.79228506423532962799072265625">
        <ele>387.600006103515625</ele>
        <time>2021-04-01T09:49:18.000Z</time>
      </trkpt>
      <trkpt lat="41.60592927597463130950927734375" lon="-0.7924117147922515869140625">
        <ele>387.600006103515625</ele>
        <time>2021-04-01T09:49:20.000Z</time>
      </trkpt>
      <trkpt lat="41.60594184882938861846923828125" lon="-0.7924729026854038238525390625">
        <ele>387.600006103515625</ele>
        <time>2021-04-01T09:49:21.000Z</time>
      </trkpt>
      <trkpt lat="41.60598761402070522308349609375" lon="-0.79264146275818347930908203125">
        <ele>387.600006103515625</ele>
        <time>2021-04-01T09:49:24.000Z</time>
      </trkpt>
      <trkpt lat="41.6060361452400684356689453125" lon="-0.79279736615717411041259765625">
        <ele>387.600006103515625</ele>
        <time>2021-04-01T09:49:27.000Z</time>
      </trkpt>
      <trkpt lat="41.60607243888080120086669921875" lon="-0.79290364868938922882080078125">
        <ele>387.600006103515625</ele>
        <time>2021-04-01T09:49:29.000Z</time>
      </trkpt>
      <trkpt lat="41.606163047254085540771484375" lon="-0.793169774115085601806640625">
        <ele>387</ele>
        <time>2021-04-01T09:49:34.000Z</time>
      </trkpt>
      <trkpt lat="41.6061808168888092041015625" lon="-0.7932209037244319915771484375">
        <ele>387</ele>
        <time>2021-04-01T09:49:35.000Z</time>
      </trkpt>
      <trkpt lat="41.60619347356259822845458984375" lon="-0.79327337443828582763671875">
        <ele>387</ele>
        <time>2021-04-01T09:49:36.000Z</time>
      </trkpt>
      <trkpt lat="41.60619347356259822845458984375" lon="-0.79327337443828582763671875">
        <ele>387</ele>
        <time>2021-04-01T09:49:37.000Z</time>
      </trkpt>
      <trkpt lat="41.6061942279338836669921875" lon="-0.79337806440889835357666015625">
        <ele>387</ele>
        <time>2021-04-01T09:49:38.000Z</time>
      </trkpt>
      <trkpt lat="41.60616539418697357177734375" lon="-0.7934663258492946624755859375">
        <ele>387</ele>
        <time>2021-04-01T09:49:40.000Z</time>
      </trkpt>
      <trkpt lat="41.6061115823686122894287109375" lon="-0.79354771412909030914306640625">
        <ele>387.20001220703125</ele>
        <time>2021-04-01T09:49:42.000Z</time>
      </trkpt>
      <trkpt lat="41.6060351394116878509521484375" lon="-0.7936088182032108306884765625">
        <ele>387.20001220703125</ele>
        <time>2021-04-01T09:49:44.000Z</time>
      </trkpt>
      <trkpt lat="41.6059905476868152618408203125" lon="-0.7936235703527927398681640625">
        <ele>387.20001220703125</ele>
        <time>2021-04-01T09:49:45.000Z</time>
      </trkpt>
      <trkpt lat="41.60580740310251712799072265625" lon="-0.7936607860028743743896484375">
        <ele>387</ele>
        <time>2021-04-01T09:49:49.000Z</time>
      </trkpt>
      <trkpt lat="41.605716459453105926513671875" lon="-0.7936731912195682525634765625">
        <ele>386.600006103515625</ele>
        <time>2021-04-01T09:49:51.000Z</time>
      </trkpt>
      <trkpt lat="41.60536332987248897552490234375" lon="-0.79371459782123565673828125">
        <ele>386</ele>
        <time>2021-04-01T09:49:59.000Z</time>
      </trkpt>
      <trkpt lat="41.60523072816431522369384765625" lon="-0.793732367455959320068359375">
        <ele>386.20001220703125</ele>
        <time>2021-04-01T09:50:02.000Z</time>
      </trkpt>
      <trkpt lat="41.60495965741574764251708984375" lon="-0.79377536661922931671142578125">
        <ele>385.399993896484375</ele>
        <time>2021-04-01T09:50:08.000Z</time>
      </trkpt>
      <trkpt lat="41.60491791553795337677001953125" lon="-0.79378441907465457916259765625">
        <ele>385.399993896484375</ele>
        <time>2021-04-01T09:50:09.000Z</time>
      </trkpt>
      <trkpt lat="41.60473703406751155853271484375" lon="-0.79385809600353240966796875">
        <ele>386</ele>
        <time>2021-04-01T09:50:14.000Z</time>
      </trkpt>
      <trkpt lat="41.6046913526952266693115234375" lon="-0.7940248958766460418701171875">
        <ele>386.20001220703125</ele>
        <time>2021-04-01T09:50:18.000Z</time>
      </trkpt>
      <trkpt lat="41.6047007404267787933349609375" lon="-0.79412606544792652130126953125">
        <ele>386.600006103515625</ele>
        <time>2021-04-01T09:50:20.000Z</time>
      </trkpt>
      <trkpt lat="41.60472362302243709564208984375" lon="-0.7942196913063526153564453125">
        <ele>386.600006103515625</ele>
        <time>2021-04-01T09:50:22.000Z</time>
      </trkpt>
      <trkpt lat="41.60475849173963069915771484375" lon="-0.794357322156429290771484375">
        <ele>386.399993896484375</ele>
        <time>2021-04-01T09:50:25.000Z</time>
      </trkpt>
      <trkpt lat="41.60477894358336925506591796875" lon="-0.7944771833717823028564453125">
        <ele>386.20001220703125</ele>
        <time>2021-04-01T09:50:28.000Z</time>
      </trkpt>
      <trkpt lat="41.60483635962009429931640625" lon="-0.794703997671604156494140625">
        <ele>386.600006103515625</ele>
        <time>2021-04-01T09:50:32.000Z</time>
      </trkpt>
      <trkpt lat="41.60488086752593517303466796875" lon="-0.7948550395667552947998046875">
        <ele>386.399993896484375</ele>
        <time>2021-04-01T09:50:35.000Z</time>
      </trkpt>
      <trkpt lat="41.60497491247951984405517578125" lon="-0.79504187218844890594482421875">
        <ele>386.20001220703125</ele>
        <time>2021-04-01T09:50:39.000Z</time>
      </trkpt>
      <trkpt lat="41.60504825413227081298828125" lon="-0.79516575671732425689697265625">
        <ele>386.20001220703125</ele>
        <time>2021-04-01T09:50:42.000Z</time>
      </trkpt>
      <trkpt lat="41.6051087714731693267822265625" lon="-0.79525108449161052703857421875">
        <ele>386.399993896484375</ele>
        <time>2021-04-01T09:50:44.000Z</time>
      </trkpt>
      <trkpt lat="41.60520382225513458251953125" lon="-0.79536122269928455352783203125">
        <ele>386.79998779296875</ele>
        <time>2021-04-01T09:50:48.000Z</time>
      </trkpt>
      <trkpt lat="41.605371125042438507080078125" lon="-0.79557227902114391326904296875">
        <ele>387.20001220703125</ele>
        <time>2021-04-01T09:50:53.000Z</time>
      </trkpt>
      <trkpt lat="41.60550682805478572845458984375" lon="-0.7956989295780658721923828125">
        <ele>387.20001220703125</ele>
        <time>2021-04-01T09:50:58.000Z</time>
      </trkpt>
      <trkpt lat="41.6055831871926784515380859375" lon="-0.79574947245419025421142578125">
        <ele>387.20001220703125</ele>
        <time>2021-04-01T09:51:00.000Z</time>
      </trkpt>
      <trkpt lat="41.6058011166751384735107421875" lon="-0.79586983658373355865478515625">
        <ele>386.79998779296875</ele>
        <time>2021-04-01T09:51:05.000Z</time>
      </trkpt>
      <trkpt lat="41.606069505214691162109375" lon="-0.79608793370425701141357421875">
        <ele>387.20001220703125</ele>
        <time>2021-04-01T09:51:12.000Z</time>
      </trkpt>
      <trkpt lat="41.606106720864772796630859375" lon="-0.7961368001997470855712890625">
        <ele>387</ele>
        <time>2021-04-01T09:51:13.000Z</time>
      </trkpt>
      <trkpt lat="41.60639313049614429473876953125" lon="-0.79648003913462162017822265625">
        <ele>387.20001220703125</ele>
        <time>2021-04-01T09:51:21.000Z</time>
      </trkpt>
      <trkpt lat="41.6065883450210094451904296875" lon="-0.79675060696899890899658203125">
        <ele>387.20001220703125</ele>
        <time>2021-04-01T09:51:27.000Z</time>
      </trkpt>
      <trkpt lat="41.60667560063302516937255859375" lon="-0.79687424004077911376953125">
        <ele>387.20001220703125</ele>
        <time>2021-04-01T09:51:30.000Z</time>
      </trkpt>
      <trkpt lat="41.60673662088811397552490234375" lon="-0.796952359378337860107421875">
        <ele>387.600006103515625</ele>
        <time>2021-04-01T09:51:32.000Z</time>
      </trkpt>
      <trkpt lat="41.6068341024219989776611328125" lon="-0.79706593416631221771240234375">
        <ele>388</ele>
        <time>2021-04-01T09:51:35.000Z</time>
      </trkpt>
      <trkpt lat="41.60686888732016086578369140625" lon="-0.79710817895829677581787109375">
        <ele>388</ele>
        <time>2021-04-01T09:51:36.000Z</time>
      </trkpt>
      <trkpt lat="41.60689906217157840728759765625" lon="-0.7971479929983615875244140625">
        <ele>388</ele>
        <time>2021-04-01T09:51:37.000Z</time>
      </trkpt>
      <trkpt lat="41.606972403824329376220703125" lon="-0.79728721641004085540771484375">
        <ele>387.79998779296875</ele>
        <time>2021-04-01T09:51:40.000Z</time>
      </trkpt>
      <trkpt lat="41.6070188395678997039794921875" lon="-0.7974467240273952484130859375">
        <ele>387.20001220703125</ele>
        <time>2021-04-01T09:51:43.000Z</time>
      </trkpt>
      <trkpt lat="41.60706619732081890106201171875" lon="-0.79759977757930755615234375">
        <ele>387.20001220703125</ele>
        <time>2021-04-01T09:51:46.000Z</time>
      </trkpt>
      <trkpt lat="41.6071060113608837127685546875" lon="-0.79780320636928081512451171875">
        <ele>387.79998779296875</ele>
        <time>2021-04-01T09:51:50.000Z</time>
      </trkpt>
      <trkpt lat="41.6071214340627193450927734375" lon="-0.79792306758463382720947265625">
        <ele>387.600006103515625</ele>
        <time>2021-04-01T09:51:52.000Z</time>
      </trkpt>
      <trkpt lat="41.6071236133575439453125" lon="-0.79807855188846588134765625">
        <ele>387</ele>
        <time>2021-04-01T09:51:55.000Z</time>
      </trkpt>
      <trkpt lat="41.60709570161998271942138671875" lon="-0.7982393167912960052490234375">
        <ele>386.79998779296875</ele>
        <time>2021-04-01T09:51:58.000Z</time>
      </trkpt>
      <trkpt lat="41.607088409364223480224609375" lon="-0.79830645583570003509521484375">
        <ele>386.600006103515625</ele>
        <time>2021-04-01T09:51:59.000Z</time>
      </trkpt>
      <trkpt lat="41.60710056312382221221923828125" lon="-0.79844123683869838714599609375">
        <ele>386.79998779296875</ele>
        <time>2021-04-01T09:52:01.000Z</time>
      </trkpt>
      <trkpt lat="41.60715152509510517120361328125" lon="-0.79855070449411869049072265625">
        <ele>386.600006103515625</ele>
        <time>2021-04-01T09:52:03.000Z</time>
      </trkpt>
      <trkpt lat="41.6071884892880916595458984375" lon="-0.79859554767608642578125">
        <ele>386.600006103515625</ele>
        <time>2021-04-01T09:52:04.000Z</time>
      </trkpt>
      <trkpt lat="41.60722562111914157867431640625" lon="-0.798646844923496246337890625">
        <ele>386.399993896484375</ele>
        <time>2021-04-01T09:52:05.000Z</time>
      </trkpt>
      <trkpt lat="41.60748529247939586639404296875" lon="-0.79891900531947612762451171875">
        <ele>387.79998779296875</ele>
        <time>2021-04-01T09:52:12.000Z</time>
      </trkpt>
      <trkpt lat="41.60751999355852603912353515625" lon="-0.798952616751194000244140625">
        <ele>388</ele>
        <time>2021-04-01T09:52:13.000Z</time>
      </trkpt>
      <trkpt lat="41.6078518331050872802734375" lon="-0.79930256120860576629638671875">
        <ele>388</ele>
        <time>2021-04-01T09:52:23.000Z</time>
      </trkpt>
      <trkpt lat="41.6078855283558368682861328125" lon="-0.79933742992579936981201171875">
        <ele>388</ele>
        <time>2021-04-01T09:52:24.000Z</time>
      </trkpt>
      <trkpt lat="41.60791913978755474090576171875" lon="-0.79937405884265899658203125">
        <ele>387.79998779296875</ele>
        <time>2021-04-01T09:52:25.000Z</time>
      </trkpt>
      <trkpt lat="41.6079877875745296478271484375" lon="-0.79945184290409088134765625">
        <ele>387.399993896484375</ele>
        <time>2021-04-01T09:52:27.000Z</time>
      </trkpt>
      <trkpt lat="41.6081825830042362213134765625" lon="-0.79969868995249271392822265625">
        <ele>388.399993896484375</ele>
        <time>2021-04-01T09:52:33.000Z</time>
      </trkpt>
      <trkpt lat="41.608464382588863372802734375" lon="-0.8000774681568145751953125">
        <ele>388.79998779296875</ele>
        <time>2021-04-01T09:52:42.000Z</time>
      </trkpt>
      <trkpt lat="41.608464382588863372802734375" lon="-0.8000774681568145751953125">
        <ele>389</ele>
        <time>2021-04-01T09:52:43.000Z</time>
      </trkpt>
      <trkpt lat="41.608526743948459625244140625" lon="-0.800153911113739013671875">
        <ele>389.20001220703125</ele>
        <time>2021-04-01T09:52:44.000Z</time>
      </trkpt>
      <trkpt lat="41.6085572540760040283203125" lon="-0.80019188113510608673095703125">
        <ele>389.20001220703125</ele>
        <time>2021-04-01T09:52:45.000Z</time>
      </trkpt>
      <trkpt lat="41.6086184419691562652587890625" lon="-0.800277292728424072265625">
        <ele>389.20001220703125</ele>
        <time>2021-04-01T09:52:47.000Z</time>
      </trkpt>
      <trkpt lat="41.60871508531272411346435546875" lon="-0.80040042288601398468017578125">
        <ele>389</ele>
        <time>2021-04-01T09:52:50.000Z</time>
      </trkpt>
      <trkpt lat="41.609014235436916351318359375" lon="-0.8006938733160495758056640625">
        <ele>389.600006103515625</ele>
        <time>2021-04-01T09:52:58.000Z</time>
      </trkpt>
      <trkpt lat="41.60905438475310802459716796875" lon="-0.80072312615811824798583984375">
        <ele>389.399993896484375</ele>
        <time>2021-04-01T09:52:59.000Z</time>
      </trkpt>
      <trkpt lat="41.60931170918047428131103515625" lon="-0.8008558116853237152099609375">
        <ele>388.600006103515625</ele>
        <time>2021-04-01T09:53:05.000Z</time>
      </trkpt>
      <trkpt lat="41.60940156318247318267822265625" lon="-0.80088959075510501861572265625">
        <ele>388.399993896484375</ele>
        <time>2021-04-01T09:53:07.000Z</time>
      </trkpt>
      <trkpt lat="41.6094941832125186920166015625" lon="-0.80091523937880992889404296875">
        <ele>388.20001220703125</ele>
        <time>2021-04-01T09:53:09.000Z</time>
      </trkpt>
      <trkpt lat="41.60958948545157909393310546875" lon="-0.8009292371571063995361328125">
        <ele>388.399993896484375</ele>
        <time>2021-04-01T09:53:11.000Z</time>
      </trkpt>
      <trkpt lat="41.60963726229965686798095703125" lon="-0.800932087004184722900390625">
        <ele>388.79998779296875</ele>
        <time>2021-04-01T09:53:12.000Z</time>
      </trkpt>
      <trkpt lat="41.60973164252936840057373046875" lon="-0.80093535594642162322998046875">
        <ele>389</ele>
        <time>2021-04-01T09:53:14.000Z</time>
      </trkpt>
      <trkpt lat="41.60996667109429836273193359375" lon="-0.800928734242916107177734375">
        <ele>389.20001220703125</ele>
        <time>2021-04-01T09:53:19.000Z</time>
      </trkpt>
      <trkpt lat="41.61005920730531215667724609375" lon="-0.80090333707630634307861328125">
        <ele>389.399993896484375</ele>
        <time>2021-04-01T09:53:21.000Z</time>
      </trkpt>
      <trkpt lat="41.6101934015750885009765625" lon="-0.80085061490535736083984375">
        <ele>390.600006103515625</ele>
        <time>2021-04-01T09:53:24.000Z</time>
      </trkpt>
      <trkpt lat="41.61041057668626308441162109375" lon="-0.800797641277313232421875">
        <ele>390.600006103515625</ele>
        <time>2021-04-01T09:53:29.000Z</time>
      </trkpt>
      <trkpt lat="41.61049204878509044647216796875" lon="-0.8007964678108692169189453125">
        <ele>390.399993896484375</ele>
        <time>2021-04-01T09:53:31.000Z</time>
      </trkpt>
      <trkpt lat="41.61053211428225040435791015625" lon="-0.8008018322288990020751953125">
        <ele>390</ele>
        <time>2021-04-01T09:53:32.000Z</time>
      </trkpt>
      <trkpt lat="41.610651724040508270263671875" lon="-0.80082857050001621246337890625">
        <ele>389.399993896484375</ele>
        <time>2021-04-01T09:53:35.000Z</time>
      </trkpt>
      <trkpt lat="41.61069405265152454376220703125" lon="-0.8008365333080291748046875">
        <ele>389.600006103515625</ele>
        <time>2021-04-01T09:53:36.000Z</time>
      </trkpt>
      <trkpt lat="41.61069405265152454376220703125" lon="-0.8008365333080291748046875">
        <ele>389.399993896484375</ele>
        <time>2021-04-01T09:53:37.000Z</time>
      </trkpt>
      <trkpt lat="41.61076965741813182830810546875" lon="-0.80084952525794506072998046875">
        <ele>389.20001220703125</ele>
        <time>2021-04-01T09:53:39.000Z</time>
      </trkpt>
      <trkpt lat="41.6108265705406665802001953125" lon="-0.80083058215677738189697265625">
        <ele>389</ele>
        <time>2021-04-01T09:53:41.000Z</time>
      </trkpt>
      <trkpt lat="41.61095808260142803192138671875" lon="-0.80069429241120815277099609375">
        <ele>389.20001220703125</ele>
        <time>2021-04-01T09:53:45.000Z</time>
      </trkpt>
      <trkpt lat="41.61127366125583648681640625" lon="-0.800447277724742889404296875">
        <ele>390.600006103515625</ele>
        <time>2021-04-01T09:53:52.000Z</time>
      </trkpt>
      <trkpt lat="41.61127366125583648681640625" lon="-0.800447277724742889404296875">
        <ele>390.79998779296875</ele>
        <time>2021-04-01T09:53:53.000Z</time>
      </trkpt>
      <trkpt lat="41.611651517450809478759765625" lon="-0.80026723444461822509765625">
        <ele>390.20001220703125</ele>
        <time>2021-04-01T09:54:01.000Z</time>
      </trkpt>
      <trkpt lat="41.6118122823536396026611328125" lon="-0.80021132715046405792236328125">
        <ele>390</ele>
        <time>2021-04-01T09:54:05.000Z</time>
      </trkpt>
      <trkpt lat="41.61191412247717380523681640625" lon="-0.80017494969069957733154296875">
        <ele>389.79998779296875</ele>
        <time>2021-04-01T09:54:08.000Z</time>
      </trkpt>
      <trkpt lat="41.6120315529406070709228515625" lon="-0.80010923556983470916748046875">
        <ele>389.79998779296875</ele>
        <time>2021-04-01T09:54:11.000Z</time>
      </trkpt>
      <trkpt lat="41.61211210303008556365966796875" lon="-0.8000434376299381256103515625">
        <ele>389.600006103515625</ele>
        <time>2021-04-01T09:54:13.000Z</time>
      </trkpt>
      <trkpt lat="41.61223431117832660675048828125" lon="-0.79996037296950817108154296875">
        <ele>389.600006103515625</ele>
        <time>2021-04-01T09:54:16.000Z</time>
      </trkpt>
      <trkpt lat="41.6123269312083721160888671875" lon="-0.79992449842393398284912109375">
        <ele>389.600006103515625</ele>
        <time>2021-04-01T09:54:19.000Z</time>
      </trkpt>
      <trkpt lat="41.61254645325243473052978515625" lon="-0.7998302020132541656494140625">
        <ele>389.600006103515625</ele>
        <time>2021-04-01T09:54:24.000Z</time>
      </trkpt>
      <trkpt lat="41.61254645325243473052978515625" lon="-0.7998302020132541656494140625">
        <ele>389.399993896484375</ele>
        <time>2021-04-01T09:54:25.000Z</time>
      </trkpt>
      <trkpt lat="41.6125860996544361114501953125" lon="-0.79981955699622631072998046875">
        <ele>389.399993896484375</ele>
        <time>2021-04-01T09:54:26.000Z</time>
      </trkpt>
      <trkpt lat="41.6126234829425811767578125" lon="-0.79980748705565929412841796875">
        <ele>389.20001220703125</ele>
        <time>2021-04-01T09:54:27.000Z</time>
      </trkpt>
      <trkpt lat="41.612693555653095245361328125" lon="-0.79978602938354015350341796875">
        <ele>389</ele>
        <time>2021-04-01T09:54:29.000Z</time>
      </trkpt>
      <trkpt lat="41.6127922944724559783935546875" lon="-0.7997661642730236053466796875">
        <ele>389</ele>
        <time>2021-04-01T09:54:32.000Z</time>
      </trkpt>
      <trkpt lat="41.613014079630374908447265625" lon="-0.79972945153713226318359375">
        <ele>389.20001220703125</ele>
        <time>2021-04-01T09:54:39.000Z</time>
      </trkpt>
      <trkpt lat="41.6132613457739353179931640625" lon="-0.7996856980025768280029296875">
        <ele>389.399993896484375</ele>
        <time>2021-04-01T09:54:44.000Z</time>
      </trkpt>
      <trkpt lat="41.61331205628812313079833984375" lon="-0.7996843568980693817138671875">
        <ele>389.399993896484375</ele>
        <time>2021-04-01T09:54:45.000Z</time>
      </trkpt>
      <trkpt lat="41.6133552230894565582275390625" lon="-0.79967907629907131195068359375">
        <ele>389.20001220703125</ele>
        <time>2021-04-01T09:54:46.000Z</time>
      </trkpt>
      <trkpt lat="41.61344432272017002105712890625" lon="-0.79967983067035675048828125">
        <ele>389.399993896484375</ele>
        <time>2021-04-01T09:54:48.000Z</time>
      </trkpt>
      <trkpt lat="41.6136700473725795745849609375" lon="-0.79969801940023899078369140625">
        <ele>389.79998779296875</ele>
        <time>2021-04-01T09:54:53.000Z</time>
      </trkpt>
      <trkpt lat="41.61403139121830463409423828125" lon="-0.7997068203985691070556640625">
        <ele>390.20001220703125</ele>
        <time>2021-04-01T09:55:03.000Z</time>
      </trkpt>
      <trkpt lat="41.6141142882406711578369140625" lon="-0.79970531165599822998046875">
        <ele>390.79998779296875</ele>
        <time>2021-04-01T09:55:05.000Z</time>
      </trkpt>
      <trkpt lat="41.6143627278506755828857421875" lon="-0.79972836188971996307373046875">
        <ele>390</ele>
        <time>2021-04-01T09:55:11.000Z</time>
      </trkpt>
      <trkpt lat="41.61445140838623046875" lon="-0.7997421920299530029296875">
        <ele>389.79998779296875</ele>
        <time>2021-04-01T09:55:13.000Z</time>
      </trkpt>
      <trkpt lat="41.6146324574947357177734375" lon="-0.799778066575527191162109375">
        <ele>389.20001220703125</ele>
        <time>2021-04-01T09:55:17.000Z</time>
      </trkpt>
      <trkpt lat="41.61472524516284465789794921875" lon="-0.79980279318988323211669921875">
        <ele>389.20001220703125</ele>
        <time>2021-04-01T09:55:19.000Z</time>
      </trkpt>
      <trkpt lat="41.6150121577084064483642578125" lon="-0.79985325224697589874267578125">
        <ele>390.20001220703125</ele>
        <time>2021-04-01T09:55:26.000Z</time>
      </trkpt>
      <trkpt lat="41.61537165753543376922607421875" lon="-0.7998199760913848876953125">
        <ele>390.600006103515625</ele>
        <time>2021-04-01T09:55:35.000Z</time>
      </trkpt>
      <trkpt lat="41.61548950709402561187744140625" lon="-0.79981528222560882568359375">
        <ele>390.79998779296875</ele>
        <time>2021-04-01T09:55:38.000Z</time>
      </trkpt>
      <trkpt lat="41.6157705523073673248291015625" lon="-0.7998030446469783782958984375">
        <ele>391.20001220703125</ele>
        <time>2021-04-01T09:55:45.000Z</time>
      </trkpt>
      <trkpt lat="41.6161205805838108062744140625" lon="-0.799755938351154327392578125">
        <ele>391</ele>
        <time>2021-04-01T09:55:53.000Z</time>
      </trkpt>
      <trkpt lat="41.61647572182118892669677734375" lon="-0.799697935581207275390625">
        <ele>391.20001220703125</ele>
        <time>2021-04-01T09:56:02.000Z</time>
      </trkpt>
      <trkpt lat="41.61669029854238033294677734375" lon="-0.7996565289795398712158203125">
        <ele>391.399993896484375</ele>
        <time>2021-04-01T09:56:08.000Z</time>
      </trkpt>
      <trkpt lat="41.6167284362018108367919921875" lon="-0.79964739270508289337158203125">
        <ele>391.399993896484375</ele>
        <time>2021-04-01T09:56:09.000Z</time>
      </trkpt>
      <trkpt lat="41.61701115779578685760498046875" lon="-0.79963699914515018463134765625">
        <ele>390.399993896484375</ele>
        <time>2021-04-01T09:56:17.000Z</time>
      </trkpt>
      <trkpt lat="41.6170881874859333038330078125" lon="-0.7996417768299579620361328125">
        <ele>390.399993896484375</ele>
        <time>2021-04-01T09:56:18.000Z</time>
      </trkpt>
      <trkpt lat="41.617340147495269775390625" lon="-0.799656696617603302001953125">
        <ele>390.399993896484375</ele>
        <time>2021-04-01T09:56:24.000Z</time>
      </trkpt>
      <trkpt lat="41.617471240460872650146484375" lon="-0.799658708274364471435546875">
        <ele>390.399993896484375</ele>
        <time>2021-04-01T09:56:27.000Z</time>
      </trkpt>
      <trkpt lat="41.61778799258172512054443359375" lon="-0.7996937446296215057373046875">
        <ele>390.600006103515625</ele>
        <time>2021-04-01T09:56:34.000Z</time>
      </trkpt>
      <trkpt lat="41.6180174052715301513671875" lon="-0.79975116066634654998779296875">
        <ele>390</ele>
        <time>2021-04-01T09:56:39.000Z</time>
      </trkpt>
      <trkpt lat="41.618061996996402740478515625" lon="-0.79976825974881649017333984375">
        <ele>389.600006103515625</ele>
        <time>2021-04-01T09:56:41.000Z</time>
      </trkpt>
      <trkpt lat="41.61810516379773616790771484375" lon="-0.7997877895832061767578125">
        <ele>389.20001220703125</ele>
        <time>2021-04-01T09:56:42.000Z</time>
      </trkpt>
      <trkpt lat="41.618224941194057464599609375" lon="-0.7998650707304477691650390625">
        <ele>388.600006103515625</ele>
        <time>2021-04-01T09:56:45.000Z</time>
      </trkpt>
      <trkpt lat="41.61826643161475658416748046875" lon="-0.79989516176283359527587890625">
        <ele>388.399993896484375</ele>
        <time>2021-04-01T09:56:46.000Z</time>
      </trkpt>
      <trkpt lat="41.618343628942966461181640625" lon="-0.79996221698820590972900390625">
        <ele>388.399993896484375</ele>
        <time>2021-04-01T09:56:47.000Z</time>
      </trkpt>
      <trkpt lat="41.61837975494563579559326171875" lon="-0.7999995164573192596435546875">
        <ele>388.399993896484375</ele>
        <time>2021-04-01T09:56:48.000Z</time>
      </trkpt>
      <trkpt lat="41.61837975494563579559326171875" lon="-0.7999995164573192596435546875">
        <ele>388.399993896484375</ele>
        <time>2021-04-01T09:56:49.000Z</time>
      </trkpt>
      <trkpt lat="41.6185359098017215728759765625" lon="-0.80018115229904651641845703125">
        <ele>388.399993896484375</ele>
        <time>2021-04-01T09:56:54.000Z</time>
      </trkpt>
      <trkpt lat="41.6185952536761760711669921875" lon="-0.8002586849033832550048828125">
        <ele>388.79998779296875</ele>
        <time>2021-04-01T09:56:56.000Z</time>
      </trkpt>
      <trkpt lat="41.61865183152258396148681640625" lon="-0.80034761689603328704833984375">
        <ele>388.79998779296875</ele>
        <time>2021-04-01T09:56:57.000Z</time>
      </trkpt>
      <trkpt lat="41.618853248655796051025390625" lon="-0.80061634071171283721923828125">
        <ele>388.399993896484375</ele>
        <time>2021-04-01T09:57:05.000Z</time>
      </trkpt>
      <trkpt lat="41.61891527473926544189453125" lon="-0.8006707392632961273193359375">
        <ele>388.399993896484375</ele>
        <time>2021-04-01T09:57:07.000Z</time>
      </trkpt>
      <trkpt lat="41.61905701272189617156982421875" lon="-0.80085589550435543060302734375">
        <ele>388.79998779296875</ele>
        <time>2021-04-01T09:57:12.000Z</time>
      </trkpt>
      <trkpt lat="41.619167737662792205810546875" lon="-0.80107315443456172943115234375">
        <ele>389</ele>
        <time>2021-04-01T09:57:18.000Z</time>
      </trkpt>
      <trkpt lat="41.619338057935237884521484375" lon="-0.80136685632169246673583984375">
        <ele>388.399993896484375</ele>
        <time>2021-04-01T09:57:25.000Z</time>
      </trkpt>
      <trkpt lat="41.61950762383639812469482421875" lon="-0.80169693566858768463134765625">
        <ele>389.600006103515625</ele>
        <time>2021-04-01T09:57:32.000Z</time>
      </trkpt>
      <trkpt lat="41.619536541402339935302734375" lon="-0.8017483167350292205810546875">
        <ele>389.600006103515625</ele>
        <time>2021-04-01T09:57:33.000Z</time>
      </trkpt>
      <trkpt lat="41.6197331808507442474365234375" lon="-0.8021348901093006134033203125">
        <ele>389.600006103515625</ele>
        <time>2021-04-01T09:57:41.000Z</time>
      </trkpt>
      <trkpt lat="41.61977467127144336700439453125" lon="-0.8022384904325008392333984375">
        <ele>389</ele>
        <time>2021-04-01T09:57:43.000Z</time>
      </trkpt>
      <trkpt lat="41.61985178478062152862548828125" lon="-0.80244787037372589111328125">
        <ele>388.79998779296875</ele>
        <time>2021-04-01T09:57:46.000Z</time>
      </trkpt>
      <trkpt lat="41.619869135320186614990234375" lon="-0.802500508725643157958984375">
        <ele>388.600006103515625</ele>
        <time>2021-04-01T09:57:48.000Z</time>
      </trkpt>
      <trkpt lat="41.61990257911384105682373046875" lon="-0.802605450153350830078125">
        <ele>389</ele>
        <time>2021-04-01T09:57:50.000Z</time>
      </trkpt>
      <trkpt lat="41.61991951055824756622314453125" lon="-0.80265699885785579681396484375">
        <ele>389.20001220703125</ele>
        <time>2021-04-01T09:57:51.000Z</time>
      </trkpt>
      <trkpt lat="41.6199675388634204864501953125" lon="-0.802814997732639312744140625">
        <ele>389.600006103515625</ele>
        <time>2021-04-01T09:57:54.000Z</time>
      </trkpt>
      <trkpt lat="41.62006149999797344207763671875" lon="-0.80313376151025295257568359375">
        <ele>388.600006103515625</ele>
        <time>2021-04-01T09:58:00.000Z</time>
      </trkpt>
      <trkpt lat="41.62021346390247344970703125" lon="-0.80373876728117465972900390625">
        <ele>390</ele>
        <time>2021-04-01T09:58:10.000Z</time>
      </trkpt>
      <trkpt lat="41.620239950716495513916015625" lon="-0.80385074950754642486572265625">
        <ele>390</ele>
        <time>2021-04-01T09:58:13.000Z</time>
      </trkpt>
      <trkpt lat="41.6202840395271778106689453125" lon="-0.8040704391896724700927734375">
        <ele>389.20001220703125</ele>
        <time>2021-04-01T09:58:16.000Z</time>
      </trkpt>
      <trkpt lat="41.62030331790447235107421875" lon="-0.8041820861399173736572265625">
        <ele>388.79998779296875</ele>
        <time>2021-04-01T09:58:19.000Z</time>
      </trkpt>
      <trkpt lat="41.620311029255390167236328125" lon="-0.80423966981470584869384765625">
        <ele>388.79998779296875</ele>
        <time>2021-04-01T09:58:20.000Z</time>
      </trkpt>
      <trkpt lat="41.62037439644336700439453125" lon="-0.8046823181211948394775390625">
        <ele>389.20001220703125</ele>
        <time>2021-04-01T09:58:28.000Z</time>
      </trkpt>
      <trkpt lat="41.62038923241198062896728515625" lon="-0.805062353610992431640625">
        <ele>388.79998779296875</ele>
        <time>2021-04-01T09:58:34.000Z</time>
      </trkpt>
      <trkpt lat="41.62041454575955867767333984375" lon="-0.80547616817057132720947265625">
        <ele>389</ele>
        <time>2021-04-01T09:58:42.000Z</time>
      </trkpt>
      <trkpt lat="41.6204258613288402557373046875" lon="-0.8056633360683917999267578125">
        <ele>389</ele>
        <time>2021-04-01T09:58:45.000Z</time>
      </trkpt>
      <trkpt lat="41.6204349137842655181884765625" lon="-0.8058963529765605926513671875">
        <ele>388.79998779296875</ele>
        <time>2021-04-01T09:58:49.000Z</time>
      </trkpt>
      <trkpt lat="41.6204453073441982269287109375" lon="-0.80623523332178592681884765625">
        <ele>389.399993896484375</ele>
        <time>2021-04-01T09:58:54.000Z</time>
      </trkpt>
      <trkpt lat="41.62042695097625255584716796875" lon="-0.8067687414586544036865234375">
        <ele>389.20001220703125</ele>
        <time>2021-04-01T09:59:04.000Z</time>
      </trkpt>
      <trkpt lat="41.620330810546875" lon="-0.80739646218717098236083984375">
        <ele>389</ele>
        <time>2021-04-01T09:59:15.000Z</time>
      </trkpt>
      <trkpt lat="41.62018890492618083953857421875" lon="-0.80794882960617542266845703125">
        <ele>389.600006103515625</ele>
        <time>2021-04-01T09:59:26.000Z</time>
      </trkpt>
      <trkpt lat="41.620091758668422698974609375" lon="-0.8082748018205165863037109375">
        <ele>389</ele>
        <time>2021-04-01T09:59:32.000Z</time>
      </trkpt>
      <trkpt lat="41.62003836594521999359130859375" lon="-0.8084360696375370025634765625">
        <ele>389</ele>
        <time>2021-04-01T09:59:34.000Z</time>
      </trkpt>
      <trkpt lat="41.61994566209614276885986328125" lon="-0.8086908794939517974853515625">
        <ele>389</ele>
        <time>2021-04-01T09:59:39.000Z</time>
      </trkpt>
      <trkpt lat="41.61993007175624370574951171875" lon="-0.8087425120174884796142578125">
        <ele>388.79998779296875</ele>
        <time>2021-04-01T09:59:41.000Z</time>
      </trkpt>
      <trkpt lat="41.619931496679782867431640625" lon="-0.80885457806289196014404296875">
        <ele>389</ele>
        <time>2021-04-01T09:59:43.000Z</time>
      </trkpt>
      <trkpt lat="41.61994264461100101470947265625" lon="-0.8089108206331729888916015625">
        <ele>388.79998779296875</ele>
        <time>2021-04-01T09:59:44.000Z</time>
      </trkpt>
      <trkpt lat="41.6199594922363758087158203125" lon="-0.80896421335637569427490234375">
        <ele>389.20001220703125</ele>
        <time>2021-04-01T09:59:45.000Z</time>
      </trkpt>
      <trkpt lat="41.62008312530815601348876953125" lon="-0.80912414006888866424560546875">
        <ele>389.600006103515625</ele>
        <time>2021-04-01T09:59:48.000Z</time>
      </trkpt>
      <trkpt lat="41.62015621550381183624267578125" lon="-0.80919102765619754791259765625">
        <ele>389.20001220703125</ele>
        <time>2021-04-01T09:59:50.000Z</time>
      </trkpt>
      <trkpt lat="41.62037950940430164337158203125" lon="-0.80935589969158172607421875">
        <ele>389.20001220703125</ele>
        <time>2021-04-01T09:59:56.000Z</time>
      </trkpt>
      <trkpt lat="41.6204852052032947540283203125" lon="-0.80943795852363109588623046875">
        <ele>389.600006103515625</ele>
        <time>2021-04-01T09:59:59.000Z</time>
      </trkpt>
      <trkpt lat="41.620667763054370880126953125" lon="-0.80955178476870059967041015625">
        <ele>389.79998779296875</ele>
        <time>2021-04-01T10:00:05.000Z</time>
      </trkpt>
      <trkpt lat="41.620734147727489471435546875" lon="-0.8096692152321338653564453125">
        <ele>389.600006103515625</ele>
        <time>2021-04-01T10:00:08.000Z</time>
      </trkpt>
      <trkpt lat="41.62073590792715549468994140625" lon="-0.80971992574632167816162109375">
        <ele>389.600006103515625</ele>
        <time>2021-04-01T10:00:09.000Z</time>
      </trkpt>
      <trkpt lat="41.62072551436722278594970703125" lon="-0.8097661100327968597412109375">
        <ele>389.399993896484375</ele>
        <time>2021-04-01T10:00:10.000Z</time>
      </trkpt>
      <trkpt lat="41.62066751159727573394775390625" lon="-0.8098254539072513580322265625">
        <ele>389</ele>
        <time>2021-04-01T10:00:12.000Z</time>
      </trkpt>
      <trkpt lat="41.62046332843601703643798828125" lon="-0.80990868620574474334716796875">
        <ele>390.20001220703125</ele>
        <time>2021-04-01T10:00:17.000Z</time>
      </trkpt>
      <trkpt lat="41.6204248555004596710205078125" lon="-0.8099129609763622283935546875">
        <ele>391</ele>
        <time>2021-04-01T10:00:19.000Z</time>
      </trkpt>
      <trkpt lat="41.620088405907154083251953125" lon="-0.8099424652755260467529296875">
        <ele>390.600006103515625</ele>
        <time>2021-04-01T10:00:27.000Z</time>
      </trkpt>
      <trkpt lat="41.6198364458978176116943359375" lon="-0.80993902869522571563720703125">
        <ele>390.399993896484375</ele>
        <time>2021-04-01T10:00:33.000Z</time>
      </trkpt>
      <trkpt lat="41.61959387362003326416015625" lon="-0.80990516580641269683837890625">
        <ele>391</ele>
        <time>2021-04-01T10:00:38.000Z</time>
      </trkpt>
      <trkpt lat="41.6193826496601104736328125" lon="-0.80984096042811870574951171875">
        <ele>389.79998779296875</ele>
        <time>2021-04-01T10:00:44.000Z</time>
      </trkpt>
      <trkpt lat="41.61928969435393810272216796875" lon="-0.809824950993061065673828125">
        <ele>389.600006103515625</ele>
        <time>2021-04-01T10:00:46.000Z</time>
      </trkpt>
      <trkpt lat="41.61901317536830902099609375" lon="-0.80982050858438014984130859375">
        <ele>389</ele>
        <time>2021-04-01T10:00:52.000Z</time>
      </trkpt>
      <trkpt lat="41.6189660690724849700927734375" lon="-0.8098217658698558807373046875">
        <ele>388.79998779296875</ele>
        <time>2021-04-01T10:00:53.000Z</time>
      </trkpt>
      <trkpt lat="41.618918292224407196044921875" lon="-0.809822939336299896240234375">
        <ele>388.600006103515625</ele>
        <time>2021-04-01T10:00:54.000Z</time>
      </trkpt>
      <trkpt lat="41.61854244768619537353515625" lon="-0.80984028987586498260498046875">
        <ele>388.20001220703125</ele>
        <time>2021-04-01T10:01:02.000Z</time>
      </trkpt>
      <trkpt lat="41.61854244768619537353515625" lon="-0.80984028987586498260498046875">
        <ele>388.20001220703125</ele>
        <time>2021-04-01T10:01:03.000Z</time>
      </trkpt>
      <trkpt lat="41.61842736415565013885498046875" lon="-0.80985051579773426055908203125">
        <ele>389</ele>
        <time>2021-04-01T10:01:06.000Z</time>
      </trkpt>
      <trkpt lat="41.6182479076087474822998046875" lon="-0.8098928444087505340576171875">
        <ele>389.399993896484375</ele>
        <time>2021-04-01T10:01:11.000Z</time>
      </trkpt>
      <trkpt lat="41.61807348020374774932861328125" lon="-0.80997884273529052734375">
        <ele>389.20001220703125</ele>
        <time>2021-04-01T10:01:15.000Z</time>
      </trkpt>
      <trkpt lat="41.618006341159343719482421875" lon="-0.81002687104046344757080078125">
        <ele>389.79998779296875</ele>
        <time>2021-04-01T10:01:18.000Z</time>
      </trkpt>
      <trkpt lat="41.61797423847019672393798828125" lon="-0.81005285494029521942138671875">
        <ele>389.79998779296875</ele>
        <time>2021-04-01T10:01:19.000Z</time>
      </trkpt>
      <trkpt lat="41.6178189218044281005859375" lon="-0.8101771585643291473388671875">
        <ele>389.20001220703125</ele>
        <time>2021-04-01T10:01:24.000Z</time>
      </trkpt>
      <trkpt lat="41.61775731481611728668212890625" lon="-0.81023390404880046844482421875">
        <ele>389.600006103515625</ele>
        <time>2021-04-01T10:01:26.000Z</time>
      </trkpt>
      <trkpt lat="41.617672741413116455078125" lon="-0.81034161150455474853515625">
        <ele>389.20001220703125</ele>
        <time>2021-04-01T10:01:29.000Z</time>
      </trkpt>
      <trkpt lat="41.61760945804417133331298828125" lon="-0.81040405668318271636962890625">
        <ele>389.20001220703125</ele>
        <time>2021-04-01T10:01:31.000Z</time>
      </trkpt>
      <trkpt lat="41.61734039895236492156982421875" lon="-0.81066858954727649688720703125">
        <ele>389.600006103515625</ele>
        <time>2021-04-01T10:01:40.000Z</time>
      </trkpt>
      <trkpt lat="41.61721634678542613983154296875" lon="-0.81079582683742046356201171875">
        <ele>390.600006103515625</ele>
        <time>2021-04-01T10:01:44.000Z</time>
      </trkpt>
      <trkpt lat="41.6170553304255008697509765625" lon="-0.81090579740703105926513671875">
        <ele>389.20001220703125</ele>
        <time>2021-04-01T10:01:48.000Z</time>
      </trkpt>
      <trkpt lat="41.6169141791760921478271484375" lon="-0.8112342841923236846923828125">
        <ele>389.79998779296875</ele>
        <time>2021-04-01T10:05:11.000Z</time>
      </trkpt>
      <trkpt lat="41.6169141791760921478271484375" lon="-0.8112342841923236846923828125">
        <ele>389.79998779296875</ele>
        <time>2021-04-01T10:05:12.000Z</time>
      </trkpt>
      <trkpt lat="41.61690403707325458526611328125" lon="-0.811274014413356781005859375">
        <ele>389.79998779296875</ele>
        <time>2021-04-01T10:05:13.000Z</time>
      </trkpt>
      <trkpt lat="41.6168477945029735565185546875" lon="-0.81144374795258045196533203125">
        <ele>390</ele>
        <time>2021-04-01T10:05:19.000Z</time>
      </trkpt>
      <trkpt lat="41.616771519184112548828125" lon="-0.81165597774088382720947265625">
        <ele>389.79998779296875</ele>
        <time>2021-04-01T10:05:26.000Z</time>
      </trkpt>
      <trkpt lat="41.616732962429523468017578125" lon="-0.8117611706256866455078125">
        <ele>391</ele>
        <time>2021-04-01T10:05:30.000Z</time>
      </trkpt>
      <trkpt lat="41.61665819585323333740234375" lon="-0.81194515340030193328857421875">
        <ele>390.20001220703125</ele>
        <time>2021-04-01T10:05:34.000Z</time>
      </trkpt>
      <trkpt lat="41.61662575788795948028564453125" lon="-0.81203006207942962646484375">
        <ele>389.79998779296875</ele>
        <time>2021-04-01T10:05:36.000Z</time>
      </trkpt>
      <trkpt lat="41.616578064858913421630859375" lon="-0.81220842897891998291015625">
        <ele>389.600006103515625</ele>
        <time>2021-04-01T10:05:41.000Z</time>
      </trkpt>
      <trkpt lat="41.61654009483754634857177734375" lon="-0.8124020509421825408935546875">
        <ele>390.20001220703125</ele>
        <time>2021-04-01T10:05:45.000Z</time>
      </trkpt>
      <trkpt lat="41.616511009633541107177734375" lon="-0.812559463083744049072265625">
        <ele>390.600006103515625</ele>
        <time>2021-04-01T10:05:48.000Z</time>
      </trkpt>
      <trkpt lat="41.616415120661258697509765625" lon="-0.8130135945975780487060546875">
        <ele>389.600006103515625</ele>
        <time>2021-04-01T10:05:56.000Z</time>
      </trkpt>
      <trkpt lat="41.6163904778659343719482421875" lon="-0.8131168596446514129638671875">
        <ele>389.600006103515625</ele>
        <time>2021-04-01T10:05:58.000Z</time>
      </trkpt>
      <trkpt lat="41.6163758933544158935546875" lon="-0.81316723488271236419677734375">
        <ele>390</ele>
        <time>2021-04-01T10:05:59.000Z</time>
      </trkpt>
      <trkpt lat="41.6163636557757854461669921875" lon="-0.81321886740624904632568359375">
        <ele>389.79998779296875</ele>
        <time>2021-04-01T10:06:00.000Z</time>
      </trkpt>
      <trkpt lat="41.616314537823200225830078125" lon="-0.81348088569939136505126953125">
        <ele>389.79998779296875</ele>
        <time>2021-04-01T10:06:06.000Z</time>
      </trkpt>
      <trkpt lat="41.616292409598827362060546875" lon="-0.81358565948903560638427734375">
        <ele>390</ele>
        <time>2021-04-01T10:06:08.000Z</time>
      </trkpt>
      <trkpt lat="41.6162308864295482635498046875" lon="-0.813901238143444061279296875">
        <ele>391</ele>
        <time>2021-04-01T10:06:13.000Z</time>
      </trkpt>
      <trkpt lat="41.61622040905058383941650390625" lon="-0.813953541219234466552734375">
        <ele>390.600006103515625</ele>
        <time>2021-04-01T10:06:15.000Z</time>
      </trkpt>
      <trkpt lat="41.61612753756344318389892578125" lon="-0.81443105824291706085205078125">
        <ele>390.600006103515625</ele>
        <time>2021-04-01T10:06:23.000Z</time>
      </trkpt>
      <trkpt lat="41.6160538606345653533935546875" lon="-0.81474403850734233856201171875">
        <ele>391.20001220703125</ele>
        <time>2021-04-01T10:06:30.000Z</time>
      </trkpt>
      <trkpt lat="41.6160055808722972869873046875" lon="-0.8149384148418903350830078125">
        <ele>391</ele>
        <time>2021-04-01T10:06:33.000Z</time>
      </trkpt>
      <trkpt lat="41.61598454229533672332763671875" lon="-0.8150336332619190216064453125">
        <ele>390.79998779296875</ele>
        <time>2021-04-01T10:06:35.000Z</time>
      </trkpt>
      <trkpt lat="41.61598454229533672332763671875" lon="-0.8150336332619190216064453125">
        <ele>390.600006103515625</ele>
        <time>2021-04-01T10:06:36.000Z</time>
      </trkpt>
      <trkpt lat="41.6159640066325664520263671875" lon="-0.8151285164058208465576171875">
        <ele>390.600006103515625</ele>
        <time>2021-04-01T10:06:37.000Z</time>
      </trkpt>
      <trkpt lat="41.6159412078559398651123046875" lon="-0.815223567187786102294921875">
        <ele>390.79998779296875</ele>
        <time>2021-04-01T10:06:39.000Z</time>
      </trkpt>
      <trkpt lat="41.615886390209197998046875" lon="-0.8154668100178241729736328125">
        <ele>391.399993896484375</ele>
        <time>2021-04-01T10:06:44.000Z</time>
      </trkpt>
      <trkpt lat="41.61585696972906589508056640625" lon="-0.81566923297941684722900390625">
        <ele>392.20001220703125</ele>
        <time>2021-04-01T10:06:48.000Z</time>
      </trkpt>
      <trkpt lat="41.615859232842922210693359375" lon="-0.81577165983617305755615234375">
        <ele>391.600006103515625</ele>
        <time>2021-04-01T10:06:51.000Z</time>
      </trkpt>
      <trkpt lat="41.615892760455608367919921875" lon="-0.81599713303148746490478515625">
        <ele>392</ele>
        <time>2021-04-01T10:06:55.000Z</time>
      </trkpt>
      <trkpt lat="41.61590323783457279205322265625" lon="-0.81607039086520671844482421875">
        <ele>392</ele>
        <time>2021-04-01T10:06:58.000Z</time>
      </trkpt>
      <trkpt lat="41.615918241441249847412109375" lon="-0.816252864897251129150390625">
        <ele>392.79998779296875</ele>
        <time>2021-04-01T10:07:03.000Z</time>
      </trkpt>
      <trkpt lat="41.61591815762221813201904296875" lon="-0.8162852190434932708740234375">
        <ele>393.20001220703125</ele>
        <time>2021-04-01T10:07:04.000Z</time>
      </trkpt>
      <trkpt lat="41.6159118711948394775390625" lon="-0.81634095869958400726318359375">
        <ele>394</ele>
        <time>2021-04-01T10:07:06.000Z</time>
      </trkpt>
      <trkpt lat="41.61590709351003170013427734375" lon="-0.8163666911423206329345703125">
        <ele>394.20001220703125</ele>
        <time>2021-04-01T10:07:07.000Z</time>
      </trkpt>
      <trkpt lat="41.61586434580385684967041015625" lon="-0.8164515160024166107177734375">
        <ele>395</ele>
        <time>2021-04-01T10:07:11.000Z</time>
      </trkpt>
      <trkpt lat="41.6158493421971797943115234375" lon="-0.81646869890391826629638671875">
        <ele>395</ele>
        <time>2021-04-01T10:07:12.000Z</time>
      </trkpt>
      <trkpt lat="41.61578119732439517974853515625" lon="-0.8165162242949008941650390625">
        <ele>395.20001220703125</ele>
        <time>2021-04-01T10:07:16.000Z</time>
      </trkpt>
      <trkpt lat="41.615749932825565338134765625" lon="-0.81651605665683746337890625">
        <ele>395.600006103515625</ele>
        <time>2021-04-01T10:07:18.000Z</time>
      </trkpt>
      <trkpt lat="41.6157242842018604278564453125" lon="-0.81649887375533580780029296875">
        <ele>395.79998779296875</ele>
        <time>2021-04-01T10:07:20.000Z</time>
      </trkpt>
      <trkpt lat="41.6156773455440998077392578125" lon="-0.8164585568010807037353515625">
        <ele>395.20001220703125</ele>
        <time>2021-04-01T10:11:31.000Z</time>
      </trkpt>
      <trkpt lat="41.61564893089234828948974609375" lon="-0.81644942052662372589111328125">
        <ele>395.20001220703125</ele>
        <time>2021-04-01T10:11:34.000Z</time>
      </trkpt>
      <trkpt lat="41.61557667888700962066650390625" lon="-0.8164213411509990692138671875">
        <ele>395.20001220703125</ele>
        <time>2021-04-01T10:11:36.000Z</time>
      </trkpt>
      <trkpt lat="41.6154934465885162353515625" lon="-0.81637918017804622650146484375">
        <ele>395.20001220703125</ele>
        <time>2021-04-01T10:11:39.000Z</time>
      </trkpt>
      <trkpt lat="41.6152904368937015533447265625" lon="-0.81628966145217418670654296875">
        <ele>394.399993896484375</ele>
        <time>2021-04-01T10:11:46.000Z</time>
      </trkpt>
      <trkpt lat="41.61505557596683502197265625" lon="-0.81619176082313060760498046875">
        <ele>394.79998779296875</ele>
        <time>2021-04-01T10:11:55.000Z</time>
      </trkpt>
      <trkpt lat="41.61496647633612155914306640625" lon="-0.8161574788391590118408203125">
        <ele>394.79998779296875</ele>
        <time>2021-04-01T10:11:57.000Z</time>
      </trkpt>
      <trkpt lat="41.614912413060665130615234375" lon="-0.81612847745418548583984375">
        <ele>394.600006103515625</ele>
        <time>2021-04-01T10:12:00.000Z</time>
      </trkpt>
      <trkpt lat="41.6148639656603336334228515625" lon="-0.8161071874201297760009765625">
        <ele>394.79998779296875</ele>
        <time>2021-04-01T10:12:02.000Z</time>
      </trkpt>
      <trkpt lat="41.614817865192890167236328125" lon="-0.8160889148712158203125">
        <ele>395.20001220703125</ele>
        <time>2021-04-01T10:12:03.000Z</time>
      </trkpt>
      <trkpt lat="41.61461225710809230804443359375" lon="-0.815988667309284210205078125">
        <ele>395.600006103515625</ele>
        <time>2021-04-01T10:12:13.000Z</time>
      </trkpt>
      <trkpt lat="41.614558361470699310302734375" lon="-0.81596008501946926116943359375">
        <ele>395.79998779296875</ele>
        <time>2021-04-01T10:12:15.000Z</time>
      </trkpt>
      <trkpt lat="41.6144056431949138641357421875" lon="-0.81589386798441410064697265625">
        <ele>395.600006103515625</ele>
        <time>2021-04-01T10:12:21.000Z</time>
      </trkpt>
      <trkpt lat="41.6142946667969226837158203125" lon="-0.815834440290927886962890625">
        <ele>394.79998779296875</ele>
        <time>2021-04-01T10:12:25.000Z</time>
      </trkpt>
      <trkpt lat="41.61424152553081512451171875" lon="-0.81581222824752330780029296875">
        <ele>394.399993896484375</ele>
        <time>2021-04-01T10:12:27.000Z</time>
      </trkpt>
      <trkpt lat="41.6142178885638713836669921875" lon="-0.81580460071563720703125">
        <ele>395.600006103515625</ele>
        <time>2021-04-01T10:12:30.000Z</time>
      </trkpt>
      <trkpt lat="41.6142279468476772308349609375" lon="-0.815808288753032684326171875">
        <ele>396.20001220703125</ele>
        <time>2021-04-01T10:12:32.000Z</time>
      </trkpt>
      <trkpt lat="41.6142279468476772308349609375" lon="-0.815808288753032684326171875">
        <ele>396.399993896484375</ele>
        <time>2021-04-01T10:12:33.000Z</time>
      </trkpt>
      <trkpt lat="41.61424546502530574798583984375" lon="-0.81581172533333301544189453125">
        <ele>396.399993896484375</ele>
        <time>2021-04-01T10:12:34.000Z</time>
      </trkpt>
      <trkpt lat="41.614275388419628143310546875" lon="-0.8158091269433498382568359375">
        <ele>396.399993896484375</ele>
        <time>2021-04-01T10:12:38.000Z</time>
      </trkpt>
      <trkpt lat="41.614288128912448883056640625" lon="-0.81579563207924365997314453125">
        <ele>396</ele>
        <time>2021-04-01T10:12:44.000Z</time>
      </trkpt>
      <trkpt lat="41.6142906434834003448486328125" lon="-0.81579529680311679840087890625">
        <ele>395.79998779296875</ele>
        <time>2021-04-01T10:12:46.000Z</time>
      </trkpt>
      <trkpt lat="41.61427463404834270477294921875" lon="-0.81579680554568767547607421875">
        <ele>396</ele>
        <time>2021-04-01T10:12:52.000Z</time>
      </trkpt>
      <trkpt lat="41.6142608039081096649169921875" lon="-0.815801918506622314453125">
        <ele>395.600006103515625</ele>
        <time>2021-04-01T10:12:58.000Z</time>
      </trkpt>
      <trkpt lat="41.61424244754016399383544921875" lon="-0.8157952129840850830078125">
        <ele>396</ele>
        <time>2021-04-01T10:13:02.000Z</time>
      </trkpt>
      <trkpt lat="41.61423658020794391632080078125" lon="-0.8157923631370067596435546875">
        <ele>396.20001220703125</ele>
        <time>2021-04-01T10:13:03.000Z</time>
      </trkpt>
      <trkpt lat="41.61421361379325389862060546875" lon="-0.8157880045473575592041015625">
        <ele>395.600006103515625</ele>
        <time>2021-04-01T10:13:10.000Z</time>
      </trkpt>
      <trkpt lat="41.61421378143131732940673828125" lon="-0.8157873339951038360595703125">
        <ele>395.600006103515625</ele>
        <time>2021-04-01T10:13:12.000Z</time>
      </trkpt>
      <trkpt lat="41.61421445198357105255126953125" lon="-0.81578909419476985931396484375">
        <ele>395.600006103515625</ele>
        <time>2021-04-01T10:13:14.000Z</time>
      </trkpt>
      <trkpt lat="41.6142193973064422607421875" lon="-0.8157890103757381439208984375">
        <ele>395.79998779296875</ele>
        <time>2021-04-01T10:13:18.000Z</time>
      </trkpt>
      <trkpt lat="41.614225097000598907470703125" lon="-0.8157880045473575592041015625">
        <ele>395.79998779296875</ele>
        <time>2021-04-01T10:13:20.000Z</time>
      </trkpt>
      <trkpt lat="41.6142182238399982452392578125" lon="-0.81578004173934459686279296875">
        <ele>395.79998779296875</ele>
        <time>2021-04-01T10:13:25.000Z</time>
      </trkpt>
      <trkpt lat="41.61424512974917888641357421875" lon="-0.81578238867223262786865234375">
        <ele>396</ele>
        <time>2021-04-01T10:13:35.000Z</time>
      </trkpt>
      <trkpt lat="41.61427237093448638916015625" lon="-0.81578917801380157470703125">
        <ele>396</ele>
        <time>2021-04-01T10:13:43.000Z</time>
      </trkpt>
      <trkpt lat="41.61427061073482036590576171875" lon="-0.81578649580478668212890625">
        <ele>396</ele>
        <time>2021-04-01T10:13:51.000Z</time>
      </trkpt>
      <trkpt lat="41.614271365106105804443359375" lon="-0.81578389741480350494384765625">
        <ele>396</ele>
        <time>2021-04-01T10:14:00.000Z</time>
      </trkpt>
      <trkpt lat="41.6142815910279750823974609375" lon="-0.81577752716839313507080078125">
        <ele>396</ele>
        <time>2021-04-01T10:14:03.000Z</time>
      </trkpt>
      <trkpt lat="41.61428301595151424407958984375" lon="-0.815776102244853973388671875">
        <ele>396</ele>
        <time>2021-04-01T10:14:10.000Z</time>
      </trkpt>
      <trkpt lat="41.61426524631679058074951171875" lon="-0.81577777862548828125">
        <ele>396</ele>
        <time>2021-04-01T10:14:18.000Z</time>
      </trkpt>
      <trkpt lat="41.61426968872547149658203125" lon="-0.81577484495937824249267578125">
        <ele>396</ele>
        <time>2021-04-01T10:14:23.000Z</time>
      </trkpt>
      <trkpt lat="41.61427128128707408905029296875" lon="-0.8157755993306636810302734375">
        <ele>396</ele>
        <time>2021-04-01T10:14:26.000Z</time>
      </trkpt>
      <trkpt lat="41.6142644919455051422119140625" lon="-0.81577551551163196563720703125">
        <ele>396</ele>
        <time>2021-04-01T10:14:34.000Z</time>
      </trkpt>
      <trkpt lat="41.61426072008907794952392578125" lon="-0.8157903514802455902099609375">
        <ele>396</ele>
        <time>2021-04-01T10:14:44.000Z</time>
      </trkpt>
      <trkpt lat="41.61426155827939510345458984375" lon="-0.81579496152698993682861328125">
        <ele>396</ele>
        <time>2021-04-01T10:14:55.000Z</time>
      </trkpt>
      <trkpt lat="41.61425669677555561065673828125" lon="-0.81578926183283329010009765625">
        <ele>396</ele>
        <time>2021-04-01T10:15:03.000Z</time>
      </trkpt>
      <trkpt lat="41.61425585858523845672607421875" lon="-0.81578624434769153594970703125">
        <ele>396</ele>
        <time>2021-04-01T10:15:05.000Z</time>
      </trkpt>
      <trkpt lat="41.61425091326236724853515625" lon="-0.81578113138675689697265625">
        <ele>396</ele>
        <time>2021-04-01T10:15:07.000Z</time>
      </trkpt>
      <trkpt lat="41.61425082944333553314208984375" lon="-0.81578113138675689697265625">
        <ele>396</ele>
        <time>2021-04-01T10:15:09.000Z</time>
      </trkpt>
      <trkpt lat="41.6142490692436695098876953125" lon="-0.81578113138675689697265625">
        <ele>396</ele>
        <time>2021-04-01T10:15:11.000Z</time>
      </trkpt>
      <trkpt lat="41.61417958326637744903564453125" lon="-0.81575221382081508636474609375">
        <ele>396</ele>
        <time>2021-04-01T10:16:49.000Z</time>
      </trkpt>
      <trkpt lat="41.61417178809642791748046875" lon="-0.8157444186508655548095703125">
        <ele>396</ele>
        <time>2021-04-01T10:16:50.000Z</time>
      </trkpt>
      <trkpt lat="41.614101715385913848876953125" lon="-0.81574483774602413177490234375">
        <ele>395.79998779296875</ele>
        <time>2021-04-01T10:16:53.000Z</time>
      </trkpt>
      <trkpt lat="41.614101715385913848876953125" lon="-0.81574483774602413177490234375">
        <ele>395.79998779296875</ele>
        <time>2021-04-01T10:16:54.000Z</time>
      </trkpt>
      <trkpt lat="41.61400876007974147796630859375" lon="-0.8158346079289913177490234375">
        <ele>395</ele>
        <time>2021-04-01T10:16:57.000Z</time>
      </trkpt>
      <trkpt lat="41.61398629657924175262451171875" lon="-0.81586335785686969757080078125">
        <ele>394.399993896484375</ele>
        <time>2021-04-01T10:16:59.000Z</time>
      </trkpt>
      <trkpt lat="41.61394807510077953338623046875" lon="-0.81594952382147312164306640625">
        <ele>394.399993896484375</ele>
        <time>2021-04-01T10:17:00.000Z</time>
      </trkpt>
      <trkpt lat="41.61392175592482089996337890625" lon="-0.81607885658740997314453125">
        <ele>394</ele>
        <time>2021-04-01T10:17:02.000Z</time>
      </trkpt>
      <trkpt lat="41.613905243575572967529296875" lon="-0.81622981466352939605712890625">
        <ele>393.600006103515625</ele>
        <time>2021-04-01T10:17:04.000Z</time>
      </trkpt>
      <trkpt lat="41.6139017231762409210205078125" lon="-0.81631061621010303497314453125">
        <ele>393.600006103515625</ele>
        <time>2021-04-01T10:17:05.000Z</time>
      </trkpt>
      <trkpt lat="41.6139094345271587371826171875" lon="-0.81655922345817089080810546875">
        <ele>393</ele>
        <time>2021-04-01T10:17:08.000Z</time>
      </trkpt>
      <trkpt lat="41.61390960216522216796875" lon="-0.8166382648050785064697265625">
        <ele>392.79998779296875</ele>
        <time>2021-04-01T10:17:09.000Z</time>
      </trkpt>
      <trkpt lat="41.61390029825270175933837890625" lon="-0.8167904801666736602783203125">
        <ele>392</ele>
        <time>2021-04-01T10:17:11.000Z</time>
      </trkpt>
      <trkpt lat="41.613883115351200103759765625" lon="-0.81692911684513092041015625">
        <ele>391.399993896484375</ele>
        <time>2021-04-01T10:17:13.000Z</time>
      </trkpt>
      <trkpt lat="41.61386392079293727874755859375" lon="-0.81705115735530853271484375">
        <ele>390.79998779296875</ele>
        <time>2021-04-01T10:17:15.000Z</time>
      </trkpt>
      <trkpt lat="41.61382838152348995208740234375" lon="-0.81722541712224483489990234375">
        <ele>390.600006103515625</ele>
        <time>2021-04-01T10:17:18.000Z</time>
      </trkpt>
      <trkpt lat="41.6138212569057941436767578125" lon="-0.817283503711223602294921875">
        <ele>390.79998779296875</ele>
        <time>2021-04-01T10:17:19.000Z</time>
      </trkpt>
      <trkpt lat="41.6137768328189849853515625" lon="-0.81763051450252532958984375">
        <ele>390.600006103515625</ele>
        <time>2021-04-01T10:17:25.000Z</time>
      </trkpt>
      <trkpt lat="41.61376685835421085357666015625" lon="-0.8176886849105358123779296875">
        <ele>390.399993896484375</ele>
        <time>2021-04-01T10:17:26.000Z</time>
      </trkpt>
      <trkpt lat="41.6136670298874378204345703125" lon="-0.81830835901200771331787109375">
        <ele>391.600006103515625</ele>
        <time>2021-04-01T10:17:36.000Z</time>
      </trkpt>
      <trkpt lat="41.61363811232149600982666015625" lon="-0.8184189163148403167724609375">
        <ele>391.600006103515625</ele>
        <time>2021-04-01T10:17:38.000Z</time>
      </trkpt>
      <trkpt lat="41.61360324360430240631103515625" lon="-0.818572305142879486083984375">
        <ele>391.600006103515625</ele>
        <time>2021-04-01T10:17:42.000Z</time>
      </trkpt>
      <trkpt lat="41.61357910372316837310791015625" lon="-0.81878126598894596099853515625">
        <ele>391.600006103515625</ele>
        <time>2021-04-01T10:17:45.000Z</time>
      </trkpt>
      <trkpt lat="41.61357088945806026458740234375" lon="-0.818888805806636810302734375">
        <ele>391.600006103515625</ele>
        <time>2021-04-01T10:17:47.000Z</time>
      </trkpt>
      <trkpt lat="41.6135651059448719024658203125" lon="-0.8189965970814228057861328125">
        <ele>391.600006103515625</ele>
        <time>2021-04-01T10:17:49.000Z</time>
      </trkpt>
      <trkpt lat="41.6135651059448719024658203125" lon="-0.8189965970814228057861328125">
        <ele>392</ele>
        <time>2021-04-01T10:17:50.000Z</time>
      </trkpt>
      <trkpt lat="41.6135664470493793487548828125" lon="-0.819255597889423370361328125">
        <ele>391.79998779296875</ele>
        <time>2021-04-01T10:17:54.000Z</time>
      </trkpt>
      <trkpt lat="41.61358698271214962005615234375" lon="-0.81943790428340435028076171875">
        <ele>391.79998779296875</ele>
        <time>2021-04-01T10:17:57.000Z</time>
      </trkpt>
      <trkpt lat="41.61361648701131343841552734375" lon="-0.819672010838985443115234375">
        <ele>391.600006103515625</ele>
        <time>2021-04-01T10:18:02.000Z</time>
      </trkpt>
      <trkpt lat="41.61360793747007846832275390625" lon="-0.81972925923764705657958984375">
        <ele>391.600006103515625</ele>
        <time>2021-04-01T10:18:03.000Z</time>
      </trkpt>
      <trkpt lat="41.61360181868076324462890625" lon="-0.8197890222072601318359375">
        <ele>391.600006103515625</ele>
        <time>2021-04-01T10:18:04.000Z</time>
      </trkpt>
      <trkpt lat="41.61360525526106357574462890625" lon="-0.819910056889057159423828125">
        <ele>391.600006103515625</ele>
        <time>2021-04-01T10:18:06.000Z</time>
      </trkpt>
      <trkpt lat="41.6136105358600616455078125" lon="-0.820083059370517730712890625">
        <ele>391.600006103515625</ele>
        <time>2021-04-01T10:18:09.000Z</time>
      </trkpt>
      <trkpt lat="41.613576672971248626708984375" lon="-0.82066769711673259735107421875">
        <ele>392</ele>
        <time>2021-04-01T10:18:19.000Z</time>
      </trkpt>
      <trkpt lat="41.613567955791950225830078125" lon="-0.8208885602653026580810546875">
        <ele>392.600006103515625</ele>
        <time>2021-04-01T10:18:23.000Z</time>
      </trkpt>
      <trkpt lat="41.61356770433485507965087890625" lon="-0.820945389568805694580078125">
        <ele>393.20001220703125</ele>
        <time>2021-04-01T10:18:24.000Z</time>
      </trkpt>
      <trkpt lat="41.613575331866741180419921875" lon="-0.821170024573802947998046875">
        <ele>392.600006103515625</ele>
        <time>2021-04-01T10:18:29.000Z</time>
      </trkpt>
      <trkpt lat="41.6135837137699127197265625" lon="-0.82126800902187824249267578125">
        <ele>392.399993896484375</ele>
        <time>2021-04-01T10:18:30.000Z</time>
      </trkpt>
      <trkpt lat="41.61358572542667388916015625" lon="-0.8213710226118564605712890625">
        <ele>392.399993896484375</ele>
        <time>2021-04-01T10:18:32.000Z</time>
      </trkpt>
      <trkpt lat="41.61358849145472049713134765625" lon="-0.821858011186122894287109375">
        <ele>392.79998779296875</ele>
        <time>2021-04-01T10:18:41.000Z</time>
      </trkpt>
      <trkpt lat="41.61359888501465320587158203125" lon="-0.8223869092762470245361328125">
        <ele>392.399993896484375</ele>
        <time>2021-04-01T10:18:50.000Z</time>
      </trkpt>
      <trkpt lat="41.613597460091114044189453125" lon="-0.822568126022815704345703125">
        <ele>392.20001220703125</ele>
        <time>2021-04-01T10:18:53.000Z</time>
      </trkpt>
      <trkpt lat="41.61359511315822601318359375" lon="-0.82281061448156833648681640625">
        <ele>392.600006103515625</ele>
        <time>2021-04-01T10:18:57.000Z</time>
      </trkpt>
      <trkpt lat="41.61359553225338459014892578125" lon="-0.8229303918778896331787109375">
        <ele>392.600006103515625</ele>
        <time>2021-04-01T10:18:59.000Z</time>
      </trkpt>
      <trkpt lat="41.613596118986606597900390625" lon="-0.82304857671260833740234375">
        <ele>392.79998779296875</ele>
        <time>2021-04-01T10:19:01.000Z</time>
      </trkpt>
      <trkpt lat="41.6136043332517147064208984375" lon="-0.82353279925882816314697265625">
        <ele>392.399993896484375</ele>
        <time>2021-04-01T10:19:09.000Z</time>
      </trkpt>
      <trkpt lat="41.61360609345138072967529296875" lon="-0.823712758719921112060546875">
        <ele>392</ele>
        <time>2021-04-01T10:19:12.000Z</time>
      </trkpt>
      <trkpt lat="41.613601483404636383056640625" lon="-0.8239288441836833953857421875">
        <ele>392.20001220703125</ele>
        <time>2021-04-01T10:19:16.000Z</time>
      </trkpt>
      <trkpt lat="41.61360274069011211395263671875" lon="-0.8241578377783298492431640625">
        <ele>392.600006103515625</ele>
        <time>2021-04-01T10:19:20.000Z</time>
      </trkpt>
      <trkpt lat="41.6135949455201625823974609375" lon="-0.82444843836128711700439453125">
        <ele>392.600006103515625</ele>
        <time>2021-04-01T10:19:25.000Z</time>
      </trkpt>
      <trkpt lat="41.6135848872363567352294921875" lon="-0.82478388212621212005615234375">
        <ele>392.399993896484375</ele>
        <time>2021-04-01T10:19:31.000Z</time>
      </trkpt>
      <trkpt lat="41.61358295939862728118896484375" lon="-0.82496040500700473785400390625">
        <ele>392.600006103515625</ele>
        <time>2021-04-01T10:19:34.000Z</time>
      </trkpt>
      <trkpt lat="41.613580696284770965576171875" lon="-0.8250788412988185882568359375">
        <ele>392.600006103515625</ele>
        <time>2021-04-01T10:19:36.000Z</time>
      </trkpt>
      <trkpt lat="41.6135595738887786865234375" lon="-0.82538419403135776519775390625">
        <ele>392.79998779296875</ele>
        <time>2021-04-01T10:19:41.000Z</time>
      </trkpt>
      <trkpt lat="41.61353350616991519927978515625" lon="-0.82567655481398105621337890625">
        <ele>392.20001220703125</ele>
        <time>2021-04-01T10:19:46.000Z</time>
      </trkpt>
      <trkpt lat="41.61351255141198635101318359375" lon="-0.82621802575886249542236328125">
        <ele>392.600006103515625</ele>
        <time>2021-04-01T10:19:55.000Z</time>
      </trkpt>
      <trkpt lat="41.61350718699395656585693359375" lon="-0.8265698142349720001220703125">
        <ele>392.20001220703125</ele>
        <time>2021-04-01T10:20:01.000Z</time>
      </trkpt>
      <trkpt lat="41.61351003684103488922119140625" lon="-0.82663075067102909088134765625">
        <ele>392</ele>
        <time>2021-04-01T10:20:02.000Z</time>
      </trkpt>
      <trkpt lat="41.61352445371448993682861328125" lon="-0.82681330852210521697998046875">
        <ele>392.20001220703125</ele>
        <time>2021-04-01T10:20:05.000Z</time>
      </trkpt>
      <trkpt lat="41.6135366074740886688232421875" lon="-0.8269386179745197296142578125">
        <ele>393.20001220703125</ele>
        <time>2021-04-01T10:20:07.000Z</time>
      </trkpt>
      <trkpt lat="41.61355756223201751708984375" lon="-0.82719166763126850128173828125">
        <ele>393.20001220703125</ele>
        <time>2021-04-01T10:20:11.000Z</time>
      </trkpt>
      <trkpt lat="41.6135676205158233642578125" lon="-0.82738378085196018218994140625">
        <ele>393</ele>
        <time>2021-04-01T10:20:14.000Z</time>
      </trkpt>
      <trkpt lat="41.61357407458126544952392578125" lon="-0.8275052346289157867431640625">
        <ele>393</ele>
        <time>2021-04-01T10:20:16.000Z</time>
      </trkpt>
      <trkpt lat="41.61357776261866092681884765625" lon="-0.82762534730136394500732421875">
        <ele>393</ele>
        <time>2021-04-01T10:20:18.000Z</time>
      </trkpt>
      <trkpt lat="41.613609530031681060791015625" lon="-0.82806237973272800445556640625">
        <ele>393.399993896484375</ele>
        <time>2021-04-01T10:20:25.000Z</time>
      </trkpt>
      <trkpt lat="41.6136143915355205535888671875" lon="-0.82812130451202392578125">
        <ele>393.600006103515625</ele>
        <time>2021-04-01T10:20:26.000Z</time>
      </trkpt>
      <trkpt lat="41.6136727295815944671630859375" lon="-0.82858339883387088775634765625">
        <ele>393.399993896484375</ele>
        <time>2021-04-01T10:20:34.000Z</time>
      </trkpt>
      <trkpt lat="41.61368287168443202972412109375" lon="-0.828639306128025054931640625">
        <ele>393.399993896484375</ele>
        <time>2021-04-01T10:20:35.000Z</time>
      </trkpt>
      <trkpt lat="41.61370114423334598541259765625" lon="-0.8287497796118259429931640625">
        <ele>393.399993896484375</ele>
        <time>2021-04-01T10:20:37.000Z</time>
      </trkpt>
      <trkpt lat="41.613750346004962921142578125" lon="-0.8289066888391971588134765625">
        <ele>393.399993896484375</ele>
        <time>2021-04-01T10:20:40.000Z</time>
      </trkpt>
      <trkpt lat="41.61381698213517665863037109375" lon="-0.82906049676239490509033203125">
        <ele>393.20001220703125</ele>
        <time>2021-04-01T10:20:43.000Z</time>
      </trkpt>
      <trkpt lat="41.6139067523181438446044921875" lon="-0.82920935936272144317626953125">
        <ele>393</ele>
        <time>2021-04-01T10:20:46.000Z</time>
      </trkpt>
      <trkpt lat="41.6140425391495227813720703125" lon="-0.8293925039470195770263671875">
        <ele>392.79998779296875</ele>
        <time>2021-04-01T10:20:50.000Z</time>
      </trkpt>
      <trkpt lat="41.61411386914551258087158203125" lon="-0.829477496445178985595703125">
        <ele>392.600006103515625</ele>
        <time>2021-04-01T10:20:52.000Z</time>
      </trkpt>
      <trkpt lat="41.61411386914551258087158203125" lon="-0.829477496445178985595703125">
        <ele>392.399993896484375</ele>
        <time>2021-04-01T10:20:53.000Z</time>
      </trkpt>
      <trkpt lat="41.61418897099792957305908203125" lon="-0.8295522630214691162109375">
        <ele>392.399993896484375</ele>
        <time>2021-04-01T10:20:54.000Z</time>
      </trkpt>
      <trkpt lat="41.61422886885702610015869140625" lon="-0.82959207706153392791748046875">
        <ele>392.399993896484375</ele>
        <time>2021-04-01T10:20:55.000Z</time>
      </trkpt>
      <trkpt lat="41.614266671240329742431640625" lon="-0.82963339984416961669921875">
        <ele>392.399993896484375</ele>
        <time>2021-04-01T10:20:56.000Z</time>
      </trkpt>
      <trkpt lat="41.61440648138523101806640625" lon="-0.8298126049339771270751953125">
        <ele>392.79998779296875</ele>
        <time>2021-04-01T10:21:00.000Z</time>
      </trkpt>
      <trkpt lat="41.6144602932035923004150390625" lon="-0.8299138583242893218994140625">
        <ele>393</ele>
        <time>2021-04-01T10:21:02.000Z</time>
      </trkpt>
      <trkpt lat="41.61461007781326770782470703125" lon="-0.8302390761673450469970703125">
        <ele>392.600006103515625</ele>
        <time>2021-04-01T10:21:08.000Z</time>
      </trkpt>
      <trkpt lat="41.61469490267336368560791015625" lon="-0.83047293126583099365234375">
        <ele>392.399993896484375</ele>
        <time>2021-04-01T10:21:12.000Z</time>
      </trkpt>
      <trkpt lat="41.6147456131875514984130859375" lon="-0.83063595928251743316650390625">
        <ele>392.20001220703125</ele>
        <time>2021-04-01T10:21:15.000Z</time>
      </trkpt>
      <trkpt lat="41.6148523986339569091796875" lon="-0.8308901824057102203369140625">
        <ele>392.399993896484375</ele>
        <time>2021-04-01T10:21:21.000Z</time>
      </trkpt>
      <trkpt lat="41.6150403209030628204345703125" lon="-0.83132059313356876373291015625">
        <ele>392.79998779296875</ele>
        <time>2021-04-01T10:21:28.000Z</time>
      </trkpt>
      <trkpt lat="41.61508382298052310943603515625" lon="-0.831421427428722381591796875">
        <ele>393.20001220703125</ele>
        <time>2021-04-01T10:21:30.000Z</time>
      </trkpt>
      <trkpt lat="41.61512522958219051361083984375" lon="-0.83152645267546176910400390625">
        <ele>393.399993896484375</ele>
        <time>2021-04-01T10:21:32.000Z</time>
      </trkpt>
      <trkpt lat="41.61519027315080165863037109375" lon="-0.8316824398934841156005859375">
        <ele>393</ele>
        <time>2021-04-01T10:21:35.000Z</time>
      </trkpt>
      <trkpt lat="41.61521458066999912261962890625" lon="-0.8317266963422298431396484375">
        <ele>393</ele>
        <time>2021-04-01T10:21:36.000Z</time>
      </trkpt>
      <trkpt lat="41.6153164207935333251953125" lon="-0.83188704214990139007568359375">
        <ele>392.399993896484375</ele>
        <time>2021-04-01T10:21:40.000Z</time>
      </trkpt>
      <trkpt lat="41.6153888404369354248046875" lon="-0.83203607238829135894775390625">
        <ele>392.399993896484375</ele>
        <time>2021-04-01T10:21:43.000Z</time>
      </trkpt>
      <trkpt lat="41.61561481654644012451171875" lon="-0.83255541510879993438720703125">
        <ele>393.600006103515625</ele>
        <time>2021-04-01T10:21:53.000Z</time>
      </trkpt>
      <trkpt lat="41.615705005824565887451171875" lon="-0.83274543285369873046875">
        <ele>394.20001220703125</ele>
        <time>2021-04-01T10:21:57.000Z</time>
      </trkpt>
      <trkpt lat="41.6157480888068675994873046875" lon="-0.83282447420060634613037109375">
        <ele>393.79998779296875</ele>
        <time>2021-04-01T10:22:00.000Z</time>
      </trkpt>
      <trkpt lat="41.615773402154445648193359375" lon="-0.83290996961295604705810546875">
        <ele>394</ele>
        <time>2021-04-01T10:22:24.000Z</time>
      </trkpt>
      <trkpt lat="41.61584825254976749420166015625" lon="-0.83301273174583911895751953125">
        <ele>394.20001220703125</ele>
        <time>2021-04-01T10:22:28.000Z</time>
      </trkpt>
      <trkpt lat="41.615867950022220611572265625" lon="-0.83304592408239841461181640625">
        <ele>394</ele>
        <time>2021-04-01T10:22:29.000Z</time>
      </trkpt>
      <trkpt lat="41.6159811057150363922119140625" lon="-0.83323418162763118743896484375">
        <ele>393.79998779296875</ele>
        <time>2021-04-01T10:22:34.000Z</time>
      </trkpt>
      <trkpt lat="41.61602544598281383514404296875" lon="-0.83331481553614139556884765625">
        <ele>393.79998779296875</ele>
        <time>2021-04-01T10:22:36.000Z</time>
      </trkpt>
      <trkpt lat="41.61607691086828708648681640625" lon="-0.833396874368190765380859375">
        <ele>393.600006103515625</ele>
        <time>2021-04-01T10:22:38.000Z</time>
      </trkpt>
      <trkpt lat="41.61620431579649448394775390625" lon="-0.833607427775859832763671875">
        <ele>393.79998779296875</ele>
        <time>2021-04-01T10:22:43.000Z</time>
      </trkpt>
      <trkpt lat="41.61622543819248676300048828125" lon="-0.833655707538127899169921875">
        <ele>394</ele>
        <time>2021-04-01T10:22:44.000Z</time>
      </trkpt>
      <trkpt lat="41.61633825860917568206787109375" lon="-0.83379752933979034423828125">
        <ele>394</ele>
        <time>2021-04-01T10:22:49.000Z</time>
      </trkpt>
      <trkpt lat="41.6164357401430606842041015625" lon="-0.83401218988001346588134765625">
        <ele>393.600006103515625</ele>
        <time>2021-04-01T10:22:54.000Z</time>
      </trkpt>
      <trkpt lat="41.61659038625657558441162109375" lon="-0.8343975059688091278076171875">
        <ele>394.20001220703125</ele>
        <time>2021-04-01T10:23:02.000Z</time>
      </trkpt>
      <trkpt lat="41.6167089901864528656005859375" lon="-0.8346672356128692626953125">
        <ele>394.600006103515625</ele>
        <time>2021-04-01T10:23:08.000Z</time>
      </trkpt>
      <trkpt lat="41.61672701127827167510986328125" lon="-0.83471526391804218292236328125">
        <ele>394.600006103515625</ele>
        <time>2021-04-01T10:23:09.000Z</time>
      </trkpt>
      <trkpt lat="41.61686782725155353546142578125" lon="-0.8350469358265399932861328125">
        <ele>394.600006103515625</ele>
        <time>2021-04-01T10:23:16.000Z</time>
      </trkpt>
      <trkpt lat="41.61688811145722866058349609375" lon="-0.8351009152829647064208984375">
        <ele>394.600006103515625</ele>
        <time>2021-04-01T10:23:17.000Z</time>
      </trkpt>
      <trkpt lat="41.61700420081615447998046875" lon="-0.83535882644355297088623046875">
        <ele>394.399993896484375</ele>
        <time>2021-04-01T10:23:22.000Z</time>
      </trkpt>
      <trkpt lat="41.61703160963952541351318359375" lon="-0.83540643565356731414794921875">
        <ele>394.600006103515625</ele>
        <time>2021-04-01T10:23:23.000Z</time>
      </trkpt>
      <trkpt lat="41.61706111393868923187255859375" lon="-0.8354516141116619110107421875">
        <ele>395</ele>
        <time>2021-04-01T10:23:24.000Z</time>
      </trkpt>
      <trkpt lat="41.617090366780757904052734375" lon="-0.83549670875072479248046875">
        <ele>395</ele>
        <time>2021-04-01T10:23:25.000Z</time>
      </trkpt>
      <trkpt lat="41.6171215474605560302734375" lon="-0.83553870208561420440673828125">
        <ele>395.399993896484375</ele>
        <time>2021-04-01T10:23:26.000Z</time>
      </trkpt>
      <trkpt lat="41.61715842783451080322265625" lon="-0.83557206206023693084716796875">
        <ele>395.399993896484375</ele>
        <time>2021-04-01T10:23:27.000Z</time>
      </trkpt>
      <trkpt lat="41.61724970676004886627197265625" lon="-0.8356118761003017425537109375">
        <ele>395.79998779296875</ele>
        <time>2021-04-01T10:23:29.000Z</time>
      </trkpt>
      <trkpt lat="41.61736068315804004669189453125" lon="-0.835600309073925018310546875">
        <ele>395</ele>
        <time>2021-04-01T10:23:31.000Z</time>
      </trkpt>
      <trkpt lat="41.61742136813700199127197265625" lon="-0.8355850540101528167724609375">
        <ele>394</ele>
        <time>2021-04-01T10:23:32.000Z</time>
      </trkpt>
      <trkpt lat="41.6174821369349956512451171875" lon="-0.83556753583252429962158203125">
        <ele>393.20001220703125</ele>
        <time>2021-04-01T10:23:33.000Z</time>
      </trkpt>
      <trkpt lat="41.61754273809492588043212890625" lon="-0.83554641343653202056884765625">
        <ele>392.600006103515625</ele>
        <time>2021-04-01T10:23:34.000Z</time>
      </trkpt>
      <trkpt lat="41.61771875806152820587158203125" lon="-0.8354965411126613616943359375">
        <ele>391.600006103515625</ele>
        <time>2021-04-01T10:23:37.000Z</time>
      </trkpt>
      <trkpt lat="41.61777508445084095001220703125" lon="-0.8354925177991390228271484375">
        <ele>391.20001220703125</ele>
        <time>2021-04-01T10:23:38.000Z</time>
      </trkpt>
      <trkpt lat="41.6178301535546779632568359375" lon="-0.835499055683612823486328125">
        <ele>391.399993896484375</ele>
        <time>2021-04-01T10:23:39.000Z</time>
      </trkpt>
      <trkpt lat="41.6179753281176090240478515625" lon="-0.83553736098110675811767578125">
        <ele>391</ele>
        <time>2021-04-01T10:23:42.000Z</time>
      </trkpt>
      <trkpt lat="41.618057303130626678466796875" lon="-0.83558295853435993194580078125">
        <ele>391</ele>
        <time>2021-04-01T10:23:44.000Z</time>
      </trkpt>
      <trkpt lat="41.61816484294831752777099609375" lon="-0.8356745727360248565673828125">
        <ele>391.79998779296875</ele>
        <time>2021-04-01T10:23:47.000Z</time>
      </trkpt>
      <trkpt lat="41.61824748851358890533447265625" lon="-0.8358070068061351776123046875">
        <ele>392</ele>
        <time>2021-04-01T10:23:50.000Z</time>
      </trkpt>
      <trkpt lat="41.618289984762668609619140625" lon="-0.83591437898576259613037109375">
        <ele>392</ele>
        <time>2021-04-01T10:23:52.000Z</time>
      </trkpt>
      <trkpt lat="41.61830649711191654205322265625" lon="-0.83597154356539249420166015625">
        <ele>392</ele>
        <time>2021-04-01T10:23:53.000Z</time>
      </trkpt>
      <trkpt lat="41.61837841384112834930419921875" lon="-0.8361208252608776092529296875">
        <ele>392</ele>
        <time>2021-04-01T10:23:56.000Z</time>
      </trkpt>
      <trkpt lat="41.61846893839538097381591796875" lon="-0.8362304605543613433837890625">
        <ele>392.399993896484375</ele>
        <time>2021-04-01T10:23:59.000Z</time>
      </trkpt>
      <trkpt lat="41.61857522092759609222412109375" lon="-0.83630765788257122039794921875">
        <ele>393</ele>
        <time>2021-04-01T10:24:02.000Z</time>
      </trkpt>
      <trkpt lat="41.6186884604394435882568359375" lon="-0.83637773059308528900146484375">
        <ele>393.399993896484375</ele>
        <time>2021-04-01T10:24:05.000Z</time>
      </trkpt>
      <trkpt lat="41.61888048984110355377197265625" lon="-0.8364664949476718902587890625">
        <ele>393.79998779296875</ele>
        <time>2021-04-01T10:24:10.000Z</time>
      </trkpt>
      <trkpt lat="41.6190183721482753753662109375" lon="-0.83658308722078800201416015625">
        <ele>393.79998779296875</ele>
        <time>2021-04-01T10:24:14.000Z</time>
      </trkpt>
      <trkpt lat="41.6191082261502742767333984375" lon="-0.83669842220842838287353515625">
        <ele>393.79998779296875</ele>
        <time>2021-04-01T10:24:17.000Z</time>
      </trkpt>
      <trkpt lat="41.61922917701303958892822265625" lon="-0.83692741580307483673095703125">
        <ele>393.399993896484375</ele>
        <time>2021-04-01T10:24:22.000Z</time>
      </trkpt>
      <trkpt lat="41.619264297187328338623046875" lon="-0.83703629672527313232421875">
        <ele>393.600006103515625</ele>
        <time>2021-04-01T10:24:24.000Z</time>
      </trkpt>
      <trkpt lat="41.6193469427525997161865234375" lon="-0.837449021637439727783203125">
        <ele>393.79998779296875</ele>
        <time>2021-04-01T10:24:31.000Z</time>
      </trkpt>
      <trkpt lat="41.61944928579032421112060546875" lon="-0.837893597781658172607421875">
        <ele>393.399993896484375</ele>
        <time>2021-04-01T10:24:38.000Z</time>
      </trkpt>
      <trkpt lat="41.61948314867913722991943359375" lon="-0.8379537798464298248291015625">
        <ele>393</ele>
        <time>2021-04-01T10:24:39.000Z</time>
      </trkpt>
      <trkpt lat="41.6195232979953289031982421875" lon="-0.83800985477864742279052734375">
        <ele>392.79998779296875</ele>
        <time>2021-04-01T10:24:40.000Z</time>
      </trkpt>
      <trkpt lat="41.619617007672786712646484375" lon="-0.83810742013156414031982421875">
        <ele>392.399993896484375</ele>
        <time>2021-04-01T10:24:42.000Z</time>
      </trkpt>
      <trkpt lat="41.6197018325328826904296875" lon="-0.8381804265081882476806640625">
        <ele>392.20001220703125</ele>
        <time>2021-04-01T10:24:44.000Z</time>
      </trkpt>
      <trkpt lat="41.61986821331083774566650390625" lon="-0.83831596188247203826904296875">
        <ele>393.600006103515625</ele>
        <time>2021-04-01T10:24:49.000Z</time>
      </trkpt>
      <trkpt lat="41.61989964544773101806640625" lon="-0.83834588527679443359375">
        <ele>394</ele>
        <time>2021-04-01T10:24:50.000Z</time>
      </trkpt>
      <trkpt lat="41.619990170001983642578125" lon="-0.8384411036968231201171875">
        <ele>394.600006103515625</ele>
        <time>2021-04-01T10:24:53.000Z</time>
      </trkpt>
      <trkpt lat="41.62010106258094310760498046875" lon="-0.838590301573276519775390625">
        <ele>395.399993896484375</ele>
        <time>2021-04-01T10:24:57.000Z</time>
      </trkpt>
      <trkpt lat="41.6201257891952991485595703125" lon="-0.83863330073654651641845703125">
        <ele>395.399993896484375</ele>
        <time>2021-04-01T10:24:58.000Z</time>
      </trkpt>
      <trkpt lat="41.62019460462033748626708984375" lon="-0.8387728594243526458740234375">
        <ele>395.399993896484375</ele>
        <time>2021-04-01T10:25:01.000Z</time>
      </trkpt>
      <trkpt lat="41.6202267073094844818115234375" lon="-0.8388104103505611419677734375">
        <ele>395.600006103515625</ele>
        <time>2021-04-01T10:25:02.000Z</time>
      </trkpt>
      <trkpt lat="41.620287559926509857177734375" lon="-0.8388794772326946258544921875">
        <ele>395.79998779296875</ele>
        <time>2021-04-01T10:25:04.000Z</time>
      </trkpt>
      <trkpt lat="41.62058721296489238739013671875" lon="-0.83921701647341251373291015625">
        <ele>395.399993896484375</ele>
        <time>2021-04-01T10:25:13.000Z</time>
      </trkpt>
      <trkpt lat="41.6206934116780757904052734375" lon="-0.83932983689010143280029296875">
        <ele>395.399993896484375</ele>
        <time>2021-04-01T10:25:16.000Z</time>
      </trkpt>
      <trkpt lat="41.62086700089275836944580078125" lon="-0.8394916914403438568115234375">
        <ele>395.79998779296875</ele>
        <time>2021-04-01T10:25:21.000Z</time>
      </trkpt>
      <trkpt lat="41.62111795507371425628662109375" lon="-0.83970836363732814788818359375">
        <ele>395.399993896484375</ele>
        <time>2021-04-01T10:25:28.000Z</time>
      </trkpt>
      <trkpt lat="41.62115232087671756744384765625" lon="-0.83973367698490619659423828125">
        <ele>395.600006103515625</ele>
        <time>2021-04-01T10:25:29.000Z</time>
      </trkpt>
      <trkpt lat="41.62121552042663097381591796875" lon="-0.83977491594851016998291015625">
        <ele>395.399993896484375</ele>
        <time>2021-04-01T10:25:31.000Z</time>
      </trkpt>
      <trkpt lat="41.6213998384773731231689453125" lon="-0.83991338498890399932861328125">
        <ele>394.600006103515625</ele>
        <time>2021-04-01T10:25:37.000Z</time>
      </trkpt>
      <trkpt lat="41.62161617539823055267333984375" lon="-0.84000441245734691619873046875">
        <ele>395.399993896484375</ele>
        <time>2021-04-01T10:25:43.000Z</time>
      </trkpt>
      <trkpt lat="41.6216509602963924407958984375" lon="-0.84002100862562656402587890625">
        <ele>395.79998779296875</ele>
        <time>2021-04-01T10:25:44.000Z</time>
      </trkpt>
      <trkpt lat="41.62183879874646663665771484375" lon="-0.8401780016720294952392578125">
        <ele>396.20001220703125</ele>
        <time>2021-04-01T10:25:50.000Z</time>
      </trkpt>
      <trkpt lat="41.62206779234111309051513671875" lon="-0.8404180593788623809814453125">
        <ele>395.79998779296875</ele>
        <time>2021-04-01T10:25:57.000Z</time>
      </trkpt>
      <trkpt lat="41.62235227413475513458251953125" lon="-0.84065870381891727447509765625">
        <ele>395.79998779296875</ele>
        <time>2021-04-01T10:26:05.000Z</time>
      </trkpt>
      <trkpt lat="41.62242284975945949554443359375" lon="-0.840710587799549102783203125">
        <ele>396</ele>
        <time>2021-04-01T10:26:07.000Z</time>
      </trkpt>
      <trkpt lat="41.62264832295477390289306640625" lon="-0.84085299633443355560302734375">
        <ele>396.20001220703125</ele>
        <time>2021-04-01T10:26:13.000Z</time>
      </trkpt>
      <trkpt lat="41.62271998822689056396484375" lon="-0.84090362302958965301513671875">
        <ele>396.399993896484375</ele>
        <time>2021-04-01T10:26:15.000Z</time>
      </trkpt>
      <trkpt lat="41.62278863601386547088623046875" lon="-0.84095441736280918121337890625">
        <ele>396.399993896484375</ele>
        <time>2021-04-01T10:26:17.000Z</time>
      </trkpt>
      <trkpt lat="41.62282099016010761260986328125" lon="-0.84098358638584613800048828125">
        <ele>396.399993896484375</ele>
        <time>2021-04-01T10:26:18.000Z</time>
      </trkpt>
      <trkpt lat="41.62288821302354335784912109375" lon="-0.84105424582958221435546875">
        <ele>396.20001220703125</ele>
        <time>2021-04-01T10:26:20.000Z</time>
      </trkpt>
      <trkpt lat="41.62305199541151523590087890625" lon="-0.84126220084726810455322265625">
        <ele>395.600006103515625</ele>
        <time>2021-04-01T10:26:25.000Z</time>
      </trkpt>
      <trkpt lat="41.6232130117714405059814453125" lon="-0.84144241176545619964599609375">
        <ele>395.20001220703125</ele>
        <time>2021-04-01T10:26:27.000Z</time>
      </trkpt>
      <trkpt lat="41.62327378056943416595458984375" lon="-0.84148985333740711212158203125">
        <ele>394.600006103515625</ele>
        <time>2021-04-01T10:26:28.000Z</time>
      </trkpt>
      <trkpt lat="41.62333429791033267974853515625" lon="-0.841533355414867401123046875">
        <ele>394.20001220703125</ele>
        <time>2021-04-01T10:26:29.000Z</time>
      </trkpt>
      <trkpt lat="41.6234520636498928070068359375" lon="-0.84160552360117435455322265625">
        <ele>393.600006103515625</ele>
        <time>2021-04-01T10:26:31.000Z</time>
      </trkpt>
      <trkpt lat="41.62362079136073589324951171875" lon="-0.84168900735676288604736328125">
        <ele>393.399993896484375</ele>
        <time>2021-04-01T10:26:34.000Z</time>
      </trkpt>
      <trkpt lat="41.62393829785287380218505859375" lon="-0.84182362072169780731201171875">
        <ele>393.600006103515625</ele>
        <time>2021-04-01T10:26:40.000Z</time>
      </trkpt>
      <trkpt lat="41.624038629233837127685546875" lon="-0.84183284081518650054931640625">
        <ele>393.600006103515625</ele>
        <time>2021-04-01T10:26:42.000Z</time>
      </trkpt>
      <trkpt lat="41.62417701445519924163818359375" lon="-0.841833092272281646728515625">
        <ele>393.79998779296875</ele>
        <time>2021-04-01T10:26:45.000Z</time>
      </trkpt>
      <trkpt lat="41.62435747683048248291015625" lon="-0.84184239618480205535888671875">
        <ele>394.20001220703125</ele>
        <time>2021-04-01T10:26:49.000Z</time>
      </trkpt>
      <trkpt lat="41.62445026449859142303466796875" lon="-0.841849185526371002197265625">
        <ele>394.600006103515625</ele>
        <time>2021-04-01T10:26:51.000Z</time>
      </trkpt>
      <trkpt lat="41.62449502386152744293212890625" lon="-0.8418523706495761871337890625">
        <ele>394.600006103515625</ele>
        <time>2021-04-01T10:26:52.000Z</time>
      </trkpt>
      <trkpt lat="41.624813787639141082763671875" lon="-0.84185061044991016387939453125">
        <ele>394.600006103515625</ele>
        <time>2021-04-01T10:26:59.000Z</time>
      </trkpt>
      <trkpt lat="41.62494965828955173492431640625" lon="-0.84183476865291595458984375">
        <ele>394.600006103515625</ele>
        <time>2021-04-01T10:27:02.000Z</time>
      </trkpt>
      <trkpt lat="41.62507899105548858642578125" lon="-0.841816999018192291259765625">
        <ele>394.79998779296875</ele>
        <time>2021-04-01T10:27:05.000Z</time>
      </trkpt>
      <trkpt lat="41.62520346231758594512939453125" lon="-0.8418138138949871063232421875">
        <ele>394.600006103515625</ele>
        <time>2021-04-01T10:27:08.000Z</time>
      </trkpt>
      <trkpt lat="41.62532801739871501922607421875" lon="-0.8418072760105133056640625">
        <ele>394.20001220703125</ele>
        <time>2021-04-01T10:27:11.000Z</time>
      </trkpt>
      <trkpt lat="41.62557746283710002899169921875" lon="-0.84180450998246669769287109375">
        <ele>394.399993896484375</ele>
        <time>2021-04-01T10:27:17.000Z</time>
      </trkpt>
      <trkpt lat="41.62561970762908458709716796875" lon="-0.84180216304957866668701171875">
        <ele>394.600006103515625</ele>
        <time>2021-04-01T10:27:18.000Z</time>
      </trkpt>
      <trkpt lat="41.625704281032085418701171875" lon="-0.8417957089841365814208984375">
        <ele>394.600006103515625</ele>
        <time>2021-04-01T10:27:20.000Z</time>
      </trkpt>
      <trkpt lat="41.6258697398006916046142578125" lon="-0.8417806215584278106689453125">
        <ele>394</ele>
        <time>2021-04-01T10:27:24.000Z</time>
      </trkpt>
      <trkpt lat="41.6261235438287258148193359375" lon="-0.8417507819831371307373046875">
        <ele>394.399993896484375</ele>
        <time>2021-04-01T10:27:30.000Z</time>
      </trkpt>
      <trkpt lat="41.6264663636684417724609375" lon="-0.8417236246168613433837890625">
        <ele>395.600006103515625</ele>
        <time>2021-04-01T10:27:38.000Z</time>
      </trkpt>
      <trkpt lat="41.62672846578061580657958984375" lon="-0.84171482361853122711181640625">
        <ele>395.20001220703125</ele>
        <time>2021-04-01T10:27:44.000Z</time>
      </trkpt>
      <trkpt lat="41.626818738877773284912109375" lon="-0.841714404523372650146484375">
        <ele>394.600006103515625</ele>
        <time>2021-04-01T10:27:46.000Z</time>
      </trkpt>
      <trkpt lat="41.62692024372518062591552734375" lon="-0.84170577116310596466064453125">
        <ele>395</ele>
        <time>2021-04-01T10:27:49.000Z</time>
      </trkpt>
      <trkpt lat="41.626951508224010467529296875" lon="-0.841703675687313079833984375">
        <ele>395</ele>
        <time>2021-04-01T10:27:50.000Z</time>
      </trkpt>
      <trkpt lat="41.6272522509098052978515625" lon="-0.841693617403507232666015625">
        <ele>395.600006103515625</ele>
        <time>2021-04-01T10:27:58.000Z</time>
      </trkpt>
      <trkpt lat="41.6273734532296657562255859375" lon="-0.841684900224208831787109375">
        <ele>395</ele>
        <time>2021-04-01T10:28:01.000Z</time>
      </trkpt>
      <trkpt lat="41.627494990825653076171875" lon="-0.8416713215410709381103515625">
        <ele>394.399993896484375</ele>
        <time>2021-04-01T10:28:04.000Z</time>
      </trkpt>
      <trkpt lat="41.62762080319225788116455078125" lon="-0.84165849722921848297119140625">
        <ele>394.399993896484375</ele>
        <time>2021-04-01T10:28:07.000Z</time>
      </trkpt>
      <trkpt lat="41.62778877653181552886962890625" lon="-0.84164542146027088165283203125">
        <ele>395</ele>
        <time>2021-04-01T10:28:11.000Z</time>
      </trkpt>
      <trkpt lat="41.6280262358486652374267578125" lon="-0.84162379615008831024169921875">
        <ele>395.399993896484375</ele>
        <time>2021-04-01T10:28:17.000Z</time>
      </trkpt>
      <trkpt lat="41.628243662416934967041015625" lon="-0.84160518832504749298095703125">
        <ele>394.600006103515625</ele>
        <time>2021-04-01T10:28:23.000Z</time>
      </trkpt>
      <trkpt lat="41.62836209870874881744384765625" lon="-0.8415982313454151153564453125">
        <ele>394.20001220703125</ele>
        <time>2021-04-01T10:28:26.000Z</time>
      </trkpt>
      <trkpt lat="41.6285987198352813720703125" lon="-0.8416243828833103179931640625">
        <ele>395.20001220703125</ele>
        <time>2021-04-01T10:28:32.000Z</time>
      </trkpt>
      <trkpt lat="41.6286391206085681915283203125" lon="-0.84164139814674854278564453125">
        <ele>395.399993896484375</ele>
        <time>2021-04-01T10:28:33.000Z</time>
      </trkpt>
      <trkpt lat="41.628680862486362457275390625" lon="-0.8416545577347278594970703125">
        <ele>395.600006103515625</ele>
        <time>2021-04-01T10:28:34.000Z</time>
      </trkpt>
      <trkpt lat="41.628800891339778900146484375" lon="-0.8416572399437427520751953125">
        <ele>395.399993896484375</ele>
        <time>2021-04-01T10:28:37.000Z</time>
      </trkpt>
      <trkpt lat="41.6290293820202350616455078125" lon="-0.841551460325717926025390625">
        <ele>395</ele>
        <time>2021-04-01T10:28:43.000Z</time>
      </trkpt>
      <trkpt lat="41.62927153520286083221435546875" lon="-0.84146169014275074005126953125">
        <ele>395.79998779296875</ele>
        <time>2021-04-01T10:28:50.000Z</time>
      </trkpt>
      <trkpt lat="41.629410423338413238525390625" lon="-0.8414336107671260833740234375">
        <ele>395.79998779296875</ele>
        <time>2021-04-01T10:28:54.000Z</time>
      </trkpt>
      <trkpt lat="41.6294825077056884765625" lon="-0.84141743369400501251220703125">
        <ele>396</ele>
        <time>2021-04-01T10:28:56.000Z</time>
      </trkpt>
      <trkpt lat="41.62975550629198551177978515625" lon="-0.84135674871504306793212890625">
        <ele>395.79998779296875</ele>
        <time>2021-04-01T10:29:03.000Z</time>
      </trkpt>
      <trkpt lat="41.62983798421919345855712890625" lon="-0.8413370512425899505615234375">
        <ele>395.79998779296875</ele>
        <time>2021-04-01T10:29:05.000Z</time>
      </trkpt>
      <trkpt lat="41.63019253872334957122802734375" lon="-0.84122381173074245452880859375">
        <ele>395.79998779296875</ele>
        <time>2021-04-01T10:29:13.000Z</time>
      </trkpt>
      <trkpt lat="41.63043511100113391876220703125" lon="-0.84115005098283290863037109375">
        <ele>394.600006103515625</ele>
        <time>2021-04-01T10:29:19.000Z</time>
      </trkpt>
      <trkpt lat="41.63046662695705890655517578125" lon="-0.84114535711705684661865234375">
        <ele>394.600006103515625</ele>
        <time>2021-04-01T10:29:20.000Z</time>
      </trkpt>
      <trkpt lat="41.63058699108660221099853515625" lon="-0.8411420881748199462890625">
        <ele>395.20001220703125</ele>
        <time>2021-04-01T10:29:23.000Z</time>
      </trkpt>
      <trkpt lat="41.6306675411760807037353515625" lon="-0.84116161800920963287353515625">
        <ele>395.20001220703125</ele>
        <time>2021-04-01T10:29:25.000Z</time>
      </trkpt>
      <trkpt lat="41.63074876181781291961669921875" lon="-0.8411885239183902740478515625">
        <ele>395.399993896484375</ele>
        <time>2021-04-01T10:29:27.000Z</time>
      </trkpt>
      <trkpt lat="41.6308780945837497711181640625" lon="-0.84123873151838779449462890625">
        <ele>395.79998779296875</ele>
        <time>2021-04-01T10:29:31.000Z</time>
      </trkpt>
      <trkpt lat="41.63102905265986919403076171875" lon="-0.84122682921588420867919921875">
        <ele>395.399993896484375</ele>
        <time>2021-04-01T10:29:35.000Z</time>
      </trkpt>
      <trkpt lat="41.6313454695045948028564453125" lon="-0.84115088917315006256103515625">
        <ele>396.20001220703125</ele>
        <time>2021-04-01T10:29:43.000Z</time>
      </trkpt>
      <trkpt lat="41.63161209784448146820068359375" lon="-0.84106095135211944580078125">
        <ele>394.79998779296875</ele>
        <time>2021-04-01T10:29:50.000Z</time>
      </trkpt>
      <trkpt lat="41.63169239647686481475830078125" lon="-0.84103873930871486663818359375">
        <ele>395</ele>
        <time>2021-04-01T10:29:52.000Z</time>
      </trkpt>
      <trkpt lat="41.63192876614630222320556640625" lon="-0.8409752883017063140869140625">
        <ele>395.399993896484375</ele>
        <time>2021-04-01T10:29:58.000Z</time>
      </trkpt>
      <trkpt lat="41.63197017274796962738037109375" lon="-0.8409659005701541900634765625">
        <ele>395.399993896484375</ele>
        <time>2021-04-01T10:29:59.000Z</time>
      </trkpt>
      <trkpt lat="41.632051728665828704833984375" lon="-0.8409409224987030029296875">
        <ele>395.600006103515625</ele>
        <time>2021-04-01T10:30:01.000Z</time>
      </trkpt>
      <trkpt lat="41.6322926245629787445068359375" lon="-0.8408395014703273773193359375">
        <ele>396</ele>
        <time>2021-04-01T10:30:07.000Z</time>
      </trkpt>
      <trkpt lat="41.6326496936380863189697265625" lon="-0.84069893695414066314697265625">
        <ele>396.399993896484375</ele>
        <time>2021-04-01T10:30:16.000Z</time>
      </trkpt>
      <trkpt lat="41.63273401558399200439453125" lon="-0.84067110903561115264892578125">
        <ele>396.79998779296875</ele>
        <time>2021-04-01T10:30:18.000Z</time>
      </trkpt>
      <trkpt lat="41.632816828787326812744140625" lon="-0.840641520917415618896484375">
        <ele>397</ele>
        <time>2021-04-01T10:30:20.000Z</time>
      </trkpt>
      <trkpt lat="41.6328579001128673553466796875" lon="-0.84062752313911914825439453125">
        <ele>397</ele>
        <time>2021-04-01T10:30:21.000Z</time>
      </trkpt>
      <trkpt lat="41.6329400427639484405517578125" lon="-0.84059583954513072967529296875">
        <ele>396.20001220703125</ele>
        <time>2021-04-01T10:30:23.000Z</time>
      </trkpt>
      <trkpt lat="41.63298186846077442169189453125" lon="-0.84057924337685108184814453125">
        <ele>395.600006103515625</ele>
        <time>2021-04-01T10:30:24.000Z</time>
      </trkpt>
      <trkpt lat="41.6330248676240444183349609375" lon="-0.8405645750463008880615234375">
        <ele>395.600006103515625</ele>
        <time>2021-04-01T10:30:25.000Z</time>
      </trkpt>
      <trkpt lat="41.6331529431045055389404296875" lon="-0.840518809854984283447265625">
        <ele>395.20001220703125</ele>
        <time>2021-04-01T10:30:28.000Z</time>
      </trkpt>
      <trkpt lat="41.6333034820854663848876953125" lon="-0.840464495122432708740234375">
        <ele>395.600006103515625</ele>
        <time>2021-04-01T10:30:32.000Z</time>
      </trkpt>
      <trkpt lat="41.63351696915924549102783203125" lon="-0.8403989486396312713623046875">
        <ele>395.600006103515625</ele>
        <time>2021-04-01T10:30:37.000Z</time>
      </trkpt>
      <trkpt lat="41.6336947493255138397216796875" lon="-0.8403473161160945892333984375">
        <ele>395.399993896484375</ele>
        <time>2021-04-01T10:30:41.000Z</time>
      </trkpt>
      <trkpt lat="41.63378234021365642547607421875" lon="-0.84031521342694759368896484375">
        <ele>395.600006103515625</ele>
        <time>2021-04-01T10:30:43.000Z</time>
      </trkpt>
      <trkpt lat="41.63394494913518428802490234375" lon="-0.84025033749639987945556640625">
        <ele>395.399993896484375</ele>
        <time>2021-04-01T10:30:47.000Z</time>
      </trkpt>
      <trkpt lat="41.63420964963734149932861328125" lon="-0.840188898146152496337890625">
        <ele>395.600006103515625</ele>
        <time>2021-04-01T10:30:53.000Z</time>
      </trkpt>
      <trkpt lat="41.63429564796388149261474609375" lon="-0.8401743136346340179443359375">
        <ele>395.79998779296875</ele>
        <time>2021-04-01T10:30:55.000Z</time>
      </trkpt>
      <trkpt lat="41.63460494019091129302978515625" lon="-0.8401716314256191253662109375">
        <ele>396</ele>
        <time>2021-04-01T10:31:02.000Z</time>
      </trkpt>
      <trkpt lat="41.63477308116853237152099609375" lon="-0.840189568698406219482421875">
        <ele>396.600006103515625</ele>
        <time>2021-04-01T10:31:06.000Z</time>
      </trkpt>
      <trkpt lat="41.634811721742153167724609375" lon="-0.84019191563129425048828125">
        <ele>396.600006103515625</ele>
        <time>2021-04-01T10:31:07.000Z</time>
      </trkpt>
      <trkpt lat="41.63485036231577396392822265625" lon="-0.84018864668905735015869140625">
        <ele>397</ele>
        <time>2021-04-01T10:31:08.000Z</time>
      </trkpt>
      <trkpt lat="41.63488791324198246002197265625" lon="-0.84018412046134471893310546875">
        <ele>396.79998779296875</ele>
        <time>2021-04-01T10:31:09.000Z</time>
      </trkpt>
      <trkpt lat="41.63502755574882030487060546875" lon="-0.84016098640859127044677734375">
        <ele>396.399993896484375</ele>
        <time>2021-04-01T10:31:13.000Z</time>
      </trkpt>
      <trkpt lat="41.6351003944873809814453125" lon="-0.84011103026568889617919921875">
        <ele>396.20001220703125</ele>
        <time>2021-04-01T10:31:15.000Z</time>
      </trkpt>
      <trkpt lat="41.6352353431284427642822265625" lon="-0.83991925232112407684326171875">
        <ele>395.399993896484375</ele>
        <time>2021-04-01T10:31:20.000Z</time>
      </trkpt>
      <trkpt lat="41.6353996284306049346923828125" lon="-0.83968841470777988433837890625">
        <ele>395.79998779296875</ele>
        <time>2021-04-01T10:31:26.000Z</time>
      </trkpt>
      <trkpt lat="41.635573469102382659912109375" lon="-0.839570648968219757080078125">
        <ele>396</ele>
        <time>2021-04-01T10:31:31.000Z</time>
      </trkpt>
      <trkpt lat="41.63560808636248111724853515625" lon="-0.8395503647625446319580078125">
        <ele>395.79998779296875</ele>
        <time>2021-04-01T10:31:32.000Z</time>
      </trkpt>
      <trkpt lat="41.6357950866222381591796875" lon="-0.839442908763885498046875">
        <ele>395.79998779296875</ele>
        <time>2021-04-01T10:31:37.000Z</time>
      </trkpt>
      <trkpt lat="41.63588024675846099853515625" lon="-0.8394051901996135711669921875">
        <ele>395.79998779296875</ele>
        <time>2021-04-01T10:31:39.000Z</time>
      </trkpt>
      <trkpt lat="41.63610060699284076690673828125" lon="-0.83930402062833309173583984375">
        <ele>395.600006103515625</ele>
        <time>2021-04-01T10:31:44.000Z</time>
      </trkpt>
      <trkpt lat="41.63618509657680988311767578125" lon="-0.83926278166472911834716796875">
        <ele>395</ele>
        <time>2021-04-01T10:31:46.000Z</time>
      </trkpt>
      <trkpt lat="41.63649447262287139892578125" lon="-0.83912414498627185821533203125">
        <ele>394.79998779296875</ele>
        <time>2021-04-01T10:31:54.000Z</time>
      </trkpt>
      <trkpt lat="41.63667820394039154052734375" lon="-0.83903747610747814178466796875">
        <ele>394.79998779296875</ele>
        <time>2021-04-01T10:31:59.000Z</time>
      </trkpt>
      <trkpt lat="41.63671919144690036773681640625" lon="-0.83901870064437389373779296875">
        <ele>394.600006103515625</ele>
        <time>2021-04-01T10:32:00.000Z</time>
      </trkpt>
      <trkpt lat="41.6367960534989833831787109375" lon="-0.83897796459496021270751953125">
        <ele>394</ele>
        <time>2021-04-01T10:32:02.000Z</time>
      </trkpt>
      <trkpt lat="41.6368352808058261871337890625" lon="-0.838959775865077972412109375">
        <ele>394</ele>
        <time>2021-04-01T10:32:03.000Z</time>
      </trkpt>
      <trkpt lat="41.6369626857340335845947265625" lon="-0.83891325630247592926025390625">
        <ele>393.79998779296875</ele>
        <time>2021-04-01T10:32:06.000Z</time>
      </trkpt>
      <trkpt lat="41.63724104873836040496826171875" lon="-0.8387882821261882781982421875">
        <ele>395.20001220703125</ele>
        <time>2021-04-01T10:32:13.000Z</time>
      </trkpt>
      <trkpt lat="41.63737465627491474151611328125" lon="-0.83874142728745937347412109375">
        <ele>394.79998779296875</ele>
        <time>2021-04-01T10:32:16.000Z</time>
      </trkpt>
      <trkpt lat="41.637455709278583526611328125" lon="-0.83869314752519130706787109375">
        <ele>394.79998779296875</ele>
        <time>2021-04-01T10:32:19.000Z</time>
      </trkpt>
      <trkpt lat="41.6376248560845851898193359375" lon="-0.83861435763537883758544921875">
        <ele>395</ele>
        <time>2021-04-01T10:32:23.000Z</time>
      </trkpt>
      <trkpt lat="41.6377066634595394134521484375" lon="-0.83858083002269268035888671875">
        <ele>394.79998779296875</ele>
        <time>2021-04-01T10:32:25.000Z</time>
      </trkpt>
      <trkpt lat="41.63778671063482761383056640625" lon="-0.83854478783905506134033203125">
        <ele>394.79998779296875</ele>
        <time>2021-04-01T10:32:27.000Z</time>
      </trkpt>
      <trkpt lat="41.63793926127254962921142578125" lon="-0.83848158828914165496826171875">
        <ele>394.600006103515625</ele>
        <time>2021-04-01T10:32:31.000Z</time>
      </trkpt>
      <trkpt lat="41.637980081140995025634765625" lon="-0.83846583031117916107177734375">
        <ele>394.600006103515625</ele>
        <time>2021-04-01T10:32:32.000Z</time>
      </trkpt>
      <trkpt lat="41.63809600286185741424560546875" lon="-0.83842098712921142578125">
        <ele>394.79998779296875</ele>
        <time>2021-04-01T10:32:35.000Z</time>
      </trkpt>
      <trkpt lat="41.6382504813373088836669921875" lon="-0.838336162269115447998046875">
        <ele>394.79998779296875</ele>
        <time>2021-04-01T10:32:39.000Z</time>
      </trkpt>
      <trkpt lat="41.63849732838571071624755859375" lon="-0.83824387751519680023193359375">
        <ele>394.79998779296875</ele>
        <time>2021-04-01T10:32:45.000Z</time>
      </trkpt>
      <trkpt lat="41.638581566512584686279296875" lon="-0.83822359330952167510986328125">
        <ele>394.79998779296875</ele>
        <time>2021-04-01T10:32:47.000Z</time>
      </trkpt>
      <trkpt lat="41.63882304914295673370361328125" lon="-0.83816458471119403839111328125">
        <ele>394.79998779296875</ele>
        <time>2021-04-01T10:32:53.000Z</time>
      </trkpt>
      <trkpt lat="41.6388633660972118377685546875" lon="-0.83816139958798885345458984375">
        <ele>395</ele>
        <time>2021-04-01T10:32:54.000Z</time>
      </trkpt>
      <trkpt lat="41.63915497250854969024658203125" lon="-0.83811731077730655670166015625">
        <ele>395.20001220703125</ele>
        <time>2021-04-01T10:33:01.000Z</time>
      </trkpt>
      <trkpt lat="41.6394028253853321075439453125" lon="-0.83802460692822933197021484375">
        <ele>394.79998779296875</ele>
        <time>2021-04-01T10:33:07.000Z</time>
      </trkpt>
      <trkpt lat="41.63959510624408721923828125" lon="-0.8379113674163818359375">
        <ele>395.20001220703125</ele>
        <time>2021-04-01T10:33:12.000Z</time>
      </trkpt>
      <trkpt lat="41.63970633409917354583740234375" lon="-0.8378525264561176300048828125">
        <ele>396</ele>
        <time>2021-04-01T10:33:15.000Z</time>
      </trkpt>
      <trkpt lat="41.63982845842838287353515625" lon="-0.83780399523675441741943359375">
        <ele>395.79998779296875</ele>
        <time>2021-04-01T10:33:18.000Z</time>
      </trkpt>
      <trkpt lat="41.63991370238363742828369140625" lon="-0.83777952007949352264404296875">
        <ele>396</ele>
        <time>2021-04-01T10:33:20.000Z</time>
      </trkpt>
      <trkpt lat="41.64021427743136882781982421875" lon="-0.83771179430186748504638671875">
        <ele>395.600006103515625</ele>
        <time>2021-04-01T10:33:27.000Z</time>
      </trkpt>
      <trkpt lat="41.64034050889313220977783203125" lon="-0.83770215511322021484375">
        <ele>396.20001220703125</ele>
        <time>2021-04-01T10:33:30.000Z</time>
      </trkpt>
      <trkpt lat="41.64054594933986663818359375" lon="-0.83767290227115154266357421875">
        <ele>396.20001220703125</ele>
        <time>2021-04-01T10:33:35.000Z</time>
      </trkpt>
      <trkpt lat="41.64082816801965236663818359375" lon="-0.8376208506524562835693359375">
        <ele>395.600006103515625</ele>
        <time>2021-04-01T10:33:42.000Z</time>
      </trkpt>
      <trkpt lat="41.64125346578657627105712890625" lon="-0.8375219441950321197509765625">
        <ele>395.79998779296875</ele>
        <time>2021-04-01T10:33:52.000Z</time>
      </trkpt>
      <trkpt lat="41.64142479188740253448486328125" lon="-0.83748095668852329254150390625">
        <ele>395.600006103515625</ele>
        <time>2021-04-01T10:33:56.000Z</time>
      </trkpt>
      <trkpt lat="41.641670800745487213134765625" lon="-0.837402753531932830810546875">
        <ele>396.399993896484375</ele>
        <time>2021-04-01T10:34:02.000Z</time>
      </trkpt>
      <trkpt lat="41.6419479064643383026123046875" lon="-0.83718306384980678558349609375">
        <ele>395.79998779296875</ele>
        <time>2021-04-01T10:34:10.000Z</time>
      </trkpt>
      <trkpt lat="41.64202325977385044097900390625" lon="-0.83713092841207981109619140625">
        <ele>396</ele>
        <time>2021-04-01T10:34:12.000Z</time>
      </trkpt>
      <trkpt lat="41.6421785764396190643310546875" lon="-0.837087593972682952880859375">
        <ele>395.79998779296875</ele>
        <time>2021-04-01T10:34:16.000Z</time>
      </trkpt>
      <trkpt lat="41.64237479679286479949951171875" lon="-0.8370927907526493072509765625">
        <ele>395.20001220703125</ele>
        <time>2021-04-01T10:34:21.000Z</time>
      </trkpt>
      <trkpt lat="41.64244956336915493011474609375" lon="-0.8370981551706790924072265625">
        <ele>395.600006103515625</ele>
        <time>2021-04-01T10:34:23.000Z</time>
      </trkpt>
      <trkpt lat="41.6427178680896759033203125" lon="-0.83716160617768764495849609375">
        <ele>396.20001220703125</ele>
        <time>2021-04-01T10:34:30.000Z</time>
      </trkpt>
      <trkpt lat="41.64280562661588191986083984375" lon="-0.83717552013695240020751953125">
        <ele>396.20001220703125</ele>
        <time>2021-04-01T10:34:32.000Z</time>
      </trkpt>
      <trkpt lat="41.64298499934375286102294921875" lon="-0.83720653317868709564208984375">
        <ele>395.79998779296875</ele>
        <time>2021-04-01T10:34:36.000Z</time>
      </trkpt>
      <trkpt lat="41.6430308483541011810302734375" lon="-0.8372153341770172119140625">
        <ele>395.79998779296875</ele>
        <time>2021-04-01T10:34:37.000Z</time>
      </trkpt>
      <trkpt lat="41.643080301582813262939453125" lon="-0.8372245542705059051513671875">
        <ele>395.79998779296875</ele>
        <time>2021-04-01T10:34:38.000Z</time>
      </trkpt>
      <trkpt lat="41.64313134737312793731689453125" lon="-0.8372322656214237213134765625">
        <ele>395.79998779296875</ele>
        <time>2021-04-01T10:34:39.000Z</time>
      </trkpt>
      <trkpt lat="41.64332647807896137237548828125" lon="-0.83723553456366062164306640625">
        <ele>396.399993896484375</ele>
        <time>2021-04-01T10:34:43.000Z</time>
      </trkpt>
      <trkpt lat="41.6433751769363880157470703125" lon="-0.83724173717200756072998046875">
        <ele>396.399993896484375</ele>
        <time>2021-04-01T10:34:44.000Z</time>
      </trkpt>
      <trkpt lat="41.64358849637210369110107421875" lon="-0.83727124147117137908935546875">
        <ele>395.399993896484375</ele>
        <time>2021-04-01T10:34:50.000Z</time>
      </trkpt>
      <trkpt lat="41.64391673170030117034912109375" lon="-0.8373419009149074554443359375">
        <ele>396.20001220703125</ele>
        <time>2021-04-01T10:34:57.000Z</time>
      </trkpt>
      <trkpt lat="41.64391673170030117034912109375" lon="-0.8373419009149074554443359375">
        <ele>396.20001220703125</ele>
        <time>2021-04-01T10:34:58.000Z</time>
      </trkpt>
      <trkpt lat="41.64406827650964260101318359375" lon="-0.83742848597466945648193359375">
        <ele>396.600006103515625</ele>
        <time>2021-04-01T10:35:02.000Z</time>
      </trkpt>
      <trkpt lat="41.64418210275471210479736328125" lon="-0.8375035040080547332763671875">
        <ele>396.79998779296875</ele>
        <time>2021-04-01T10:35:06.000Z</time>
      </trkpt>
      <trkpt lat="41.64440506137907505035400390625" lon="-0.83760249428451061248779296875">
        <ele>396.79998779296875</ele>
        <time>2021-04-01T10:35:12.000Z</time>
      </trkpt>
      <trkpt lat="41.64474436081945896148681640625" lon="-0.83781489171087741851806640625">
        <ele>396.399993896484375</ele>
        <time>2021-04-01T10:35:21.000Z</time>
      </trkpt>
      <trkpt lat="41.64488836191594600677490234375" lon="-0.8378994651138782501220703125">
        <ele>396.20001220703125</ele>
        <time>2021-04-01T10:35:24.000Z</time>
      </trkpt>
      <trkpt lat="41.64488836191594600677490234375" lon="-0.8378994651138782501220703125">
        <ele>396.20001220703125</ele>
        <time>2021-04-01T10:35:25.000Z</time>
      </trkpt>
      <trkpt lat="41.64501124061644077301025390625" lon="-0.83798982203006744384765625">
        <ele>396</ele>
        <time>2021-04-01T10:35:27.000Z</time>
      </trkpt>
      <trkpt lat="41.6452637873589992523193359375" lon="-0.838155448436737060546875">
        <ele>396.20001220703125</ele>
        <time>2021-04-01T10:35:33.000Z</time>
      </trkpt>
      <trkpt lat="41.6453035175800323486328125" lon="-0.83818604238331317901611328125">
        <ele>396.399993896484375</ele>
        <time>2021-04-01T10:35:35.000Z</time>
      </trkpt>
      <trkpt lat="41.645582132041454315185546875" lon="-0.83838301710784435272216796875">
        <ele>395.600006103515625</ele>
        <time>2021-04-01T10:35:42.000Z</time>
      </trkpt>
      <trkpt lat="41.64573057554662227630615234375" lon="-0.83849566988646984100341796875">
        <ele>397.399993896484375</ele>
        <time>2021-04-01T10:35:47.000Z</time>
      </trkpt>
      <trkpt lat="41.6459175758063793182373046875" lon="-0.8386451192200183868408203125">
        <ele>397.399993896484375</ele>
        <time>2021-04-01T10:35:51.000Z</time>
      </trkpt>
      <trkpt lat="41.64606534875929355621337890625" lon="-0.8387825824320316314697265625">
        <ele>396</ele>
        <time>2021-04-01T10:35:55.000Z</time>
      </trkpt>
      <trkpt lat="41.64620348252356052398681640625" lon="-0.83894108422100543975830078125">
        <ele>395.600006103515625</ele>
        <time>2021-04-01T10:35:59.000Z</time>
      </trkpt>
      <trkpt lat="41.64646181277930736541748046875" lon="-0.839299745857715606689453125">
        <ele>395.399993896484375</ele>
        <time>2021-04-01T10:36:07.000Z</time>
      </trkpt>
      <trkpt lat="41.64664487354457378387451171875" lon="-0.8396385423839092254638671875">
        <ele>395.79998779296875</ele>
        <time>2021-04-01T10:36:14.000Z</time>
      </trkpt>
      <trkpt lat="41.64664688520133495330810546875" lon="-0.83970115520060062408447265625">
        <ele>395.79998779296875</ele>
        <time>2021-04-01T10:36:15.000Z</time>
      </trkpt>
      <trkpt lat="41.64664319716393947601318359375" lon="-0.8397595770657062530517578125">
        <ele>396</ele>
        <time>2021-04-01T10:36:16.000Z</time>
      </trkpt>
      <trkpt lat="41.64663364179432392120361328125" lon="-0.83989393897354602813720703125">
        <ele>396</ele>
        <time>2021-04-01T10:36:19.000Z</time>
      </trkpt>
      <trkpt lat="41.64664101786911487579345703125" lon="-0.83995931781828403472900390625">
        <ele>396.20001220703125</ele>
        <time>2021-04-01T10:36:20.000Z</time>
      </trkpt>
      <trkpt lat="41.64665895514190196990966796875" lon="-0.8400182425975799560546875">
        <ele>396.399993896484375</ele>
        <time>2021-04-01T10:36:21.000Z</time>
      </trkpt>
      <trkpt lat="41.64671528153121471405029296875" lon="-0.8401169814169406890869140625">
        <ele>396.399993896484375</ele>
        <time>2021-04-01T10:36:22.000Z</time>
      </trkpt>
      <trkpt lat="41.646777726709842681884765625" lon="-0.84020197391510009765625">
        <ele>396.20001220703125</ele>
        <time>2021-04-01T10:36:24.000Z</time>
      </trkpt>
      <trkpt lat="41.647084169089794158935546875" lon="-0.840550996363162994384765625">
        <ele>396.399993896484375</ele>
        <time>2021-04-01T10:36:33.000Z</time>
      </trkpt>
      <trkpt lat="41.64714954793453216552734375" lon="-0.84062936715781688690185546875">
        <ele>396.399993896484375</ele>
        <time>2021-04-01T10:36:35.000Z</time>
      </trkpt>
      <trkpt lat="41.64717963896691799163818359375" lon="-0.8406745456159114837646484375">
        <ele>396.20001220703125</ele>
        <time>2021-04-01T10:36:36.000Z</time>
      </trkpt>
      <trkpt lat="41.64723630063235759735107421875" lon="-0.84076129831373691558837890625">
        <ele>396</ele>
        <time>2021-04-01T10:36:38.000Z</time>
      </trkpt>
      <trkpt lat="41.64729396812617778778076171875" lon="-0.840853750705718994140625">
        <ele>396.20001220703125</ele>
        <time>2021-04-01T10:36:40.000Z</time>
      </trkpt>
      <trkpt lat="41.64739890955388545989990234375" lon="-0.84104594774544239044189453125">
        <ele>396.600006103515625</ele>
        <time>2021-04-01T10:36:44.000Z</time>
      </trkpt>
      <trkpt lat="41.64746940135955810546875" lon="-0.84119950421154499053955078125">
        <ele>396.600006103515625</ele>
        <time>2021-04-01T10:36:47.000Z</time>
      </trkpt>
      <trkpt lat="41.647486500442028045654296875" lon="-0.8412545733153820037841796875">
        <ele>396.399993896484375</ele>
        <time>2021-04-01T10:36:48.000Z</time>
      </trkpt>
      <trkpt lat="41.647486500442028045654296875" lon="-0.8412545733153820037841796875">
        <ele>396.399993896484375</ele>
        <time>2021-04-01T10:36:49.000Z</time>
      </trkpt>
      <trkpt lat="41.64754676632583141326904296875" lon="-0.8414745144546031951904296875">
        <ele>396.20001220703125</ele>
        <time>2021-04-01T10:36:52.000Z</time>
      </trkpt>
      <trkpt lat="41.64764399640262126922607421875" lon="-0.84178891964256763458251953125">
        <ele>396.79998779296875</ele>
        <time>2021-04-01T10:36:58.000Z</time>
      </trkpt>
      <trkpt lat="41.64774474687874317169189453125" lon="-0.8420327492058277130126953125">
        <ele>397.20001220703125</ele>
        <time>2021-04-01T10:37:03.000Z</time>
      </trkpt>
      <trkpt lat="41.64785354398190975189208984375" lon="-0.8422751538455486297607421875">
        <ele>397.20001220703125</ele>
        <time>2021-04-01T10:37:08.000Z</time>
      </trkpt>
      <trkpt lat="41.64787231944501399993896484375" lon="-0.84232804365456104278564453125">
        <ele>397.20001220703125</ele>
        <time>2021-04-01T10:37:09.000Z</time>
      </trkpt>
      <trkpt lat="41.6479057632386684417724609375" lon="-0.8424967713654041290283203125">
        <ele>397.399993896484375</ele>
        <time>2021-04-01T10:37:12.000Z</time>
      </trkpt>
      <trkpt lat="41.6479057632386684417724609375" lon="-0.8424967713654041290283203125">
        <ele>397.20001220703125</ele>
        <time>2021-04-01T10:37:13.000Z</time>
      </trkpt>
      <trkpt lat="41.647907607257366180419921875" lon="-0.84255536086857318878173828125">
        <ele>397.399993896484375</ele>
        <time>2021-04-01T10:37:14.000Z</time>
      </trkpt>
      <trkpt lat="41.647900231182575225830078125" lon="-0.8426629006862640380859375">
        <ele>397.399993896484375</ele>
        <time>2021-04-01T10:37:15.000Z</time>
      </trkpt>
      <trkpt lat="41.64787667803466320037841796875" lon="-0.84282827563583850860595703125">
        <ele>397.20001220703125</ele>
        <time>2021-04-01T10:37:19.000Z</time>
      </trkpt>
      <trkpt lat="41.64785899221897125244140625" lon="-0.8429383300244808197021484375">
        <ele>397.20001220703125</ele>
        <time>2021-04-01T10:37:21.000Z</time>
      </trkpt>
      <trkpt lat="41.6478569805622100830078125" lon="-0.842995159327983856201171875">
        <ele>397.20001220703125</ele>
        <time>2021-04-01T10:37:22.000Z</time>
      </trkpt>
      <trkpt lat="41.64786108769476413726806640625" lon="-0.84305525757372379302978515625">
        <ele>397.20001220703125</ele>
        <time>2021-04-01T10:37:23.000Z</time>
      </trkpt>
      <trkpt lat="41.6479106247425079345703125" lon="-0.84321870468556880950927734375">
        <ele>397.20001220703125</ele>
        <time>2021-04-01T10:37:25.000Z</time>
      </trkpt>
      <trkpt lat="41.64793652482330799102783203125" lon="-0.84326933138072490692138671875">
        <ele>397.20001220703125</ele>
        <time>2021-04-01T10:37:26.000Z</time>
      </trkpt>
      <trkpt lat="41.6480358503758907318115234375" lon="-0.843480639159679412841796875">
        <ele>397.20001220703125</ele>
        <time>2021-04-01T10:37:30.000Z</time>
      </trkpt>
      <trkpt lat="41.64807180874049663543701171875" lon="-0.84359756670892238616943359375">
        <ele>397.20001220703125</ele>
        <time>2021-04-01T10:37:32.000Z</time>
      </trkpt>
      <trkpt lat="41.64808304049074649810791015625" lon="-0.8436591736972332000732421875">
        <ele>397</ele>
        <time>2021-04-01T10:37:33.000Z</time>
      </trkpt>
      <trkpt lat="41.648088656365871429443359375" lon="-0.84378347732126712799072265625">
        <ele>396.79998779296875</ele>
        <time>2021-04-01T10:37:35.000Z</time>
      </trkpt>
      <trkpt lat="41.64807247929275035858154296875" lon="-0.8440246246755123138427734375">
        <ele>396.600006103515625</ele>
        <time>2021-04-01T10:37:39.000Z</time>
      </trkpt>
      <trkpt lat="41.64807063527405261993408203125" lon="-0.84444816224277019500732421875">
        <ele>397.20001220703125</ele>
        <time>2021-04-01T10:37:46.000Z</time>
      </trkpt>
      <trkpt lat="41.648076586425304412841796875" lon="-0.84450700320303440093994140625">
        <ele>397.399993896484375</ele>
        <time>2021-04-01T10:37:47.000Z</time>
      </trkpt>
      <trkpt lat="41.648144982755184173583984375" lon="-0.844855941832065582275390625">
        <ele>396.79998779296875</ele>
        <time>2021-04-01T10:37:53.000Z</time>
      </trkpt>
      <trkpt lat="41.64816032163798809051513671875" lon="-0.84490966983139514923095703125">
        <ele>396.79998779296875</ele>
        <time>2021-04-01T10:37:54.000Z</time>
      </trkpt>
      <trkpt lat="41.6482061706483364105224609375" lon="-0.845073871314525604248046875">
        <ele>397.20001220703125</ele>
        <time>2021-04-01T10:37:57.000Z</time>
      </trkpt>
      <trkpt lat="41.64826207794249057769775390625" lon="-0.84521996788680553436279296875">
        <ele>397.600006103515625</ele>
        <time>2021-04-01T10:38:00.000Z</time>
      </trkpt>
      <trkpt lat="41.6483124531805515289306640625" lon="-0.84530747495591640472412109375">
        <ele>397.399993896484375</ele>
        <time>2021-04-01T10:38:02.000Z</time>
      </trkpt>
      <trkpt lat="41.6483872197568416595458984375" lon="-0.8454384841024875640869140625">
        <ele>397.20001220703125</ele>
        <time>2021-04-01T10:38:05.000Z</time>
      </trkpt>
      <trkpt lat="41.64843030273914337158203125" lon="-0.84553487598896026611328125">
        <ele>397.20001220703125</ele>
        <time>2021-04-01T10:38:08.000Z</time>
      </trkpt>
      <trkpt lat="41.64847950451076030731201171875" lon="-0.845698826014995574951171875">
        <ele>397.399993896484375</ele>
        <time>2021-04-01T10:38:11.000Z</time>
      </trkpt>
      <trkpt lat="41.6485525108873844146728515625" lon="-0.84614264778792858123779296875">
        <ele>396.79998779296875</ele>
        <time>2021-04-01T10:38:18.000Z</time>
      </trkpt>
      <trkpt lat="41.6485984437167644500732421875" lon="-0.8464245311915874481201171875">
        <ele>397.79998779296875</ele>
        <time>2021-04-01T10:38:23.000Z</time>
      </trkpt>
      <trkpt lat="41.64863574318587779998779296875" lon="-0.8466602303087711334228515625">
        <ele>398</ele>
        <time>2021-04-01T10:38:27.000Z</time>
      </trkpt>
      <trkpt lat="41.648690141737461090087890625" lon="-0.84694705903530120849609375">
        <ele>397.600006103515625</ele>
        <time>2021-04-01T10:38:32.000Z</time>
      </trkpt>
      <trkpt lat="41.648716963827610015869140625" lon="-0.84705828689038753509521484375">
        <ele>398.20001220703125</ele>
        <time>2021-04-01T10:38:34.000Z</time>
      </trkpt>
      <trkpt lat="41.64873062632977962493896484375" lon="-0.84711394272744655609130859375">
        <ele>398.399993896484375</ele>
        <time>2021-04-01T10:38:35.000Z</time>
      </trkpt>
      <trkpt lat="41.648824252188205718994140625" lon="-0.84748324938118457794189453125">
        <ele>398</ele>
        <time>2021-04-01T10:38:42.000Z</time>
      </trkpt>
      <trkpt lat="41.64893187582492828369140625" lon="-0.8478427492082118988037109375">
        <ele>397.600006103515625</ele>
        <time>2021-04-01T10:38:49.000Z</time>
      </trkpt>
      <trkpt lat="41.64893933571875095367431640625" lon="-0.84789698012173175811767578125">
        <ele>397.600006103515625</ele>
        <time>2021-04-01T10:38:50.000Z</time>
      </trkpt>
      <trkpt lat="41.64898208342492580413818359375" lon="-0.8484482578933238983154296875">
        <ele>396.79998779296875</ele>
        <time>2021-04-01T10:38:59.000Z</time>
      </trkpt>
      <trkpt lat="41.64899013005197048187255859375" lon="-0.84850986488163471221923828125">
        <ele>397.20001220703125</ele>
        <time>2021-04-01T10:39:00.000Z</time>
      </trkpt>
      <trkpt lat="41.64908819831907749176025390625" lon="-0.84889006800949573516845703125">
        <ele>397.20001220703125</ele>
        <time>2021-04-01T10:39:07.000Z</time>
      </trkpt>
      <trkpt lat="41.6491506434977054595947265625" lon="-0.84904932416975498199462890625">
        <ele>397.399993896484375</ele>
        <time>2021-04-01T10:39:12.000Z</time>
      </trkpt>
      <trkpt lat="41.64920856244862079620361328125" lon="-0.8491672575473785400390625">
        <ele>398</ele>
        <time>2021-04-01T10:39:15.000Z</time>
      </trkpt>
      <trkpt lat="41.64922566153109073638916015625" lon="-0.84924747236073017120361328125">
        <ele>399</ele>
        <time>2021-04-01T10:39:18.000Z</time>
      </trkpt>
      <trkpt lat="41.649259440600872039794921875" lon="-0.84931410849094390869140625">
        <ele>399.20001220703125</ele>
        <time>2021-04-01T10:39:19.000Z</time>
      </trkpt>
      <trkpt lat="41.64933630265295505523681640625" lon="-0.84950697608292102813720703125">
        <ele>399.399993896484375</ele>
        <time>2021-04-01T10:39:24.000Z</time>
      </trkpt>
      <trkpt lat="41.6493484564125537872314453125" lon="-0.84955056197941303253173828125">
        <ele>399.20001220703125</ele>
        <time>2021-04-01T10:39:25.000Z</time>
      </trkpt>
      <trkpt lat="41.64939849637448787689208984375" lon="-0.84973479621112346649169921875">
        <ele>399.20001220703125</ele>
        <time>2021-04-01T10:39:29.000Z</time>
      </trkpt>
      <trkpt lat="41.6494755260646343231201171875" lon="-0.84998675622045993804931640625">
        <ele>399</ele>
        <time>2021-04-01T10:39:35.000Z</time>
      </trkpt>
      <trkpt lat="41.6495494544506072998046875" lon="-0.8502721600234508514404296875">
        <ele>398.600006103515625</ele>
        <time>2021-04-01T10:39:41.000Z</time>
      </trkpt>
      <trkpt lat="41.6495962254703044891357421875" lon="-0.85048623383045196533203125">
        <ele>398.399993896484375</ele>
        <time>2021-04-01T10:39:46.000Z</time>
      </trkpt>
      <trkpt lat="41.6496160067617893218994140625" lon="-0.8505946956574916839599609375">
        <ele>398.20001220703125</ele>
        <time>2021-04-01T10:39:47.000Z</time>
      </trkpt>
      <trkpt lat="41.6496160067617893218994140625" lon="-0.8505946956574916839599609375">
        <ele>398.20001220703125</ele>
        <time>2021-04-01T10:39:48.000Z</time>
      </trkpt>
      <trkpt lat="41.64967040531337261199951171875" lon="-0.8508702926337718963623046875">
        <ele>398.79998779296875</ele>
        <time>2021-04-01T10:39:52.000Z</time>
      </trkpt>
      <trkpt lat="41.649706698954105377197265625" lon="-0.8510670997202396392822265625">
        <ele>399</ele>
        <time>2021-04-01T10:39:56.000Z</time>
      </trkpt>
      <trkpt lat="41.649794541299343109130859375" lon="-0.8514372445642948150634765625">
        <ele>398.79998779296875</ele>
        <time>2021-04-01T10:40:03.000Z</time>
      </trkpt>
      <trkpt lat="41.649794541299343109130859375" lon="-0.8514372445642948150634765625">
        <ele>398.79998779296875</ele>
        <time>2021-04-01T10:40:04.000Z</time>
      </trkpt>
      <trkpt lat="41.64984122850000858306884765625" lon="-0.851643271744251251220703125">
        <ele>399.399993896484375</ele>
        <time>2021-04-01T10:40:07.000Z</time>
      </trkpt>
      <trkpt lat="41.6498741693794727325439453125" lon="-0.8517879433929920196533203125">
        <ele>400.20001220703125</ele>
        <time>2021-04-01T10:40:10.000Z</time>
      </trkpt>
      <trkpt lat="41.6498954594135284423828125" lon="-0.85189330391585826873779296875">
        <ele>400.399993896484375</ele>
        <time>2021-04-01T10:40:12.000Z</time>
      </trkpt>
      <trkpt lat="41.64991364814341068267822265625" lon="-0.851998664438724517822265625">
        <ele>401.20001220703125</ele>
        <time>2021-04-01T10:40:14.000Z</time>
      </trkpt>
      <trkpt lat="41.64995354600250720977783203125" lon="-0.8522130735218524932861328125">
        <ele>400</ele>
        <time>2021-04-01T10:40:19.000Z</time>
      </trkpt>
      <trkpt lat="41.64999612607061862945556640625" lon="-0.85238012485206127166748046875">
        <ele>399</ele>
        <time>2021-04-01T10:40:21.000Z</time>
      </trkpt>
      <trkpt lat="41.65000886656343936920166015625" lon="-0.8524363674223423004150390625">
        <ele>398.79998779296875</ele>
        <time>2021-04-01T10:40:22.000Z</time>
      </trkpt>
      <trkpt lat="41.650041975080966949462890625" lon="-0.85254239849746227264404296875">
        <ele>400.20001220703125</ele>
        <time>2021-04-01T10:40:25.000Z</time>
      </trkpt>
      <trkpt lat="41.6501018218696117401123046875" lon="-0.85282051004469394683837890625">
        <ele>400.79998779296875</ele>
        <time>2021-04-01T10:40:29.000Z</time>
      </trkpt>
      <trkpt lat="41.65016493760049343109130859375" lon="-0.85322652943432331085205078125">
        <ele>400.600006103515625</ele>
        <time>2021-04-01T10:40:36.000Z</time>
      </trkpt>
      <trkpt lat="41.6502030752599239349365234375" lon="-0.8536222390830516815185546875">
        <ele>399.600006103515625</ele>
        <time>2021-04-01T10:40:43.000Z</time>
      </trkpt>
      <trkpt lat="41.65022998116910457611083984375" lon="-0.8538539148867130279541015625">
        <ele>400</ele>
        <time>2021-04-01T10:40:49.000Z</time>
      </trkpt>
      <trkpt lat="41.650263927876949310302734375" lon="-0.85416211746633052825927734375">
        <ele>400</ele>
        <time>2021-04-01T10:40:54.000Z</time>
      </trkpt>
      <trkpt lat="41.65031279437243938446044921875" lon="-0.85446939803659915924072265625">
        <ele>400.600006103515625</ele>
        <time>2021-04-01T10:41:01.000Z</time>
      </trkpt>
      <trkpt lat="41.65032402612268924713134765625" lon="-0.85454634390771389007568359375">
        <ele>400.79998779296875</ele>
        <time>2021-04-01T10:41:03.000Z</time>
      </trkpt>
      <trkpt lat="41.65032796561717987060546875" lon="-0.85472169332206249237060546875">
        <ele>400.600006103515625</ele>
        <time>2021-04-01T10:41:07.000Z</time>
      </trkpt>
      <trkpt lat="41.65038873441517353057861328125" lon="-0.85488815791904926300048828125">
        <ele>401.399993896484375</ele>
        <time>2021-04-01T10:41:12.000Z</time>
      </trkpt>
      <trkpt lat="41.6504106111824512481689453125" lon="-0.85518504492938518524169921875">
        <ele>401</ele>
        <time>2021-04-01T10:41:17.000Z</time>
      </trkpt>
      <trkpt lat="41.65038831532001495361328125" lon="-0.85548042319715023040771484375">
        <ele>400.79998779296875</ele>
        <time>2021-04-01T10:41:22.000Z</time>
      </trkpt>
      <trkpt lat="41.6503106988966464996337890625" lon="-0.85584688000380992889404296875">
        <ele>401.399993896484375</ele>
        <time>2021-04-01T10:41:29.000Z</time>
      </trkpt>
      <trkpt lat="41.65024439804255962371826171875" lon="-0.85609749890863895416259765625">
        <ele>401.399993896484375</ele>
        <time>2021-04-01T10:41:35.000Z</time>
      </trkpt>
      <trkpt lat="41.65024322457611560821533203125" lon="-0.8561860956251621246337890625">
        <ele>401.600006103515625</ele>
        <time>2021-04-01T10:41:37.000Z</time>
      </trkpt>
      <trkpt lat="41.6502607427537441253662109375" lon="-0.85627301596105098724365234375">
        <ele>402</ele>
        <time>2021-04-01T10:41:39.000Z</time>
      </trkpt>
      <trkpt lat="41.65030508302152156829833984375" lon="-0.85646831430494785308837890625">
        <ele>402.399993896484375</ele>
        <time>2021-04-01T10:41:44.000Z</time>
      </trkpt>
      <trkpt lat="41.650335006415843963623046875" lon="-0.8566719107329845428466796875">
        <ele>402.600006103515625</ele>
        <time>2021-04-01T10:41:47.000Z</time>
      </trkpt>
      <trkpt lat="41.6503472439944744110107421875" lon="-0.85671759210526943206787109375">
        <ele>402.600006103515625</ele>
        <time>2021-04-01T10:41:48.000Z</time>
      </trkpt>
      <trkpt lat="41.65045126341283321380615234375" lon="-0.85707248188555240631103515625">
        <ele>402.79998779296875</ele>
        <time>2021-04-01T10:41:55.000Z</time>
      </trkpt>
      <trkpt lat="41.65056668221950531005859375" lon="-0.85742116905748844146728515625">
        <ele>403</ele>
        <time>2021-04-01T10:42:02.000Z</time>
      </trkpt>
      <trkpt lat="41.650560982525348663330078125" lon="-0.85747581906616687774658203125">
        <ele>403.20001220703125</ele>
        <time>2021-04-01T10:42:03.000Z</time>
      </trkpt>
      <trkpt lat="41.650569029152393341064453125" lon="-0.8575845323503017425537109375">
        <ele>403.399993896484375</ele>
        <time>2021-04-01T10:42:05.000Z</time>
      </trkpt>
      <trkpt lat="41.65064807049930095672607421875" lon="-0.85778318345546722412109375">
        <ele>403.399993896484375</ele>
        <time>2021-04-01T10:42:10.000Z</time>
      </trkpt>
      <trkpt lat="41.65071998722851276397705078125" lon="-0.85797236301004886627197265625">
        <ele>403.399993896484375</ele>
        <time>2021-04-01T10:42:15.000Z</time>
      </trkpt>
      <trkpt lat="41.6507586278021335601806640625" lon="-0.8581454493105411529541015625">
        <ele>403.399993896484375</ele>
        <time>2021-04-01T10:42:18.000Z</time>
      </trkpt>
      <trkpt lat="41.6508079133927822113037109375" lon="-0.85836329497396945953369140625">
        <ele>403.20001220703125</ele>
        <time>2021-04-01T10:42:22.000Z</time>
      </trkpt>
      <trkpt lat="41.650856025516986846923828125" lon="-0.8585357107222080230712890625">
        <ele>403.20001220703125</ele>
        <time>2021-04-01T10:42:25.000Z</time>
      </trkpt>
      <trkpt lat="41.6508947499096393585205078125" lon="-0.858628749847412109375">
        <ele>403.20001220703125</ele>
        <time>2021-04-01T10:42:27.000Z</time>
      </trkpt>
      <trkpt lat="41.6509066522121429443359375" lon="-0.85867610760033130645751953125">
        <ele>403.20001220703125</ele>
        <time>2021-04-01T10:42:28.000Z</time>
      </trkpt>
      <trkpt lat="41.65092903189361095428466796875" lon="-0.8590644411742687225341796875">
        <ele>402.79998779296875</ele>
        <time>2021-04-01T10:42:34.000Z</time>
      </trkpt>
      <trkpt lat="41.65096088312566280364990234375" lon="-0.85917851887643337249755859375">
        <ele>402.79998779296875</ele>
        <time>2021-04-01T10:42:36.000Z</time>
      </trkpt>
      <trkpt lat="41.6510080732405185699462890625" lon="-0.85933475755155086517333984375">
        <ele>402.600006103515625</ele>
        <time>2021-04-01T10:42:39.000Z</time>
      </trkpt>
      <trkpt lat="41.65108325891196727752685546875" lon="-0.85962049663066864013671875">
        <ele>403</ele>
        <time>2021-04-01T10:42:45.000Z</time>
      </trkpt>
      <trkpt lat="41.65119356475770473480224609375" lon="-0.86001788266003131866455078125">
        <ele>403.399993896484375</ele>
        <time>2021-04-01T10:42:53.000Z</time>
      </trkpt>
      <trkpt lat="41.65129900909960269927978515625" lon="-0.86035131476819515228271484375">
        <ele>404</ele>
        <time>2021-04-01T10:43:00.000Z</time>
      </trkpt>
      <trkpt lat="41.65136908181011676788330078125" lon="-0.860656164586544036865234375">
        <ele>404.399993896484375</ele>
        <time>2021-04-01T10:43:06.000Z</time>
      </trkpt>
      <trkpt lat="41.6513879410922527313232421875" lon="-0.860693715512752532958984375">
        <ele>404.399993896484375</ele>
        <time>2021-04-01T10:43:07.000Z</time>
      </trkpt>
      <trkpt lat="41.6514043696224689483642578125" lon="-0.860733948647975921630859375">
        <ele>404.600006103515625</ele>
        <time>2021-04-01T10:43:08.000Z</time>
      </trkpt>
      <trkpt lat="41.6514731012284755706787109375" lon="-0.86089898832142353057861328125">
        <ele>404.79998779296875</ele>
        <time>2021-04-01T10:43:12.000Z</time>
      </trkpt>
      <trkpt lat="41.65156404487788677215576171875" lon="-0.86126200854778289794921875">
        <ele>404.600006103515625</ele>
        <time>2021-04-01T10:43:19.000Z</time>
      </trkpt>
      <trkpt lat="41.65163579396903514862060546875" lon="-0.8616081811487674713134765625">
        <ele>404.399993896484375</ele>
        <time>2021-04-01T10:43:25.000Z</time>
      </trkpt>
      <trkpt lat="41.65170955471694469451904296875" lon="-0.8620725385844707489013671875">
        <ele>404</ele>
        <time>2021-04-01T10:43:32.000Z</time>
      </trkpt>
      <trkpt lat="41.65173302404582500457763671875" lon="-0.8621328882873058319091796875">
        <ele>404</ele>
        <time>2021-04-01T10:43:33.000Z</time>
      </trkpt>
      <trkpt lat="41.6517594270408153533935546875" lon="-0.8621908910572528839111328125">
        <ele>403.79998779296875</ele>
        <time>2021-04-01T10:43:34.000Z</time>
      </trkpt>
      <trkpt lat="41.65189311839640140533447265625" lon="-0.862479396164417266845703125">
        <ele>403.79998779296875</ele>
        <time>2021-04-01T10:43:39.000Z</time>
      </trkpt>
      <trkpt lat="41.65196905843913555145263671875" lon="-0.86265885271131992340087890625">
        <ele>403.600006103515625</ele>
        <time>2021-04-01T10:43:42.000Z</time>
      </trkpt>
      <trkpt lat="41.6519795358180999755859375" lon="-0.8627269975841045379638671875">
        <ele>403.600006103515625</ele>
        <time>2021-04-01T10:43:43.000Z</time>
      </trkpt>
      <trkpt lat="41.65200836956501007080078125" lon="-0.86284727789461612701416015625">
        <ele>403.20001220703125</ele>
        <time>2021-04-01T10:43:45.000Z</time>
      </trkpt>
      <trkpt lat="41.652006022632122039794921875" lon="-0.86290142498910427093505859375">
        <ele>403.20001220703125</ele>
        <time>2021-04-01T10:43:46.000Z</time>
      </trkpt>
      <trkpt lat="41.6520249657332897186279296875" lon="-0.863005779683589935302734375">
        <ele>403.399993896484375</ele>
        <time>2021-04-01T10:43:48.000Z</time>
      </trkpt>
      <trkpt lat="41.65203494019806385040283203125" lon="-0.86306512355804443359375">
        <ele>403.399993896484375</ele>
        <time>2021-04-01T10:43:49.000Z</time>
      </trkpt>
      <trkpt lat="41.652041561901569366455078125" lon="-0.86340752430260181427001953125">
        <ele>403.600006103515625</ele>
        <time>2021-04-01T10:43:54.000Z</time>
      </trkpt>
      <trkpt lat="41.652020774781703948974609375" lon="-0.86353995837271213531494140625">
        <ele>403.600006103515625</ele>
        <time>2021-04-01T10:43:56.000Z</time>
      </trkpt>
      <trkpt lat="41.652022115886211395263671875" lon="-0.86359494365751743316650390625">
        <ele>403.600006103515625</ele>
        <time>2021-04-01T10:43:57.000Z</time>
      </trkpt>
      <trkpt lat="41.652058325707912445068359375" lon="-0.86389132775366306304931640625">
        <ele>403.79998779296875</ele>
        <time>2021-04-01T10:44:02.000Z</time>
      </trkpt>
      <trkpt lat="41.6522137261927127838134765625" lon="-0.86439692415297031402587890625">
        <ele>404.399993896484375</ele>
        <time>2021-04-01T10:44:11.000Z</time>
      </trkpt>
      <trkpt lat="41.652252785861492156982421875" lon="-0.86450823582708835601806640625">
        <ele>404.399993896484375</ele>
        <time>2021-04-01T10:44:13.000Z</time>
      </trkpt>
      <trkpt lat="41.65228975005447864532470703125" lon="-0.86468392051756381988525390625">
        <ele>404</ele>
        <time>2021-04-01T10:44:16.000Z</time>
      </trkpt>
      <trkpt lat="41.65230450220406055450439453125" lon="-0.864746533334255218505859375">
        <ele>404</ele>
        <time>2021-04-01T10:44:17.000Z</time>
      </trkpt>
      <trkpt lat="41.65235764347016811370849609375" lon="-0.8649891056120395660400390625">
        <ele>404.600006103515625</ele>
        <time>2021-04-01T10:44:21.000Z</time>
      </trkpt>
      <trkpt lat="41.6524202562868595123291015625" lon="-0.865302421152591705322265625">
        <ele>404.20001220703125</ele>
        <time>2021-04-01T10:44:26.000Z</time>
      </trkpt>
      <trkpt lat="41.65253098122775554656982421875" lon="-0.8656730689108371734619140625">
        <ele>404.20001220703125</ele>
        <time>2021-04-01T10:44:32.000Z</time>
      </trkpt>
      <trkpt lat="41.652589738368988037109375" lon="-0.8657915890216827392578125">
        <ele>404</ele>
        <time>2021-04-01T10:44:34.000Z</time>
      </trkpt>
      <trkpt lat="41.65272242389619350433349609375" lon="-0.86609392426908016204833984375">
        <ele>404</ele>
        <time>2021-04-01T10:44:39.000Z</time>
      </trkpt>
      <trkpt lat="41.652746312320232391357421875" lon="-0.866153351962566375732421875">
        <ele>404</ele>
        <time>2021-04-01T10:44:40.000Z</time>
      </trkpt>
      <trkpt lat="41.65280406363308429718017578125" lon="-0.866267681121826171875">
        <ele>404.20001220703125</ele>
        <time>2021-04-01T10:44:42.000Z</time>
      </trkpt>
      <trkpt lat="41.652866341173648834228515625" lon="-0.86637656204402446746826171875">
        <ele>404.399993896484375</ele>
        <time>2021-04-01T10:44:44.000Z</time>
      </trkpt>
      <trkpt lat="41.6528928279876708984375" lon="-0.86643087677657604217529296875">
        <ele>404.399993896484375</ele>
        <time>2021-04-01T10:44:45.000Z</time>
      </trkpt>
      <trkpt lat="41.65309240110218524932861328125" lon="-0.86685399524867534637451171875">
        <ele>404.79998779296875</ele>
        <time>2021-04-01T10:44:53.000Z</time>
      </trkpt>
      <trkpt lat="41.6531310416758060455322265625" lon="-0.86697033606469631195068359375">
        <ele>405</ele>
        <time>2021-04-01T10:44:55.000Z</time>
      </trkpt>
      <trkpt lat="41.6532151959836483001708984375" lon="-0.86724526248872280120849609375">
        <ele>404.600006103515625</ele>
        <time>2021-04-01T10:45:00.000Z</time>
      </trkpt>
      <trkpt lat="41.65324897505342960357666015625" lon="-0.86735087446868419647216796875">
        <ele>404.600006103515625</ele>
        <time>2021-04-01T10:45:02.000Z</time>
      </trkpt>
      <trkpt lat="41.6532830893993377685546875" lon="-0.86745682172477245330810546875">
        <ele>404.79998779296875</ele>
        <time>2021-04-01T10:45:04.000Z</time>
      </trkpt>
      <trkpt lat="41.65331234224140644073486328125" lon="-0.8675667084753513336181640625">
        <ele>405.20001220703125</ele>
        <time>2021-04-01T10:45:06.000Z</time>
      </trkpt>
      <trkpt lat="41.6533288545906543731689453125" lon="-0.86762127466499805450439453125">
        <ele>405</ele>
        <time>2021-04-01T10:45:07.000Z</time>
      </trkpt>
      <trkpt lat="41.6533650644123554229736328125" lon="-0.867729820311069488525390625">
        <ele>405.20001220703125</ele>
        <time>2021-04-01T10:45:09.000Z</time>
      </trkpt>
      <trkpt lat="41.6534032858908176422119140625" lon="-0.86783115752041339874267578125">
        <ele>405.399993896484375</ele>
        <time>2021-04-01T10:45:11.000Z</time>
      </trkpt>
      <trkpt lat="41.65352993644773960113525390625" lon="-0.868208594620227813720703125">
        <ele>405</ele>
        <time>2021-04-01T10:45:18.000Z</time>
      </trkpt>
      <trkpt lat="41.65356497280299663543701171875" lon="-0.86831680499017238616943359375">
        <ele>405</ele>
        <time>2021-04-01T10:45:20.000Z</time>
      </trkpt>
      <trkpt lat="41.653667651116847991943359375" lon="-0.86850799620151519775390625">
        <ele>405.399993896484375</ele>
        <time>2021-04-01T10:45:24.000Z</time>
      </trkpt>
      <trkpt lat="41.65378944016993045806884765625" lon="-0.86870555765926837921142578125">
        <ele>405.600006103515625</ele>
        <time>2021-04-01T10:45:28.000Z</time>
      </trkpt>
      <trkpt lat="41.65385616011917591094970703125" lon="-0.8688099123537540435791015625">
        <ele>405.399993896484375</ele>
        <time>2021-04-01T10:45:30.000Z</time>
      </trkpt>
      <trkpt lat="41.65388633497059345245361328125" lon="-0.86886665783822536468505859375">
        <ele>405.20001220703125</ele>
        <time>2021-04-01T10:45:31.000Z</time>
      </trkpt>
      <trkpt lat="41.6539169289171695709228515625" lon="-0.86898802779614925384521484375">
        <ele>405.20001220703125</ele>
        <time>2021-04-01T10:45:33.000Z</time>
      </trkpt>
      <trkpt lat="41.65394551120698451995849609375" lon="-0.86910772137343883514404296875">
        <ele>405.20001220703125</ele>
        <time>2021-04-01T10:45:35.000Z</time>
      </trkpt>
      <trkpt lat="41.6539668850600719451904296875" lon="-0.8692246489226818084716796875">
        <ele>405.600006103515625</ele>
        <time>2021-04-01T10:45:37.000Z</time>
      </trkpt>
      <trkpt lat="41.65399932302534580230712890625" lon="-0.86939220316708087921142578125">
        <ele>405.79998779296875</ele>
        <time>2021-04-01T10:45:40.000Z</time>
      </trkpt>
      <trkpt lat="41.65398825891315937042236328125" lon="-0.86944785900413990020751953125">
        <ele>405.79998779296875</ele>
        <time>2021-04-01T10:45:41.000Z</time>
      </trkpt>
      <trkpt lat="41.65397107601165771484375" lon="-0.8695652894675731658935546875">
        <ele>406</ele>
        <time>2021-04-01T10:45:43.000Z</time>
      </trkpt>
      <trkpt lat="41.65398004464805126190185546875" lon="-0.8696239627897739410400390625">
        <ele>406</ele>
        <time>2021-04-01T10:45:44.000Z</time>
      </trkpt>
      <trkpt lat="41.65399379096925258636474609375" lon="-0.869683139026165008544921875">
        <ele>406.20001220703125</ele>
        <time>2021-04-01T10:45:45.000Z</time>
      </trkpt>
      <trkpt lat="41.6540285758674144744873046875" lon="-0.86985656060278415679931640625">
        <ele>406.20001220703125</ele>
        <time>2021-04-01T10:45:48.000Z</time>
      </trkpt>
      <trkpt lat="41.65404190309345722198486328125" lon="-0.86991087533533573150634765625">
        <ele>406</ele>
        <time>2021-04-01T10:45:49.000Z</time>
      </trkpt>
      <trkpt lat="41.6540582478046417236328125" lon="-0.86996317841112613677978515625">
        <ele>406</ele>
        <time>2021-04-01T10:45:50.000Z</time>
      </trkpt>
      <trkpt lat="41.65413997136056423187255859375" lon="-0.8701630868017673492431640625">
        <ele>406.20001220703125</ele>
        <time>2021-04-01T10:45:54.000Z</time>
      </trkpt>
      <trkpt lat="41.65423368103802204132080078125" lon="-0.87045586667954921722412109375">
        <ele>406.399993896484375</ele>
        <time>2021-04-01T10:46:00.000Z</time>
      </trkpt>
      <trkpt lat="41.65425245650112628936767578125" lon="-0.87050481699407100677490234375">
        <ele>406.600006103515625</ele>
        <time>2021-04-01T10:46:01.000Z</time>
      </trkpt>
      <trkpt lat="41.65426569990813732147216796875" lon="-0.8705523423850536346435546875">
        <ele>406.600006103515625</ele>
        <time>2021-04-01T10:46:02.000Z</time>
      </trkpt>
      <trkpt lat="41.6542964614927768707275390625" lon="-0.8707038871943950653076171875">
        <ele>407.20001220703125</ele>
        <time>2021-04-01T10:46:05.000Z</time>
      </trkpt>
      <trkpt lat="41.6544087789952754974365234375" lon="-0.87102256715297698974609375">
        <ele>407</ele>
        <time>2021-04-01T10:46:12.000Z</time>
      </trkpt>
      <trkpt lat="41.6544402949512004852294921875" lon="-0.8710943162441253662109375">
        <ele>407.20001220703125</ele>
        <time>2021-04-01T10:46:16.000Z</time>
      </trkpt>
      <trkpt lat="41.6544275544583797454833984375" lon="-0.87109808810055255889892578125">
        <ele>407.399993896484375</ele>
        <time>2021-04-01T10:46:25.000Z</time>
      </trkpt>
      <trkpt lat="41.65442646481096744537353515625" lon="-0.87109901010990142822265625">
        <ele>407.399993896484375</ele>
        <time>2021-04-01T10:46:27.000Z</time>
      </trkpt>
      <trkpt lat="41.65441925637423992156982421875" lon="-0.871105380356311798095703125">
        <ele>407.399993896484375</ele>
        <time>2021-04-01T10:46:30.000Z</time>
      </trkpt>
      <trkpt lat="41.65441322140395641326904296875" lon="-0.87110864929854869842529296875">
        <ele>407.600006103515625</ele>
        <time>2021-04-01T10:46:34.000Z</time>
      </trkpt>
      <trkpt lat="41.65441188029944896697998046875" lon="-0.87110831402242183685302734375">
        <ele>407.20001220703125</ele>
        <time>2021-04-01T10:46:40.000Z</time>
      </trkpt>
      <trkpt lat="41.65440718643367290496826171875" lon="-0.871119461953639984130859375">
        <ele>407.600006103515625</ele>
        <time>2021-04-01T10:46:43.000Z</time>
      </trkpt>
      <trkpt lat="41.6544050909578800201416015625" lon="-0.87112507782876491546630859375">
        <ele>407.399993896484375</ele>
        <time>2021-04-01T10:46:51.000Z</time>
      </trkpt>
      <trkpt lat="41.65440500713884830474853515625" lon="-0.8711256645619869232177734375">
        <ele>407.20001220703125</ele>
        <time>2021-04-01T10:46:52.000Z</time>
      </trkpt>
      <trkpt lat="41.65440483950078487396240234375" lon="-0.8711256645619869232177734375">
        <ele>407.399993896484375</ele>
        <time>2021-04-01T10:46:53.000Z</time>
      </trkpt>
      <trkpt lat="41.65440483950078487396240234375" lon="-0.87112583220005035400390625">
        <ele>407.399993896484375</ele>
        <time>2021-04-01T10:46:54.000Z</time>
      </trkpt>
      <trkpt lat="41.6544050909578800201416015625" lon="-0.87112692184746265411376953125">
        <ele>407.20001220703125</ele>
        <time>2021-04-01T10:46:56.000Z</time>
      </trkpt>
      <trkpt lat="41.65441296994686126708984375" lon="-0.8711447753012180328369140625">
        <ele>407.20001220703125</ele>
        <time>2021-04-01T10:47:00.000Z</time>
      </trkpt>
      <trkpt lat="41.6544389538466930389404296875" lon="-0.87118626572191715240478515625">
        <ele>407</ele>
        <time>2021-04-01T10:47:02.000Z</time>
      </trkpt>
      <trkpt lat="41.6544604115188121795654296875" lon="-0.8712611161172389984130859375">
        <ele>407</ele>
        <time>2021-04-01T10:47:04.000Z</time>
      </trkpt>
      <trkpt lat="41.65454464964568614959716796875" lon="-0.87148264981806278228759765625">
        <ele>407.399993896484375</ele>
        <time>2021-04-01T10:47:09.000Z</time>
      </trkpt>
      <trkpt lat="41.6546367667615413665771484375" lon="-0.87173209525644779205322265625">
        <ele>407.600006103515625</ele>
        <time>2021-04-01T10:47:15.000Z</time>
      </trkpt>
      <trkpt lat="41.65467088110744953155517578125" lon="-0.87187391705811023712158203125">
        <ele>407.399993896484375</ele>
        <time>2021-04-01T10:47:18.000Z</time>
      </trkpt>
      <trkpt lat="41.65472905151546001434326171875" lon="-0.87196863256394863128662109375">
        <ele>407</ele>
        <time>2021-04-01T10:47:20.000Z</time>
      </trkpt>
      <trkpt lat="41.6547581367194652557373046875" lon="-0.87201766669750213623046875">
        <ele>407</ele>
        <time>2021-04-01T10:47:21.000Z</time>
      </trkpt>
      <trkpt lat="41.65480993688106536865234375" lon="-0.87212319485843181610107421875">
        <ele>407</ele>
        <time>2021-04-01T10:47:23.000Z</time>
      </trkpt>
      <trkpt lat="41.6548647545278072357177734375" lon="-0.87222612462937831878662109375">
        <ele>407</ele>
        <time>2021-04-01T10:47:25.000Z</time>
      </trkpt>
      <trkpt lat="41.6549378447234630584716796875" lon="-0.87238705717027187347412109375">
        <ele>407.20001220703125</ele>
        <time>2021-04-01T10:47:28.000Z</time>
      </trkpt>
      <trkpt lat="41.65500883944332599639892578125" lon="-0.8725132048130035400390625">
        <ele>407</ele>
        <time>2021-04-01T10:47:30.000Z</time>
      </trkpt>
      <trkpt lat="41.655071787536144256591796875" lon="-0.8727131970226764678955078125">
        <ele>407</ele>
        <time>2021-04-01T10:47:33.000Z</time>
      </trkpt>
      <trkpt lat="41.6550937481224536895751953125" lon="-0.87277832441031932830810546875">
        <ele>406.79998779296875</ele>
        <time>2021-04-01T10:47:34.000Z</time>
      </trkpt>
      <trkpt lat="41.65525694377720355987548828125" lon="-0.87315266020596027374267578125">
        <ele>406.79998779296875</ele>
        <time>2021-04-01T10:47:40.000Z</time>
      </trkpt>
      <trkpt lat="41.6553012840449810028076171875" lon="-0.8732736110687255859375">
        <ele>407</ele>
        <time>2021-04-01T10:47:42.000Z</time>
      </trkpt>
      <trkpt lat="41.655347384512424468994140625" lon="-0.873527415096759796142578125">
        <ele>407.20001220703125</ele>
        <time>2021-04-01T10:47:46.000Z</time>
      </trkpt>
      <trkpt lat="41.6553998552262783050537109375" lon="-0.87370485998690128326416015625">
        <ele>407.399993896484375</ele>
        <time>2021-04-01T10:47:49.000Z</time>
      </trkpt>
      <trkpt lat="41.65548308752477169036865234375" lon="-0.8739268966019153594970703125">
        <ele>407.600006103515625</ele>
        <time>2021-04-01T10:47:53.000Z</time>
      </trkpt>
      <trkpt lat="41.6555039584636688232421875" lon="-0.8739798702299594879150390625">
        <ele>407.79998779296875</ele>
        <time>2021-04-01T10:47:54.000Z</time>
      </trkpt>
      <trkpt lat="41.6555656492710113525390625" lon="-0.87415714748203754425048828125">
        <ele>408.79998779296875</ele>
        <time>2021-04-01T10:47:57.000Z</time>
      </trkpt>
      <trkpt lat="41.655585765838623046875" lon="-0.8742137253284454345703125">
        <ele>409</ele>
        <time>2021-04-01T10:47:58.000Z</time>
      </trkpt>
      <trkpt lat="41.655647456645965576171875" lon="-0.87452678941190242767333984375">
        <ele>409.399993896484375</ele>
        <time>2021-04-01T10:48:03.000Z</time>
      </trkpt>
      <trkpt lat="41.65566463954746723175048828125" lon="-0.8745860494673252105712890625">
        <ele>409.399993896484375</ele>
        <time>2021-04-01T10:48:04.000Z</time>
      </trkpt>
      <trkpt lat="41.655725575983524322509765625" lon="-0.87483826093375682830810546875">
        <ele>409.600006103515625</ele>
        <time>2021-04-01T10:48:08.000Z</time>
      </trkpt>
      <trkpt lat="41.6557445190846920013427734375" lon="-0.87490179575979709625244140625">
        <ele>409.79998779296875</ele>
        <time>2021-04-01T10:48:09.000Z</time>
      </trkpt>
      <trkpt lat="41.65583412162959575653076171875" lon="-0.87513799779117107391357421875">
        <ele>410.20001220703125</ele>
        <time>2021-04-01T10:48:13.000Z</time>
      </trkpt>
      <trkpt lat="41.65592179633677005767822265625" lon="-0.875240005552768707275390625">
        <ele>410</ele>
        <time>2021-04-01T10:48:15.000Z</time>
      </trkpt>
      <trkpt lat="41.6560645401477813720703125" lon="-0.87552599608898162841796875">
        <ele>409.20001220703125</ele>
        <time>2021-04-01T10:48:21.000Z</time>
      </trkpt>
      <trkpt lat="41.65608239360153675079345703125" lon="-0.875571928918361663818359375">
        <ele>409.20001220703125</ele>
        <time>2021-04-01T10:48:22.000Z</time>
      </trkpt>
      <trkpt lat="41.65620845742523670196533203125" lon="-0.87586755864322185516357421875">
        <ele>410.20001220703125</ele>
        <time>2021-04-01T10:48:29.000Z</time>
      </trkpt>
      <trkpt lat="41.65628523565828800201416015625" lon="-0.8761772699654102325439453125">
        <ele>410.399993896484375</ele>
        <time>2021-04-01T10:48:36.000Z</time>
      </trkpt>
      <trkpt lat="41.65641129948198795318603515625" lon="-0.87648815475404262542724609375">
        <ele>409.600006103515625</ele>
        <time>2021-04-01T10:48:42.000Z</time>
      </trkpt>
      <trkpt lat="41.65643493644893169403076171875" lon="-0.876544900238513946533203125">
        <ele>409.600006103515625</ele>
        <time>2021-04-01T10:48:43.000Z</time>
      </trkpt>
      <trkpt lat="41.65644834749400615692138671875" lon="-0.8766054175794124603271484375">
        <ele>409.600006103515625</ele>
        <time>2021-04-01T10:48:44.000Z</time>
      </trkpt>
      <trkpt lat="41.65656317956745624542236328125" lon="-0.8768300525844097137451171875">
        <ele>409.600006103515625</ele>
        <time>2021-04-01T10:48:48.000Z</time>
      </trkpt>
      <trkpt lat="41.65672712959349155426025390625" lon="-0.87710305117070674896240234375">
        <ele>409.399993896484375</ele>
        <time>2021-04-01T10:48:53.000Z</time>
      </trkpt>
      <trkpt lat="41.656799800693988800048828125" lon="-0.8772243373095989227294921875">
        <ele>409.20001220703125</ele>
        <time>2021-04-01T10:48:55.000Z</time>
      </trkpt>
      <trkpt lat="41.6568884812295436859130859375" lon="-0.8773379959166049957275390625">
        <ele>409.20001220703125</ele>
        <time>2021-04-01T10:48:57.000Z</time>
      </trkpt>
      <trkpt lat="41.6571642458438873291015625" lon="-0.8778372220695018768310546875">
        <ele>409.20001220703125</ele>
        <time>2021-04-01T10:49:06.000Z</time>
      </trkpt>
      <trkpt lat="41.657354347407817840576171875" lon="-0.87823846377432346343994140625">
        <ele>409</ele>
        <time>2021-04-01T10:49:13.000Z</time>
      </trkpt>
      <trkpt lat="41.65747429244220256805419921875" lon="-0.87847106158733367919921875">
        <ele>409</ele>
        <time>2021-04-01T10:49:17.000Z</time>
      </trkpt>
      <trkpt lat="41.6575821675360202789306640625" lon="-0.8787092752754688262939453125">
        <ele>409.20001220703125</ele>
        <time>2021-04-01T10:49:21.000Z</time>
      </trkpt>
      <trkpt lat="41.65765165351331233978271484375" lon="-0.8788909949362277984619140625">
        <ele>409.399993896484375</ele>
        <time>2021-04-01T10:49:24.000Z</time>
      </trkpt>
      <trkpt lat="41.65766757912933826446533203125" lon="-0.879015214741230010986328125">
        <ele>409.399993896484375</ele>
        <time>2021-04-01T10:49:26.000Z</time>
      </trkpt>
      <trkpt lat="41.6577618755400180816650390625" lon="-0.87943020276725292205810546875">
        <ele>410</ele>
        <time>2021-04-01T10:49:32.000Z</time>
      </trkpt>
      <trkpt lat="41.65777671150863170623779296875" lon="-0.87950228713452816009521484375">
        <ele>410</ele>
        <time>2021-04-01T10:49:33.000Z</time>
      </trkpt>
      <trkpt lat="41.657787859439849853515625" lon="-0.87957504205405712127685546875">
        <ele>410</ele>
        <time>2021-04-01T10:49:34.000Z</time>
      </trkpt>
      <trkpt lat="41.6577964089810848236083984375" lon="-0.87980336509644985198974609375">
        <ele>409.79998779296875</ele>
        <time>2021-04-01T10:49:37.000Z</time>
      </trkpt>
      <trkpt lat="41.6578041203320026397705078125" lon="-0.8800406567752361297607421875">
        <ele>410</ele>
        <time>2021-04-01T10:49:40.000Z</time>
      </trkpt>
      <trkpt lat="41.65779523551464080810546875" lon="-0.8802535571157932281494140625">
        <ele>410</ele>
        <time>2021-04-01T10:49:43.000Z</time>
      </trkpt>
      <trkpt lat="41.65783471427857875823974609375" lon="-0.880517251789569854736328125">
        <ele>410</ele>
        <time>2021-04-01T10:49:47.000Z</time>
      </trkpt>
      <trkpt lat="41.65788182057440280914306640625" lon="-0.88063694536685943603515625">
        <ele>409.79998779296875</ele>
        <time>2021-04-01T10:49:49.000Z</time>
      </trkpt>
      <trkpt lat="41.65795424021780490875244140625" lon="-0.88104003109037876129150390625">
        <ele>409</ele>
        <time>2021-04-01T10:49:56.000Z</time>
      </trkpt>
      <trkpt lat="41.65798374451696872711181640625" lon="-0.88117472827434539794921875">
        <ele>409.399993896484375</ele>
        <time>2021-04-01T10:49:59.000Z</time>
      </trkpt>
      <trkpt lat="41.65797150693833827972412109375" lon="-0.8812660910189151763916015625">
        <ele>409.600006103515625</ele>
        <time>2021-04-01T10:50:01.000Z</time>
      </trkpt>
      <trkpt lat="41.65804493241012096405029296875" lon="-0.8814315497875213623046875">
        <ele>410</ele>
        <time>2021-04-01T10:50:06.000Z</time>
      </trkpt>
      <trkpt lat="41.65806923992931842803955078125" lon="-0.88145367801189422607421875">
        <ele>410.20001220703125</ele>
        <time>2021-04-01T10:50:07.000Z</time>
      </trkpt>
      <trkpt lat="41.65810008533298969268798828125" lon="-0.88145828805863857269287109375">
        <ele>410.399993896484375</ele>
        <time>2021-04-01T10:50:08.000Z</time>
      </trkpt>
      <trkpt lat="41.65815406478941440582275390625" lon="-0.8814545162022113800048828125">
        <ele>410.600006103515625</ele>
        <time>2021-04-01T10:50:10.000Z</time>
      </trkpt>
      <trkpt lat="41.65836528874933719635009765625" lon="-0.8814189769327640533447265625">
        <ele>411.399993896484375</ele>
        <time>2021-04-01T10:50:16.000Z</time>
      </trkpt>
      <trkpt lat="41.658439971506595611572265625" lon="-0.88140531443059444427490234375">
        <ele>411.600006103515625</ele>
        <time>2021-04-01T10:50:18.000Z</time>
      </trkpt>
      <trkpt lat="41.65876108221709728240966796875" lon="-0.8813510835170745849609375">
        <ele>411.399993896484375</ele>
        <time>2021-04-01T10:50:26.000Z</time>
      </trkpt>
      <trkpt lat="41.65912820957601070404052734375" lon="-0.881289057433605194091796875">
        <ele>412</ele>
        <time>2021-04-01T10:50:34.000Z</time>
      </trkpt>
      <trkpt lat="41.65921806357800960540771484375" lon="-0.88127573020756244659423828125">
        <ele>412</ele>
        <time>2021-04-01T10:50:36.000Z</time>
      </trkpt>
      <trkpt lat="41.65939995087683200836181640625" lon="-0.88124656118452548980712890625">
        <ele>410</ele>
        <time>2021-04-01T10:50:40.000Z</time>
      </trkpt>
      <trkpt lat="41.6595773957669734954833984375" lon="-0.8812188170850276947021484375">
        <ele>410</ele>
        <time>2021-04-01T10:50:44.000Z</time>
      </trkpt>
      <trkpt lat="41.65976674295961856842041015625" lon="-0.88118621148169040679931640625">
        <ele>409.600006103515625</ele>
        <time>2021-04-01T10:50:48.000Z</time>
      </trkpt>
      <trkpt lat="41.65994192473590373992919921875" lon="-0.88115327060222625732421875">
        <ele>409</ele>
        <time>2021-04-01T10:50:52.000Z</time>
      </trkpt>
      <trkpt lat="41.65998433716595172882080078125" lon="-0.8811440505087375640869140625">
        <ele>408.79998779296875</ele>
        <time>2021-04-01T10:50:53.000Z</time>
      </trkpt>
      <trkpt lat="41.660141833126544952392578125" lon="-0.88111463002860546112060546875">
        <ele>408.79998779296875</ele>
        <time>2021-04-01T10:50:58.000Z</time>
      </trkpt>
      <trkpt lat="41.660160608589649200439453125" lon="-0.88110993616282939910888671875">
        <ele>408.79998779296875</ele>
        <time>2021-04-01T10:51:00.000Z</time>
      </trkpt>
      <trkpt lat="41.66015298105776309967041015625" lon="-0.88110859505832195281982421875">
        <ele>407.79998779296875</ele>
        <time>2021-04-01T10:51:02.000Z</time>
      </trkpt>
      <trkpt lat="41.66015113703906536102294921875" lon="-0.88111169636249542236328125">
        <ele>407.79998779296875</ele>
        <time>2021-04-01T10:51:04.000Z</time>
      </trkpt>
      <trkpt lat="41.66015080176293849945068359375" lon="-0.88111312128603458404541015625">
        <ele>407.79998779296875</ele>
        <time>2021-04-01T10:51:05.000Z</time>
      </trkpt>
      <trkpt lat="41.6601683199405670166015625" lon="-0.881154276430606842041015625">
        <ele>407.79998779296875</ele>
        <time>2021-04-01T10:52:19.000Z</time>
      </trkpt>
      <trkpt lat="41.66017175652086734771728515625" lon="-0.88117581792175769805908203125">
        <ele>407.79998779296875</ele>
        <time>2021-04-01T10:52:20.000Z</time>
      </trkpt>
      <trkpt lat="41.6601736843585968017578125" lon="-0.8812027238309383392333984375">
        <ele>407.79998779296875</ele>
        <time>2021-04-01T10:52:21.000Z</time>
      </trkpt>
      <trkpt lat="41.6601943038403987884521484375" lon="-0.8813001215457916259765625">
        <ele>407.79998779296875</ele>
        <time>2021-04-01T10:52:24.000Z</time>
      </trkpt>
      <trkpt lat="41.6602127440273761749267578125" lon="-0.88133607991039752960205078125">
        <ele>408</ele>
        <time>2021-04-01T10:52:25.000Z</time>
      </trkpt>
      <trkpt lat="41.6602392308413982391357421875" lon="-0.88136374019086360931396484375">
        <ele>408</ele>
        <time>2021-04-01T10:52:26.000Z</time>
      </trkpt>
      <trkpt lat="41.6603823937475681304931640625" lon="-0.8814008720219135284423828125">
        <ele>408</ele>
        <time>2021-04-01T10:52:30.000Z</time>
      </trkpt>
      <trkpt lat="41.6604588367044925689697265625" lon="-0.8814370818436145782470703125">
        <ele>407.600006103515625</ele>
        <time>2021-04-01T10:52:32.000Z</time>
      </trkpt>
      <trkpt lat="41.66053502820432186126708984375" lon="-0.88151268661022186279296875">
        <ele>407.600006103515625</ele>
        <time>2021-04-01T10:52:34.000Z</time>
      </trkpt>
      <trkpt lat="41.66061884723603725433349609375" lon="-0.88160656392574310302734375">
        <ele>407.600006103515625</ele>
        <time>2021-04-01T10:52:36.000Z</time>
      </trkpt>
      <trkpt lat="41.6607109643518924713134765625" lon="-0.88167604990303516387939453125">
        <ele>407.399993896484375</ele>
        <time>2021-04-01T10:52:38.000Z</time>
      </trkpt>
      <trkpt lat="41.66075731627643108367919921875" lon="-0.88170002214610576629638671875">
        <ele>407.399993896484375</ele>
        <time>2021-04-01T10:52:39.000Z</time>
      </trkpt>
      <trkpt lat="41.660898216068744659423828125" lon="-0.88175542652606964111328125">
        <ele>406.79998779296875</ele>
        <time>2021-04-01T10:52:42.000Z</time>
      </trkpt>
      <trkpt lat="41.66097776032984256744384765625" lon="-0.8818293549120426177978515625">
        <ele>407</ele>
        <time>2021-04-01T10:52:44.000Z</time>
      </trkpt>
      <trkpt lat="41.661010198295116424560546875" lon="-0.88187403045594692230224609375">
        <ele>407.20001220703125</ele>
        <time>2021-04-01T10:52:45.000Z</time>
      </trkpt>
      <trkpt lat="41.66105009615421295166015625" lon="-0.8819840848445892333984375">
        <ele>407.399993896484375</ele>
        <time>2021-04-01T10:52:47.000Z</time>
      </trkpt>
      <trkpt lat="41.66106023825705051422119140625" lon="-0.88204803876578807830810546875">
        <ele>407.399993896484375</ele>
        <time>2021-04-01T10:52:48.000Z</time>
      </trkpt>
      <trkpt lat="41.6610676981508731842041015625" lon="-0.8821140043437480926513671875">
        <ele>407.600006103515625</ele>
        <time>2021-04-01T10:52:49.000Z</time>
      </trkpt>
      <trkpt lat="41.66108069010078907012939453125" lon="-0.8824221231043338775634765625">
        <ele>407.20001220703125</ele>
        <time>2021-04-01T10:52:54.000Z</time>
      </trkpt>
      <trkpt lat="41.66108488105237483978271484375" lon="-0.88254894129931926727294921875">
        <ele>407</ele>
        <time>2021-04-01T10:52:56.000Z</time>
      </trkpt>
      <trkpt lat="41.66109711863100528717041015625" lon="-0.8825994841754436492919921875">
        <ele>407</ele>
        <time>2021-04-01T10:52:57.000Z</time>
      </trkpt>
      <trkpt lat="41.661118157207965850830078125" lon="-0.882703922688961029052734375">
        <ele>407.600006103515625</ele>
        <time>2021-04-01T10:52:59.000Z</time>
      </trkpt>
      <trkpt lat="41.66115612722933292388916015625" lon="-0.882932581007480621337890625">
        <ele>408.399993896484375</ele>
        <time>2021-04-01T10:53:03.000Z</time>
      </trkpt>
      <trkpt lat="41.661178506910800933837890625" lon="-0.88312494568526744842529296875">
        <ele>408.600006103515625</ele>
        <time>2021-04-01T10:53:07.000Z</time>
      </trkpt>
      <trkpt lat="41.6612009704113006591796875" lon="-0.88313542306423187255859375">
        <ele>408.600006103515625</ele>
        <time>2021-04-01T10:53:08.000Z</time>
      </trkpt>
      <trkpt lat="41.6612269543111324310302734375" lon="-0.8831479959189891815185546875">
        <ele>408.399993896484375</ele>
        <time>2021-04-01T10:53:12.000Z</time>
      </trkpt>
      <trkpt lat="41.66130163706839084625244140625" lon="-0.88324581272900104522705078125">
        <ele>408.20001220703125</ele>
        <time>2021-04-01T10:53:16.000Z</time>
      </trkpt>
      <trkpt lat="41.66130951605737209320068359375" lon="-0.88348251767456531524658203125">
        <ele>408.600006103515625</ele>
        <time>2021-04-01T10:53:20.000Z</time>
      </trkpt>
      <trkpt lat="41.66133047081530094146728515625" lon="-0.88380404748022556304931640625">
        <ele>408.600006103515625</ele>
        <time>2021-04-01T10:53:25.000Z</time>
      </trkpt>
      <trkpt lat="41.661364920437335968017578125" lon="-0.88391703553497791290283203125">
        <ele>408.79998779296875</ele>
        <time>2021-04-01T10:53:27.000Z</time>
      </trkpt>
      <trkpt lat="41.66139165870845317840576171875" lon="-0.88396715931594371795654296875">
        <ele>408.600006103515625</ele>
        <time>2021-04-01T10:53:28.000Z</time>
      </trkpt>
      <trkpt lat="41.66146307252347469329833984375" lon="-0.88404108770191669464111328125">
        <ele>408.79998779296875</ele>
        <time>2021-04-01T10:53:30.000Z</time>
      </trkpt>
      <trkpt lat="41.66150833480060100555419921875" lon="-0.8840643055737018585205078125">
        <ele>409</ele>
        <time>2021-04-01T10:53:31.000Z</time>
      </trkpt>
      <trkpt lat="41.6615484841167926788330078125" lon="-0.88408618234097957611083984375">
        <ele>409.20001220703125</ele>
        <time>2021-04-01T10:53:32.000Z</time>
      </trkpt>
      <trkpt lat="41.6616381704807281494140625" lon="-0.8841085620224475860595703125">
        <ele>409</ele>
        <time>2021-04-01T10:53:34.000Z</time>
      </trkpt>
      <trkpt lat="41.66167496703565120697021484375" lon="-0.88410613127052783966064453125">
        <ele>409</ele>
        <time>2021-04-01T10:53:35.000Z</time>
      </trkpt>
      <trkpt lat="41.66180371306836605072021484375" lon="-0.8840686641633510589599609375">
        <ele>408.20001220703125</ele>
        <time>2021-04-01T10:53:38.000Z</time>
      </trkpt>
      <trkpt lat="41.66189038194715976715087890625" lon="-0.88403656147420406341552734375">
        <ele>407.79998779296875</ele>
        <time>2021-04-01T10:53:40.000Z</time>
      </trkpt>
      <trkpt lat="41.66194017045199871063232421875" lon="-0.8840230666100978851318359375">
        <ele>407.399993896484375</ele>
        <time>2021-04-01T10:53:41.000Z</time>
      </trkpt>
      <trkpt lat="41.66198124177753925323486328125" lon="-0.88400856591761112213134765625">
        <ele>407.20001220703125</ele>
        <time>2021-04-01T10:53:42.000Z</time>
      </trkpt>
      <trkpt lat="41.66202901862561702728271484375" lon="-0.88399565778672695159912109375">
        <ele>407.20001220703125</ele>
        <time>2021-04-01T10:53:44.000Z</time>
      </trkpt>
      <trkpt lat="41.6621290147304534912109375" lon="-0.8839955739676952362060546875">
        <ele>408.20001220703125</ele>
        <time>2021-04-01T10:53:46.000Z</time>
      </trkpt>
      <trkpt lat="41.66218911297619342803955078125" lon="-0.88398761115968227386474609375">
        <ele>408.79998779296875</ele>
        <time>2021-04-01T10:53:47.000Z</time>
      </trkpt>
      <trkpt lat="41.662315092980861663818359375" lon="-0.883986689150333404541015625">
        <ele>409.399993896484375</ele>
        <time>2021-04-01T10:53:49.000Z</time>
      </trkpt>
      <trkpt lat="41.6624185256659984588623046875" lon="-0.88396380655467510223388671875">
        <ele>409.20001220703125</ele>
        <time>2021-04-01T10:53:51.000Z</time>
      </trkpt>
      <trkpt lat="41.66263930499553680419921875" lon="-0.88392910547554492950439453125">
        <ele>408.79998779296875</ele>
        <time>2021-04-01T10:53:55.000Z</time>
      </trkpt>
      <trkpt lat="41.66268347762525081634521484375" lon="-0.88390924036502838134765625">
        <ele>408.600006103515625</ele>
        <time>2021-04-01T10:53:56.000Z</time>
      </trkpt>
      <trkpt lat="41.66281088255345821380615234375" lon="-0.8838705159723758697509765625">
        <ele>408.399993896484375</ele>
        <time>2021-04-01T10:53:59.000Z</time>
      </trkpt>
      <trkpt lat="41.66290006600320339202880859375" lon="-0.88382919318974018096923828125">
        <ele>408</ele>
        <time>2021-04-01T10:54:01.000Z</time>
      </trkpt>
      <trkpt lat="41.6629846394062042236328125" lon="-0.8837826736271381378173828125">
        <ele>407.79998779296875</ele>
        <time>2021-04-01T10:54:03.000Z</time>
      </trkpt>
      <trkpt lat="41.66314666159451007843017578125" lon="-0.88370648212730884552001953125">
        <ele>407.600006103515625</ele>
        <time>2021-04-01T10:54:06.000Z</time>
      </trkpt>
      <trkpt lat="41.66322536766529083251953125" lon="-0.88367613963782787322998046875">
        <ele>407.399993896484375</ele>
        <time>2021-04-01T10:54:08.000Z</time>
      </trkpt>
      <trkpt lat="41.66329376399517059326171875" lon="-0.88365979492664337158203125">
        <ele>407.20001220703125</ele>
        <time>2021-04-01T10:54:10.000Z</time>
      </trkpt>
      <trkpt lat="41.663399375975131988525390625" lon="-0.88359315879642963409423828125">
        <ele>406.600006103515625</ele>
        <time>2021-04-01T10:54:13.000Z</time>
      </trkpt>
      <trkpt lat="41.66342695243656635284423828125" lon="-0.88355091400444507598876953125">
        <ele>406.399993896484375</ele>
        <time>2021-04-01T10:54:14.000Z</time>
      </trkpt>
      <trkpt lat="41.6635199077427387237548828125" lon="-0.883464328944683074951171875">
        <ele>406.399993896484375</ele>
        <time>2021-04-01T10:54:18.000Z</time>
      </trkpt>
      <trkpt lat="41.66372769512236118316650390625" lon="-0.88346776552498340606689453125">
        <ele>407.399993896484375</ele>
        <time>2021-04-01T10:54:23.000Z</time>
      </trkpt>
      <trkpt lat="41.6637760587036609649658203125" lon="-0.88347279466688632965087890625">
        <ele>407.600006103515625</ele>
        <time>2021-04-01T10:54:24.000Z</time>
      </trkpt>
      <trkpt lat="41.66382509283721446990966796875" lon="-0.88348184712231159210205078125">
        <ele>407.600006103515625</ele>
        <time>2021-04-01T10:54:25.000Z</time>
      </trkpt>
      <trkpt lat="41.6640120930969715118408203125" lon="-0.88353641331195831298828125">
        <ele>407.600006103515625</ele>
        <time>2021-04-01T10:54:29.000Z</time>
      </trkpt>
      <trkpt lat="41.66411108337342739105224609375" lon="-0.88357253931462764739990234375">
        <ele>407.20001220703125</ele>
        <time>2021-04-01T10:54:31.000Z</time>
      </trkpt>
      <trkpt lat="41.664157770574092864990234375" lon="-0.88358896784484386444091796875">
        <ele>407</ele>
        <time>2021-04-01T10:54:32.000Z</time>
      </trkpt>
      <trkpt lat="41.66423195041716098785400390625" lon="-0.883631296455860137939453125">
        <ele>407.20001220703125</ele>
        <time>2021-04-01T10:54:34.000Z</time>
      </trkpt>
      <trkpt lat="41.664463542401790618896484375" lon="-0.88379566557705402374267578125">
        <ele>409</ele>
        <time>2021-04-01T10:54:40.000Z</time>
      </trkpt>
      <trkpt lat="41.66458046995103359222412109375" lon="-0.88389591313898563385009765625">
        <ele>409.20001220703125</ele>
        <time>2021-04-01T10:54:43.000Z</time>
      </trkpt>
      <trkpt lat="41.66469614021480083465576171875" lon="-0.8840113319456577301025390625">
        <ele>408.399993896484375</ele>
        <time>2021-04-01T10:54:46.000Z</time>
      </trkpt>
      <trkpt lat="41.6648140735924243927001953125" lon="-0.88411635719239711761474609375">
        <ele>407.79998779296875</ele>
        <time>2021-04-01T10:54:49.000Z</time>
      </trkpt>
      <trkpt lat="41.66500207968056201934814453125" lon="-0.8842748589813709259033203125">
        <ele>407.79998779296875</ele>
        <time>2021-04-01T10:54:54.000Z</time>
      </trkpt>
      <trkpt lat="41.66504331864416599273681640625" lon="-0.88430159725248813629150390625">
        <ele>407.79998779296875</ele>
        <time>2021-04-01T10:54:55.000Z</time>
      </trkpt>
      <trkpt lat="41.6651993058621883392333984375" lon="-0.8844307623803615570068359375">
        <ele>407.79998779296875</ele>
        <time>2021-04-01T10:54:59.000Z</time>
      </trkpt>
      <trkpt lat="41.6652791015803813934326171875" lon="-0.88447996415197849273681640625">
        <ele>407.600006103515625</ele>
        <time>2021-04-01T10:55:01.000Z</time>
      </trkpt>
      <trkpt lat="41.66540575213730335235595703125" lon="-0.88465179316699504852294921875">
        <ele>407.600006103515625</ele>
        <time>2021-04-01T10:55:05.000Z</time>
      </trkpt>
      <trkpt lat="41.66543525643646717071533203125" lon="-0.88481054641306400299072265625">
        <ele>407.600006103515625</ele>
        <time>2021-04-01T10:55:07.000Z</time>
      </trkpt>
      <trkpt lat="41.665473394095897674560546875" lon="-0.884836614131927490234375">
        <ele>407.399993896484375</ele>
        <time>2021-04-01T10:55:08.000Z</time>
      </trkpt>
      <trkpt lat="41.6655550338327884674072265625" lon="-0.88486419059336185455322265625">
        <ele>407.600006103515625</ele>
        <time>2021-04-01T10:55:10.000Z</time>
      </trkpt>
      <trkpt lat="41.66559166274964809417724609375" lon="-0.8848632685840129852294921875">
        <ele>407.79998779296875</ele>
        <time>2021-04-01T10:55:11.000Z</time>
      </trkpt>
      <trkpt lat="41.6656720452010631561279296875" lon="-0.8848015777766704559326171875">
        <ele>408.20001220703125</ele>
        <time>2021-04-01T10:55:15.000Z</time>
      </trkpt>
      <trkpt lat="41.66572493501007556915283203125" lon="-0.88480149395763874053955078125">
        <ele>408</ele>
        <time>2021-04-01T10:56:01.000Z</time>
      </trkpt>
      <trkpt lat="41.6657682694494724273681640625" lon="-0.88483393192291259765625">
        <ele>408.20001220703125</ele>
        <time>2021-04-01T10:56:03.000Z</time>
      </trkpt>
      <trkpt lat="41.66592610068619251251220703125" lon="-0.884974412620067596435546875">
        <ele>408.399993896484375</ele>
        <time>2021-04-01T10:56:09.000Z</time>
      </trkpt>
      <trkpt lat="41.6659858636558055877685546875" lon="-0.88502612896263599395751953125">
        <ele>408.79998779296875</ele>
        <time>2021-04-01T10:56:11.000Z</time>
      </trkpt>
      <trkpt lat="41.6661226563155651092529296875" lon="-0.8851405419409275054931640625">
        <ele>408.79998779296875</ele>
        <time>2021-04-01T10:56:15.000Z</time>
      </trkpt>
      <trkpt lat="41.6661523282527923583984375" lon="-0.885178260505199432373046875">
        <ele>408.399993896484375</ele>
        <time>2021-04-01T10:56:16.000Z</time>
      </trkpt>
      <trkpt lat="41.66617806069552898406982421875" lon="-0.88522193022072315216064453125">
        <ele>408.399993896484375</ele>
        <time>2021-04-01T10:56:17.000Z</time>
      </trkpt>
      <trkpt lat="41.66627730242908000946044921875" lon="-0.885399542748928070068359375">
        <ele>408.600006103515625</ele>
        <time>2021-04-01T10:56:21.000Z</time>
      </trkpt>
      <trkpt lat="41.66633748449385166168212890625" lon="-0.8854818530380725860595703125">
        <ele>409</ele>
        <time>2021-04-01T10:56:23.000Z</time>
      </trkpt>
      <trkpt lat="41.6664036177098751068115234375" lon="-0.8855509199202060699462890625">
        <ele>409.399993896484375</ele>
        <time>2021-04-01T10:56:25.000Z</time>
      </trkpt>
      <trkpt lat="41.6664398275315761566162109375" lon="-0.88558419607579708099365234375">
        <ele>409.600006103515625</ele>
        <time>2021-04-01T10:56:26.000Z</time>
      </trkpt>
      <trkpt lat="41.6664783842861652374267578125" lon="-0.88561219163239002227783203125">
        <ele>409.79998779296875</ele>
        <time>2021-04-01T10:56:27.000Z</time>
      </trkpt>
      <trkpt lat="41.6665568388998508453369140625" lon="-0.88567145168781280517578125">
        <ele>409.79998779296875</ele>
        <time>2021-04-01T10:56:29.000Z</time>
      </trkpt>
      <trkpt lat="41.6666369698941707611083984375" lon="-0.885727107524871826171875">
        <ele>409.79998779296875</ele>
        <time>2021-04-01T10:56:31.000Z</time>
      </trkpt>
      <trkpt lat="41.66671785525977611541748046875" lon="-0.88574814610183238983154296875">
        <ele>409.600006103515625</ele>
        <time>2021-04-01T10:56:33.000Z</time>
      </trkpt>
      <trkpt lat="41.66686118580400943756103515625" lon="-0.8858764730393886566162109375">
        <ele>409</ele>
        <time>2021-04-01T10:56:37.000Z</time>
      </trkpt>
      <trkpt lat="41.666896976530551910400390625" lon="-0.88591016829013824462890625">
        <ele>408.600006103515625</ele>
        <time>2021-04-01T10:56:38.000Z</time>
      </trkpt>
      <trkpt lat="41.66693276725709438323974609375" lon="-0.88602810166776180267333984375">
        <ele>408.399993896484375</ele>
        <time>2021-04-01T10:56:40.000Z</time>
      </trkpt>
      <trkpt lat="41.66695673950016498565673828125" lon="-0.886074118316173553466796875">
        <ele>408.20001220703125</ele>
        <time>2021-04-01T10:56:41.000Z</time>
      </trkpt>
      <trkpt lat="41.66703544557094573974609375" lon="-0.8862085640430450439453125">
        <ele>408</ele>
        <time>2021-04-01T10:56:44.000Z</time>
      </trkpt>
      <trkpt lat="41.66706771589815616607666015625" lon="-0.8862459473311901092529296875">
        <ele>407.79998779296875</ele>
        <time>2021-04-01T10:56:45.000Z</time>
      </trkpt>
      <trkpt lat="41.66711532510817050933837890625" lon="-0.8863388188183307647705078125">
        <ele>407.79998779296875</ele>
        <time>2021-04-01T10:56:47.000Z</time>
      </trkpt>
      <trkpt lat="41.6671331785619258880615234375" lon="-0.886389948427677154541015625">
        <ele>408</ele>
        <time>2021-04-01T10:56:48.000Z</time>
      </trkpt>
      <trkpt lat="41.66717232204973697662353515625" lon="-0.8864752762019634246826171875">
        <ele>408.20001220703125</ele>
        <time>2021-04-01T10:56:50.000Z</time>
      </trkpt>
      <trkpt lat="41.667200066149234771728515625" lon="-0.88651140220463275909423828125">
        <ele>408.399993896484375</ele>
        <time>2021-04-01T10:56:51.000Z</time>
      </trkpt>
      <trkpt lat="41.66722680442035198211669921875" lon="-0.88654845021665096282958984375">
        <ele>408.79998779296875</ele>
        <time>2021-04-01T10:56:52.000Z</time>
      </trkpt>
      <trkpt lat="41.6673172451555728912353515625" lon="-0.88665540330111980438232421875">
        <ele>409.20001220703125</ele>
        <time>2021-04-01T10:56:55.000Z</time>
      </trkpt>
      <trkpt lat="41.66737818159162998199462890625" lon="-0.8867337740957736968994140625">
        <ele>409.399993896484375</ele>
        <time>2021-04-01T10:56:58.000Z</time>
      </trkpt>
      <trkpt lat="41.66738555766642093658447265625" lon="-0.88676068000495433807373046875">
        <ele>409.399993896484375</ele>
        <time>2021-04-01T10:56:59.000Z</time>
      </trkpt>
      <trkpt lat="41.6673946939408779144287109375" lon="-0.886805690824985504150390625">
        <ele>409.399993896484375</ele>
        <time>2021-04-01T10:57:01.000Z</time>
      </trkpt>
      <trkpt lat="41.66743509471416473388671875" lon="-0.886845923960208892822265625">
        <ele>409.600006103515625</ele>
        <time>2021-04-01T10:57:04.000Z</time>
      </trkpt>
      <trkpt lat="41.6674530319869518280029296875" lon="-0.88685489259660243988037109375">
        <ele>409.600006103515625</ele>
        <time>2021-04-01T10:57:05.000Z</time>
      </trkpt>
      <trkpt lat="41.6675197519361972808837890625" lon="-0.88687199167907238006591796875">
        <ele>409.399993896484375</ele>
        <time>2021-04-01T10:57:12.000Z</time>
      </trkpt>
      <trkpt lat="41.66756828315556049346923828125" lon="-0.8868866600096225738525390625">
        <ele>409.20001220703125</ele>
        <time>2021-04-01T10:57:18.000Z</time>
      </trkpt>
      <trkpt lat="41.66757549159228801727294921875" lon="-0.8868987299501895904541015625">
        <ele>409.20001220703125</ele>
        <time>2021-04-01T10:57:19.000Z</time>
      </trkpt>
      <trkpt lat="41.66760533116757869720458984375" lon="-0.88693737052381038665771484375">
        <ele>409.20001220703125</ele>
        <time>2021-04-01T10:57:21.000Z</time>
      </trkpt>
      <trkpt lat="41.66765377856791019439697265625" lon="-0.8869859017431735992431640625">
        <ele>409.20001220703125</ele>
        <time>2021-04-01T10:57:23.000Z</time>
      </trkpt>
      <trkpt lat="41.66779928840696811676025390625" lon="-0.88715479709208011627197265625">
        <ele>409.20001220703125</ele>
        <time>2021-04-01T10:57:28.000Z</time>
      </trkpt>
      <trkpt lat="41.6680109314620494842529296875" lon="-0.88730625808238983154296875">
        <ele>409</ele>
        <time>2021-04-01T10:57:33.000Z</time>
      </trkpt>
      <trkpt lat="41.6680488176643848419189453125" lon="-0.88734087534248828887939453125">
        <ele>409</ele>
        <time>2021-04-01T10:57:34.000Z</time>
      </trkpt>
      <trkpt lat="41.6681014560163021087646484375" lon="-0.8873758278787136077880859375">
        <ele>408.79998779296875</ele>
        <time>2021-04-01T10:57:35.000Z</time>
      </trkpt>
      <trkpt lat="41.66824000887572765350341796875" lon="-0.88749158196151256561279296875">
        <ele>408.399993896484375</ele>
        <time>2021-04-01T10:57:38.000Z</time>
      </trkpt>
      <trkpt lat="41.66850663721561431884765625" lon="-0.887672044336795806884765625">
        <ele>409.399993896484375</ele>
        <time>2021-04-01T10:57:44.000Z</time>
      </trkpt>
      <trkpt lat="41.66852968744933605194091796875" lon="-0.88770054280757904052734375">
        <ele>409.399993896484375</ele>
        <time>2021-04-01T10:57:45.000Z</time>
      </trkpt>
      <trkpt lat="41.66860177181661128997802734375" lon="-0.88780053891241550445556640625">
        <ele>409.399993896484375</ele>
        <time>2021-04-01T10:57:48.000Z</time>
      </trkpt>
      <trkpt lat="41.66864602826535701751708984375" lon="-0.88782920502126216888427734375">
        <ele>409.399993896484375</ele>
        <time>2021-04-01T10:57:49.000Z</time>
      </trkpt>
      <trkpt lat="41.66870201937854290008544921875" lon="-0.88791788555681705474853515625">
        <ele>409</ele>
        <time>2021-04-01T10:57:53.000Z</time>
      </trkpt>
      <trkpt lat="41.66874627582728862762451171875" lon="-0.8879380859434604644775390625">
        <ele>409</ele>
        <time>2021-04-01T10:57:54.000Z</time>
      </trkpt>
      <trkpt lat="41.66885306127369403839111328125" lon="-0.88812030851840972900390625">
        <ele>409</ele>
        <time>2021-04-01T10:57:58.000Z</time>
      </trkpt>
      <trkpt lat="41.6690496169030666351318359375" lon="-0.88830445893108844757080078125">
        <ele>409.20001220703125</ele>
        <time>2021-04-01T10:58:04.000Z</time>
      </trkpt>
      <trkpt lat="41.66914592497050762176513671875" lon="-0.8884643018245697021484375">
        <ele>409.600006103515625</ele>
        <time>2021-04-01T10:58:09.000Z</time>
      </trkpt>
      <trkpt lat="41.669260673224925994873046875" lon="-0.88845533318817615509033203125">
        <ele>409.399993896484375</ele>
        <time>2021-04-01T10:58:12.000Z</time>
      </trkpt>
      <trkpt lat="41.66938732378184795379638671875" lon="-0.88847695849835872650146484375">
        <ele>409.20001220703125</ele>
        <time>2021-04-01T10:58:15.000Z</time>
      </trkpt>
      <trkpt lat="41.6694298200309276580810546875" lon="-0.8885097317397594451904296875">
        <ele>409</ele>
        <time>2021-04-01T10:58:16.000Z</time>
      </trkpt>
      <trkpt lat="41.669477932155132293701171875" lon="-0.8885311894118785858154296875">
        <ele>409.20001220703125</ele>
        <time>2021-04-01T10:58:18.000Z</time>
      </trkpt>
      <trkpt lat="41.6698935069143772125244140625" lon="-0.888583324849605560302734375">
        <ele>409.20001220703125</ele>
        <time>2021-04-01T10:58:22.000Z</time>
      </trkpt>
      <trkpt lat="41.66994941420853137969970703125" lon="-0.8885930478572845458984375">
        <ele>409.20001220703125</ele>
        <time>2021-04-01T10:58:23.000Z</time>
      </trkpt>
      <trkpt lat="41.6700457222759723663330078125" lon="-0.8885828219354152679443359375">
        <ele>409</ele>
        <time>2021-04-01T10:58:25.000Z</time>
      </trkpt>
      <trkpt lat="41.67002250440418720245361328125" lon="-0.8885171078145503997802734375">
        <ele>408.79998779296875</ele>
        <time>2021-04-01T10:58:26.000Z</time>
      </trkpt>
      <trkpt lat="41.67001881636679172515869140625" lon="-0.88847578503191471099853515625">
        <ele>408.79998779296875</ele>
        <time>2021-04-01T10:58:27.000Z</time>
      </trkpt>
      <trkpt lat="41.67003625072538852691650390625" lon="-0.88846069760620594024658203125">
        <ele>408.79998779296875</ele>
        <time>2021-04-01T10:58:28.000Z</time>
      </trkpt>
      <trkpt lat="41.6700522601604461669921875" lon="-0.8884523995220661163330078125">
        <ele>408.600006103515625</ele>
        <time>2021-04-01T10:58:29.000Z</time>
      </trkpt>
      <trkpt lat="41.67013096623122692108154296875" lon="-0.888455919921398162841796875">
        <ele>408</ele>
        <time>2021-04-01T10:58:33.000Z</time>
      </trkpt>
      <trkpt lat="41.67017321102321147918701171875" lon="-0.88842096738517284393310546875">
        <ele>408</ele>
        <time>2021-04-01T10:58:34.000Z</time>
      </trkpt>
      <trkpt lat="41.6703072376549243927001953125" lon="-0.888429097831249237060546875">
        <ele>407.79998779296875</ele>
        <time>2021-04-01T10:58:38.000Z</time>
      </trkpt>
      <trkpt lat="41.6704514063894748687744140625" lon="-0.88843354023993015289306640625">
        <ele>408.20001220703125</ele>
        <time>2021-04-01T10:58:43.000Z</time>
      </trkpt>
      <trkpt lat="41.67053631506860256195068359375" lon="-0.88847033679485321044921875">
        <ele>408.600006103515625</ele>
        <time>2021-04-01T10:58:49.000Z</time>
      </trkpt>
      <trkpt lat="41.6706183739006519317626953125" lon="-0.88854300789535045623779296875">
        <ele>409</ele>
        <time>2021-04-01T10:58:54.000Z</time>
      </trkpt>
      <trkpt lat="41.67062046937644481658935546875" lon="-0.88855189271271228790283203125">
        <ele>408.79998779296875</ele>
        <time>2021-04-01T10:58:55.000Z</time>
      </trkpt>
      <trkpt lat="41.670621223747730255126953125" lon="-0.88855608366429805755615234375">
        <ele>409.20001220703125</ele>
        <time>2021-04-01T10:58:58.000Z</time>
      </trkpt>
    </trkseg>
  </trk>
</gpx>
